Wetterdaten: Dienstag, 19.03.2019
Datum Zeit Temp. A. Feuchte A. Luftdruck Regen Wind Richtung Richtung Sonnenschein ET UV Solar Taupunkt Windchill Windböen
19.03.2019 00:00 0,8 °C 84 % 1023,7 hPa 0,0 mm 2,3 km/h (1 Bft) S-SW 192 ° 0 min 0,000 mm 0,0 UV-I 0 W/m² -1,6 °C 0,8 °C 4,8 km/h (1 Bft)
19.03.2019 00:01 0,8 °C 84 % 1023,7 hPa 0,0 mm 2,9 km/h (1 Bft) S-SW 192 ° 0 min 0,000 mm 0,0 UV-I 0 W/m² -1,6 °C 0,8 °C 4,8 km/h (1 Bft)
19.03.2019 00:02 0,8 °C 85 % 1023,7 hPa 0,0 mm 5,1 km/h (1 Bft) S-SW 194 ° 0 min 0,000 mm 0,0 UV-I 0 W/m² -1,4 °C -0,7 °C 6,4 km/h (2 Bft)
19.03.2019 00:03 0,8 °C 85 % 1023,7 hPa 0,0 mm 5,1 km/h (1 Bft) S-SW 205 ° 0 min 0,000 mm 0,0 UV-I 0 W/m² -1,4 °C -0,7 °C 6,4 km/h (2 Bft)
19.03.2019 00:04 0,8 °C 85 % 1023,7 hPa 0,0 mm 2,9 km/h (1 Bft) S-SW 196 ° 0 min 0,000 mm 0,0 UV-I 0 W/m² -1,4 °C 0,8 °C 6,4 km/h (2 Bft)
19.03.2019 00:05 0,8 °C 85 % 1023,7 hPa 0,0 mm 3,6 km/h (1 Bft) S-SW 196 ° 0 min 0,000 mm 0,0 UV-I 0 W/m² -1,4 °C 0,8 °C 4,8 km/h (1 Bft)
19.03.2019 00:06 0,9 °C 84 % 1023,7 hPa 0,0 mm 3,6 km/h (1 Bft) S 183 ° 0 min 0,000 mm 0,0 UV-I 0 W/m² -1,5 °C 0,9 °C 4,8 km/h (1 Bft)
19.03.2019 00:07 0,9 °C 84 % 1023,7 hPa 0,0 mm 2,4 km/h (1 Bft) W 263 ° 0 min 0,000 mm 0,0 UV-I 0 W/m² -1,5 °C 0,9 °C 4,8 km/h (1 Bft)
19.03.2019 00:08 0,9 °C 84 % 1023,7 hPa 0,0 mm 3,5 km/h (1 Bft) W 263 ° 0 min 0,000 mm 0,0 UV-I 0 W/m² -1,5 °C 0,9 °C 4,8 km/h (1 Bft)
19.03.2019 00:09 0,9 °C 84 % 1023,7 hPa 0,0 mm 3,2 km/h (1 Bft) W 263 ° 0 min 0,000 mm 0,0 UV-I 0 W/m² -1,5 °C 0,9 °C 4,8 km/h (1 Bft)
19.03.2019 00:10 0,9 °C 84 % 1023,7 hPa 0,0 mm 3,7 km/h (1 Bft) W 263 ° 0 min 0,000 mm 0,0 UV-I 0 W/m² -1,5 °C 0,9 °C 4,8 km/h (1 Bft)
19.03.2019 00:11 0,9 °C 84 % 1023,7 hPa 0,0 mm 2,4 km/h (1 Bft) W 263 ° 0 min 0,000 mm 0,0 UV-I 0 W/m² -1,5 °C 0,9 °C 4,8 km/h (1 Bft)
19.03.2019 00:12 0,9 °C 84 % 1023,7 hPa 0,0 mm 4,1 km/h (1 Bft) S-SW 211 ° 0 min 0,000 mm 0,0 UV-I 0 W/m² -1,5 °C 0,9 °C 6,4 km/h (2 Bft)
19.03.2019 00:13 0,9 °C 84 % 1023,7 hPa 0,0 mm 3,5 km/h (1 Bft) S-SW 213 ° 0 min 0,000 mm 0,0 UV-I 0 W/m² -1,5 °C 0,9 °C 4,8 km/h (1 Bft)
19.03.2019 00:14 0,9 °C 84 % 1023,7 hPa 0,0 mm 3,4 km/h (1 Bft) S-SW 213 ° 0 min 0,000 mm 0,0 UV-I 0 W/m² -1,5 °C 0,9 °C 4,8 km/h (1 Bft)
19.03.2019 00:15 0,9 °C 84 % 1023,7 hPa 0,0 mm 0,9 km/h (0 Bft) S-SW 213 ° 0 min 0,000 mm 0,0 UV-I 0 W/m² -1,5 °C 0,9 °C 1,6 km/h (1 Bft)
19.03.2019 00:16 0,9 °C 84 % 1023,7 hPa 0,0 mm 1,1 km/h (1 Bft) S-SW 213 ° 0 min 0,000 mm 0,0 UV-I 0 W/m² -1,5 °C 0,9 °C 3,2 km/h (1 Bft)
19.03.2019 00:17 0,9 °C 84 % 1023,7 hPa 0,0 mm 2,3 km/h (1 Bft) S-SW 213 ° 0 min 0,000 mm 0,0 UV-I 0 W/m² -1,5 °C 0,9 °C 4,8 km/h (1 Bft)
19.03.2019 00:18 0,9 °C 84 % 1023,6 hPa 0,0 mm 1,6 km/h (1 Bft) S-SW 213 ° 0 min 0,000 mm 0,0 UV-I 0 W/m² -1,5 °C 0,9 °C 3,2 km/h (1 Bft)
19.03.2019 00:19 0,9 °C 84 % 1023,7 hPa 0,0 mm 3,4 km/h (1 Bft) SW 214 ° 0 min 0,000 mm 0,0 UV-I 0 W/m² -1,5 °C 0,9 °C 4,8 km/h (1 Bft)
19.03.2019 00:20 0,9 °C 84 % 1023,7 hPa 0,0 mm 3,5 km/h (1 Bft) SW 214 ° 0 min 0,000 mm 0,0 UV-I 0 W/m² -1,5 °C 0,9 °C 4,8 km/h (1 Bft)
19.03.2019 00:21 0,9 °C 84 % 1023,7 hPa 0,0 mm 2,7 km/h (1 Bft) SW 215 ° 0 min 0,000 mm 0,0 UV-I 0 W/m² -1,5 °C 0,9 °C 3,2 km/h (1 Bft)
19.03.2019 00:22 0,9 °C 84 % 1023,7 hPa 0,0 mm 2,5 km/h (1 Bft) SW 215 ° 0 min 0,000 mm 0,0 UV-I 0 W/m² -1,5 °C 0,9 °C 3,2 km/h (1 Bft)
19.03.2019 00:23 0,9 °C 84 % 1023,7 hPa 0,0 mm 2,6 km/h (1 Bft) SW 215 ° 0 min 0,000 mm 0,0 UV-I 0 W/m² -1,5 °C 0,9 °C 4,8 km/h (1 Bft)
19.03.2019 00:24 0,9 °C 84 % 1023,7 hPa 0,0 mm 3,6 km/h (1 Bft) SW 214 ° 0 min 0,000 mm 0,0 UV-I 0 W/m² -1,5 °C 0,9 °C 4,8 km/h (1 Bft)
19.03.2019 00:25 0,9 °C 84 % 1023,7 hPa 0,0 mm 2,3 km/h (1 Bft) SW 214 ° 0 min 0,000 mm 0,0 UV-I 0 W/m² -1,5 °C 0,9 °C 4,8 km/h (1 Bft)
19.03.2019 00:26 0,9 °C 84 % 1023,7 hPa 0,0 mm 1,2 km/h (1 Bft) SW 214 ° 0 min 0,000 mm 0,0 UV-I 0 W/m² -1,5 °C 0,9 °C 4,8 km/h (1 Bft)
19.03.2019 00:27 0,9 °C 84 % 1023,7 hPa 0,0 mm 3,3 km/h (1 Bft) SW 225 ° 0 min 0,000 mm 0,0 UV-I 0 W/m² -1,5 °C 0,9 °C 4,8 km/h (1 Bft)
19.03.2019 00:28 0,9 °C 84 % 1023,7 hPa 0,0 mm 3,0 km/h (1 Bft) SW 225 ° 0 min 0,000 mm 0,0 UV-I 0 W/m² -1,5 °C 0,9 °C 4,8 km/h (1 Bft)
19.03.2019 00:29 0,9 °C 84 % 1023,7 hPa 0,0 mm 1,8 km/h (1 Bft) SW 225 ° 0 min 0,000 mm 0,0 UV-I 0 W/m² -1,5 °C 0,9 °C 4,8 km/h (1 Bft)
19.03.2019 00:30 0,9 °C 84 % 1023,7 hPa 0,0 mm 3,0 km/h (1 Bft) S-SW 207 ° 0 min 0,000 mm 0,0 UV-I 0 W/m² -1,5 °C 0,9 °C 4,8 km/h (1 Bft)
19.03.2019 00:31 0,9 °C 84 % 1023,7 hPa 0,0 mm 1,3 km/h (1 Bft) S-SW 207 ° 0 min 0,000 mm 0,0 UV-I 0 W/m² -1,5 °C 0,9 °C 3,2 km/h (1 Bft)
19.03.2019 00:32 0,9 °C 84 % 1023,7 hPa 0,0 mm 1,4 km/h (1 Bft) S-SW 207 ° 0 min 0,000 mm 0,0 UV-I 0 W/m² -1,5 °C 0,9 °C 3,2 km/h (1 Bft)
19.03.2019 00:33 0,9 °C 84 % 1023,7 hPa 0,0 mm 0,3 km/h (0 Bft) S-SW 207 ° 0 min 0,000 mm 0,0 UV-I 0 W/m² -1,5 °C 0,9 °C 3,2 km/h (1 Bft)
19.03.2019 00:34 0,9 °C 85 % 1023,7 hPa 0,0 mm 0,7 km/h (0 Bft) S-SW 207 ° 0 min 0,000 mm 0,0 UV-I 0 W/m² -1,3 °C 0,9 °C 1,6 km/h (1 Bft)
19.03.2019 00:35 0,8 °C 85 % 1023,7 hPa 0,0 mm 1,6 km/h (1 Bft) S-SW 207 ° 0 min 0,000 mm 0,0 UV-I 0 W/m² -1,4 °C 0,8 °C 3,2 km/h (1 Bft)
19.03.2019 00:36 0,8 °C 85 % 1023,7 hPa 0,0 mm 1,9 km/h (1 Bft) S-SW 207 ° 0 min 0,000 mm 0,0 UV-I 0 W/m² -1,4 °C 0,8 °C 3,2 km/h (1 Bft)
19.03.2019 00:37 0,8 °C 86 % 1023,7 hPa 0,0 mm 2,3 km/h (1 Bft) S-SW 207 ° 0 min 0,000 mm 0,0 UV-I 0 W/m² -1,3 °C 0,8 °C 3,2 km/h (1 Bft)
19.03.2019 00:38 0,8 °C 86 % 1023,7 hPa 0,0 mm 1,1 km/h (1 Bft) S-SW 207 ° 0 min 0,000 mm 0,0 UV-I 0 W/m² -1,3 °C 0,8 °C 3,2 km/h (1 Bft)
19.03.2019 00:39 0,7 °C 86 % 1023,7 hPa 0,0 mm 1,2 km/h (1 Bft) S-SW 207 ° 0 min 0,000 mm 0,0 UV-I 0 W/m² -1,4 °C 0,7 °C 1,6 km/h (1 Bft)
19.03.2019 00:40 0,7 °C 86 % 1023,7 hPa 0,0 mm 0,1 km/h (0 Bft) S-SW 207 ° 0 min 0,000 mm 0,0 UV-I 0 W/m² -1,4 °C 0,7 °C 1,6 km/h (1 Bft)
19.03.2019 00:41 0,7 °C 86 % 1023,7 hPa 0,0 mm 0,0 km/h (0 Bft) S-SW 207 ° 0 min 0,000 mm 0,0 UV-I 0 W/m² -1,4 °C 0,7 °C 0,0 km/h (0 Bft)
19.03.2019 00:42 0,7 °C 86 % 1023,7 hPa 0,0 mm 0,0 km/h (0 Bft) S-SW 207 ° 0 min 0,000 mm 0,0 UV-I 0 W/m² -1,4 °C 0,7 °C 0,0 km/h (0 Bft)
19.03.2019 00:43 0,7 °C 86 % 1023,7 hPa 0,0 mm 0,3 km/h (0 Bft) S-SW 207 ° 0 min 0,000 mm 0,0 UV-I 0 W/m² -1,4 °C 0,7 °C 1,6 km/h (1 Bft)
19.03.2019 00:44 0,7 °C 87 % 1023,7 hPa 0,0 mm 0,0 km/h (0 Bft) S-SW 207 ° 0 min 0,000 mm 0,0 UV-I 0 W/m² -1,2 °C 0,7 °C 0,0 km/h (0 Bft)
19.03.2019 00:45 0,6 °C 87 % 1023,7 hPa 0,0 mm 0,0 km/h (0 Bft) S-SW 207 ° 0 min 0,000 mm 0,0 UV-I 0 W/m² -1,3 °C 0,6 °C 0,0 km/h (0 Bft)
19.03.2019 00:46 0,6 °C 87 % 1023,7 hPa 0,0 mm 0,0 km/h (0 Bft) S-SW 207 ° 0 min 0,000 mm 0,0 UV-I 0 W/m² -1,3 °C 0,6 °C 0,0 km/h (0 Bft)
19.03.2019 00:47 0,6 °C 87 % 1023,8 hPa 0,0 mm 0,0 km/h (0 Bft) S-SW 207 ° 0 min 0,000 mm 0,0 UV-I 0 W/m² -1,3 °C 0,6 °C 0,0 km/h (0 Bft)
19.03.2019 00:48 0,6 °C 87 % 1023,8 hPa 0,0 mm 0,0 km/h (0 Bft) S-SW 207 ° 0 min 0,000 mm 0,0 UV-I 0 W/m² -1,3 °C 0,6 °C 0,0 km/h (0 Bft)
19.03.2019 00:49 0,6 °C 87 % 1023,7 hPa 0,0 mm 0,0 km/h (0 Bft) S-SW 207 ° 0 min 0,000 mm 0,0 UV-I 0 W/m² -1,3 °C 0,6 °C 0,0 km/h (0 Bft)
19.03.2019 00:50 0,6 °C 87 % 1023,7 hPa 0,0 mm 0,0 km/h (0 Bft) S-SW 207 ° 0 min 0,000 mm 0,0 UV-I 0 W/m² -1,3 °C 0,6 °C 0,0 km/h (0 Bft)
19.03.2019 00:51 0,6 °C 87 % 1023,7 hPa 0,0 mm 0,9 km/h (0 Bft) S-SW 207 ° 0 min 0,000 mm 0,0 UV-I 0 W/m² -1,3 °C 0,6 °C 3,2 km/h (1 Bft)
19.03.2019 00:52 0,6 °C 87 % 1023,8 hPa 0,0 mm 2,5 km/h (1 Bft) S-SW 207 ° 0 min 0,000 mm 0,0 UV-I 0 W/m² -1,3 °C 0,6 °C 3,2 km/h (1 Bft)
19.03.2019 00:53 0,5 °C 87 % 1023,8 hPa 0,0 mm 0,7 km/h (0 Bft) S-SW 207 ° 0 min 0,000 mm 0,0 UV-I 0 W/m² -1,4 °C 0,5 °C 1,6 km/h (1 Bft)
19.03.2019 00:54 0,6 °C 87 % 1023,7 hPa 0,0 mm 0,5 km/h (0 Bft) S-SW 207 ° 0 min 0,000 mm 0,0 UV-I 0 W/m² -1,3 °C 0,6 °C 1,6 km/h (1 Bft)
19.03.2019 00:55 0,5 °C 87 % 1023,8 hPa 0,0 mm 0,1 km/h (0 Bft) S-SW 207 ° 0 min 0,000 mm 0,0 UV-I 0 W/m² -1,4 °C 0,5 °C 1,6 km/h (1 Bft)
19.03.2019 00:56 0,6 °C 88 % 1023,8 hPa 0,0 mm 0,0 km/h (0 Bft) S-SW 207 ° 0 min 0,000 mm 0,0 UV-I 0 W/m² -1,2 °C 0,6 °C 0,0 km/h (0 Bft)
19.03.2019 00:57 0,5 °C 88 % 1023,8 hPa 0,0 mm 0,0 km/h (0 Bft) S-SW 207 ° 0 min 0,000 mm 0,0 UV-I 0 W/m² -1,3 °C 0,5 °C 0,0 km/h (0 Bft)
19.03.2019 00:58 0,5 °C 88 % 1023,8 hPa 0,0 mm 0,0 km/h (0 Bft) S-SW 207 ° 0 min 0,000 mm 0,0 UV-I 0 W/m² -1,3 °C 0,5 °C 0,0 km/h (0 Bft)
19.03.2019 00:59 0,5 °C 88 % 1023,8 hPa 0,0 mm 0,0 km/h (0 Bft) S-SW 207 ° 0 min 0,000 mm 0,0 UV-I 0 W/m² -1,3 °C 0,5 °C 0,0 km/h (0 Bft)
19.03.2019 01:00 0,5 °C 88 % 1023,8 hPa 0,0 mm 0,0 km/h (0 Bft) S-SW 207 ° 0 min 0,000 mm 0,0 UV-I 0 W/m² -1,3 °C 0,5 °C 0,0 km/h (0 Bft)
19.03.2019 01:01 0,4 °C 88 % 1023,8 hPa 0,0 mm 0,0 km/h (0 Bft) S-SW 207 ° 0 min 0,000 mm 0,0 UV-I 0 W/m² -1,3 °C 0,4 °C 0,0 km/h (0 Bft)
19.03.2019 01:02 0,4 °C 88 % 1023,8 hPa 0,0 mm 0,0 km/h (0 Bft) S-SW 207 ° 0 min 0,000 mm 0,0 UV-I 0 W/m² -1,3 °C 0,4 °C 0,0 km/h (0 Bft)
19.03.2019 01:03 0,4 °C 88 % 1023,8 hPa 0,0 mm 0,0 km/h (0 Bft) S-SW 207 ° 0 min 0,000 mm 0,0 UV-I 0 W/m² -1,3 °C 0,4 °C 0,0 km/h (0 Bft)
19.03.2019 01:04 0,4 °C 88 % 1023,8 hPa 0,0 mm 0,0 km/h (0 Bft) S-SW 207 ° 0 min 0,000 mm 0,0 UV-I 0 W/m² -1,3 °C 0,4 °C 0,0 km/h (0 Bft)
19.03.2019 01:05 0,4 °C 88 % 1023,8 hPa 0,0 mm 0,0 km/h (0 Bft) S-SW 207 ° 0 min 0,000 mm 0,0 UV-I 0 W/m² -1,3 °C 0,4 °C 0,0 km/h (0 Bft)
19.03.2019 01:06 0,4 °C 88 % 1023,8 hPa 0,0 mm 1,5 km/h (1 Bft) S-SW 213 ° 0 min 0,000 mm 0,0 UV-I 0 W/m² -1,3 °C 0,4 °C 3,2 km/h (1 Bft)
19.03.2019 01:07 0,4 °C 88 % 1023,8 hPa 0,0 mm 1,1 km/h (1 Bft) S-SW 213 ° 0 min 0,000 mm 0,0 UV-I 0 W/m² -1,3 °C 0,4 °C 3,2 km/h (1 Bft)
19.03.2019 01:08 0,4 °C 88 % 1023,8 hPa 0,0 mm 0,0 km/h (0 Bft) S-SW 213 ° 0 min 0,000 mm 0,0 UV-I 0 W/m² -1,3 °C 0,4 °C 0,0 km/h (0 Bft)
19.03.2019 01:09 0,3 °C 89 % 1023,8 hPa 0,0 mm 0,0 km/h (0 Bft) S-SW 213 ° 0 min 0,000 mm 0,0 UV-I 0 W/m² -1,3 °C 0,3 °C 0,0 km/h (0 Bft)
19.03.2019 01:10 0,3 °C 89 % 1023,8 hPa 0,0 mm 0,0 km/h (0 Bft) S-SW 213 ° 0 min 0,000 mm 0,0 UV-I 0 W/m² -1,3 °C 0,3 °C 0,0 km/h (0 Bft)
19.03.2019 01:11 0,3 °C 89 % 1023,8 hPa 0,0 mm 0,0 km/h (0 Bft) S-SW 213 ° 0 min 0,000 mm 0,0 UV-I 0 W/m² -1,3 °C 0,3 °C 0,0 km/h (0 Bft)
19.03.2019 01:12 0,3 °C 89 % 1023,9 hPa 0,0 mm 0,0 km/h (0 Bft) S-SW 213 ° 0 min 0,000 mm 0,0 UV-I 0 W/m² -1,3 °C 0,3 °C 0,0 km/h (0 Bft)
19.03.2019 01:13 0,3 °C 89 % 1023,8 hPa 0,0 mm 0,0 km/h (0 Bft) S-SW 213 ° 0 min 0,000 mm 0,0 UV-I 0 W/m² -1,3 °C 0,3 °C 0,0 km/h (0 Bft)
19.03.2019 01:14 0,3 °C 89 % 1023,9 hPa 0,0 mm 0,0 km/h (0 Bft) S-SW 213 ° 0 min 0,000 mm 0,0 UV-I 0 W/m² -1,3 °C 0,3 °C 0,0 km/h (0 Bft)
19.03.2019 01:15 0,4 °C 89 % 1023,8 hPa 0,0 mm 0,3 km/h (0 Bft) S-SW 213 ° 0 min 0,000 mm 0,0 UV-I 0 W/m² -1,2 °C 0,4 °C 1,6 km/h (1 Bft)
19.03.2019 01:16 0,4 °C 89 % 1023,8 hPa 0,0 mm 2,1 km/h (1 Bft) S-SW 213 ° 0 min 0,000 mm 0,0 UV-I 0 W/m² -1,2 °C 0,4 °C 3,2 km/h (1 Bft)
19.03.2019 01:17 0,4 °C 88 % 1023,8 hPa 0,0 mm 0,5 km/h (0 Bft) S-SW 213 ° 0 min 0,000 mm 0,0 UV-I 0 W/m² -1,3 °C 0,4 °C 1,6 km/h (1 Bft)
19.03.2019 01:18 0,6 °C 88 % 1023,8 hPa 0,0 mm 0,7 km/h (0 Bft) S-SW 213 ° 0 min 0,000 mm 0,0 UV-I 0 W/m² -1,2 °C 0,6 °C 3,2 km/h (1 Bft)
19.03.2019 01:19 0,6 °C 88 % 1023,8 hPa 0,0 mm 3,2 km/h (1 Bft) S-SW 213 ° 0 min 0,000 mm 0,0 UV-I 0 W/m² -1,2 °C 0,6 °C 3,2 km/h (1 Bft)
19.03.2019 01:20 0,6 °C 88 % 1023,8 hPa 0,0 mm 4,4 km/h (1 Bft) S-SW 213 ° 0 min 0,000 mm 0,0 UV-I 0 W/m² -1,2 °C 0,6 °C 4,8 km/h (1 Bft)
19.03.2019 01:21 0,7 °C 87 % 1023,8 hPa 0,0 mm 3,6 km/h (1 Bft) S-SW 213 ° 0 min 0,000 mm 0,0 UV-I 0 W/m² -1,2 °C 0,7 °C 4,8 km/h (1 Bft)
19.03.2019 01:22 0,7 °C 88 % 1023,8 hPa 0,0 mm 3,0 km/h (1 Bft) S-SW 213 ° 0 min 0,000 mm 0,0 UV-I 0 W/m² -1,1 °C 0,7 °C 4,8 km/h (1 Bft)
19.03.2019 01:23 0,7 °C 87 % 1023,9 hPa 0,0 mm 2,4 km/h (1 Bft) S-SW 213 ° 0 min 0,000 mm 0,0 UV-I 0 W/m² -1,2 °C 0,7 °C 4,8 km/h (1 Bft)
19.03.2019 01:24 0,7 °C 87 % 1023,9 hPa 0,0 mm 3,1 km/h (1 Bft) S-SW 213 ° 0 min 0,000 mm 0,0 UV-I 0 W/m² -1,2 °C 0,7 °C 4,8 km/h (1 Bft)
19.03.2019 01:25 0,7 °C 87 % 1023,9 hPa 0,0 mm 4,1 km/h (1 Bft) S-SW 213 ° 0 min 0,000 mm 0,0 UV-I 0 W/m² -1,2 °C 0,7 °C 6,4 km/h (2 Bft)
19.03.2019 01:26 0,7 °C 87 % 1023,9 hPa 0,0 mm 2,8 km/h (1 Bft) S-SW 213 ° 0 min 0,000 mm 0,0 UV-I 0 W/m² -1,2 °C 0,7 °C 4,8 km/h (1 Bft)
19.03.2019 01:27 0,7 °C 87 % 1023,9 hPa 0,0 mm 2,2 km/h (1 Bft) S-SW 213 ° 0 min 0,000 mm 0,0 UV-I 0 W/m² -1,2 °C 0,7 °C 3,2 km/h (1 Bft)
19.03.2019 01:28 0,7 °C 87 % 1023,9 hPa 0,0 mm 1,7 km/h (1 Bft) SW 218 ° 0 min 0,000 mm 0,0 UV-I 0 W/m² -1,2 °C 0,7 °C 3,2 km/h (1 Bft)
19.03.2019 01:29 0,7 °C 87 % 1023,9 hPa 0,0 mm 1,3 km/h (1 Bft) SW 218 ° 0 min 0,000 mm 0,0 UV-I 0 W/m² -1,2 °C 0,7 °C 3,2 km/h (1 Bft)
19.03.2019 01:30 0,7 °C 87 % 1023,9 hPa 0,0 mm 2,2 km/h (1 Bft) SW 218 ° 0 min 0,000 mm 0,0 UV-I 0 W/m² -1,2 °C 0,7 °C 3,2 km/h (1 Bft)
19.03.2019 01:31 0,7 °C 87 % 1023,9 hPa 0,0 mm 1,4 km/h (1 Bft) SW 218 ° 0 min 0,000 mm 0,0 UV-I 0 W/m² -1,2 °C 0,7 °C 3,2 km/h (1 Bft)
19.03.2019 01:32 0,7 °C 87 % 1023,9 hPa 0,0 mm 3,4 km/h (1 Bft) SW 217 ° 0 min 0,000 mm 0,0 UV-I 0 W/m² -1,2 °C 0,7 °C 4,8 km/h (1 Bft)
19.03.2019 01:33 0,7 °C 87 % 1023,9 hPa 0,0 mm 2,4 km/h (1 Bft) SW 217 ° 0 min 0,000 mm 0,0 UV-I 0 W/m² -1,2 °C 0,7 °C 3,2 km/h (1 Bft)
19.03.2019 01:34 0,7 °C 87 % 1023,9 hPa 0,0 mm 2,3 km/h (1 Bft) SW 217 ° 0 min 0,000 mm 0,0 UV-I 0 W/m² -1,2 °C 0,7 °C 3,2 km/h (1 Bft)
19.03.2019 01:35 0,7 °C 87 % 1023,9 hPa 0,0 mm 1,9 km/h (1 Bft) SW 217 ° 0 min 0,000 mm 0,0 UV-I 0 W/m² -1,2 °C 0,7 °C 4,8 km/h (1 Bft)
19.03.2019 01:36 0,6 °C 87 % 1023,9 hPa 0,0 mm 1,3 km/h (1 Bft) SW 217 ° 0 min 0,000 mm 0,0 UV-I 0 W/m² -1,3 °C 0,6 °C 3,2 km/h (1 Bft)
19.03.2019 01:37 0,7 °C 87 % 1023,9 hPa 0,0 mm 0,6 km/h (0 Bft) SW 217 ° 0 min 0,000 mm 0,0 UV-I 0 W/m² -1,2 °C 0,7 °C 1,6 km/h (1 Bft)
19.03.2019 01:38 0,6 °C 87 % 1023,8 hPa 0,0 mm 1,3 km/h (1 Bft) SW 217 ° 0 min 0,000 mm 0,0 UV-I 0 W/m² -1,3 °C 0,6 °C 3,2 km/h (1 Bft)
19.03.2019 01:39 0,6 °C 87 % 1023,9 hPa 0,0 mm 3,8 km/h (1 Bft) W-SW 237 ° 0 min 0,000 mm 0,0 UV-I 0 W/m² -1,3 °C 0,6 °C 6,4 km/h (2 Bft)
19.03.2019 01:40 0,7 °C 87 % 1023,9 hPa 0,0 mm 3,0 km/h (1 Bft) W-SW 238 ° 0 min 0,000 mm 0,0 UV-I 0 W/m² -1,2 °C 0,7 °C 4,8 km/h (1 Bft)
19.03.2019 01:41 0,7 °C 87 % 1023,8 hPa 0,0 mm 3,1 km/h (1 Bft) W-SW 255 ° 0 min 0,000 mm 0,0 UV-I 0 W/m² -1,2 °C 0,7 °C 4,8 km/h (1 Bft)
19.03.2019 01:42 0,7 °C 87 % 1023,8 hPa 0,0 mm 2,1 km/h (1 Bft) W-SW 255 ° 0 min 0,000 mm 0,0 UV-I 0 W/m² -1,2 °C 0,7 °C 3,2 km/h (1 Bft)
19.03.2019 01:43 0,7 °C 87 % 1023,9 hPa 0,0 mm 4,1 km/h (1 Bft) W-SW 252 ° 0 min 0,000 mm 0,0 UV-I 0 W/m² -1,2 °C 0,7 °C 8,0 km/h (2 Bft)
19.03.2019 01:44 0,7 °C 87 % 1023,9 hPa 0,0 mm 2,1 km/h (1 Bft) W-SW 252 ° 0 min 0,000 mm 0,0 UV-I 0 W/m² -1,2 °C 0,7 °C 3,2 km/h (1 Bft)
19.03.2019 01:45 0,6 °C 87 % 1023,9 hPa 0,0 mm 1,0 km/h (0 Bft) W-SW 252 ° 0 min 0,000 mm 0,0 UV-I 0 W/m² -1,3 °C 0,6 °C 3,2 km/h (1 Bft)
19.03.2019 01:46 0,7 °C 87 % 1023,8 hPa 0,0 mm 1,6 km/h (1 Bft) W-SW 252 ° 0 min 0,000 mm 0,0 UV-I 0 W/m² -1,2 °C 0,7 °C 3,2 km/h (1 Bft)
19.03.2019 01:47 0,7 °C 87 % 1023,8 hPa 0,0 mm 3,8 km/h (1 Bft) SW 219 ° 0 min 0,000 mm 0,0 UV-I 0 W/m² -1,2 °C 0,7 °C 6,4 km/h (2 Bft)
19.03.2019 01:48 0,7 °C 87 % 1023,9 hPa 0,0 mm 2,7 km/h (1 Bft) SW 229 ° 0 min 0,000 mm 0,0 UV-I 0 W/m² -1,2 °C 0,7 °C 4,8 km/h (1 Bft)
19.03.2019 01:49 0,7 °C 87 % 1023,9 hPa 0,0 mm 4,2 km/h (1 Bft) W-SW 238 ° 0 min 0,000 mm 0,0 UV-I 0 W/m² -1,2 °C 0,7 °C 6,4 km/h (2 Bft)
19.03.2019 01:50 0,7 °C 87 % 1023,8 hPa 0,0 mm 4,8 km/h (1 Bft) W-SW 248 ° 0 min 0,000 mm 0,0 UV-I 0 W/m² -1,2 °C -0,7 °C 6,4 km/h (2 Bft)
19.03.2019 01:51 0,6 °C 87 % 1023,8 hPa 0,0 mm 4,4 km/h (1 Bft) SW 219 ° 0 min 0,000 mm 0,0 UV-I 0 W/m² -1,3 °C 0,6 °C 6,4 km/h (2 Bft)
19.03.2019 01:52 0,7 °C 87 % 1023,8 hPa 0,0 mm 4,3 km/h (1 Bft) SW 235 ° 0 min 0,000 mm 0,0 UV-I 0 W/m² -1,2 °C 0,7 °C 6,4 km/h (2 Bft)
19.03.2019 01:53 0,7 °C 87 % 1023,8 hPa 0,0 mm 3,6 km/h (1 Bft) SW 236 ° 0 min 0,000 mm 0,0 UV-I 0 W/m² -1,2 °C 0,7 °C 6,4 km/h (2 Bft)
19.03.2019 01:54 0,6 °C 87 % 1023,8 hPa 0,0 mm 2,8 km/h (1 Bft) SW 234 ° 0 min 0,000 mm 0,0 UV-I 0 W/m² -1,3 °C 0,6 °C 4,8 km/h (1 Bft)
19.03.2019 01:55 0,6 °C 87 % 1023,8 hPa 0,0 mm 3,2 km/h (1 Bft) SW 234 ° 0 min 0,000 mm 0,0 UV-I 0 W/m² -1,3 °C 0,6 °C 6,4 km/h (2 Bft)
19.03.2019 01:56 0,6 °C 87 % 1023,8 hPa 0,0 mm 2,2 km/h (1 Bft) SW 234 ° 0 min 0,000 mm 0,0 UV-I 0 W/m² -1,3 °C 0,6 °C 3,2 km/h (1 Bft)
19.03.2019 01:57 0,6 °C 87 % 1023,8 hPa 0,0 mm 4,8 km/h (1 Bft) W-SW 247 ° 0 min 0,000 mm 0,0 UV-I 0 W/m² -1,3 °C -0,8 °C 6,4 km/h (2 Bft)
19.03.2019 01:58 0,6 °C 87 % 1023,7 hPa 0,0 mm 4,8 km/h (1 Bft) W-SW 257 ° 0 min 0,000 mm 0,0 UV-I 0 W/m² -1,3 °C -0,8 °C 6,4 km/h (2 Bft)
19.03.2019 01:59 0,6 °C 87 % 1023,7 hPa 0,0 mm 4,1 km/h (1 Bft) W-SW 246 ° 0 min 0,000 mm 0,0 UV-I 0 W/m² -1,3 °C 0,6 °C 6,4 km/h (2 Bft)
19.03.2019 02:00 0,6 °C 87 % 1023,8 hPa 0,0 mm 2,1 km/h (1 Bft) W-SW 247 ° 0 min 0,000 mm 0,0 UV-I 0 W/m² -1,3 °C 0,6 °C 3,2 km/h (1 Bft)
19.03.2019 02:01 0,6 °C 87 % 1023,8 hPa 0,0 mm 3,6 km/h (1 Bft) W-SW 249 ° 0 min 0,000 mm 0,0 UV-I 0 W/m² -1,3 °C 0,6 °C 4,8 km/h (1 Bft)
19.03.2019 02:02 0,6 °C 87 % 1023,8 hPa 0,0 mm 2,3 km/h (1 Bft) W-SW 239 ° 0 min 0,000 mm 0,0 UV-I 0 W/m² -1,3 °C 0,6 °C 4,8 km/h (1 Bft)
19.03.2019 02:03 0,6 °C 87 % 1023,8 hPa 0,0 mm 3,4 km/h (1 Bft) SW 221 ° 0 min 0,000 mm 0,0 UV-I 0 W/m² -1,3 °C 0,6 °C 6,4 km/h (2 Bft)
19.03.2019 02:04 0,5 °C 87 % 1023,8 hPa 0,0 mm 4,0 km/h (1 Bft) SW 230 ° 0 min 0,000 mm 0,0 UV-I 0 W/m² -1,4 °C 0,5 °C 4,8 km/h (1 Bft)
19.03.2019 02:05 0,6 °C 87 % 1023,8 hPa 0,0 mm 4,5 km/h (1 Bft) W-SW 237 ° 0 min 0,000 mm 0,0 UV-I 0 W/m² -1,3 °C 0,6 °C 6,4 km/h (2 Bft)
19.03.2019 02:06 0,6 °C 87 % 1023,8 hPa 0,0 mm 3,4 km/h (1 Bft) SW 233 ° 0 min 0,000 mm 0,0 UV-I 0 W/m² -1,3 °C 0,6 °C 4,8 km/h (1 Bft)
19.03.2019 02:07 0,5 °C 87 % 1023,8 hPa 0,0 mm 3,4 km/h (1 Bft) SW 234 ° 0 min 0,000 mm 0,0 UV-I 0 W/m² -1,4 °C 0,5 °C 4,8 km/h (1 Bft)
19.03.2019 02:08 0,5 °C 87 % 1023,8 hPa 0,0 mm 2,9 km/h (1 Bft) W-SW 238 ° 0 min 0,000 mm 0,0 UV-I 0 W/m² -1,4 °C 0,5 °C 6,4 km/h (2 Bft)
19.03.2019 02:09 0,6 °C 87 % 1023,8 hPa 0,0 mm 5,4 km/h (1 Bft) SW 227 ° 0 min 0,000 mm 0,0 UV-I 0 W/m² -1,3 °C -1,1 °C 9,7 km/h (2 Bft)
19.03.2019 02:10 0,6 °C 87 % 1023,8 hPa 0,0 mm 4,5 km/h (1 Bft) SW 222 ° 0 min 0,000 mm 0,0 UV-I 0 W/m² -1,3 °C 0,6 °C 4,8 km/h (1 Bft)
19.03.2019 02:11 0,5 °C 87 % 1023,8 hPa 0,0 mm 3,7 km/h (1 Bft) W-SW 239 ° 0 min 0,000 mm 0,0 UV-I 0 W/m² -1,4 °C 0,5 °C 6,4 km/h (2 Bft)
19.03.2019 02:12 0,6 °C 87 % 1023,8 hPa 0,0 mm 3,6 km/h (1 Bft) W-SW 241 ° 0 min 0,000 mm 0,0 UV-I 0 W/m² -1,3 °C 0,6 °C 4,8 km/h (1 Bft)
19.03.2019 02:13 0,6 °C 87 % 1023,9 hPa 0,0 mm 6,7 km/h (2 Bft) W-SW 240 ° 0 min 0,000 mm 0,0 UV-I 0 W/m² -1,3 °C -1,6 °C 11,3 km/h (2 Bft)
19.03.2019 02:14 0,6 °C 87 % 1023,8 hPa 0,0 mm 3,6 km/h (1 Bft) SW 217 ° 0 min 0,000 mm 0,0 UV-I 0 W/m² -1,3 °C 0,6 °C 4,8 km/h (1 Bft)
19.03.2019 02:15 0,6 °C 87 % 1023,8 hPa 0,0 mm 5,2 km/h (1 Bft) W-SW 253 ° 0 min 0,000 mm 0,0 UV-I 0 W/m² -1,3 °C -1,0 °C 6,4 km/h (2 Bft)
19.03.2019 02:16 0,6 °C 87 % 1023,8 hPa 0,0 mm 5,6 km/h (1 Bft) S-SW 201 ° 0 min 0,000 mm 0,0 UV-I 0 W/m² -1,3 °C -1,2 °C 6,4 km/h (2 Bft)
19.03.2019 02:17 0,6 °C 87 % 1023,8 hPa 0,0 mm 2,7 km/h (1 Bft) S-SW 202 ° 0 min 0,000 mm 0,0 UV-I 0 W/m² -1,3 °C 0,6 °C 4,8 km/h (1 Bft)
19.03.2019 02:18 0,6 °C 87 % 1023,8 hPa 0,0 mm 3,9 km/h (1 Bft) SW 231 ° 0 min 0,000 mm 0,0 UV-I 0 W/m² -1,3 °C 0,6 °C 6,4 km/h (2 Bft)
19.03.2019 02:19 0,6 °C 87 % 1023,8 hPa 0,0 mm 3,8 km/h (1 Bft) SW 234 ° 0 min 0,000 mm 0,0 UV-I 0 W/m² -1,3 °C 0,6 °C 6,4 km/h (2 Bft)
19.03.2019 02:20 0,6 °C 87 % 1023,8 hPa 0,0 mm 5,2 km/h (1 Bft) S-SW 208 ° 0 min 0,000 mm 0,0 UV-I 0 W/m² -1,3 °C -1,0 °C 8,0 km/h (2 Bft)
19.03.2019 02:21 0,6 °C 87 % 1023,9 hPa 0,0 mm 5,0 km/h (1 Bft) SW 219 ° 0 min 0,000 mm 0,0 UV-I 0 W/m² -1,3 °C -0,9 °C 6,4 km/h (2 Bft)
19.03.2019 02:22 0,6 °C 87 % 1023,8 hPa 0,0 mm 3,4 km/h (1 Bft) SW 219 ° 0 min 0,000 mm 0,0 UV-I 0 W/m² -1,3 °C 0,6 °C 4,8 km/h (1 Bft)
19.03.2019 02:23 0,6 °C 87 % 1023,8 hPa 0,0 mm 4,9 km/h (1 Bft) SW 223 ° 0 min 0,000 mm 0,0 UV-I 0 W/m² -1,3 °C -0,9 °C 8,0 km/h (2 Bft)
19.03.2019 02:24 0,6 °C 87 % 1023,8 hPa 0,0 mm 4,2 km/h (1 Bft) S-SW 202 ° 0 min 0,000 mm 0,0 UV-I 0 W/m² -1,3 °C 0,6 °C 6,4 km/h (2 Bft)
19.03.2019 02:25 0,6 °C 87 % 1023,8 hPa 0,0 mm 4,3 km/h (1 Bft) S-SW 205 ° 0 min 0,000 mm 0,0 UV-I 0 W/m² -1,3 °C 0,6 °C 6,4 km/h (2 Bft)
19.03.2019 02:26 0,6 °C 87 % 1023,8 hPa 0,0 mm 4,2 km/h (1 Bft) S-SW 206 ° 0 min 0,000 mm 0,0 UV-I 0 W/m² -1,3 °C 0,6 °C 6,4 km/h (2 Bft)
19.03.2019 02:27 0,6 °C 87 % 1023,7 hPa 0,0 mm 6,9 km/h (2 Bft) S-SW 203 ° 0 min 0,000 mm 0,0 UV-I 0 W/m² -1,3 °C -1,7 °C 9,7 km/h (2 Bft)
19.03.2019 02:28 0,6 °C 87 % 1023,7 hPa 0,0 mm 5,4 km/h (1 Bft) S-SW 205 ° 0 min 0,000 mm 0,0 UV-I 0 W/m² -1,3 °C -1,1 °C 6,4 km/h (2 Bft)
19.03.2019 02:29 0,6 °C 87 % 1023,7 hPa 0,0 mm 3,4 km/h (1 Bft) S-SW 207 ° 0 min 0,000 mm 0,0 UV-I 0 W/m² -1,3 °C 0,6 °C 6,4 km/h (2 Bft)
19.03.2019 02:30 0,6 °C 87 % 1023,7 hPa 0,0 mm 4,4 km/h (1 Bft) SW 223 ° 0 min 0,000 mm 0,0 UV-I 0 W/m² -1,3 °C 0,6 °C 9,7 km/h (2 Bft)
19.03.2019 02:31 0,6 °C 87 % 1023,7 hPa 0,0 mm 5,8 km/h (2 Bft) S-SW 211 ° 0 min 0,000 mm 0,0 UV-I 0 W/m² -1,3 °C -1,3 °C 8,0 km/h (2 Bft)
19.03.2019 02:32 0,6 °C 87 % 1023,7 hPa 0,0 mm 8,1 km/h (2 Bft) S-SW 207 ° 0 min 0,000 mm 0,0 UV-I 0 W/m² -1,3 °C -2,1 °C 11,3 km/h (2 Bft)
19.03.2019 02:33 0,6 °C 87 % 1023,7 hPa 0,0 mm 5,6 km/h (1 Bft) S-SW 200 ° 0 min 0,000 mm 0,0 UV-I 0 W/m² -1,3 °C -1,2 °C 8,0 km/h (2 Bft)
19.03.2019 02:34 0,6 °C 87 % 1023,7 hPa 0,0 mm 6,7 km/h (2 Bft) S 185 ° 0 min 0,000 mm 0,0 UV-I 0 W/m² -1,3 °C -1,6 °C 9,7 km/h (2 Bft)
19.03.2019 02:35 0,6 °C 87 % 1023,7 hPa 0,0 mm 3,4 km/h (1 Bft) S-SW 209 ° 0 min 0,000 mm 0,0 UV-I 0 W/m² -1,3 °C 0,6 °C 4,8 km/h (1 Bft)
19.03.2019 02:36 0,6 °C 87 % 1023,7 hPa 0,0 mm 5,5 km/h (1 Bft) SW 218 ° 0 min 0,000 mm 0,0 UV-I 0 W/m² -1,3 °C -1,1 °C 8,0 km/h (2 Bft)
19.03.2019 02:37 0,6 °C 87 % 1023,7 hPa 0,0 mm 4,7 km/h (1 Bft) S-SW 210 ° 0 min 0,000 mm 0,0 UV-I 0 W/m² -1,3 °C -0,8 °C 6,4 km/h (2 Bft)
19.03.2019 02:38 0,6 °C 87 % 1023,7 hPa 0,0 mm 5,2 km/h (1 Bft) S-SW 194 ° 0 min 0,000 mm 0,0 UV-I 0 W/m² -1,3 °C -1,0 °C 6,4 km/h (2 Bft)
19.03.2019 02:39 0,5 °C 87 % 1023,7 hPa 0,0 mm 4,0 km/h (1 Bft) S-SW 198 ° 0 min 0,000 mm 0,0 UV-I 0 W/m² -1,4 °C 0,5 °C 6,4 km/h (2 Bft)
19.03.2019 02:40 0,5 °C 87 % 1023,7 hPa 0,0 mm 4,3 km/h (1 Bft) S-SW 200 ° 0 min 0,000 mm 0,0 UV-I 0 W/m² -1,4 °C 0,5 °C 6,4 km/h (2 Bft)
19.03.2019 02:41 0,5 °C 87 % 1023,7 hPa 0,0 mm 5,1 km/h (1 Bft) S-SW 201 ° 0 min 0,000 mm 0,0 UV-I 0 W/m² -1,4 °C -1,1 °C 8,0 km/h (2 Bft)
19.03.2019 02:42 0,5 °C 87 % 1023,7 hPa 0,0 mm 5,6 km/h (1 Bft) S-SW 203 ° 0 min 0,000 mm 0,0 UV-I 0 W/m² -1,4 °C -1,3 °C 6,4 km/h (2 Bft)
19.03.2019 02:43 0,5 °C 87 % 1023,7 hPa 0,0 mm 5,7 km/h (1 Bft) S-SW 207 ° 0 min 0,000 mm 0,0 UV-I 0 W/m² -1,4 °C -1,3 °C 8,0 km/h (2 Bft)
19.03.2019 02:44 0,4 °C 87 % 1023,7 hPa 0,0 mm 5,1 km/h (1 Bft) S-SW 198 ° 0 min 0,000 mm 0,0 UV-I 0 W/m² -1,5 °C -1,2 °C 8,0 km/h (2 Bft)
19.03.2019 02:45 0,5 °C 87 % 1023,7 hPa 0,0 mm 6,6 km/h (2 Bft) SW 224 ° 0 min 0,000 mm 0,0 UV-I 0 W/m² -1,4 °C -1,7 °C 9,7 km/h (2 Bft)
19.03.2019 02:46 0,4 °C 87 % 1023,7 hPa 0,0 mm 4,1 km/h (1 Bft) S 181 ° 0 min 0,000 mm 0,0 UV-I 0 W/m² -1,5 °C 0,4 °C 4,8 km/h (1 Bft)
19.03.2019 02:47 0,5 °C 87 % 1023,7 hPa 0,0 mm 6,4 km/h (2 Bft) S-SW 196 ° 0 min 0,000 mm 0,0 UV-I 0 W/m² -1,4 °C -1,6 °C 8,0 km/h (2 Bft)
19.03.2019 02:48 0,5 °C 87 % 1023,7 hPa 0,0 mm 7,1 km/h (2 Bft) S-SW 196 ° 0 min 0,000 mm 0,0 UV-I 0 W/m² -1,4 °C -1,9 °C 9,7 km/h (2 Bft)
19.03.2019 02:49 0,5 °C 87 % 1023,7 hPa 0,0 mm 7,8 km/h (2 Bft) S-SW 197 ° 0 min 0,000 mm 0,0 UV-I 0 W/m² -1,4 °C -2,1 °C 11,3 km/h (2 Bft)
19.03.2019 02:50 0,5 °C 87 % 1023,7 hPa 0,0 mm 6,0 km/h (2 Bft) S-SW 196 ° 0 min 0,000 mm 0,0 UV-I 0 W/m² -1,4 °C -1,5 °C 8,0 km/h (2 Bft)
19.03.2019 02:51 0,5 °C 87 % 1023,7 hPa 0,0 mm 5,1 km/h (1 Bft) S-SW 207 ° 0 min 0,000 mm 0,0 UV-I 0 W/m² -1,4 °C -1,1 °C 8,0 km/h (2 Bft)
19.03.2019 02:52 0,5 °C 87 % 1023,8 hPa 0,0 mm 5,1 km/h (1 Bft) S-SW 206 ° 0 min 0,000 mm 0,0 UV-I 0 W/m² -1,4 °C -1,1 °C 6,4 km/h (2 Bft)
19.03.2019 02:53 0,6 °C 87 % 1023,7 hPa 0,0 mm 6,2 km/h (2 Bft) S-SW 200 ° 0 min 0,000 mm 0,0 UV-I 0 W/m² -1,3 °C -1,4 °C 8,0 km/h (2 Bft)
19.03.2019 02:54 0,6 °C 87 % 1023,7 hPa 0,0 mm 5,9 km/h (2 Bft) S 184 ° 0 min 0,000 mm 0,0 UV-I 0 W/m² -1,3 °C -1,3 °C 9,7 km/h (2 Bft)
19.03.2019 02:55 0,6 °C 87 % 1023,7 hPa 0,0 mm 6,6 km/h (2 Bft) S-SW 208 ° 0 min 0,000 mm 0,0 UV-I 0 W/m² -1,3 °C -1,6 °C 8,0 km/h (2 Bft)
19.03.2019 02:56 0,6 °C 87 % 1023,8 hPa 0,0 mm 8,9 km/h (2 Bft) S-SW 205 ° 0 min 0,000 mm 0,0 UV-I 0 W/m² -1,3 °C -2,3 °C 11,3 km/h (2 Bft)
19.03.2019 02:57 0,6 °C 87 % 1023,7 hPa 0,0 mm 6,9 km/h (2 Bft) S-SW 200 ° 0 min 0,000 mm 0,0 UV-I 0 W/m² -1,3 °C -1,7 °C 9,7 km/h (2 Bft)
19.03.2019 02:58 0,5 °C 87 % 1023,7 hPa 0,0 mm 6,4 km/h (2 Bft) SW 215 ° 0 min 0,000 mm 0,0 UV-I 0 W/m² -1,4 °C -1,6 °C 11,3 km/h (2 Bft)
19.03.2019 02:59 0,6 °C 87 % 1023,7 hPa 0,0 mm 4,8 km/h (1 Bft) S-SW 200 ° 0 min 0,000 mm 0,0 UV-I 0 W/m² -1,3 °C -0,8 °C 6,4 km/h (2 Bft)
19.03.2019 03:00 0,6 °C 87 % 1023,7 hPa 0,0 mm 5,2 km/h (1 Bft) SW 225 ° 0 min 0,000 mm 0,0 UV-I 0 W/m² -1,3 °C -1,0 °C 6,4 km/h (2 Bft)
19.03.2019 03:01 0,5 °C 87 % 1023,7 hPa 0,0 mm 4,0 km/h (1 Bft) SW 215 ° 0 min 0,000 mm 0,0 UV-I 0 W/m² -1,4 °C 0,5 °C 6,4 km/h (2 Bft)
19.03.2019 03:02 0,5 °C 87 % 1023,7 hPa 0,0 mm 4,3 km/h (1 Bft) S-SW 212 ° 0 min 0,000 mm 0,0 UV-I 0 W/m² -1,4 °C 0,5 °C 6,4 km/h (2 Bft)
19.03.2019 03:03 0,6 °C 87 % 1023,7 hPa 0,0 mm 2,4 km/h (1 Bft) SW 215 ° 0 min 0,000 mm 0,0 UV-I 0 W/m² -1,3 °C 0,6 °C 4,8 km/h (1 Bft)
19.03.2019 03:04 0,5 °C 87 % 1023,7 hPa 0,0 mm 1,1 km/h (1 Bft) SW 215 ° 0 min 0,000 mm 0,0 UV-I 0 W/m² -1,4 °C 0,5 °C 3,2 km/h (1 Bft)
19.03.2019 03:05 0,5 °C 87 % 1023,8 hPa 0,0 mm 1,3 km/h (1 Bft) SW 215 ° 0 min 0,000 mm 0,0 UV-I 0 W/m² -1,4 °C 0,5 °C 3,2 km/h (1 Bft)
19.03.2019 03:06 0,5 °C 87 % 1023,7 hPa 0,0 mm 3,5 km/h (1 Bft) SW 215 ° 0 min 0,000 mm 0,0 UV-I 0 W/m² -1,4 °C 0,5 °C 4,8 km/h (1 Bft)
19.03.2019 03:07 0,5 °C 87 % 1023,7 hPa 0,0 mm 3,2 km/h (1 Bft) SW 215 ° 0 min 0,000 mm 0,0 UV-I 0 W/m² -1,4 °C 0,5 °C 4,8 km/h (1 Bft)
19.03.2019 03:08 0,5 °C 87 % 1023,8 hPa 0,0 mm 1,6 km/h (1 Bft) SW 215 ° 0 min 0,000 mm 0,0 UV-I 0 W/m² -1,4 °C 0,5 °C 3,2 km/h (1 Bft)
19.03.2019 03:09 0,5 °C 87 % 1023,7 hPa 0,0 mm 2,6 km/h (1 Bft) SW 223 ° 0 min 0,000 mm 0,0 UV-I 0 W/m² -1,4 °C 0,5 °C 4,8 km/h (1 Bft)
19.03.2019 03:10 0,5 °C 87 % 1023,7 hPa 0,0 mm 3,1 km/h (1 Bft) SW 221 ° 0 min 0,000 mm 0,0 UV-I 0 W/m² -1,4 °C 0,5 °C 4,8 km/h (1 Bft)
19.03.2019 03:11 0,4 °C 87 % 1023,7 hPa 0,0 mm 0,4 km/h (0 Bft) SW 221 ° 0 min 0,000 mm 0,0 UV-I 0 W/m² -1,5 °C 0,4 °C 1,6 km/h (1 Bft)
19.03.2019 03:12 0,5 °C 87 % 1023,7 hPa 0,0 mm 1,3 km/h (1 Bft) SW 221 ° 0 min 0,000 mm 0,0 UV-I 0 W/m² -1,4 °C 0,5 °C 3,2 km/h (1 Bft)
19.03.2019 03:13 0,4 °C 87 % 1023,7 hPa 0,0 mm 0,2 km/h (0 Bft) SW 221 ° 0 min 0,000 mm 0,0 UV-I 0 W/m² -1,5 °C 0,4 °C 1,6 km/h (1 Bft)
19.03.2019 03:14 0,4 °C 87 % 1023,7 hPa 0,0 mm 0,0 km/h (0 Bft) SW 221 ° 0 min 0,000 mm 0,0 UV-I 0 W/m² -1,5 °C 0,4 °C 0,0 km/h (0 Bft)
19.03.2019 03:15 0,5 °C 87 % 1023,7 hPa 0,0 mm 0,0 km/h (0 Bft) SW 221 ° 0 min 0,000 mm 0,0 UV-I 0 W/m² -1,4 °C 0,5 °C 0,0 km/h (0 Bft)
19.03.2019 03:16 0,4 °C 87 % 1023,7 hPa 0,0 mm 0,0 km/h (0 Bft) SW 221 ° 0 min 0,000 mm 0,0 UV-I 0 W/m² -1,5 °C 0,4 °C 0,0 km/h (0 Bft)
19.03.2019 03:17 0,4 °C 87 % 1023,7 hPa 0,0 mm 0,9 km/h (0 Bft) SW 221 ° 0 min 0,000 mm 0,0 UV-I 0 W/m² -1,5 °C 0,4 °C 1,6 km/h (1 Bft)
19.03.2019 03:18 0,4 °C 87 % 1023,8 hPa 0,0 mm 0,5 km/h (0 Bft) SW 221 ° 0 min 0,000 mm 0,0 UV-I 0 W/m² -1,5 °C 0,4 °C 1,6 km/h (1 Bft)
19.03.2019 03:19 0,4 °C 87 % 1023,8 hPa 0,0 mm 0,0 km/h (0 Bft) SW 221 ° 0 min 0,000 mm 0,0 UV-I 0 W/m² -1,5 °C 0,4 °C 0,0 km/h (0 Bft)
19.03.2019 03:20 0,4 °C 88 % 1023,8 hPa 0,0 mm 0,0 km/h (0 Bft) SW 221 ° 0 min 0,000 mm 0,0 UV-I 0 W/m² -1,3 °C 0,4 °C 0,0 km/h (0 Bft)
19.03.2019 03:21 0,3 °C 88 % 1023,8 hPa 0,0 mm 0,0 km/h (0 Bft) SW 221 ° 0 min 0,000 mm 0,0 UV-I 0 W/m² -1,4 °C 0,3 °C 0,0 km/h (0 Bft)
19.03.2019 03:22 0,3 °C 88 % 1023,8 hPa 0,0 mm 1,3 km/h (1 Bft) SW 221 ° 0 min 0,000 mm 0,0 UV-I 0 W/m² -1,4 °C 0,3 °C 3,2 km/h (1 Bft)
19.03.2019 03:23 0,3 °C 88 % 1023,8 hPa 0,0 mm 1,9 km/h (1 Bft) SW 219 ° 0 min 0,000 mm 0,0 UV-I 0 W/m² -1,4 °C 0,3 °C 3,2 km/h (1 Bft)
19.03.2019 03:24 0,3 °C 88 % 1023,8 hPa 0,0 mm 0,6 km/h (0 Bft) SW 218 ° 0 min 0,000 mm 0,0 UV-I 0 W/m² -1,4 °C 0,3 °C 1,6 km/h (1 Bft)
19.03.2019 03:25 0,3 °C 88 % 1023,7 hPa 0,0 mm 0,0 km/h (0 Bft) SW 218 ° 0 min 0,000 mm 0,0 UV-I 0 W/m² -1,4 °C 0,3 °C 0,0 km/h (0 Bft)
19.03.2019 03:26 0,2 °C 88 % 1023,7 hPa 0,0 mm 0,0 km/h (0 Bft) SW 218 ° 0 min 0,000 mm 0,0 UV-I 0 W/m² -1,5 °C 0,2 °C 0,0 km/h (0 Bft)
19.03.2019 03:27 0,2 °C 88 % 1023,7 hPa 0,0 mm 1,5 km/h (1 Bft) SW 218 ° 0 min 0,000 mm 0,0 UV-I 0 W/m² -1,5 °C 0,2 °C 3,2 km/h (1 Bft)
19.03.2019 03:28 0,2 °C 88 % 1023,7 hPa 0,0 mm 1,7 km/h (1 Bft) SW 218 ° 0 min 0,000 mm 0,0 UV-I 0 W/m² -1,5 °C 0,2 °C 3,2 km/h (1 Bft)
19.03.2019 03:29 0,2 °C 88 % 1023,7 hPa 0,0 mm 0,1 km/h (0 Bft) SW 218 ° 0 min 0,000 mm 0,0 UV-I 0 W/m² -1,5 °C 0,2 °C 1,6 km/h (1 Bft)
19.03.2019 03:30 0,2 °C 88 % 1023,7 hPa 0,0 mm 0,0 km/h (0 Bft) SW 218 ° 0 min 0,000 mm 0,0 UV-I 0 W/m² -1,5 °C 0,2 °C 0,0 km/h (0 Bft)
19.03.2019 03:31 0,2 °C 89 % 1023,8 hPa 0,0 mm 0,0 km/h (0 Bft) SW 218 ° 0 min 0,000 mm 0,0 UV-I 0 W/m² -1,4 °C 0,2 °C 0,0 km/h (0 Bft)
19.03.2019 03:32 0,1 °C 89 % 1023,8 hPa 0,0 mm 0,0 km/h (0 Bft) SW 218 ° 0 min 0,000 mm 0,0 UV-I 0 W/m² -1,5 °C 0,1 °C 0,0 km/h (0 Bft)
19.03.2019 03:33 0,1 °C 89 % 1023,7 hPa 0,0 mm 0,0 km/h (0 Bft) SW 218 ° 0 min 0,000 mm 0,0 UV-I 0 W/m² -1,5 °C 0,1 °C 0,0 km/h (0 Bft)
19.03.2019 03:34 0,1 °C 89 % 1023,8 hPa 0,0 mm 0,0 km/h (0 Bft) SW 218 ° 0 min 0,000 mm 0,0 UV-I 0 W/m² -1,5 °C 0,1 °C 0,0 km/h (0 Bft)
19.03.2019 03:35 0,1 °C 89 % 1023,7 hPa 0,0 mm 0,0 km/h (0 Bft) SW 218 ° 0 min 0,000 mm 0,0 UV-I 0 W/m² -1,5 °C 0,1 °C 0,0 km/h (0 Bft)
19.03.2019 03:36 0,1 °C 89 % 1023,8 hPa 0,0 mm 0,0 km/h (0 Bft) SW 218 ° 0 min 0,000 mm 0,0 UV-I 0 W/m² -1,5 °C 0,1 °C 0,0 km/h (0 Bft)
19.03.2019 03:37 0,1 °C 89 % 1023,8 hPa 0,0 mm 0,0 km/h (0 Bft) SW 218 ° 0 min 0,000 mm 0,0 UV-I 0 W/m² -1,5 °C 0,1 °C 0,0 km/h (0 Bft)
19.03.2019 03:38 0,1 °C 89 % 1023,8 hPa 0,0 mm 0,0 km/h (0 Bft) SW 218 ° 0 min 0,000 mm 0,0 UV-I 0 W/m² -1,5 °C 0,1 °C 0,0 km/h (0 Bft)
19.03.2019 03:39 0,0 °C 89 % 1023,8 hPa 0,0 mm 0,0 km/h (0 Bft) SW 218 ° 0 min 0,000 mm 0,0 UV-I 0 W/m² -1,6 °C 0,0 °C 0,0 km/h (0 Bft)
19.03.2019 03:40 0,0 °C 89 % 1023,8 hPa 0,0 mm 0,0 km/h (0 Bft) SW 218 ° 0 min 0,000 mm 0,0 UV-I 0 W/m² -1,6 °C 0,0 °C 0,0 km/h (0 Bft)
19.03.2019 03:41 0,0 °C 89 % 1023,7 hPa 0,0 mm 0,0 km/h (0 Bft) SW 218 ° 0 min 0,000 mm 0,0 UV-I 0 W/m² -1,6 °C 0,0 °C 0,0 km/h (0 Bft)
19.03.2019 03:42 0,0 °C 89 % 1023,7 hPa 0,0 mm 0,0 km/h (0 Bft) SW 218 ° 0 min 0,000 mm 0,0 UV-I 0 W/m² -1,6 °C 0,0 °C 0,0 km/h (0 Bft)
19.03.2019 03:43 0,0 °C 89 % 1023,8 hPa 0,0 mm 0,0 km/h (0 Bft) SW 218 ° 0 min 0,000 mm 0,0 UV-I 0 W/m² -1,6 °C 0,0 °C 0,0 km/h (0 Bft)
19.03.2019 03:44 0,0 °C 89 % 1023,8 hPa 0,0 mm 0,0 km/h (0 Bft) SW 218 ° 0 min 0,000 mm 0,0 UV-I 0 W/m² -1,6 °C 0,0 °C 0,0 km/h (0 Bft)
19.03.2019 03:45 0,0 °C 89 % 1023,8 hPa 0,0 mm 0,0 km/h (0 Bft) SW 218 ° 0 min 0,000 mm 0,0 UV-I 0 W/m² -1,6 °C 0,0 °C 0,0 km/h (0 Bft)
19.03.2019 03:46 0,1 °C 89 % 1023,8 hPa 0,0 mm 0,0 km/h (0 Bft) SW 218 ° 0 min 0,000 mm 0,0 UV-I 0 W/m² -1,5 °C 0,1 °C 0,0 km/h (0 Bft)
19.03.2019 03:47 0,0 °C 89 % 1023,8 hPa 0,0 mm 0,0 km/h (0 Bft) SW 218 ° 0 min 0,000 mm 0,0 UV-I 0 W/m² -1,6 °C 0,0 °C 0,0 km/h (0 Bft)
19.03.2019 03:48 0,0 °C 89 % 1023,8 hPa 0,0 mm 0,0 km/h (0 Bft) SW 218 ° 0 min 0,000 mm 0,0 UV-I 0 W/m² -1,6 °C 0,0 °C 0,0 km/h (0 Bft)
19.03.2019 03:49 0,0 °C 89 % 1023,8 hPa 0,0 mm 0,0 km/h (0 Bft) SW 218 ° 0 min 0,000 mm 0,0 UV-I 0 W/m² -1,6 °C 0,0 °C 0,0 km/h (0 Bft)
19.03.2019 03:50 0,0 °C 89 % 1023,9 hPa 0,0 mm 0,0 km/h (0 Bft) SW 218 ° 0 min 0,000 mm 0,0 UV-I 0 W/m² -1,6 °C 0,0 °C 0,0 km/h (0 Bft)
19.03.2019 03:51 0,1 °C 89 % 1023,9 hPa 0,0 mm 0,4 km/h (0 Bft) SW 218 ° 0 min 0,000 mm 0,0 UV-I 0 W/m² -1,5 °C 0,1 °C 3,2 km/h (1 Bft)
19.03.2019 03:52 0,1 °C 89 % 1023,8 hPa 0,0 mm 2,3 km/h (1 Bft) SW 218 ° 0 min 0,000 mm 0,0 UV-I 0 W/m² -1,5 °C 0,1 °C 3,2 km/h (1 Bft)
19.03.2019 03:53 0,1 °C 89 % 1023,8 hPa 0,0 mm 1,0 km/h (0 Bft) SW 218 ° 0 min 0,000 mm 0,0 UV-I 0 W/m² -1,5 °C 0,1 °C 3,2 km/h (1 Bft)
19.03.2019 03:54 0,1 °C 89 % 1023,8 hPa 0,0 mm 2,3 km/h (1 Bft) SW 218 ° 0 min 0,000 mm 0,0 UV-I 0 W/m² -1,5 °C 0,1 °C 4,8 km/h (1 Bft)
19.03.2019 03:55 0,1 °C 89 % 1023,8 hPa 0,0 mm 3,1 km/h (1 Bft) SW 218 ° 0 min 0,000 mm 0,0 UV-I 0 W/m² -1,5 °C 0,1 °C 4,8 km/h (1 Bft)
19.03.2019 03:56 0,1 °C 89 % 1023,8 hPa 0,0 mm 3,0 km/h (1 Bft) SW 218 ° 0 min 0,000 mm 0,0 UV-I 0 W/m² -1,5 °C 0,1 °C 4,8 km/h (1 Bft)
19.03.2019 03:57 0,1 °C 88 % 1023,8 hPa 0,0 mm 0,6 km/h (0 Bft) SW 218 ° 0 min 0,000 mm 0,0 UV-I 0 W/m² -1,6 °C 0,1 °C 3,2 km/h (1 Bft)
19.03.2019 03:58 0,1 °C 88 % 1023,8 hPa 0,0 mm 0,1 km/h (0 Bft) SW 218 ° 0 min 0,000 mm 0,0 UV-I 0 W/m² -1,6 °C 0,1 °C 1,6 km/h (1 Bft)
19.03.2019 03:59 0,1 °C 88 % 1023,9 hPa 0,0 mm 0,0 km/h (0 Bft) SW 218 ° 0 min 0,000 mm 0,0 UV-I 0 W/m² -1,6 °C 0,1 °C 0,0 km/h (0 Bft)
19.03.2019 04:00 -0,1 °C 89 % 1023,8 hPa 0,0 mm 0,0 km/h (0 Bft) SW 218 ° 0 min 0,000 mm 0,0 UV-I 0 W/m² -1,7 °C -0,1 °C 0,0 km/h (0 Bft)
19.03.2019 04:01 -0,1 °C 88 % 1023,9 hPa 0,0 mm 0,0 km/h (0 Bft) SW 218 ° 0 min 0,000 mm 0,0 UV-I 0 W/m² -1,8 °C -0,1 °C 0,0 km/h (0 Bft)
19.03.2019 04:02 -0,1 °C 89 % 1023,9 hPa 0,0 mm 0,0 km/h (0 Bft) SW 218 ° 0 min 0,000 mm 0,0 UV-I 0 W/m² -1,7 °C -0,1 °C 0,0 km/h (0 Bft)
19.03.2019 04:03 -0,2 °C 89 % 1023,9 hPa 0,0 mm 0,0 km/h (0 Bft) SW 218 ° 0 min 0,000 mm 0,0 UV-I 0 W/m² -1,8 °C -0,2 °C 0,0 km/h (0 Bft)
19.03.2019 04:04 -0,2 °C 89 % 1023,8 hPa 0,0 mm 0,0 km/h (0 Bft) SW 218 ° 0 min 0,000 mm 0,0 UV-I 0 W/m² -1,8 °C -0,2 °C 0,0 km/h (0 Bft)
19.03.2019 04:05 -0,2 °C 89 % 1023,9 hPa 0,0 mm 0,0 km/h (0 Bft) SW 218 ° 0 min 0,000 mm 0,0 UV-I 0 W/m² -1,8 °C -0,2 °C 0,0 km/h (0 Bft)
19.03.2019 04:06 -0,2 °C 89 % 1023,8 hPa 0,0 mm 1,3 km/h (1 Bft) SW 219 ° 0 min 0,000 mm 0,0 UV-I 0 W/m² -1,8 °C -0,2 °C 3,2 km/h (1 Bft)
19.03.2019 04:07 -0,2 °C 89 % 1023,8 hPa 0,0 mm 2,5 km/h (1 Bft) SW 219 ° 0 min 0,000 mm 0,0 UV-I 0 W/m² -1,8 °C -0,2 °C 3,2 km/h (1 Bft)
19.03.2019 04:08 -0,2 °C 89 % 1023,8 hPa 0,0 mm 2,1 km/h (1 Bft) SW 219 ° 0 min 0,000 mm 0,0 UV-I 0 W/m² -1,8 °C -0,2 °C 3,2 km/h (1 Bft)
19.03.2019 04:09 -0,2 °C 89 % 1023,8 hPa 0,0 mm 1,7 km/h (1 Bft) SW 219 ° 0 min 0,000 mm 0,0 UV-I 0 W/m² -1,8 °C -0,2 °C 3,2 km/h (1 Bft)
19.03.2019 04:10 -0,2 °C 89 % 1023,8 hPa 0,0 mm 1,8 km/h (1 Bft) SW 219 ° 0 min 0,000 mm 0,0 UV-I 0 W/m² -1,8 °C -0,2 °C 3,2 km/h (1 Bft)
19.03.2019 04:11 -0,2 °C 89 % 1023,8 hPa 0,0 mm 1,5 km/h (1 Bft) SW 218 ° 0 min 0,000 mm 0,0 UV-I 0 W/m² -1,8 °C -0,2 °C 3,2 km/h (1 Bft)
19.03.2019 04:12 -0,3 °C 89 % 1023,8 hPa 0,0 mm 1,3 km/h (1 Bft) SW 218 ° 0 min 0,000 mm 0,0 UV-I 0 W/m² -1,9 °C -0,3 °C 1,6 km/h (1 Bft)
19.03.2019 04:13 -0,3 °C 89 % 1023,8 hPa 0,0 mm 1,6 km/h (1 Bft) SW 218 ° 0 min 0,000 mm 0,0 UV-I 0 W/m² -1,9 °C -0,3 °C 1,6 km/h (1 Bft)
19.03.2019 04:14 -0,3 °C 89 % 1023,8 hPa 0,0 mm 0,9 km/h (0 Bft) SW 218 ° 0 min 0,000 mm 0,0 UV-I 0 W/m² -1,9 °C -0,3 °C 3,2 km/h (1 Bft)
19.03.2019 04:15 -0,3 °C 89 % 1023,8 hPa 0,0 mm 1,5 km/h (1 Bft) SW 218 ° 0 min 0,000 mm 0,0 UV-I 0 W/m² -1,9 °C -0,3 °C 3,2 km/h (1 Bft)
19.03.2019 04:16 -0,4 °C 89 % 1023,8 hPa 0,0 mm 0,0 km/h (0 Bft) SW 218 ° 0 min 0,000 mm 0,0 UV-I 0 W/m² -2,0 °C -0,4 °C 0,0 km/h (0 Bft)
19.03.2019 04:17 -0,4 °C 89 % 1023,8 hPa 0,0 mm 0,5 km/h (0 Bft) SW 218 ° 0 min 0,000 mm 0,0 UV-I 0 W/m² -2,0 °C -0,4 °C 3,2 km/h (1 Bft)
19.03.2019 04:18 -0,6 °C 89 % 1023,8 hPa 0,0 mm 1,4 km/h (1 Bft) SW 218 ° 0 min 0,000 mm 0,0 UV-I 0 W/m² -2,2 °C -0,6 °C 3,2 km/h (1 Bft)
19.03.2019 04:19 -0,6 °C 90 % 1023,8 hPa 0,0 mm 0,6 km/h (0 Bft) SW 218 ° 0 min 0,000 mm 0,0 UV-I 0 W/m² -2,0 °C -0,6 °C 1,6 km/h (1 Bft)
19.03.2019 04:20 -0,6 °C 89 % 1023,8 hPa 0,0 mm 0,1 km/h (0 Bft) SW 218 ° 0 min 0,000 mm 0,0 UV-I 0 W/m² -2,2 °C -0,6 °C 1,6 km/h (1 Bft)
19.03.2019 04:21 -0,6 °C 90 % 1023,8 hPa 0,0 mm 1,7 km/h (1 Bft) SW 218 ° 0 min 0,000 mm 0,0 UV-I 0 W/m² -2,0 °C -0,6 °C 3,2 km/h (1 Bft)
19.03.2019 04:22 -0,6 °C 90 % 1023,8 hPa 0,0 mm 0,6 km/h (0 Bft) SW 218 ° 0 min 0,000 mm 0,0 UV-I 0 W/m² -2,0 °C -0,6 °C 1,6 km/h (1 Bft)
19.03.2019 04:23 -0,6 °C 90 % 1023,8 hPa 0,0 mm 3,6 km/h (1 Bft) SW 218 ° 0 min 0,000 mm 0,0 UV-I 0 W/m² -2,0 °C -0,6 °C 4,8 km/h (1 Bft)
19.03.2019 04:24 -0,6 °C 90 % 1023,9 hPa 0,0 mm 2,8 km/h (1 Bft) SW 218 ° 0 min 0,000 mm 0,0 UV-I 0 W/m² -2,0 °C -0,6 °C 4,8 km/h (1 Bft)
19.03.2019 04:25 -0,6 °C 90 % 1023,9 hPa 0,0 mm 3,2 km/h (1 Bft) SW 215 ° 0 min 0,000 mm 0,0 UV-I 0 W/m² -2,0 °C -0,6 °C 4,8 km/h (1 Bft)
19.03.2019 04:26 -0,6 °C 90 % 1023,9 hPa 0,0 mm 2,9 km/h (1 Bft) SW 215 ° 0 min 0,000 mm 0,0 UV-I 0 W/m² -2,0 °C -0,6 °C 4,8 km/h (1 Bft)
19.03.2019 04:27 -0,6 °C 90 % 1023,9 hPa 0,0 mm 2,3 km/h (1 Bft) SW 215 ° 0 min 0,000 mm 0,0 UV-I 0 W/m² -2,0 °C -0,6 °C 3,2 km/h (1 Bft)
19.03.2019 04:28 -0,6 °C 90 % 1023,9 hPa 0,0 mm 1,3 km/h (1 Bft) SW 215 ° 0 min 0,000 mm 0,0 UV-I 0 W/m² -2,0 °C -0,6 °C 3,2 km/h (1 Bft)
19.03.2019 04:29 -0,6 °C 90 % 1023,9 hPa 0,0 mm 1,7 km/h (1 Bft) SW 215 ° 0 min 0,000 mm 0,0 UV-I 0 W/m² -2,0 °C -0,6 °C 3,2 km/h (1 Bft)
19.03.2019 04:30 -0,7 °C 90 % 1023,9 hPa 0,0 mm 1,5 km/h (1 Bft) SW 215 ° 0 min 0,000 mm 0,0 UV-I 0 W/m² -2,1 °C -0,7 °C 1,6 km/h (1 Bft)
19.03.2019 04:31 -0,7 °C 90 % 1023,9 hPa 0,0 mm 1,9 km/h (1 Bft) SW 215 ° 0 min 0,000 mm 0,0 UV-I 0 W/m² -2,1 °C -0,7 °C 3,2 km/h (1 Bft)
19.03.2019 04:32 -0,7 °C 90 % 1023,9 hPa 0,0 mm 2,5 km/h (1 Bft) SW 215 ° 0 min 0,000 mm 0,0 UV-I 0 W/m² -2,1 °C -0,7 °C 3,2 km/h (1 Bft)
19.03.2019 04:33 -0,7 °C 90 % 1023,9 hPa 0,0 mm 2,1 km/h (1 Bft) SW 215 ° 0 min 0,000 mm 0,0 UV-I 0 W/m² -2,1 °C -0,7 °C 3,2 km/h (1 Bft)
19.03.2019 04:34 -0,7 °C 90 % 1023,9 hPa 0,0 mm 0,7 km/h (0 Bft) SW 215 ° 0 min 0,000 mm 0,0 UV-I 0 W/m² -2,1 °C -0,7 °C 1,6 km/h (1 Bft)
19.03.2019 04:35 -0,7 °C 90 % 1023,9 hPa 0,0 mm 0,0 km/h (0 Bft) SW 215 ° 0 min 0,000 mm 0,0 UV-I 0 W/m² -2,1 °C -0,7 °C 0,0 km/h (0 Bft)
19.03.2019 04:36 -0,8 °C 90 % 1024,0 hPa 0,0 mm 0,0 km/h (0 Bft) SW 215 ° 0 min 0,000 mm 0,0 UV-I 0 W/m² -2,2 °C -0,8 °C 0,0 km/h (0 Bft)
19.03.2019 04:37 -0,8 °C 90 % 1024,0 hPa 0,0 mm 1,7 km/h (1 Bft) SW 215 ° 0 min 0,000 mm 0,0 UV-I 0 W/m² -2,2 °C -0,8 °C 4,8 km/h (1 Bft)
19.03.2019 04:38 -0,8 °C 90 % 1024,0 hPa 0,0 mm 1,5 km/h (1 Bft) SW 215 ° 0 min 0,000 mm 0,0 UV-I 0 W/m² -2,2 °C -0,8 °C 3,2 km/h (1 Bft)
19.03.2019 04:39 -0,9 °C 90 % 1023,9 hPa 0,0 mm 1,6 km/h (1 Bft) SW 215 ° 0 min 0,000 mm 0,0 UV-I 0 W/m² -2,3 °C -0,9 °C 1,6 km/h (1 Bft)
19.03.2019 04:40 -0,9 °C 90 % 1024,0 hPa 0,0 mm 1,3 km/h (1 Bft) SW 215 ° 0 min 0,000 mm 0,0 UV-I 0 W/m² -2,3 °C -0,9 °C 1,6 km/h (1 Bft)
19.03.2019 04:41 -0,9 °C 90 % 1024,0 hPa 0,0 mm 1,6 km/h (1 Bft) SW 215 ° 0 min 0,000 mm 0,0 UV-I 0 W/m² -2,3 °C -0,9 °C 3,2 km/h (1 Bft)
19.03.2019 04:42 -0,9 °C 90 % 1024,0 hPa 0,0 mm 0,1 km/h (0 Bft) SW 215 ° 0 min 0,000 mm 0,0 UV-I 0 W/m² -2,3 °C -0,9 °C 1,6 km/h (1 Bft)
19.03.2019 04:43 -0,9 °C 90 % 1024,0 hPa 0,0 mm 1,5 km/h (1 Bft) SW 215 ° 0 min 0,000 mm 0,0 UV-I 0 W/m² -2,3 °C -0,9 °C 3,2 km/h (1 Bft)
19.03.2019 04:44 -0,9 °C 90 % 1024,0 hPa 0,0 mm 2,2 km/h (1 Bft) SW 215 ° 0 min 0,000 mm 0,0 UV-I 0 W/m² -2,3 °C -0,9 °C 3,2 km/h (1 Bft)
19.03.2019 04:45 -0,9 °C 90 % 1024,0 hPa 0,0 mm 2,3 km/h (1 Bft) SW 215 ° 0 min 0,000 mm 0,0 UV-I 0 W/m² -2,3 °C -0,9 °C 3,2 km/h (1 Bft)
19.03.2019 04:46 -0,9 °C 90 % 1024,0 hPa 0,0 mm 1,8 km/h (1 Bft) SW 220 ° 0 min 0,000 mm 0,0 UV-I 0 W/m² -2,3 °C -0,9 °C 3,2 km/h (1 Bft)
19.03.2019 04:47 -0,9 °C 90 % 1024,0 hPa 0,0 mm 1,3 km/h (1 Bft) SW 220 ° 0 min 0,000 mm 0,0 UV-I 0 W/m² -2,3 °C -0,9 °C 3,2 km/h (1 Bft)
19.03.2019 04:48 -0,9 °C 90 % 1024,0 hPa 0,0 mm 0,3 km/h (0 Bft) SW 220 ° 0 min 0,000 mm 0,0 UV-I 0 W/m² -2,3 °C -0,9 °C 1,6 km/h (1 Bft)
19.03.2019 04:49 -0,9 °C 90 % 1024,0 hPa 0,0 mm 1,1 km/h (1 Bft) SW 220 ° 0 min 0,000 mm 0,0 UV-I 0 W/m² -2,3 °C -0,9 °C 3,2 km/h (1 Bft)
19.03.2019 04:50 -0,9 °C 90 % 1024,0 hPa 0,0 mm 1,3 km/h (1 Bft) SW 220 ° 0 min 0,000 mm 0,0 UV-I 0 W/m² -2,3 °C -0,9 °C 3,2 km/h (1 Bft)
19.03.2019 04:51 -0,9 °C 90 % 1024,0 hPa 0,0 mm 3,3 km/h (1 Bft) SW 220 ° 0 min 0,000 mm 0,0 UV-I 0 W/m² -2,3 °C -0,9 °C 4,8 km/h (1 Bft)
19.03.2019 04:52 -0,9 °C 90 % 1024,0 hPa 0,0 mm 1,3 km/h (1 Bft) SW 220 ° 0 min 0,000 mm 0,0 UV-I 0 W/m² -2,3 °C -0,9 °C 3,2 km/h (1 Bft)
19.03.2019 04:53 -0,9 °C 90 % 1024,0 hPa 0,0 mm 1,0 km/h (0 Bft) SW 220 ° 0 min 0,000 mm 0,0 UV-I 0 W/m² -2,3 °C -0,9 °C 3,2 km/h (1 Bft)
19.03.2019 04:54 -0,9 °C 90 % 1024,0 hPa 0,0 mm 0,0 km/h (0 Bft) SW 220 ° 0 min 0,000 mm 0,0 UV-I 0 W/m² -2,3 °C -0,9 °C 0,0 km/h (0 Bft)
19.03.2019 04:55 -1,1 °C 89 % 1024,0 hPa 0,0 mm 0,0 km/h (0 Bft) SW 220 ° 0 min 0,000 mm 0,0 UV-I 0 W/m² -2,7 °C -1,1 °C 0,0 km/h (0 Bft)
19.03.2019 04:56 -1,1 °C 89 % 1024,0 hPa 0,0 mm 0,6 km/h (0 Bft) SW 220 ° 0 min 0,000 mm 0,0 UV-I 0 W/m² -2,7 °C -1,1 °C 1,6 km/h (1 Bft)
19.03.2019 04:57 -1,2 °C 90 % 1024,0 hPa 0,0 mm 0,2 km/h (0 Bft) SW 220 ° 0 min 0,000 mm 0,0 UV-I 0 W/m² -2,6 °C -1,2 °C 1,6 km/h (1 Bft)
19.03.2019 04:58 -1,2 °C 90 % 1024,0 hPa 0,0 mm 0,0 km/h (0 Bft) SW 220 ° 0 min 0,000 mm 0,0 UV-I 0 W/m² -2,6 °C -1,2 °C 0,0 km/h (0 Bft)
19.03.2019 04:59 -1,3 °C 90 % 1024,0 hPa 0,0 mm 0,0 km/h (0 Bft) SW 220 ° 0 min 0,000 mm 0,0 UV-I 0 W/m² -2,7 °C -1,3 °C 0,0 km/h (0 Bft)
19.03.2019 05:00 -1,3 °C 90 % 1024,0 hPa 0,0 mm 0,0 km/h (0 Bft) SW 220 ° 0 min 0,000 mm 0,0 UV-I 0 W/m² -2,7 °C -1,3 °C 0,0 km/h (0 Bft)
19.03.2019 05:01 -1,4 °C 90 % 1024,0 hPa 0,0 mm 0,0 km/h (0 Bft) SW 220 ° 0 min 0,000 mm 0,0 UV-I 0 W/m² -2,8 °C -1,4 °C 0,0 km/h (0 Bft)
19.03.2019 05:02 -1,5 °C 90 % 1024,0 hPa 0,0 mm 0,0 km/h (0 Bft) SW 220 ° 0 min 0,000 mm 0,0 UV-I 0 W/m² -2,9 °C -1,5 °C 0,0 km/h (0 Bft)
19.03.2019 05:03 -1,6 °C 90 % 1024,1 hPa 0,0 mm 0,0 km/h (0 Bft) SW 220 ° 0 min 0,000 mm 0,0 UV-I 0 W/m² -3,0 °C -1,6 °C 0,0 km/h (0 Bft)
19.03.2019 05:04 -1,6 °C 90 % 1024,1 hPa 0,0 mm 0,0 km/h (0 Bft) SW 220 ° 0 min 0,000 mm 0,0 UV-I 0 W/m² -3,0 °C -1,6 °C 0,0 km/h (0 Bft)
19.03.2019 05:05 -1,5 °C 90 % 1024,0 hPa 0,0 mm 0,0 km/h (0 Bft) SW 220 ° 0 min 0,000 mm 0,0 UV-I 0 W/m² -2,9 °C -1,5 °C 0,0 km/h (0 Bft)
19.03.2019 05:06 -1,6 °C 90 % 1024,1 hPa 0,0 mm 0,0 km/h (0 Bft) SW 220 ° 0 min 0,000 mm 0,0 UV-I 0 W/m² -3,0 °C -1,6 °C 0,0 km/h (0 Bft)
19.03.2019 05:07 -1,6 °C 90 % 1024,1 hPa 0,0 mm 0,0 km/h (0 Bft) SW 220 ° 0 min 0,000 mm 0,0 UV-I 0 W/m² -3,0 °C -1,6 °C 0,0 km/h (0 Bft)
19.03.2019 05:08 -1,6 °C 90 % 1024,1 hPa 0,0 mm 0,0 km/h (0 Bft) SW 220 ° 0 min 0,000 mm 0,0 UV-I 0 W/m² -3,0 °C -1,6 °C 0,0 km/h (0 Bft)
19.03.2019 05:09 -1,6 °C 91 % 1024,1 hPa 0,0 mm 0,0 km/h (0 Bft) SW 220 ° 0 min 0,000 mm 0,0 UV-I 0 W/m² -2,9 °C -1,6 °C 0,0 km/h (0 Bft)
19.03.2019 05:10 -1,6 °C 91 % 1024,1 hPa 0,0 mm 0,0 km/h (0 Bft) SW 220 ° 0 min 0,000 mm 0,0 UV-I 0 W/m² -2,9 °C -1,6 °C 0,0 km/h (0 Bft)
19.03.2019 05:11 -1,6 °C 91 % 1024,1 hPa 0,0 mm 0,0 km/h (0 Bft) SW 220 ° 0 min 0,000 mm 0,0 UV-I 0 W/m² -2,9 °C -1,6 °C 0,0 km/h (0 Bft)
19.03.2019 05:12 -1,6 °C 91 % 1024,1 hPa 0,0 mm 0,0 km/h (0 Bft) SW 220 ° 0 min 0,000 mm 0,0 UV-I 0 W/m² -2,9 °C -1,6 °C 0,0 km/h (0 Bft)
19.03.2019 05:13 -1,5 °C 91 % 1024,1 hPa 0,0 mm 0,0 km/h (0 Bft) SW 220 ° 0 min 0,000 mm 0,0 UV-I 0 W/m² -2,8 °C -1,5 °C 0,0 km/h (0 Bft)
19.03.2019 05:14 -1,4 °C 91 % 1024,1 hPa 0,0 mm 0,0 km/h (0 Bft) SW 220 ° 0 min 0,000 mm 0,0 UV-I 0 W/m² -2,7 °C -1,4 °C 0,0 km/h (0 Bft)
19.03.2019 05:15 -1,4 °C 91 % 1024,2 hPa 0,0 mm 0,0 km/h (0 Bft) SW 220 ° 0 min 0,000 mm 0,0 UV-I 0 W/m² -2,7 °C -1,4 °C 0,0 km/h (0 Bft)
19.03.2019 05:16 -1,4 °C 91 % 1024,2 hPa 0,0 mm 0,0 km/h (0 Bft) SW 220 ° 0 min 0,000 mm 0,0 UV-I 0 W/m² -2,7 °C -1,4 °C 0,0 km/h (0 Bft)
19.03.2019 05:17 -1,4 °C 91 % 1024,2 hPa 0,0 mm 0,0 km/h (0 Bft) SW 220 ° 0 min 0,000 mm 0,0 UV-I 0 W/m² -2,7 °C -1,4 °C 0,0 km/h (0 Bft)
19.03.2019 05:18 -1,4 °C 91 % 1024,2 hPa 0,0 mm 0,0 km/h (0 Bft) SW 220 ° 0 min 0,000 mm 0,0 UV-I 0 W/m² -2,7 °C -1,4 °C 0,0 km/h (0 Bft)
19.03.2019 05:19 -1,3 °C 91 % 1024,2 hPa 0,0 mm 0,0 km/h (0 Bft) SW 220 ° 0 min 0,000 mm 0,0 UV-I 0 W/m² -2,6 °C -1,3 °C 0,0 km/h (0 Bft)
19.03.2019 05:20 -1,3 °C 91 % 1024,2 hPa 0,0 mm 0,0 km/h (0 Bft) SW 220 ° 0 min 0,000 mm 0,0 UV-I 0 W/m² -2,6 °C -1,3 °C 0,0 km/h (0 Bft)
19.03.2019 05:21 -1,3 °C 91 % 1024,3 hPa 0,0 mm 0,0 km/h (0 Bft) SW 220 ° 0 min 0,000 mm 0,0 UV-I 0 W/m² -2,6 °C -1,3 °C 0,0 km/h (0 Bft)
19.03.2019 05:22 -1,2 °C 91 % 1024,2 hPa 0,0 mm 0,0 km/h (0 Bft) SW 220 ° 0 min 0,000 mm 0,0 UV-I 0 W/m² -2,5 °C -1,2 °C 0,0 km/h (0 Bft)
19.03.2019 05:23 -1,2 °C 91 % 1024,2 hPa 0,0 mm 0,0 km/h (0 Bft) SW 220 ° 0 min 0,000 mm 0,0 UV-I 0 W/m² -2,5 °C -1,2 °C 0,0 km/h (0 Bft)
19.03.2019 05:24 -1,2 °C 91 % 1024,3 hPa 0,0 mm 0,0 km/h (0 Bft) SW 220 ° 0 min 0,000 mm 0,0 UV-I 0 W/m² -2,5 °C -1,2 °C 0,0 km/h (0 Bft)
19.03.2019 05:25 -1,2 °C 91 % 1024,2 hPa 0,0 mm 0,0 km/h (0 Bft) SW 220 ° 0 min 0,000 mm 0,0 UV-I 0 W/m² -2,5 °C -1,2 °C 0,0 km/h (0 Bft)
19.03.2019 05:26 -1,1 °C 91 % 1024,2 hPa 0,0 mm 0,0 km/h (0 Bft) SW 220 ° 0 min 0,000 mm 0,0 UV-I 0 W/m² -2,4 °C -1,1 °C 0,0 km/h (0 Bft)
19.03.2019 05:27 -1,1 °C 91 % 1024,3 hPa 0,0 mm 0,0 km/h (0 Bft) SW 220 ° 0 min 0,000 mm 0,0 UV-I 0 W/m² -2,4 °C -1,1 °C 0,0 km/h (0 Bft)
19.03.2019 05:28 -1,2 °C 91 % 1024,2 hPa 0,0 mm 0,0 km/h (0 Bft) SW 220 ° 0 min 0,000 mm 0,0 UV-I 0 W/m² -2,5 °C -1,2 °C 0,0 km/h (0 Bft)
19.03.2019 05:29 -1,2 °C 91 % 1024,2 hPa 0,0 mm 0,0 km/h (0 Bft) SW 220 ° 0 min 0,000 mm 0,0 UV-I 0 W/m² -2,5 °C -1,2 °C 0,0 km/h (0 Bft)
19.03.2019 05:30 -1,2 °C 91 % 1024,2 hPa 0,0 mm 0,0 km/h (0 Bft) SW 220 ° 0 min 0,000 mm 0,0 UV-I 0 W/m² -2,5 °C -1,2 °C 0,0 km/h (0 Bft)
19.03.2019 05:31 -1,2 °C 91 % 1024,2 hPa 0,0 mm 0,0 km/h (0 Bft) SW 220 ° 0 min 0,000 mm 0,0 UV-I 0 W/m² -2,5 °C -1,2 °C 0,0 km/h (0 Bft)
19.03.2019 05:32 -1,2 °C 91 % 1024,2 hPa 0,0 mm 0,0 km/h (0 Bft) SW 220 ° 0 min 0,000 mm 0,0 UV-I 0 W/m² -2,5 °C -1,2 °C 0,0 km/h (0 Bft)
19.03.2019 05:33 -1,3 °C 91 % 1024,2 hPa 0,0 mm 0,0 km/h (0 Bft) SW 220 ° 0 min 0,000 mm 0,0 UV-I 0 W/m² -2,6 °C -1,3 °C 0,0 km/h (0 Bft)
19.03.2019 05:34 -1,3 °C 91 % 1024,2 hPa 0,0 mm 0,0 km/h (0 Bft) SW 220 ° 0 min 0,000 mm 0,0 UV-I 0 W/m² -2,6 °C -1,3 °C 0,0 km/h (0 Bft)
19.03.2019 05:35 -1,3 °C 91 % 1024,2 hPa 0,0 mm 0,0 km/h (0 Bft) SW 220 ° 0 min 0,000 mm 0,0 UV-I 0 W/m² -2,6 °C -1,3 °C 0,0 km/h (0 Bft)
19.03.2019 05:36 -1,3 °C 91 % 1024,3 hPa 0,0 mm 0,0 km/h (0 Bft) SW 220 ° 0 min 0,000 mm 0,0 UV-I 0 W/m² -2,6 °C -1,3 °C 0,0 km/h (0 Bft)
19.03.2019 05:37 -1,3 °C 91 % 1024,3 hPa 0,0 mm 0,0 km/h (0 Bft) SW 220 ° 0 min 0,000 mm 0,0 UV-I 0 W/m² -2,6 °C -1,3 °C 0,0 km/h (0 Bft)
19.03.2019 05:38 -1,3 °C 91 % 1024,3 hPa 0,0 mm 0,0 km/h (0 Bft) SW 220 ° 0 min 0,000 mm 0,0 UV-I 0 W/m² -2,6 °C -1,3 °C 0,0 km/h (0 Bft)
19.03.2019 05:39 -1,4 °C 91 % 1024,3 hPa 0,0 mm 0,0 km/h (0 Bft) SW 220 ° 0 min 0,000 mm 0,0 UV-I 0 W/m² -2,7 °C -1,4 °C 0,0 km/h (0 Bft)
19.03.2019 05:40 -1,4 °C 91 % 1024,3 hPa 0,0 mm 0,0 km/h (0 Bft) SW 220 ° 0 min 0,000 mm 0,0 UV-I 0 W/m² -2,7 °C -1,4 °C 0,0 km/h (0 Bft)
19.03.2019 05:41 -1,4 °C 91 % 1024,3 hPa 0,0 mm 0,0 km/h (0 Bft) SW 220 ° 0 min 0,000 mm 0,0 UV-I 0 W/m² -2,7 °C -1,4 °C 0,0 km/h (0 Bft)
19.03.2019 05:42 -1,4 °C 91 % 1024,3 hPa 0,0 mm 0,0 km/h (0 Bft) SW 220 ° 0 min 0,000 mm 0,0 UV-I 0 W/m² -2,7 °C -1,4 °C 0,0 km/h (0 Bft)
19.03.2019 05:43 -1,5 °C 91 % 1024,3 hPa 0,0 mm 0,0 km/h (0 Bft) SW 220 ° 0 min 0,000 mm 0,0 UV-I 0 W/m² -2,8 °C -1,5 °C 0,0 km/h (0 Bft)
19.03.2019 05:44 -1,5 °C 91 % 1024,3 hPa 0,0 mm 0,0 km/h (0 Bft) SW 220 ° 0 min 0,000 mm 0,0 UV-I 0 W/m² -2,8 °C -1,5 °C 0,0 km/h (0 Bft)
19.03.2019 05:45 -1,5 °C 91 % 1024,3 hPa 0,0 mm 0,0 km/h (0 Bft) SW 220 ° 0 min 0,000 mm 0,0 UV-I 0 W/m² -2,8 °C -1,5 °C 0,0 km/h (0 Bft)
19.03.2019 05:46 -1,5 °C 92 % 1024,3 hPa 0,0 mm 0,0 km/h (0 Bft) SW 220 ° 0 min 0,000 mm 0,0 UV-I 0 W/m² -2,6 °C -1,5 °C 0,0 km/h (0 Bft)
19.03.2019 05:47 -1,5 °C 91 % 1024,3 hPa 0,0 mm 0,0 km/h (0 Bft) SW 220 ° 0 min 0,000 mm 0,0 UV-I 0 W/m² -2,8 °C -1,5 °C 0,0 km/h (0 Bft)
19.03.2019 05:48 -1,4 °C 91 % 1024,3 hPa 0,0 mm 0,0 km/h (0 Bft) SW 220 ° 0 min 0,000 mm 0,0 UV-I 0 W/m² -2,7 °C -1,4 °C 0,0 km/h (0 Bft)
19.03.2019 05:49 -1,4 °C 91 % 1024,3 hPa 0,0 mm 0,0 km/h (0 Bft) SW 220 ° 0 min 0,000 mm 0,0 UV-I 0 W/m² -2,7 °C -1,4 °C 0,0 km/h (0 Bft)
19.03.2019 05:50 -1,4 °C 92 % 1024,3 hPa 0,0 mm 0,0 km/h (0 Bft) SW 220 ° 0 min 0,000 mm 0,0 UV-I 0 W/m² -2,5 °C -1,4 °C 0,0 km/h (0 Bft)
19.03.2019 05:51 -1,4 °C 92 % 1024,3 hPa 0,0 mm 0,0 km/h (0 Bft) SW 220 ° 0 min 0,000 mm 0,0 UV-I 0 W/m² -2,5 °C -1,4 °C 0,0 km/h (0 Bft)
19.03.2019 05:52 -1,4 °C 92 % 1024,3 hPa 0,0 mm 0,0 km/h (0 Bft) SW 220 ° 0 min 0,000 mm 0,0 UV-I 0 W/m² -2,5 °C -1,4 °C 0,0 km/h (0 Bft)
19.03.2019 05:53 -1,4 °C 92 % 1024,3 hPa 0,0 mm 0,0 km/h (0 Bft) SW 220 ° 0 min 0,000 mm 0,0 UV-I 0 W/m² -2,5 °C -1,4 °C 0,0 km/h (0 Bft)
19.03.2019 05:54 -1,4 °C 92 % 1024,4 hPa 0,0 mm 0,0 km/h (0 Bft) SW 220 ° 0 min 0,000 mm 0,0 UV-I 0 W/m² -2,5 °C -1,4 °C 0,0 km/h (0 Bft)
19.03.2019 05:55 -1,4 °C 92 % 1024,4 hPa 0,0 mm 0,0 km/h (0 Bft) SW 220 ° 0 min 0,000 mm 0,0 UV-I 0 W/m² -2,5 °C -1,4 °C 0,0 km/h (0 Bft)
19.03.2019 05:56 -1,5 °C 91 % 1024,4 hPa 0,0 mm 0,0 km/h (0 Bft) SW 220 ° 0 min 0,000 mm 0,0 UV-I 0 W/m² -2,8 °C -1,5 °C 0,0 km/h (0 Bft)
19.03.2019 05:57 -1,5 °C 92 % 1024,4 hPa 0,0 mm 0,0 km/h (0 Bft) SW 220 ° 0 min 0,000 mm 0,0 UV-I 0 W/m² -2,6 °C -1,5 °C 0,0 km/h (0 Bft)
19.03.2019 05:58 -1,5 °C 91 % 1024,4 hPa 0,0 mm 0,0 km/h (0 Bft) SW 220 ° 0 min 0,000 mm 0,0 UV-I 0 W/m² -2,8 °C -1,5 °C 0,0 km/h (0 Bft)
19.03.2019 05:59 -1,6 °C 91 % 1024,4 hPa 0,0 mm 0,0 km/h (0 Bft) SW 220 ° 0 min 0,000 mm 0,0 UV-I 0 W/m² -2,9 °C -1,6 °C 0,0 km/h (0 Bft)
19.03.2019 06:00 -1,6 °C 91 % 1024,4 hPa 0,0 mm 0,0 km/h (0 Bft) SW 220 ° 0 min 0,000 mm 0,0 UV-I 0 W/m² -2,9 °C -1,6 °C 0,0 km/h (0 Bft)
19.03.2019 06:01 -1,6 °C 92 % 1024,4 hPa 0,0 mm 0,0 km/h (0 Bft) SW 220 ° 0 min 0,000 mm 0,0 UV-I 0 W/m² -2,7 °C -1,6 °C 0,0 km/h (0 Bft)
19.03.2019 06:02 -1,6 °C 92 % 1024,4 hPa 0,0 mm 0,0 km/h (0 Bft) SW 220 ° 0 min 0,000 mm 0,0 UV-I 0 W/m² -2,7 °C -1,6 °C 0,0 km/h (0 Bft)
19.03.2019 06:03 -1,6 °C 92 % 1024,4 hPa 0,0 mm 0,0 km/h (0 Bft) SW 220 ° 0 min 0,000 mm 0,0 UV-I 0 W/m² -2,7 °C -1,6 °C 0,0 km/h (0 Bft)
19.03.2019 06:04 -1,6 °C 92 % 1024,4 hPa 0,0 mm 0,0 km/h (0 Bft) SW 220 ° 0 min 0,000 mm 0,0 UV-I 0 W/m² -2,7 °C -1,6 °C 0,0 km/h (0 Bft)
19.03.2019 06:05 -1,6 °C 92 % 1024,4 hPa 0,0 mm 0,0 km/h (0 Bft) SW 220 ° 0 min 0,000 mm 0,0 UV-I 0 W/m² -2,7 °C -1,6 °C 0,0 km/h (0 Bft)
19.03.2019 06:06 -1,6 °C 92 % 1024,4 hPa 0,0 mm 0,0 km/h (0 Bft) SW 220 ° 0 min 0,000 mm 0,0 UV-I 0 W/m² -2,7 °C -1,6 °C 0,0 km/h (0 Bft)
19.03.2019 06:07 -1,5 °C 92 % 1024,5 hPa 0,0 mm 0,0 km/h (0 Bft) SW 220 ° 0 min 0,000 mm 0,0 UV-I 0 W/m² -2,6 °C -1,5 °C 0,0 km/h (0 Bft)
19.03.2019 06:08 -1,5 °C 92 % 1024,5 hPa 0,0 mm 0,0 km/h (0 Bft) SW 220 ° 0 min 0,000 mm 0,0 UV-I 0 W/m² -2,6 °C -1,5 °C 0,0 km/h (0 Bft)
19.03.2019 06:09 -1,5 °C 92 % 1024,5 hPa 0,0 mm 0,0 km/h (0 Bft) SW 220 ° 0 min 0,000 mm 0,0 UV-I 0 W/m² -2,6 °C -1,5 °C 0,0 km/h (0 Bft)
19.03.2019 06:10 -1,5 °C 92 % 1024,6 hPa 0,0 mm 0,0 km/h (0 Bft) SW 220 ° 0 min 0,000 mm 0,0 UV-I 0 W/m² -2,6 °C -1,5 °C 0,0 km/h (0 Bft)
19.03.2019 06:11 -1,6 °C 92 % 1024,6 hPa 0,0 mm 0,0 km/h (0 Bft) SW 220 ° 0 min 0,000 mm 0,0 UV-I 0 W/m² -2,7 °C -1,6 °C 0,0 km/h (0 Bft)
19.03.2019 06:12 -1,6 °C 92 % 1024,6 hPa 0,0 mm 0,0 km/h (0 Bft) SW 220 ° 0 min 0,000 mm 0,0 UV-I 0 W/m² -2,7 °C -1,6 °C 0,0 km/h (0 Bft)
19.03.2019 06:13 -1,6 °C 92 % 1024,6 hPa 0,0 mm 0,0 km/h (0 Bft) SW 220 ° 0 min 0,000 mm 0,0 UV-I 0 W/m² -2,7 °C -1,6 °C 0,0 km/h (0 Bft)
19.03.2019 06:14 -1,5 °C 92 % 1024,6 hPa 0,0 mm 0,0 km/h (0 Bft) SW 220 ° 0 min 0,000 mm 0,0 UV-I 0 W/m² -2,6 °C -1,5 °C 0,0 km/h (0 Bft)
19.03.2019 06:15 -1,5 °C 92 % 1024,6 hPa 0,0 mm 0,0 km/h (0 Bft) SW 220 ° 0 min 0,000 mm 0,0 UV-I 0 W/m² -2,6 °C -1,5 °C 0,0 km/h (0 Bft)
19.03.2019 06:16 -1,4 °C 92 % 1024,6 hPa 0,0 mm 0,0 km/h (0 Bft) SW 220 ° 0 min 0,000 mm 0,0 UV-I 0 W/m² -2,5 °C -1,4 °C 0,0 km/h (0 Bft)
19.03.2019 06:17 -1,4 °C 92 % 1024,6 hPa 0,0 mm 0,0 km/h (0 Bft) SW 220 ° 0 min 0,000 mm 0,0 UV-I 0 W/m² -2,5 °C -1,4 °C 0,0 km/h (0 Bft)
19.03.2019 06:18 -1,4 °C 92 % 1024,6 hPa 0,0 mm 0,0 km/h (0 Bft) SW 220 ° 0 min 0,000 mm 0,0 UV-I 0 W/m² -2,5 °C -1,4 °C 0,0 km/h (0 Bft)
19.03.2019 06:19 -1,4 °C 92 % 1024,6 hPa 0,0 mm 0,0 km/h (0 Bft) SW 220 ° 0 min 0,000 mm 0,0 UV-I 0 W/m² -2,5 °C -1,4 °C 0,0 km/h (0 Bft)
19.03.2019 06:20 -1,3 °C 92 % 1024,6 hPa 0,0 mm 0,0 km/h (0 Bft) SW 220 ° 0 min 0,000 mm 0,0 UV-I 0 W/m² -2,4 °C -1,3 °C 0,0 km/h (0 Bft)
19.03.2019 06:21 -1,3 °C 92 % 1024,6 hPa 0,0 mm 0,0 km/h (0 Bft) SW 220 ° 0 min 0,000 mm 0,0 UV-I 0 W/m² -2,4 °C -1,3 °C 0,0 km/h (0 Bft)
19.03.2019 06:22 -1,3 °C 92 % 1024,7 hPa 0,0 mm 0,0 km/h (0 Bft) SW 220 ° 0 min 0,000 mm 0,0 UV-I 0 W/m² -2,4 °C -1,3 °C 0,0 km/h (0 Bft)
19.03.2019 06:23 -1,3 °C 92 % 1024,6 hPa 0,0 mm 2,5 km/h (1 Bft) SW 223 ° 0 min 0,000 mm 0,0 UV-I 0 W/m² -2,4 °C -1,3 °C 4,8 km/h (1 Bft)
19.03.2019 06:24 -1,3 °C 92 % 1024,7 hPa 0,0 mm 1,7 km/h (1 Bft) SW 223 ° 0 min 0,000 mm 0,0 UV-I 0 W/m² -2,4 °C -1,3 °C 3,2 km/h (1 Bft)
19.03.2019 06:25 -1,3 °C 92 % 1024,7 hPa 0,0 mm 0,0 km/h (0 Bft) SW 223 ° 0 min 0,000 mm 0,0 UV-I 0 W/m² -2,4 °C -1,3 °C 0,0 km/h (0 Bft)
19.03.2019 06:26 -1,3 °C 92 % 1024,8 hPa 0,0 mm 0,9 km/h (0 Bft) SO 131 ° 0 min 0,000 mm 0,0 UV-I 5 W/m² -2,4 °C -1,3 °C 3,2 km/h (1 Bft)
19.03.2019 06:27 -1,3 °C 92 % 1024,8 hPa 0,0 mm 0,1 km/h (0 Bft) SO 131 ° 0 min 0,000 mm 0,0 UV-I 7 W/m² -2,4 °C -1,3 °C 1,6 km/h (1 Bft)
19.03.2019 06:28 -1,3 °C 92 % 1024,8 hPa 0,0 mm 0,0 km/h (0 Bft) SO 131 ° 0 min 0,000 mm 0,0 UV-I 7 W/m² -2,4 °C -1,3 °C 0,0 km/h (0 Bft)
19.03.2019 06:29 -1,3 °C 92 % 1024,8 hPa 0,0 mm 0,0 km/h (0 Bft) SO 131 ° 0 min 0,000 mm 0,0 UV-I 7 W/m² -2,4 °C -1,3 °C 0,0 km/h (0 Bft)
19.03.2019 06:30 -1,3 °C 92 % 1024,8 hPa 0,0 mm 0,0 km/h (0 Bft) SO 131 ° 0 min 0,000 mm 0,0 UV-I 7 W/m² -2,4 °C -1,3 °C 0,0 km/h (0 Bft)
19.03.2019 06:31 -1,2 °C 92 % 1024,8 hPa 0,0 mm 0,0 km/h (0 Bft) SO 131 ° 0 min 0,000 mm 0,0 UV-I 9 W/m² -2,3 °C -1,2 °C 0,0 km/h (0 Bft)
19.03.2019 06:32 -1,2 °C 92 % 1024,9 hPa 0,0 mm 0,0 km/h (0 Bft) SO 131 ° 0 min 0,000 mm 0,0 UV-I 9 W/m² -2,3 °C -1,2 °C 0,0 km/h (0 Bft)
19.03.2019 06:33 -1,2 °C 92 % 1024,9 hPa 0,0 mm 0,0 km/h (0 Bft) SO 131 ° 0 min 0,000 mm 0,0 UV-I 9 W/m² -2,3 °C -1,2 °C 0,0 km/h (0 Bft)
19.03.2019 06:34 -1,2 °C 92 % 1024,9 hPa 0,0 mm 0,0 km/h (0 Bft) SO 131 ° 0 min 0,000 mm 0,0 UV-I 11 W/m² -2,3 °C -1,2 °C 0,0 km/h (0 Bft)
19.03.2019 06:35 -1,2 °C 92 % 1024,9 hPa 0,0 mm 0,0 km/h (0 Bft) SO 131 ° 0 min 0,000 mm 0,0 UV-I 11 W/m² -2,3 °C -1,2 °C 0,0 km/h (0 Bft)
19.03.2019 06:36 -1,2 °C 92 % 1024,9 hPa 0,0 mm 0,0 km/h (0 Bft) SO 131 ° 0 min 0,000 mm 0,0 UV-I 12 W/m² -2,3 °C -1,2 °C 0,0 km/h (0 Bft)
19.03.2019 06:37 -1,1 °C 92 % 1025,0 hPa 0,0 mm 0,0 km/h (0 Bft) SO 131 ° 0 min 0,000 mm 0,0 UV-I 12 W/m² -2,2 °C -1,1 °C 0,0 km/h (0 Bft)
19.03.2019 06:38 -1,1 °C 92 % 1025,0 hPa 0,0 mm 0,0 km/h (0 Bft) SO 131 ° 0 min 0,000 mm 0,0 UV-I 14 W/m² -2,2 °C -1,1 °C 0,0 km/h (0 Bft)
19.03.2019 06:39 -1,1 °C 92 % 1025,0 hPa 0,0 mm 0,0 km/h (0 Bft) SO 131 ° 0 min 0,000 mm 0,0 UV-I 14 W/m² -2,2 °C -1,1 °C 0,0 km/h (0 Bft)
19.03.2019 06:40 -1,1 °C 92 % 1025,0 hPa 0,0 mm 0,0 km/h (0 Bft) SO 131 ° 0 min 0,000 mm 0,0 UV-I 14 W/m² -2,2 °C -1,1 °C 0,0 km/h (0 Bft)
19.03.2019 06:41 -1,1 °C 92 % 1025,0 hPa 0,0 mm 0,0 km/h (0 Bft) SO 131 ° 0 min 0,000 mm 0,0 UV-I 14 W/m² -2,2 °C -1,1 °C 0,0 km/h (0 Bft)
19.03.2019 06:42 -1,1 °C 92 % 1025,0 hPa 0,0 mm 0,0 km/h (0 Bft) SO 131 ° 0 min 0,000 mm 0,0 UV-I 14 W/m² -2,2 °C -1,1 °C 0,0 km/h (0 Bft)
19.03.2019 06:43 -1,1 °C 92 % 1025,0 hPa 0,0 mm 0,0 km/h (0 Bft) SO 131 ° 0 min 0,000 mm 0,0 UV-I 16 W/m² -2,2 °C -1,1 °C 0,0 km/h (0 Bft)
19.03.2019 06:44 -1,1 °C 92 % 1025,0 hPa 0,0 mm 0,0 km/h (0 Bft) SO 131 ° 0 min 0,000 mm 0,0 UV-I 16 W/m² -2,2 °C -1,1 °C 0,0 km/h (0 Bft)
19.03.2019 06:45 -1,1 °C 92 % 1025,0 hPa 0,0 mm 0,0 km/h (0 Bft) SO 131 ° 0 min 0,000 mm 0,0 UV-I 16 W/m² -2,2 °C -1,1 °C 0,0 km/h (0 Bft)
19.03.2019 06:46 -1,0 °C 92 % 1025,0 hPa 0,0 mm 0,0 km/h (0 Bft) SO 131 ° 0 min 0,000 mm 0,0 UV-I 18 W/m² -2,1 °C -1,0 °C 0,0 km/h (0 Bft)
19.03.2019 06:47 -1,0 °C 92 % 1025,0 hPa 0,0 mm 0,0 km/h (0 Bft) SO 131 ° 0 min 0,000 mm 0,0 UV-I 19 W/m² -2,1 °C -1,0 °C 0,0 km/h (0 Bft)
19.03.2019 06:48 -1,0 °C 92 % 1025,0 hPa 0,0 mm 0,0 km/h (0 Bft) SO 131 ° 0 min 0,000 mm 0,0 UV-I 19 W/m² -2,1 °C -1,0 °C 0,0 km/h (0 Bft)
19.03.2019 06:49 -0,9 °C 92 % 1025,1 hPa 0,0 mm 0,0 km/h (0 Bft) SO 131 ° 0 min 0,000 mm 0,0 UV-I 21 W/m² -2,0 °C -0,9 °C 0,0 km/h (0 Bft)
19.03.2019 06:50 -1,0 °C 92 % 1025,1 hPa 0,0 mm 0,1 km/h (0 Bft) SO 131 ° 0 min 0,000 mm 0,0 UV-I 21 W/m² -2,1 °C -1,0 °C 1,6 km/h (1 Bft)
19.03.2019 06:51 -0,9 °C 92 % 1025,1 hPa 0,0 mm 0,0 km/h (0 Bft) SO 131 ° 0 min 0,000 mm 0,0 UV-I 21 W/m² -2,0 °C -0,9 °C 0,0 km/h (0 Bft)
19.03.2019 06:52 -0,9 °C 92 % 1025,1 hPa 0,0 mm 0,0 km/h (0 Bft) SO 131 ° 0 min 0,000 mm 0,0 UV-I 21 W/m² -2,0 °C -0,9 °C 0,0 km/h (0 Bft)
19.03.2019 06:53 -0,9 °C 92 % 1025,1 hPa 0,0 mm 0,0 km/h (0 Bft) SO 131 ° 0 min 0,000 mm 0,0 UV-I 21 W/m² -2,0 °C -0,9 °C 0,0 km/h (0 Bft)
19.03.2019 06:54 -0,9 °C 92 % 1025,1 hPa 0,0 mm 0,0 km/h (0 Bft) SO 131 ° 0 min 0,000 mm 0,0 UV-I 21 W/m² -2,0 °C -0,9 °C 0,0 km/h (0 Bft)
19.03.2019 06:55 -0,9 °C 92 % 1025,1 hPa 0,0 mm 0,0 km/h (0 Bft) SO 131 ° 0 min 0,000 mm 0,0 UV-I 21 W/m² -2,0 °C -0,9 °C 0,0 km/h (0 Bft)
19.03.2019 06:56 -0,9 °C 92 % 1025,1 hPa 0,0 mm 0,0 km/h (0 Bft) SO 131 ° 0 min 0,000 mm 0,0 UV-I 23 W/m² -2,0 °C -0,9 °C 0,0 km/h (0 Bft)
19.03.2019 06:57 -0,9 °C 92 % 1025,2 hPa 0,0 mm 0,0 km/h (0 Bft) SO 131 ° 0 min 0,000 mm 0,0 UV-I 23 W/m² -2,0 °C -0,9 °C 0,0 km/h (0 Bft)
19.03.2019 06:58 -0,8 °C 92 % 1025,1 hPa 0,0 mm 0,0 km/h (0 Bft) SO 131 ° 0 min 0,000 mm 0,0 UV-I 23 W/m² -1,9 °C -0,8 °C 0,0 km/h (0 Bft)
19.03.2019 06:59 -0,8 °C 92 % 1025,2 hPa 0,0 mm 0,0 km/h (0 Bft) SO 131 ° 0 min 0,000 mm 0,0 UV-I 25 W/m² -1,9 °C -0,8 °C 0,0 km/h (0 Bft)
19.03.2019 07:00 -0,8 °C 92 % 1025,2 hPa 0,0 mm 0,0 km/h (0 Bft) SO 131 ° 0 min 0,000 mm 0,0 UV-I 25 W/m² -1,9 °C -0,8 °C 0,0 km/h (0 Bft)
19.03.2019 07:01 -0,8 °C 92 % 1025,2 hPa 0,0 mm 0,8 km/h (0 Bft) SO 131 ° 0 min 0,000 mm 0,0 UV-I 25 W/m² -1,9 °C -0,8 °C 3,2 km/h (1 Bft)
19.03.2019 07:02 -0,8 °C 92 % 1025,1 hPa 0,0 mm 3,4 km/h (1 Bft) SO 132 ° 0 min 0,000 mm 0,0 UV-I 25 W/m² -1,9 °C -0,8 °C 4,8 km/h (1 Bft)
19.03.2019 07:03 -0,7 °C 92 % 1025,2 hPa 0,0 mm 2,3 km/h (1 Bft) SO 132 ° 0 min 0,000 mm 0,0 UV-I 26 W/m² -1,8 °C -0,7 °C 3,2 km/h (1 Bft)
19.03.2019 07:04 -0,7 °C 92 % 1025,2 hPa 0,0 mm 0,4 km/h (0 Bft) SO 132 ° 0 min 0,000 mm 0,0 UV-I 26 W/m² -1,8 °C -0,7 °C 1,6 km/h (1 Bft)
19.03.2019 07:05 -0,7 °C 92 % 1025,2 hPa 0,0 mm 0,0 km/h (0 Bft) SO 132 ° 0 min 0,000 mm 0,0 UV-I 28 W/m² -1,8 °C -0,7 °C 0,0 km/h (0 Bft)
19.03.2019 07:06 -0,7 °C 91 % 1025,2 hPa 0,0 mm 0,0 km/h (0 Bft) SO 132 ° 0 min 0,000 mm 0,0 UV-I 28 W/m² -2,0 °C -0,7 °C 0,0 km/h (0 Bft)
19.03.2019 07:07 -0,6 °C 91 % 1025,2 hPa 0,0 mm 2,0 km/h (1 Bft) SO 132 ° 0 min 0,000 mm 0,0 UV-I 30 W/m² -1,9 °C -0,6 °C 3,2 km/h (1 Bft)
19.03.2019 07:08 -0,6 °C 91 % 1025,3 hPa 0,0 mm 2,6 km/h (1 Bft) SO 132 ° 0 min 0,000 mm 0,0 UV-I 32 W/m² -1,9 °C -0,6 °C 3,2 km/h (1 Bft)
19.03.2019 07:09 -0,6 °C 91 % 1025,3 hPa 0,0 mm 0,3 km/h (0 Bft) SO 132 ° 0 min 0,000 mm 0,0 UV-I 30 W/m² -1,9 °C -0,6 °C 1,6 km/h (1 Bft)
19.03.2019 07:10 -0,5 °C 91 % 1025,3 hPa 0,0 mm 0,2 km/h (0 Bft) SO 132 ° 0 min 0,000 mm 0,0 UV-I 30 W/m² -1,8 °C -0,5 °C 1,6 km/h (1 Bft)
19.03.2019 07:11 -0,5 °C 91 % 1025,3 hPa 0,0 mm 1,7 km/h (1 Bft) SO 132 ° 0 min 0,000 mm 0,0 UV-I 28 W/m² -1,8 °C -0,5 °C 3,2 km/h (1 Bft)
19.03.2019 07:12 -0,4 °C 91 % 1025,3 hPa 0,0 mm 2,0 km/h (1 Bft) SO 132 ° 0 min 0,000 mm 0,0 UV-I 26 W/m² -1,7 °C -0,4 °C 3,2 km/h (1 Bft)
19.03.2019 07:13 -0,4 °C 91 % 1025,3 hPa 0,0 mm 0,1 km/h (0 Bft) SO 132 ° 0 min 0,000 mm 0,0 UV-I 25 W/m² -1,7 °C -0,4 °C 1,6 km/h (1 Bft)
19.03.2019 07:14 -0,4 °C 91 % 1025,3 hPa 0,0 mm 0,0 km/h (0 Bft) SO 132 ° 0 min 0,000 mm 0,0 UV-I 25 W/m² -1,7 °C -0,4 °C 0,0 km/h (0 Bft)
19.03.2019 07:15 -0,4 °C 91 % 1025,4 hPa 0,0 mm 0,0 km/h (0 Bft) SO 132 ° 0 min 0,000 mm 0,0 UV-I 25 W/m² -1,7 °C -0,4 °C 0,0 km/h (0 Bft)
19.03.2019 07:16 -0,4 °C 91 % 1025,4 hPa 0,0 mm 0,0 km/h (0 Bft) SO 132 ° 0 min 0,000 mm 0,0 UV-I 26 W/m² -1,7 °C -0,4 °C 0,0 km/h (0 Bft)
19.03.2019 07:17 -0,3 °C 91 % 1025,4 hPa 0,0 mm 0,0 km/h (0 Bft) SO 132 ° 0 min 0,000 mm 0,0 UV-I 26 W/m² -1,6 °C -0,3 °C 0,0 km/h (0 Bft)
19.03.2019 07:18 -0,3 °C 91 % 1025,4 hPa 0,0 mm 0,0 km/h (0 Bft) SO 132 ° 0 min 0,000 mm 0,0 UV-I 28 W/m² -1,6 °C -0,3 °C 0,0 km/h (0 Bft)
19.03.2019 07:19 -0,3 °C 91 % 1025,4 hPa 0,0 mm 0,0 km/h (0 Bft) SO 132 ° 0 min 0,000 mm 0,0 UV-I 30 W/m² -1,6 °C -0,3 °C 0,0 km/h (0 Bft)
19.03.2019 07:20 -0,3 °C 91 % 1025,4 hPa 0,0 mm 0,0 km/h (0 Bft) SO 132 ° 0 min 0,000 mm 0,0 UV-I 30 W/m² -1,6 °C -0,3 °C 0,0 km/h (0 Bft)
19.03.2019 07:21 -0,3 °C 91 % 1025,4 hPa 0,0 mm 0,0 km/h (0 Bft) SO 132 ° 0 min 0,000 mm 0,0 UV-I 30 W/m² -1,6 °C -0,3 °C 0,0 km/h (0 Bft)
19.03.2019 07:22 -0,3 °C 91 % 1025,4 hPa 0,0 mm 0,0 km/h (0 Bft) SO 132 ° 0 min 0,000 mm 0,0 UV-I 30 W/m² -1,6 °C -0,3 °C 0,0 km/h (0 Bft)
19.03.2019 07:23 -0,3 °C 91 % 1025,4 hPa 0,0 mm 0,0 km/h (0 Bft) SO 132 ° 0 min 0,000 mm 0,0 UV-I 30 W/m² -1,6 °C -0,3 °C 0,0 km/h (0 Bft)
19.03.2019 07:24 -0,3 °C 91 % 1025,4 hPa 0,0 mm 0,0 km/h (0 Bft) SO 132 ° 0 min 0,000 mm 0,0 UV-I 30 W/m² -1,6 °C -0,3 °C 0,0 km/h (0 Bft)
19.03.2019 07:25 -0,3 °C 91 % 1025,4 hPa 0,0 mm 0,0 km/h (0 Bft) SO 132 ° 0 min 0,000 mm 0,0 UV-I 30 W/m² -1,6 °C -0,3 °C 0,0 km/h (0 Bft)
19.03.2019 07:26 -0,2 °C 91 % 1025,4 hPa 0,0 mm 0,0 km/h (0 Bft) SO 132 ° 0 min 0,000 mm 0,0 UV-I 30 W/m² -1,5 °C -0,2 °C 0,0 km/h (0 Bft)
19.03.2019 07:27 -0,2 °C 90 % 1025,4 hPa 0,0 mm 0,0 km/h (0 Bft) SO 132 ° 0 min 0,000 mm 0,0 UV-I 32 W/m² -1,6 °C -0,2 °C 0,0 km/h (0 Bft)
19.03.2019 07:28 -0,2 °C 90 % 1025,4 hPa 0,0 mm 0,0 km/h (0 Bft) SO 132 ° 0 min 0,000 mm 0,0 UV-I 32 W/m² -1,6 °C -0,2 °C 0,0 km/h (0 Bft)
19.03.2019 07:29 -0,2 °C 90 % 1025,5 hPa 0,0 mm 0,0 km/h (0 Bft) SO 132 ° 0 min 0,000 mm 0,0 UV-I 32 W/m² -1,6 °C -0,2 °C 0,0 km/h (0 Bft)
19.03.2019 07:30 -0,2 °C 90 % 1025,5 hPa 0,0 mm 0,0 km/h (0 Bft) SO 132 ° 0 min 0,000 mm 0,0 UV-I 32 W/m² -1,6 °C -0,2 °C 0,0 km/h (0 Bft)
19.03.2019 07:31 -0,2 °C 90 % 1025,5 hPa 0,0 mm 0,0 km/h (0 Bft) SO 132 ° 0 min 0,000 mm 0,0 UV-I 30 W/m² -1,6 °C -0,2 °C 0,0 km/h (0 Bft)
19.03.2019 07:32 -0,2 °C 90 % 1025,5 hPa 0,0 mm 0,0 km/h (0 Bft) SO 132 ° 0 min 0,000 mm 0,0 UV-I 30 W/m² -1,6 °C -0,2 °C 0,0 km/h (0 Bft)
19.03.2019 07:33 -0,2 °C 90 % 1025,5 hPa 0,0 mm 0,0 km/h (0 Bft) SO 132 ° 0 min 0,000 mm 0,0 UV-I 28 W/m² -1,6 °C -0,2 °C 0,0 km/h (0 Bft)
19.03.2019 07:34 -0,2 °C 90 % 1025,5 hPa 0,0 mm 0,0 km/h (0 Bft) SO 132 ° 0 min 0,000 mm 0,0 UV-I 28 W/m² -1,6 °C -0,2 °C 0,0 km/h (0 Bft)
19.03.2019 07:35 -0,2 °C 91 % 1025,5 hPa 0,0 mm 0,0 km/h (0 Bft) SO 132 ° 0 min 0,000 mm 0,0 UV-I 28 W/m² -1,5 °C -0,2 °C 0,0 km/h (0 Bft)
19.03.2019 07:36 -0,2 °C 91 % 1025,5 hPa 0,0 mm 0,0 km/h (0 Bft) SO 132 ° 0 min 0,000 mm 0,0 UV-I 28 W/m² -1,5 °C -0,2 °C 0,0 km/h (0 Bft)
19.03.2019 07:37 -0,2 °C 91 % 1025,5 hPa 0,0 mm 0,0 km/h (0 Bft) SO 132 ° 0 min 0,000 mm 0,0 UV-I 30 W/m² -1,5 °C -0,2 °C 0,0 km/h (0 Bft)
19.03.2019 07:38 -0,2 °C 90 % 1025,6 hPa 0,0 mm 0,0 km/h (0 Bft) SO 132 ° 0 min 0,000 mm 0,0 UV-I 30 W/m² -1,6 °C -0,2 °C 0,0 km/h (0 Bft)
19.03.2019 07:39 -0,2 °C 90 % 1025,6 hPa 0,0 mm 0,0 km/h (0 Bft) SO 132 ° 0 min 0,000 mm 0,0 UV-I 32 W/m² -1,6 °C -0,2 °C 0,0 km/h (0 Bft)
19.03.2019 07:40 -0,2 °C 90 % 1025,6 hPa 0,0 mm 0,0 km/h (0 Bft) SO 132 ° 0 min 0,000 mm 0,0 UV-I 33 W/m² -1,6 °C -0,2 °C 0,0 km/h (0 Bft)
19.03.2019 07:41 -0,2 °C 90 % 1025,6 hPa 0,0 mm 0,0 km/h (0 Bft) SO 132 ° 0 min 0,000 mm 0,0 UV-I 35 W/m² -1,6 °C -0,2 °C 0,0 km/h (0 Bft)
19.03.2019 07:42 -0,2 °C 90 % 1025,7 hPa 0,0 mm 0,0 km/h (0 Bft) SO 132 ° 0 min 0,000 mm 0,0 UV-I 37 W/m² -1,6 °C -0,2 °C 0,0 km/h (0 Bft)
19.03.2019 07:43 -0,2 °C 90 % 1025,6 hPa 0,0 mm 0,0 km/h (0 Bft) SO 132 ° 0 min 0,000 mm 0,0 UV-I 37 W/m² -1,6 °C -0,2 °C 0,0 km/h (0 Bft)
19.03.2019 07:44 -0,2 °C 90 % 1025,6 hPa 0,0 mm 0,0 km/h (0 Bft) SO 132 ° 0 min 0,000 mm 0,0 UV-I 37 W/m² -1,6 °C -0,2 °C 0,0 km/h (0 Bft)
19.03.2019 07:45 -0,2 °C 90 % 1025,7 hPa 0,0 mm 0,0 km/h (0 Bft) SO 132 ° 0 min 0,000 mm 0,0 UV-I 37 W/m² -1,6 °C -0,2 °C 0,0 km/h (0 Bft)
19.03.2019 07:46 -0,2 °C 90 % 1025,7 hPa 0,0 mm 0,0 km/h (0 Bft) SO 132 ° 0 min 0,000 mm 0,0 UV-I 39 W/m² -1,6 °C -0,2 °C 0,0 km/h (0 Bft)
19.03.2019 07:47 -0,2 °C 90 % 1025,7 hPa 0,0 mm 2,9 km/h (1 Bft) W 276 ° 0 min 0,000 mm 0,0 UV-I 40 W/m² -1,6 °C -0,2 °C 4,8 km/h (1 Bft)
19.03.2019 07:48 -0,2 °C 90 % 1025,7 hPa 0,0 mm 3,9 km/h (1 Bft) W 276 ° 0 min 0,000 mm 0,0 UV-I 42 W/m² -1,6 °C -0,2 °C 4,8 km/h (1 Bft)
19.03.2019 07:49 -0,2 °C 90 % 1025,8 hPa 0,0 mm 3,6 km/h (1 Bft) W 276 ° 0 min 0,000 mm 0,0 UV-I 44 W/m² -1,6 °C -0,2 °C 4,8 km/h (1 Bft)
19.03.2019 07:50 -0,2 °C 90 % 1025,7 hPa 0,0 mm 3,8 km/h (1 Bft) W 276 ° 0 min 0,000 mm 0,0 UV-I 47 W/m² -1,6 °C -0,2 °C 4,8 km/h (1 Bft)
19.03.2019 07:51 -0,2 °C 90 % 1025,7 hPa 0,0 mm 3,6 km/h (1 Bft) W 276 ° 0 min 0,000 mm 0,0 UV-I 49 W/m² -1,6 °C -0,2 °C 4,8 km/h (1 Bft)
19.03.2019 07:52 -0,2 °C 90 % 1025,7 hPa 0,0 mm 2,6 km/h (1 Bft) W 276 ° 0 min 0,000 mm 0,0 UV-I 49 W/m² -1,6 °C -0,2 °C 3,2 km/h (1 Bft)
19.03.2019 07:53 -0,2 °C 90 % 1025,8 hPa 0,0 mm 2,4 km/h (1 Bft) W 276 ° 0 min 0,000 mm 0,0 UV-I 51 W/m² -1,6 °C -0,2 °C 3,2 km/h (1 Bft)
19.03.2019 07:54 -0,2 °C 90 % 1025,8 hPa 0,0 mm 2,6 km/h (1 Bft) W 276 ° 0 min 0,000 mm 0,0 UV-I 51 W/m² -1,6 °C -0,2 °C 3,2 km/h (1 Bft)
19.03.2019 07:55 -0,2 °C 90 % 1025,8 hPa 0,0 mm 2,7 km/h (1 Bft) W 276 ° 0 min 0,000 mm 0,0 UV-I 51 W/m² -1,6 °C -0,2 °C 4,8 km/h (1 Bft)
19.03.2019 07:56 -0,2 °C 89 % 1025,8 hPa 0,0 mm 1,4 km/h (1 Bft) W 276 ° 0 min 0,000 mm 0,0 UV-I 51 W/m² -1,8 °C -0,2 °C 3,2 km/h (1 Bft)
19.03.2019 07:57 -0,2 °C 89 % 1025,8 hPa 0,0 mm 1,5 km/h (1 Bft) W 276 ° 0 min 0,000 mm 0,0 UV-I 51 W/m² -1,8 °C -0,2 °C 3,2 km/h (1 Bft)
19.03.2019 07:58 -0,2 °C 89 % 1025,9 hPa 0,0 mm 1,7 km/h (1 Bft) W 276 ° 0 min 0,000 mm 0,0 UV-I 51 W/m² -1,8 °C -0,2 °C 3,2 km/h (1 Bft)
19.03.2019 07:59 -0,2 °C 89 % 1025,9 hPa 0,0 mm 0,0 km/h (0 Bft) W 276 ° 0 min 0,000 mm 0,0 UV-I 49 W/m² -1,8 °C -0,2 °C 0,0 km/h (0 Bft)
19.03.2019 08:00 -0,2 °C 89 % 1025,9 hPa 0,0 mm 0,0 km/h (0 Bft) W 276 ° 0 min 0,000 mm 0,0 UV-I 49 W/m² -1,8 °C -0,2 °C 0,0 km/h (0 Bft)
19.03.2019 08:01 -0,2 °C 89 % 1025,9 hPa 0,0 mm 1,3 km/h (1 Bft) W 276 ° 0 min 0,000 mm 0,0 UV-I 49 W/m² -1,8 °C -0,2 °C 3,2 km/h (1 Bft)
19.03.2019 08:02 -0,2 °C 89 % 1026,0 hPa 0,0 mm 0,2 km/h (0 Bft) W 276 ° 0 min 0,000 mm 0,0 UV-I 47 W/m² -1,8 °C -0,2 °C 1,6 km/h (1 Bft)
19.03.2019 08:03 -0,2 °C 89 % 1026,0 hPa 0,0 mm 0,0 km/h (0 Bft) W 276 ° 0 min 0,000 mm 0,0 UV-I 46 W/m² -1,8 °C -0,2 °C 0,0 km/h (0 Bft)
19.03.2019 08:04 -0,2 °C 89 % 1026,0 hPa 0,0 mm 0,0 km/h (0 Bft) W 276 ° 0 min 0,000 mm 0,0 UV-I 42 W/m² -1,8 °C -0,2 °C 0,0 km/h (0 Bft)
19.03.2019 08:05 -0,1 °C 89 % 1026,0 hPa 0,0 mm 0,0 km/h (0 Bft) W 276 ° 0 min 0,000 mm 0,0 UV-I 39 W/m² -1,7 °C -0,1 °C 0,0 km/h (0 Bft)
19.03.2019 08:06 -0,1 °C 89 % 1026,0 hPa 0,0 mm 0,0 km/h (0 Bft) W 276 ° 0 min 0,000 mm 0,0 UV-I 37 W/m² -1,7 °C -0,1 °C 0,0 km/h (0 Bft)
19.03.2019 08:07 -0,1 °C 89 % 1026,0 hPa 0,0 mm 0,0 km/h (0 Bft) W 276 ° 0 min 0,000 mm 0,0 UV-I 35 W/m² -1,7 °C -0,1 °C 0,0 km/h (0 Bft)
19.03.2019 08:08 -0,1 °C 89 % 1026,0 hPa 0,0 mm 0,6 km/h (0 Bft) W 276 ° 0 min 0,000 mm 0,0 UV-I 35 W/m² -1,7 °C -0,1 °C 3,2 km/h (1 Bft)
19.03.2019 08:09 -0,1 °C 88 % 1026,0 hPa 0,0 mm 0,9 km/h (0 Bft) W 276 ° 0 min 0,000 mm 0,0 UV-I 35 W/m² -1,8 °C -0,1 °C 3,2 km/h (1 Bft)
19.03.2019 08:10 -0,1 °C 89 % 1026,0 hPa 0,0 mm 0,0 km/h (0 Bft) W 276 ° 0 min 0,000 mm 0,0 UV-I 37 W/m² -1,7 °C -0,1 °C 0,0 km/h (0 Bft)
19.03.2019 08:11 -0,1 °C 89 % 1026,0 hPa 0,0 mm 0,0 km/h (0 Bft) W 276 ° 0 min 0,000 mm 0,0 UV-I 42 W/m² -1,7 °C -0,1 °C 0,0 km/h (0 Bft)
19.03.2019 08:12 -0,1 °C 89 % 1026,0 hPa 0,0 mm 0,0 km/h (0 Bft) W 276 ° 0 min 0,000 mm 0,0 UV-I 46 W/m² -1,7 °C -0,1 °C 0,0 km/h (0 Bft)
19.03.2019 08:13 -0,1 °C 88 % 1026,0 hPa 0,0 mm 0,0 km/h (0 Bft) W 276 ° 0 min 0,000 mm 0,0 UV-I 49 W/m² -1,8 °C -0,1 °C 0,0 km/h (0 Bft)
19.03.2019 08:14 -0,1 °C 89 % 1026,0 hPa 0,0 mm 1,8 km/h (1 Bft) W 276 ° 0 min 0,000 mm 0,0 UV-I 54 W/m² -1,7 °C -0,1 °C 3,2 km/h (1 Bft)
19.03.2019 08:15 -0,1 °C 89 % 1026,0 hPa 0,0 mm 2,6 km/h (1 Bft) W 276 ° 0 min 0,000 mm 0,0 UV-I 58 W/m² -1,7 °C -0,1 °C 6,4 km/h (2 Bft)
19.03.2019 08:16 -0,1 °C 88 % 1026,0 hPa 0,0 mm 4,8 km/h (1 Bft) S-SW 202 ° 0 min 0,000 mm 0,0 UV-I 62 W/m² -1,8 °C -1,6 °C 6,4 km/h (2 Bft)
19.03.2019 08:17 0,0 °C 88 % 1026,0 hPa 0,0 mm 5,3 km/h (1 Bft) S-SW 202 ° 0 min 0,000 mm 0,0 UV-I 67 W/m² -1,7 °C -1,7 °C 6,4 km/h (2 Bft)
19.03.2019 08:18 0,0 °C 88 % 1026,0 hPa 0,0 mm 4,1 km/h (1 Bft) S-SW 202 ° 0 min 0,000 mm 0,0 UV-I 67 W/m² -1,7 °C 0,0 °C 4,8 km/h (1 Bft)
19.03.2019 08:19 0,0 °C 88 % 1026,0 hPa 0,0 mm 2,3 km/h (1 Bft) S-SW 202 ° 0 min 0,000 mm 0,0 UV-I 67 W/m² -1,7 °C 0,0 °C 3,2 km/h (1 Bft)
19.03.2019 08:20 0,1 °C 88 % 1026,0 hPa 0,0 mm 1,5 km/h (1 Bft) S-SW 202 ° 0 min 0,000 mm 0,0 UV-I 65 W/m² -1,6 °C 0,1 °C 3,2 km/h (1 Bft)
19.03.2019 08:21 0,1 °C 88 % 1026,0 hPa 0,0 mm 0,3 km/h (0 Bft) S-SW 202 ° 0 min 0,000 mm 0,0 UV-I 63 W/m² -1,6 °C 0,1 °C 1,6 km/h (1 Bft)
19.03.2019 08:22 0,1 °C 88 % 1026,0 hPa 0,0 mm 1,0 km/h (0 Bft) S-SW 202 ° 0 min 0,000 mm 0,0 UV-I 63 W/m² -1,6 °C 0,1 °C 3,2 km/h (1 Bft)
19.03.2019 08:23 0,1 °C 88 % 1026,1 hPa 0,0 mm 1,3 km/h (1 Bft) S-SW 202 ° 0 min 0,000 mm 0,0 UV-I 65 W/m² -1,6 °C 0,1 °C 1,6 km/h (1 Bft)
19.03.2019 08:24 0,1 °C 88 % 1026,1 hPa 0,0 mm 0,1 km/h (0 Bft) S-SW 202 ° 0 min 0,000 mm 0,0 UV-I 67 W/m² -1,6 °C 0,1 °C 1,6 km/h (1 Bft)
19.03.2019 08:25 0,1 °C 88 % 1026,1 hPa 0,0 mm 0,0 km/h (0 Bft) S-SW 202 ° 0 min 0,000 mm 0,0 UV-I 70 W/m² -1,6 °C 0,1 °C 0,0 km/h (0 Bft)
19.03.2019 08:26 0,1 °C 88 % 1026,1 hPa 0,0 mm 0,0 km/h (0 Bft) S-SW 202 ° 0 min 0,000 mm 0,0 UV-I 72 W/m² -1,6 °C 0,1 °C 0,0 km/h (0 Bft)
19.03.2019 08:27 0,1 °C 88 % 1026,1 hPa 0,0 mm 0,0 km/h (0 Bft) S-SW 202 ° 0 min 0,000 mm 0,5 UV-I 74 W/m² -1,6 °C 0,1 °C 0,0 km/h (0 Bft)
19.03.2019 08:28 0,1 °C 88 % 1026,1 hPa 0,0 mm 0,0 km/h (0 Bft) S-SW 202 ° 0 min 0,000 mm 0,5 UV-I 76 W/m² -1,6 °C 0,1 °C 0,0 km/h (0 Bft)
19.03.2019 08:29 0,1 °C 88 % 1026,1 hPa 0,0 mm 0,0 km/h (0 Bft) S-SW 202 ° 0 min 0,000 mm 0,5 UV-I 74 W/m² -1,6 °C 0,1 °C 0,0 km/h (0 Bft)
19.03.2019 08:30 0,1 °C 88 % 1026,2 hPa 0,0 mm 0,0 km/h (0 Bft) S-SW 202 ° 0 min 0,000 mm 0,5 UV-I 74 W/m² -1,6 °C 0,1 °C 0,0 km/h (0 Bft)
19.03.2019 08:31 0,1 °C 88 % 1026,2 hPa 0,0 mm 0,0 km/h (0 Bft) S-SW 202 ° 0 min 0,000 mm 0,5 UV-I 72 W/m² -1,6 °C 0,1 °C 0,0 km/h (0 Bft)
19.03.2019 08:32 0,1 °C 88 % 1026,2 hPa 0,0 mm 0,0 km/h (0 Bft) S-SW 202 ° 0 min 0,000 mm 0,0 UV-I 70 W/m² -1,6 °C 0,1 °C 0,0 km/h (0 Bft)
19.03.2019 08:33 0,1 °C 88 % 1026,2 hPa 0,0 mm 0,0 km/h (0 Bft) S-SW 202 ° 0 min 0,000 mm 0,0 UV-I 67 W/m² -1,6 °C 0,1 °C 0,0 km/h (0 Bft)
19.03.2019 08:34 0,1 °C 88 % 1026,2 hPa 0,0 mm 0,0 km/h (0 Bft) S-SW 202 ° 0 min 0,000 mm 0,0 UV-I 62 W/m² -1,6 °C 0,1 °C 0,0 km/h (0 Bft)
19.03.2019 08:35 0,2 °C 88 % 1026,2 hPa 0,0 mm 0,0 km/h (0 Bft) S-SW 202 ° 0 min 0,000 mm 0,0 UV-I 56 W/m² -1,5 °C 0,2 °C 0,0 km/h (0 Bft)
19.03.2019 08:36 0,1 °C 88 % 1026,2 hPa 0,0 mm 0,0 km/h (0 Bft) S-SW 202 ° 0 min 0,000 mm 0,0 UV-I 56 W/m² -1,6 °C 0,1 °C 0,0 km/h (0 Bft)
19.03.2019 08:37 0,1 °C 88 % 1026,2 hPa 0,0 mm 0,0 km/h (0 Bft) S-SW 202 ° 0 min 0,000 mm 0,0 UV-I 56 W/m² -1,6 °C 0,1 °C 0,0 km/h (0 Bft)
19.03.2019 08:38 0,1 °C 88 % 1026,2 hPa 0,0 mm 0,0 km/h (0 Bft) S-SW 202 ° 0 min 0,000 mm 0,0 UV-I 62 W/m² -1,6 °C 0,1 °C 0,0 km/h (0 Bft)
19.03.2019 08:39 0,2 °C 88 % 1026,2 hPa 0,0 mm 0,0 km/h (0 Bft) S-SW 202 ° 0 min 0,000 mm 0,0 UV-I 63 W/m² -1,5 °C 0,2 °C 0,0 km/h (0 Bft)
19.03.2019 08:40 0,2 °C 88 % 1026,3 hPa 0,0 mm 0,0 km/h (0 Bft) S-SW 202 ° 0 min 0,000 mm 0,0 UV-I 70 W/m² -1,5 °C 0,2 °C 0,0 km/h (0 Bft)
19.03.2019 08:41 0,2 °C 88 % 1026,2 hPa 0,0 mm 0,0 km/h (0 Bft) S-SW 202 ° 0 min 0,000 mm 0,5 UV-I 76 W/m² -1,5 °C 0,2 °C 0,0 km/h (0 Bft)
19.03.2019 08:42 0,2 °C 88 % 1026,3 hPa 0,0 mm 0,0 km/h (0 Bft) S-SW 202 ° 0 min 0,000 mm 0,5 UV-I 77 W/m² -1,5 °C 0,2 °C 0,0 km/h (0 Bft)
19.03.2019 08:43 0,2 °C 89 % 1026,3 hPa 0,0 mm 0,0 km/h (0 Bft) S-SW 202 ° 0 min 0,000 mm 0,5 UV-I 79 W/m² -1,4 °C 0,2 °C 0,0 km/h (0 Bft)
19.03.2019 08:44 0,2 °C 89 % 1026,2 hPa 0,0 mm 0,0 km/h (0 Bft) S-SW 202 ° 0 min 0,000 mm 0,5 UV-I 79 W/m² -1,4 °C 0,2 °C 0,0 km/h (0 Bft)
19.03.2019 08:45 0,2 °C 89 % 1026,3 hPa 0,0 mm 0,0 km/h (0 Bft) S-SW 202 ° 0 min 0,000 mm 0,5 UV-I 76 W/m² -1,4 °C 0,2 °C 0,0 km/h (0 Bft)
19.03.2019 08:46 0,2 °C 89 % 1026,3 hPa 0,0 mm 0,0 km/h (0 Bft) S-SW 202 ° 0 min 0,000 mm 0,5 UV-I 74 W/m² -1,4 °C 0,2 °C 0,0 km/h (0 Bft)
19.03.2019 08:47 0,2 °C 89 % 1026,3 hPa 0,0 mm 0,0 km/h (0 Bft) S-SW 202 ° 0 min 0,000 mm 0,5 UV-I 72 W/m² -1,4 °C 0,2 °C 0,0 km/h (0 Bft)
19.03.2019 08:48 0,3 °C 89 % 1026,3 hPa 0,0 mm 0,0 km/h (0 Bft) S-SW 202 ° 0 min 0,000 mm 0,5 UV-I 72 W/m² -1,3 °C 0,3 °C 0,0 km/h (0 Bft)
19.03.2019 08:49 0,3 °C 89 % 1026,3 hPa 0,0 mm 0,0 km/h (0 Bft) S-SW 202 ° 0 min 0,000 mm 0,5 UV-I 72 W/m² -1,3 °C 0,3 °C 0,0 km/h (0 Bft)
19.03.2019 08:50 0,3 °C 89 % 1026,3 hPa 0,0 mm 0,0 km/h (0 Bft) S-SW 202 ° 0 min 0,000 mm 0,5 UV-I 72 W/m² -1,3 °C 0,3 °C 0,0 km/h (0 Bft)
19.03.2019 08:51 0,2 °C 88 % 1026,3 hPa 0,0 mm 0,3 km/h (0 Bft) S-SW 203 ° 0 min 0,000 mm 0,5 UV-I 74 W/m² -1,5 °C 0,2 °C 1,6 km/h (1 Bft)
19.03.2019 08:52 0,3 °C 89 % 1026,2 hPa 0,0 mm 4,3 km/h (1 Bft) W-SW 244 ° 0 min 0,000 mm 0,5 UV-I 77 W/m² -1,3 °C 0,3 °C 4,8 km/h (1 Bft)
19.03.2019 08:53 0,3 °C 89 % 1026,2 hPa 0,0 mm 2,4 km/h (1 Bft) W-SW 244 ° 0 min 0,000 mm 0,5 UV-I 81 W/m² -1,3 °C 0,3 °C 4,8 km/h (1 Bft)
19.03.2019 08:54 0,3 °C 88 % 1026,2 hPa 0,0 mm 2,6 km/h (1 Bft) W-SW 244 ° 0 min 0,000 mm 0,6 UV-I 84 W/m² -1,4 °C 0,3 °C 3,2 km/h (1 Bft)
19.03.2019 08:55 0,3 °C 88 % 1026,3 hPa 0,0 mm 1,5 km/h (1 Bft) W-SW 244 ° 0 min 0,000 mm 0,6 UV-I 86 W/m² -1,4 °C 0,3 °C 3,2 km/h (1 Bft)
19.03.2019 08:56 0,3 °C 89 % 1026,3 hPa 0,0 mm 0,1 km/h (0 Bft) W-SW 244 ° 0 min 0,000 mm 0,6 UV-I 88 W/m² -1,3 °C 0,3 °C 1,6 km/h (1 Bft)
19.03.2019 08:57 0,3 °C 89 % 1026,2 hPa 0,0 mm 0,0 km/h (0 Bft) W-SW 244 ° 0 min 0,000 mm 0,6 UV-I 88 W/m² -1,3 °C 0,3 °C 0,0 km/h (0 Bft)
19.03.2019 08:58 0,3 °C 89 % 1026,3 hPa 0,0 mm 0,5 km/h (0 Bft) W-SW 244 ° 0 min 0,000 mm 0,6 UV-I 88 W/m² -1,3 °C 0,3 °C 1,6 km/h (1 Bft)
19.03.2019 08:59 0,3 °C 89 % 1026,2 hPa 0,0 mm 0,6 km/h (0 Bft) W-SW 243 ° 0 min 0,000 mm 0,6 UV-I 86 W/m² -1,3 °C 0,3 °C 3,2 km/h (1 Bft)
19.03.2019 09:00 0,3 °C 89 % 1026,2 hPa 0,0 mm 2,5 km/h (1 Bft) W-SW 243 ° 0 min 0,000 mm 0,6 UV-I 86 W/m² -1,3 °C 0,3 °C 3,2 km/h (1 Bft)
19.03.2019 09:01 0,3 °C 89 % 1026,3 hPa 0,0 mm 3,6 km/h (1 Bft) S-SW 210 ° 0 min 0,025 mm 0,6 UV-I 86 W/m² -1,3 °C 0,3 °C 6,4 km/h (2 Bft)
19.03.2019 09:02 0,3 °C 88 % 1026,2 hPa 0,0 mm 3,1 km/h (1 Bft) S-SW 210 ° 0 min 0,000 mm 0,6 UV-I 86 W/m² -1,4 °C 0,3 °C 6,4 km/h (2 Bft)
19.03.2019 09:03 0,3 °C 88 % 1026,2 hPa 0,0 mm 1,7 km/h (1 Bft) S-SW 210 ° 0 min 0,000 mm 0,6 UV-I 86 W/m² -1,4 °C 0,3 °C 3,2 km/h (1 Bft)
19.03.2019 09:04 0,3 °C 89 % 1026,3 hPa 0,0 mm 0,7 km/h (0 Bft) S-SW 210 ° 0 min 0,000 mm 0,6 UV-I 86 W/m² -1,3 °C 0,3 °C 1,6 km/h (1 Bft)
19.03.2019 09:05 0,3 °C 89 % 1026,2 hPa 0,0 mm 2,9 km/h (1 Bft) S-SW 210 ° 0 min 0,000 mm 0,6 UV-I 88 W/m² -1,3 °C 0,3 °C 3,2 km/h (1 Bft)
19.03.2019 09:06 0,3 °C 89 % 1026,2 hPa 0,0 mm 3,3 km/h (1 Bft) S-SW 210 ° 0 min 0,000 mm 0,6 UV-I 91 W/m² -1,3 °C 0,3 °C 4,8 km/h (1 Bft)
19.03.2019 09:07 0,3 °C 89 % 1026,2 hPa 0,0 mm 3,8 km/h (1 Bft) S-SW 210 ° 0 min 0,000 mm 0,6 UV-I 93 W/m² -1,3 °C 0,3 °C 4,8 km/h (1 Bft)
19.03.2019 09:08 0,4 °C 89 % 1026,3 hPa 0,0 mm 4,8 km/h (1 Bft) S-SW 210 ° 0 min 0,000 mm 0,7 UV-I 98 W/m² -1,2 °C -1,0 °C 6,4 km/h (2 Bft)
19.03.2019 09:09 0,4 °C 89 % 1026,2 hPa 0,0 mm 5,5 km/h (1 Bft) S-SW 210 ° 0 min 0,000 mm 0,7 UV-I 107 W/m² -1,2 °C -1,4 °C 6,4 km/h (2 Bft)
19.03.2019 09:10 0,4 °C 89 % 1026,3 hPa 0,0 mm 4,3 km/h (1 Bft) S-SW 210 ° 0 min 0,000 mm 0,8 UV-I 111 W/m² -1,2 °C 0,4 °C 4,8 km/h (1 Bft)
19.03.2019 09:11 0,4 °C 89 % 1026,3 hPa 0,0 mm 4,8 km/h (1 Bft) S-SW 210 ° 0 min 0,000 mm 0,8 UV-I 116 W/m² -1,2 °C -1,0 °C 6,4 km/h (2 Bft)
19.03.2019 09:12 0,4 °C 89 % 1026,3 hPa 0,0 mm 3,6 km/h (1 Bft) S-SW 210 ° 0 min 0,000 mm 0,8 UV-I 120 W/m² -1,2 °C 0,4 °C 4,8 km/h (1 Bft)
19.03.2019 09:13 0,4 °C 89 % 1026,4 hPa 0,0 mm 0,8 km/h (0 Bft) S-SW 210 ° 0 min 0,000 mm 0,9 UV-I 125 W/m² -1,2 °C 0,4 °C 1,6 km/h (1 Bft)
19.03.2019 09:14 0,4 °C 89 % 1026,4 hPa 0,0 mm 2,3 km/h (1 Bft) S-SW 210 ° 0 min 0,000 mm 0,9 UV-I 127 W/m² -1,2 °C 0,4 °C 3,2 km/h (1 Bft)
19.03.2019 09:15 0,5 °C 89 % 1026,4 hPa 0,0 mm 0,3 km/h (0 Bft) S-SW 210 ° 0 min 0,000 mm 0,9 UV-I 125 W/m² -1,1 °C 0,5 °C 3,2 km/h (1 Bft)
19.03.2019 09:16 0,5 °C 89 % 1026,4 hPa 0,0 mm 1,4 km/h (1 Bft) S-SW 210 ° 0 min 0,000 mm 0,8 UV-I 120 W/m² -1,1 °C 0,5 °C 3,2 km/h (1 Bft)
19.03.2019 09:17 0,6 °C 89 % 1026,4 hPa 0,0 mm 1,1 km/h (1 Bft) S-SW 210 ° 0 min 0,000 mm 0,8 UV-I 114 W/m² -1,0 °C 0,6 °C 1,6 km/h (1 Bft)
19.03.2019 09:18 0,6 °C 89 % 1026,4 hPa 0,0 mm 0,0 km/h (0 Bft) S-SW 210 ° 0 min 0,000 mm 0,7 UV-I 109 W/m² -1,0 °C 0,6 °C 0,0 km/h (0 Bft)
19.03.2019 09:19 0,6 °C 89 % 1026,4 hPa 0,0 mm 0,0 km/h (0 Bft) S-SW 210 ° 0 min 0,000 mm 0,7 UV-I 105 W/m² -1,0 °C 0,6 °C 0,0 km/h (0 Bft)
19.03.2019 09:20 0,7 °C 89 % 1026,4 hPa 0,0 mm 0,3 km/h (0 Bft) S-SW 210 ° 0 min 0,000 mm 0,7 UV-I 102 W/m² -0,9 °C 0,7 °C 1,6 km/h (1 Bft)
19.03.2019 09:21 0,7 °C 89 % 1026,4 hPa 0,0 mm 1,0 km/h (0 Bft) S-SW 210 ° 0 min 0,000 mm 0,7 UV-I 102 W/m² -0,9 °C 0,7 °C 3,2 km/h (1 Bft)
19.03.2019 09:22 0,7 °C 89 % 1026,5 hPa 0,0 mm 0,0 km/h (0 Bft) S-SW 210 ° 0 min 0,000 mm 0,7 UV-I 105 W/m² -0,9 °C 0,7 °C 0,0 km/h (0 Bft)
19.03.2019 09:23 0,7 °C 89 % 1026,5 hPa 0,0 mm 0,5 km/h (0 Bft) S-SW 210 ° 0 min 0,000 mm 0,7 UV-I 111 W/m² -0,9 °C 0,7 °C 1,6 km/h (1 Bft)
19.03.2019 09:24 0,7 °C 89 % 1026,5 hPa 0,0 mm 1,1 km/h (1 Bft) S-SW 210 ° 0 min 0,000 mm 0,7 UV-I 118 W/m² -0,9 °C 0,7 °C 3,2 km/h (1 Bft)
19.03.2019 09:25 0,7 °C 88 % 1026,6 hPa 0,0 mm 0,0 km/h (0 Bft) S-SW 210 ° 0 min 0,000 mm 0,8 UV-I 127 W/m² -1,1 °C 0,7 °C 0,0 km/h (0 Bft)
19.03.2019 09:26 0,7 °C 88 % 1026,6 hPa 0,0 mm 0,0 km/h (0 Bft) S-SW 210 ° 0 min 0,000 mm 0,8 UV-I 135 W/m² -1,1 °C 0,7 °C 0,0 km/h (0 Bft)
19.03.2019 09:27 0,7 °C 88 % 1026,6 hPa 0,0 mm 0,0 km/h (0 Bft) S-SW 210 ° 0 min 0,000 mm 0,9 UV-I 142 W/m² -1,1 °C 0,7 °C 0,0 km/h (0 Bft)
19.03.2019 09:28 0,7 °C 88 % 1026,6 hPa 0,0 mm 0,0 km/h (0 Bft) S-SW 210 ° 0 min 0,000 mm 1,0 UV-I 151 W/m² -1,1 °C 0,7 °C 0,0 km/h (0 Bft)
19.03.2019 09:29 0,7 °C 88 % 1026,6 hPa 0,0 mm 0,0 km/h (0 Bft) S-SW 210 ° 0 min 0,000 mm 1,0 UV-I 151 W/m² -1,1 °C 0,7 °C 0,0 km/h (0 Bft)
19.03.2019 09:30 0,7 °C 88 % 1026,5 hPa 0,0 mm 0,0 km/h (0 Bft) S-SW 210 ° 0 min 0,000 mm 1,1 UV-I 151 W/m² -1,1 °C 0,7 °C 0,0 km/h (0 Bft)
19.03.2019 09:31 0,8 °C 88 % 1026,5 hPa 0,0 mm 0,0 km/h (0 Bft) S-SW 210 ° 0 min 0,000 mm 1,1 UV-I 155 W/m² -1,0 °C 0,8 °C 0,0 km/h (0 Bft)
19.03.2019 09:32 0,8 °C 88 % 1026,6 hPa 0,0 mm 0,0 km/h (0 Bft) S-SW 210 ° 0 min 0,000 mm 1,1 UV-I 160 W/m² -1,0 °C 0,8 °C 0,0 km/h (0 Bft)
19.03.2019 09:33 0,8 °C 88 % 1026,6 hPa 0,0 mm 0,0 km/h (0 Bft) S-SW 210 ° 0 min 0,000 mm 1,1 UV-I 167 W/m² -1,0 °C 0,8 °C 0,0 km/h (0 Bft)
19.03.2019 09:34 0,9 °C 88 % 1026,6 hPa 0,0 mm 0,0 km/h (0 Bft) S-SW 210 ° 0 min 0,000 mm 1,2 UV-I 171 W/m² -0,9 °C 0,9 °C 0,0 km/h (0 Bft)
19.03.2019 09:35 1,0 °C 89 % 1026,6 hPa 0,0 mm 0,0 km/h (0 Bft) S-SW 210 ° 0 min 0,000 mm 1,3 UV-I 176 W/m² -0,6 °C 1,0 °C 0,0 km/h (0 Bft)
19.03.2019 09:36 1,0 °C 88 % 1026,6 hPa 0,0 mm 0,0 km/h (0 Bft) S-SW 210 ° 0 min 0,000 mm 1,3 UV-I 186 W/m² -0,8 °C 1,0 °C 0,0 km/h (0 Bft)
19.03.2019 09:37 1,0 °C 87 % 1026,6 hPa 0,0 mm 0,0 km/h (0 Bft) S-SW 210 ° 0 min 0,000 mm 1,4 UV-I 199 W/m² -0,9 °C 1,0 °C 0,0 km/h (0 Bft)
19.03.2019 09:38 1,0 °C 88 % 1026,6 hPa 0,0 mm 0,0 km/h (0 Bft) S-SW 210 ° 0 min 0,000 mm 1,4 UV-I 211 W/m² -0,8 °C 1,0 °C 0,0 km/h (0 Bft)
19.03.2019 09:39 1,0 °C 87 % 1026,5 hPa 0,0 mm 0,1 km/h (0 Bft) S-SW 210 ° 0 min 0,000 mm 1,5 UV-I 221 W/m² -0,9 °C 1,0 °C 1,6 km/h (1 Bft)
19.03.2019 09:40 1,0 °C 87 % 1026,6 hPa 0,0 mm 0,0 km/h (0 Bft) S-SW 210 ° 0 min 0,000 mm 1,5 UV-I 216 W/m² -0,9 °C 1,0 °C 0,0 km/h (0 Bft)
19.03.2019 09:41 1,2 °C 88 % 1026,5 hPa 0,0 mm 0,0 km/h (0 Bft) S-SW 210 ° 0 min 0,000 mm 1,4 UV-I 206 W/m² -0,6 °C 1,2 °C 0,0 km/h (0 Bft)
19.03.2019 09:42 1,2 °C 88 % 1026,6 hPa 0,0 mm 0,0 km/h (0 Bft) S-SW 210 ° 0 min 0,000 mm 1,4 UV-I 197 W/m² -0,6 °C 1,2 °C 0,0 km/h (0 Bft)
19.03.2019 09:43 1,2 °C 87 % 1026,6 hPa 0,0 mm 0,0 km/h (0 Bft) S-SW 210 ° 0 min 0,000 mm 1,4 UV-I 193 W/m² -0,7 °C 1,2 °C 0,0 km/h (0 Bft)
19.03.2019 09:44 1,2 °C 87 % 1026,6 hPa 0,0 mm 0,4 km/h (0 Bft) S-SW 210 ° 0 min 0,000 mm 1,4 UV-I 193 W/m² -0,7 °C 1,2 °C 1,6 km/h (1 Bft)
19.03.2019 09:45 1,2 °C 87 % 1026,6 hPa 0,0 mm 2,1 km/h (1 Bft) S-SW 210 ° 0 min 0,000 mm 1,5 UV-I 206 W/m² -0,7 °C 1,2 °C 3,2 km/h (1 Bft)
19.03.2019 09:46 1,3 °C 87 % 1026,6 hPa 0,0 mm 1,9 km/h (1 Bft) S-SW 210 ° 0 min 0,000 mm 1,5 UV-I 213 W/m² -0,6 °C 1,3 °C 3,2 km/h (1 Bft)
19.03.2019 09:47 1,3 °C 88 % 1026,6 hPa 0,0 mm 1,3 km/h (1 Bft) S-SW 210 ° 0 min 0,000 mm 1,5 UV-I 221 W/m² -0,5 °C 1,3 °C 3,2 km/h (1 Bft)
19.03.2019 09:48 1,3 °C 87 % 1026,6 hPa 0,0 mm 0,1 km/h (0 Bft) S-SW 210 ° 0 min 0,000 mm 1,5 UV-I 223 W/m² -0,6 °C 1,3 °C 1,6 km/h (1 Bft)
19.03.2019 09:49 1,2 °C 87 % 1026,7 hPa 0,0 mm 0,5 km/h (0 Bft) S-SW 210 ° 0 min 0,000 mm 1,5 UV-I 223 W/m² -0,7 °C 1,2 °C 1,6 km/h (1 Bft)
19.03.2019 09:50 1,1 °C 87 % 1026,7 hPa 0,0 mm 0,0 km/h (0 Bft) S-SW 210 ° 0 min 0,000 mm 1,4 UV-I 229 W/m² -0,8 °C 1,1 °C 0,0 km/h (0 Bft)
19.03.2019 09:51 1,2 °C 87 % 1026,6 hPa 0,0 mm 0,7 km/h (0 Bft) S-SW 210 ° 0 min 0,000 mm 1,4 UV-I 232 W/m² -0,7 °C 1,2 °C 3,2 km/h (1 Bft)
19.03.2019 09:52 1,3 °C 88 % 1026,7 hPa 0,0 mm 3,2 km/h (1 Bft) W-SW 252 ° 0 min 0,000 mm 1,4 UV-I 232 W/m² -0,5 °C 1,3 °C 4,8 km/h (1 Bft)
19.03.2019 09:53 1,4 °C 88 % 1026,7 hPa 0,0 mm 3,5 km/h (1 Bft) W 268 ° 0 min 0,000 mm 1,4 UV-I 237 W/m² -0,4 °C 1,4 °C 4,8 km/h (1 Bft)
19.03.2019 09:54 1,4 °C 87 % 1026,7 hPa 0,0 mm 4,4 km/h (1 Bft) NW 307 ° 0 min 0,000 mm 1,5 UV-I 246 W/m² -0,5 °C 1,4 °C 6,4 km/h (2 Bft)
19.03.2019 09:55 1,4 °C 87 % 1026,7 hPa 0,0 mm 2,7 km/h (1 Bft) NW 307 ° 0 min 0,000 mm 1,5 UV-I 258 W/m² -0,5 °C 1,4 °C 4,8 km/h (1 Bft)
19.03.2019 09:56 1,4 °C 86 % 1026,7 hPa 0,0 mm 2,0 km/h (1 Bft) NW 307 ° 0 min 0,000 mm 1,5 UV-I 272 W/m² -0,7 °C 1,4 °C 3,2 km/h (1 Bft)
19.03.2019 09:57 1,4 °C 87 % 1026,7 hPa 0,0 mm 4,5 km/h (1 Bft) NW 312 ° 0 min 0,000 mm 1,5 UV-I 278 W/m² -0,5 °C 1,4 °C 6,4 km/h (2 Bft)
19.03.2019 09:58 1,6 °C 88 % 1026,7 hPa 0,0 mm 3,7 km/h (1 Bft) NW 312 ° 0 min 0,000 mm 1,5 UV-I 276 W/m² -0,2 °C 1,6 °C 6,4 km/h (2 Bft)
19.03.2019 09:59 1,6 °C 87 % 1026,7 hPa 0,0 mm 4,4 km/h (1 Bft) NW 311 ° 0 min 0,000 mm 1,4 UV-I 246 W/m² -0,3 °C 1,6 °C 6,4 km/h (2 Bft)
19.03.2019 10:00 1,6 °C 87 % 1026,7 hPa 0,0 mm 4,5 km/h (1 Bft) W 281 ° 0 min 0,000 mm 1,3 UV-I 227 W/m² -0,3 °C 1,6 °C 6,4 km/h (2 Bft)
19.03.2019 10:01 1,5 °C 86 % 1026,7 hPa 0,0 mm 5,9 km/h (2 Bft) W 274 ° 0 min 0,051 mm 1,2 UV-I 209 W/m² -0,6 °C -0,3 °C 9,7 km/h (2 Bft)
19.03.2019 10:02 1,4 °C 86 % 1026,7 hPa 0,0 mm 4,2 km/h (1 Bft) W-NW 294 ° 0 min 0,000 mm 1,2 UV-I 183 W/m² -0,7 °C 1,4 °C 6,4 km/h (2 Bft)
19.03.2019 10:03 1,4 °C 87 % 1026,7 hPa 0,0 mm 3,8 km/h (1 Bft) W-NW 294 ° 0 min 0,000 mm 1,0 UV-I 169 W/m² -0,5 °C 1,4 °C 6,4 km/h (2 Bft)
19.03.2019 10:04 1,4 °C 86 % 1026,6 hPa 0,0 mm 0,0 km/h (0 Bft) W-NW 294 ° 0 min 0,000 mm 1,0 UV-I 155 W/m² -0,7 °C 1,4 °C 0,0 km/h (0 Bft)
19.03.2019 10:05 1,4 °C 87 % 1026,7 hPa 0,0 mm 1,6 km/h (1 Bft) W-NW 293 ° 0 min 0,000 mm 0,9 UV-I 142 W/m² -0,5 °C 1,4 °C 3,2 km/h (1 Bft)
19.03.2019 10:06 1,4 °C 86 % 1026,7 hPa 0,0 mm 3,8 km/h (1 Bft) W-NW 292 ° 0 min 0,000 mm 0,8 UV-I 130 W/m² -0,7 °C 1,4 °C 4,8 km/h (1 Bft)
19.03.2019 10:07 1,3 °C 86 % 1026,7 hPa 0,0 mm 3,4 km/h (1 Bft) W-NW 292 ° 0 min 0,000 mm 0,8 UV-I 123 W/m² -0,8 °C 1,3 °C 4,8 km/h (1 Bft)
19.03.2019 10:08 1,3 °C 86 % 1026,7 hPa 0,0 mm 3,2 km/h (1 Bft) W-NW 292 ° 0 min 0,000 mm 0,8 UV-I 111 W/m² -0,8 °C 1,3 °C 6,4 km/h (2 Bft)
19.03.2019 10:09 1,3 °C 86 % 1026,7 hPa 0,0 mm 1,7 km/h (1 Bft) W-NW 292 ° 0 min 0,000 mm 0,7 UV-I 107 W/m² -0,8 °C 1,3 °C 3,2 km/h (1 Bft)
19.03.2019 10:10 1,3 °C 86 % 1026,7 hPa 0,0 mm 1,7 km/h (1 Bft) W-NW 292 ° 0 min 0,000 mm 0,7 UV-I 105 W/m² -0,8 °C 1,3 °C 3,2 km/h (1 Bft)
19.03.2019 10:11 1,3 °C 86 % 1026,7 hPa 0,0 mm 0,1 km/h (0 Bft) W-NW 292 ° 0 min 0,000 mm 0,7 UV-I 104 W/m² -0,8 °C 1,3 °C 1,6 km/h (1 Bft)
19.03.2019 10:12 1,3 °C 86 % 1026,8 hPa 0,0 mm 1,0 km/h (0 Bft) W-NW 292 ° 0 min 0,000 mm 0,7 UV-I 104 W/m² -0,8 °C 1,3 °C 3,2 km/h (1 Bft)
19.03.2019 10:13 1,2 °C 86 % 1026,7 hPa 0,0 mm 0,1 km/h (0 Bft) W-NW 292 ° 0 min 0,000 mm 0,7 UV-I 102 W/m² -0,9 °C 1,2 °C 1,6 km/h (1 Bft)
19.03.2019 10:14 1,2 °C 86 % 1026,7 hPa 0,0 mm 0,0 km/h (0 Bft) W-NW 292 ° 0 min 0,000 mm 0,7 UV-I 104 W/m² -0,9 °C 1,2 °C 0,0 km/h (0 Bft)
19.03.2019 10:15 1,2 °C 87 % 1026,7 hPa 0,0 mm 0,2 km/h (0 Bft) W-NW 292 ° 0 min 0,000 mm 0,7 UV-I 105 W/m² -0,7 °C 1,2 °C 1,6 km/h (1 Bft)
19.03.2019 10:16 1,2 °C 87 % 1026,7 hPa 0,0 mm 1,5 km/h (1 Bft) W-NW 292 ° 0 min 0,000 mm 0,7 UV-I 105 W/m² -0,7 °C 1,2 °C 3,2 km/h (1 Bft)
19.03.2019 10:17 1,2 °C 86 % 1026,7 hPa 0,0 mm 0,1 km/h (0 Bft) W-NW 292 ° 0 min 0,000 mm 0,7 UV-I 105 W/m² -0,9 °C 1,2 °C 1,6 km/h (1 Bft)
19.03.2019 10:18 1,3 °C 86 % 1026,8 hPa 0,0 mm 0,0 km/h (0 Bft) W-NW 292 ° 0 min 0,000 mm 0,7 UV-I 104 W/m² -0,8 °C 1,3 °C 0,0 km/h (0 Bft)
19.03.2019 10:19 1,2 °C 86 % 1026,8 hPa 0,0 mm 0,0 km/h (0 Bft) W-NW 292 ° 0 min 0,000 mm 0,7 UV-I 104 W/m² -0,9 °C 1,2 °C 0,0 km/h (0 Bft)
19.03.2019 10:20 1,3 °C 86 % 1026,8 hPa 0,0 mm 0,5 km/h (0 Bft) W-NW 292 ° 0 min 0,000 mm 0,7 UV-I 98 W/m² -0,8 °C 1,3 °C 1,6 km/h (1 Bft)
19.03.2019 10:21 1,2 °C 86 % 1026,7 hPa 0,0 mm 1,1 km/h (1 Bft) W-NW 292 ° 0 min 0,000 mm 0,7 UV-I 97 W/m² -0,9 °C 1,2 °C 3,2 km/h (1 Bft)
19.03.2019 10:22 1,3 °C 86 % 1026,8 hPa 0,0 mm 0,0 km/h (0 Bft) W-NW 292 ° 0 min 0,000 mm 0,7 UV-I 97 W/m² -0,8 °C 1,3 °C 0,0 km/h (0 Bft)
19.03.2019 10:23 1,2 °C 86 % 1026,8 hPa 0,0 mm 0,0 km/h (0 Bft) W-NW 292 ° 0 min 0,000 mm 0,7 UV-I 95 W/m² -0,9 °C 1,2 °C 0,0 km/h (0 Bft)
19.03.2019 10:24 1,2 °C 86 % 1026,8 hPa 0,0 mm 0,0 km/h (0 Bft) W-NW 292 ° 0 min 0,000 mm 0,6 UV-I 91 W/m² -0,9 °C 1,2 °C 0,0 km/h (0 Bft)
19.03.2019 10:25 1,2 °C 86 % 1026,8 hPa 0,0 mm 0,0 km/h (0 Bft) W-NW 292 ° 0 min 0,000 mm 0,6 UV-I 88 W/m² -0,9 °C 1,2 °C 0,0 km/h (0 Bft)
19.03.2019 10:26 1,3 °C 86 % 1026,8 hPa 0,0 mm 0,0 km/h (0 Bft) W-NW 292 ° 0 min 0,000 mm 0,6 UV-I 83 W/m² -0,8 °C 1,3 °C 0,0 km/h (0 Bft)
19.03.2019 10:27 1,3 °C 87 % 1026,8 hPa 0,0 mm 0,0 km/h (0 Bft) W-NW 292 ° 0 min 0,000 mm 0,6 UV-I 83 W/m² -0,6 °C 1,3 °C 0,0 km/h (0 Bft)
19.03.2019 10:28 1,3 °C 86 % 1026,8 hPa 0,0 mm 0,0 km/h (0 Bft) W-NW 292 ° 0 min 0,000 mm 0,6 UV-I 83 W/m² -0,8 °C 1,3 °C 0,0 km/h (0 Bft)
19.03.2019 10:29 1,3 °C 86 % 1026,8 hPa 0,0 mm 0,0 km/h (0 Bft) W-NW 292 ° 0 min 0,000 mm 0,6 UV-I 83 W/m² -0,8 °C 1,3 °C 0,0 km/h (0 Bft)
19.03.2019 10:30 1,3 °C 86 % 1026,8 hPa 0,0 mm 0,0 km/h (0 Bft) W-NW 292 ° 0 min 0,000 mm 0,6 UV-I 83 W/m² -0,8 °C 1,3 °C 0,0 km/h (0 Bft)
19.03.2019 10:31 1,3 °C 86 % 1026,8 hPa 0,0 mm 0,0 km/h (0 Bft) W-NW 292 ° 0 min 0,000 mm 0,5 UV-I 79 W/m² -0,8 °C 1,3 °C 0,0 km/h (0 Bft)
19.03.2019 10:32 1,3 °C 86 % 1026,8 hPa 0,0 mm 0,0 km/h (0 Bft) W-NW 292 ° 0 min 0,000 mm 0,5 UV-I 77 W/m² -0,8 °C 1,3 °C 0,0 km/h (0 Bft)
19.03.2019 10:33 1,3 °C 86 % 1026,8 hPa 0,0 mm 0,0 km/h (0 Bft) W-NW 292 ° 0 min 0,000 mm 0,5 UV-I 76 W/m² -0,8 °C 1,3 °C 0,0 km/h (0 Bft)
19.03.2019 10:34 1,3 °C 86 % 1026,8 hPa 0,0 mm 0,2 km/h (0 Bft) W-NW 292 ° 0 min 0,000 mm 0,5 UV-I 76 W/m² -0,8 °C 1,3 °C 1,6 km/h (1 Bft)
19.03.2019 10:35 1,3 °C 86 % 1026,8 hPa 0,0 mm 2,7 km/h (1 Bft) W-NW 292 ° 0 min 0,000 mm 0,5 UV-I 76 W/m² -0,8 °C 1,3 °C 3,2 km/h (1 Bft)
19.03.2019 10:36 1,4 °C 86 % 1026,9 hPa 0,0 mm 2,7 km/h (1 Bft) W-NW 292 ° 0 min 0,000 mm 0,5 UV-I 76 W/m² -0,7 °C 1,4 °C 3,2 km/h (1 Bft)
19.03.2019 10:37 1,4 °C 86 % 1026,9 hPa 0,0 mm 4,9 km/h (1 Bft) NO 46 ° 0 min 0,000 mm 0,5 UV-I 74 W/m² -0,7 °C 0,0 °C 8,0 km/h (2 Bft)
19.03.2019 10:38 1,3 °C 86 % 1026,9 hPa 0,0 mm 5,9 km/h (2 Bft) NO 46 ° 0 min 0,000 mm 0,0 UV-I 70 W/m² -0,8 °C -0,5 °C 8,0 km/h (2 Bft)
19.03.2019 10:39 1,3 °C 86 % 1026,8 hPa 0,0 mm 5,2 km/h (1 Bft) NO 42 ° 0 min 0,000 mm 0,0 UV-I 69 W/m² -0,8 °C -0,2 °C 6,4 km/h (2 Bft)
19.03.2019 10:40 1,2 °C 86 % 1026,8 hPa 0,0 mm 2,7 km/h (1 Bft) NO 47 ° 0 min 0,000 mm 0,0 UV-I 70 W/m² -0,9 °C 1,2 °C 4,8 km/h (1 Bft)
19.03.2019 10:41 1,1 °C 87 % 1026,9 hPa 0,0 mm 0,9 km/h (0 Bft) NO 47 ° 0 min 0,000 mm 0,5 UV-I 74 W/m² -0,8 °C 1,1 °C 1,6 km/h (1 Bft)
19.03.2019 10:42 1,0 °C 87 % 1026,9 hPa 0,0 mm 0,0 km/h (0 Bft) NO 47 ° 0 min 0,000 mm 0,5 UV-I 79 W/m² -0,9 °C 1,0 °C 0,0 km/h (0 Bft)
19.03.2019 10:43 1,0 °C 88 % 1026,8 hPa 0,0 mm 1,0 km/h (0 Bft) NO 47 ° 0 min 0,000 mm 0,6 UV-I 98 W/m² -0,8 °C 1,0 °C 3,2 km/h (1 Bft)
19.03.2019 10:44 1,0 °C 88 % 1026,9 hPa 0,0 mm 2,8 km/h (1 Bft) NO 47 ° 0 min 0,000 mm 0,7 UV-I 109 W/m² -0,8 °C 1,0 °C 3,2 km/h (1 Bft)
19.03.2019 10:45 0,9 °C 88 % 1026,9 hPa 0,0 mm 1,9 km/h (1 Bft) NO 47 ° 0 min 0,000 mm 0,8 UV-I 116 W/m² -0,9 °C 0,9 °C 3,2 km/h (1 Bft)
19.03.2019 10:46 0,9 °C 88 % 1026,8 hPa 0,0 mm 0,9 km/h (0 Bft) NO 47 ° 0 min 0,000 mm 0,8 UV-I 125 W/m² -0,9 °C 0,9 °C 1,6 km/h (1 Bft)
19.03.2019 10:47 0,9 °C 88 % 1026,9 hPa 0,0 mm 0,0 km/h (0 Bft) NO 47 ° 0 min 0,000 mm 0,9 UV-I 134 W/m² -0,9 °C 0,9 °C 0,0 km/h (0 Bft)
19.03.2019 10:48 0,9 °C 89 % 1026,9 hPa 0,0 mm 0,1 km/h (0 Bft) NO 47 ° 0 min 0,000 mm 1,0 UV-I 142 W/m² -0,7 °C 0,9 °C 1,6 km/h (1 Bft)
19.03.2019 10:49 0,8 °C 89 % 1026,8 hPa 0,0 mm 0,0 km/h (0 Bft) NO 47 ° 0 min 0,000 mm 1,1 UV-I 162 W/m² -0,8 °C 0,8 °C 0,0 km/h (0 Bft)
19.03.2019 10:50 0,8 °C 89 % 1026,9 hPa 0,0 mm 0,0 km/h (0 Bft) NO 47 ° 0 min 0,000 mm 1,2 UV-I 171 W/m² -0,8 °C 0,8 °C 0,0 km/h (0 Bft)
19.03.2019 10:51 0,8 °C 89 % 1026,9 hPa 0,0 mm 0,0 km/h (0 Bft) NO 47 ° 0 min 0,000 mm 1,3 UV-I 181 W/m² -0,8 °C 0,8 °C 0,0 km/h (0 Bft)
19.03.2019 10:52 0,9 °C 89 % 1026,8 hPa 0,0 mm 0,0 km/h (0 Bft) NO 47 ° 0 min 0,000 mm 1,3 UV-I 192 W/m² -0,7 °C 0,9 °C 0,0 km/h (0 Bft)
19.03.2019 10:53 0,9 °C 89 % 1026,8 hPa 0,0 mm 0,0 km/h (0 Bft) NO 47 ° 0 min 0,000 mm 1,4 UV-I 202 W/m² -0,7 °C 0,9 °C 0,0 km/h (0 Bft)
19.03.2019 10:54 1,0 °C 89 % 1026,8 hPa 0,0 mm 0,0 km/h (0 Bft) NO 47 ° 0 min 0,000 mm 1,5 UV-I 211 W/m² -0,6 °C 1,0 °C 0,0 km/h (0 Bft)
19.03.2019 10:55 1,1 °C 90 % 1026,8 hPa 0,0 mm 0,0 km/h (0 Bft) NO 47 ° 0 min 0,000 mm 1,6 UV-I 229 W/m² -0,4 °C 1,1 °C 0,0 km/h (0 Bft)
19.03.2019 10:56 1,2 °C 89 % 1026,8 hPa 0,0 mm 0,0 km/h (0 Bft) NO 47 ° 0 min 0,000 mm 1,8 UV-I 237 W/m² -0,4 °C 1,2 °C 0,0 km/h (0 Bft)
19.03.2019 10:57 1,2 °C 89 % 1026,8 hPa 0,0 mm 0,0 km/h (0 Bft) NO 47 ° 0 min 0,000 mm 1,9 UV-I 251 W/m² -0,4 °C 1,2 °C 0,0 km/h (0 Bft)
19.03.2019 10:58 1,3 °C 89 % 1026,8 hPa 0,0 mm 0,0 km/h (0 Bft) NO 47 ° 0 min 0,000 mm 2,0 UV-I 269 W/m² -0,3 °C 1,3 °C 0,0 km/h (0 Bft)
19.03.2019 10:59 1,3 °C 89 % 1026,9 hPa 0,0 mm 0,0 km/h (0 Bft) NO 47 ° 0 min 0,000 mm 2,1 UV-I 290 W/m² -0,3 °C 1,3 °C 0,0 km/h (0 Bft)
19.03.2019 11:00 1,3 °C 89 % 1026,9 hPa 0,0 mm 0,0 km/h (0 Bft) NO 47 ° 0 min 0,000 mm 2,2 UV-I 315 W/m² -0,3 °C 1,3 °C 0,0 km/h (0 Bft)
19.03.2019 11:01 1,3 °C 88 % 1026,8 hPa 0,0 mm 0,0 km/h (0 Bft) NO 47 ° 0 min 0,051 mm 2,3 UV-I 360 W/m² -0,5 °C 1,3 °C 0,0 km/h (0 Bft)
19.03.2019 11:02 1,3 °C 88 % 1026,8 hPa 0,0 mm 0,0 km/h (0 Bft) NO 47 ° 0 min 0,000 mm 2,5 UV-I 380 W/m² -0,5 °C 1,3 °C 0,0 km/h (0 Bft)
19.03.2019 11:03 1,3 °C 88 % 1026,8 hPa 0,0 mm 0,0 km/h (0 Bft) NO 47 ° 0 min 0,000 mm 2,5 UV-I 383 W/m² -0,5 °C 1,3 °C 0,0 km/h (0 Bft)
19.03.2019 11:04 1,4 °C 88 % 1026,9 hPa 0,0 mm 0,0 km/h (0 Bft) NO 47 ° 0 min 0,000 mm 2,7 UV-I 425 W/m² -0,4 °C 1,4 °C 0,0 km/h (0 Bft)
19.03.2019 11:05 1,6 °C 89 % 1026,9 hPa 0,0 mm 0,8 km/h (0 Bft) NO 47 ° 0 min 0,000 mm 2,8 UV-I 475 W/m² -0,0 °C 1,6 °C 1,6 km/h (1 Bft)
19.03.2019 11:06 1,7 °C 89 % 1026,9 hPa 0,0 mm 1,8 km/h (1 Bft) NO 47 ° 0 min 0,000 mm 3,0 UV-I 559 W/m² 0,1 °C 1,7 °C 3,2 km/h (1 Bft)
19.03.2019 11:07 1,8 °C 89 % 1026,8 hPa 0,0 mm 1,8 km/h (1 Bft) NO 47 ° 0 min 0,000 mm 3,1 UV-I 591 W/m² 0,2 °C 1,8 °C 3,2 km/h (1 Bft)
19.03.2019 11:08 1,8 °C 88 % 1026,9 hPa 0,0 mm 1,0 km/h (0 Bft) NO 47 ° 0 min 0,000 mm 3,0 UV-I 541 W/m² 0,0 °C 1,8 °C 3,2 km/h (1 Bft)
19.03.2019 11:09 1,9 °C 87 % 1026,9 hPa 0,0 mm 1,5 km/h (1 Bft) NO 47 ° 0 min 0,000 mm 2,9 UV-I 471 W/m² -0,0 °C 1,9 °C 4,8 km/h (1 Bft)
19.03.2019 11:10 1,9 °C 87 % 1026,9 hPa 0,0 mm 3,2 km/h (1 Bft) NO 47 ° 0 min 0,000 mm 2,9 UV-I 462 W/m² -0,0 °C 1,9 °C 4,8 km/h (1 Bft)
19.03.2019 11:11 2,0 °C 87 % 1026,8 hPa 0,0 mm 3,9 km/h (1 Bft) S-SW 212 ° 0 min 0,000 mm 3,3 UV-I 462 W/m² 0,1 °C 2,0 °C 6,4 km/h (2 Bft)
19.03.2019 11:12 2,1 °C 87 % 1026,9 hPa 0,0 mm 2,8 km/h (1 Bft) SW 221 ° 1 min 0,000 mm 3,4 UV-I 731 W/m² 0,2 °C 2,1 °C 3,2 km/h (1 Bft)
19.03.2019 11:13 2,2 °C 87 % 1026,9 hPa 0,0 mm 2,8 km/h (1 Bft) W-SW 242 ° 1 min 0,000 mm 3,6 UV-I 737 W/m² 0,3 °C 2,2 °C 4,8 km/h (1 Bft)
19.03.2019 11:14 2,2 °C 86 % 1026,8 hPa 0,0 mm 3,4 km/h (1 Bft) SW 227 ° 1 min 0,000 mm 3,5 UV-I 694 W/m² 0,1 °C 2,2 °C 4,8 km/h (1 Bft)
19.03.2019 11:15 2,2 °C 86 % 1026,9 hPa 0,0 mm 3,8 km/h (1 Bft) W-SW 237 ° 1 min 0,000 mm 3,3 UV-I 624 W/m² 0,1 °C 2,2 °C 4,8 km/h (1 Bft)
19.03.2019 11:16 2,3 °C 86 % 1026,9 hPa 0,0 mm 3,8 km/h (1 Bft) W-SW 244 ° 1 min 0,000 mm 3,1 UV-I 624 W/m² 0,2 °C 2,3 °C 8,0 km/h (2 Bft)
19.03.2019 11:17 2,3 °C 86 % 1026,9 hPa 0,0 mm 4,0 km/h (1 Bft) W-SW 244 ° 0 min 0,000 mm 3,0 UV-I 504 W/m² 0,2 °C 2,3 °C 8,0 km/h (2 Bft)
19.03.2019 11:18 2,3 °C 86 % 1026,9 hPa 0,0 mm 2,4 km/h (1 Bft) W-SW 244 ° 0 min 0,000 mm 3,0 UV-I 448 W/m² 0,2 °C 2,3 °C 4,8 km/h (1 Bft)
19.03.2019 11:19 2,3 °C 86 % 1026,9 hPa 0,0 mm 4,0 km/h (1 Bft) W-SW 244 ° 0 min 0,000 mm 2,7 UV-I 431 W/m² 0,2 °C 2,3 °C 6,4 km/h (2 Bft)
19.03.2019 11:20 2,2 °C 85 % 1026,9 hPa 0,0 mm 4,4 km/h (1 Bft) S-SW 196 ° 0 min 0,000 mm 2,7 UV-I 422 W/m² -0,1 °C 2,2 °C 8,0 km/h (2 Bft)
19.03.2019 11:21 2,1 °C 84 % 1026,9 hPa 0,0 mm 1,5 km/h (1 Bft) S-SW 196 ° 0 min 0,000 mm 2,7 UV-I 420 W/m² -0,3 °C 2,1 °C 3,2 km/h (1 Bft)
19.03.2019 11:22 2,1 °C 84 % 1026,9 hPa 0,0 mm 1,6 km/h (1 Bft) S-SW 196 ° 0 min 0,000 mm 2,7 UV-I 427 W/m² -0,3 °C 2,1 °C 4,8 km/h (1 Bft)
19.03.2019 11:23 2,0 °C 83 % 1026,9 hPa 0,0 mm 3,2 km/h (1 Bft) SW 233 ° 0 min 0,000 mm 2,8 UV-I 441 W/m² -0,6 °C 2,0 °C 6,4 km/h (2 Bft)
19.03.2019 11:24 2,1 °C 84 % 1026,9 hPa 0,0 mm 5,1 km/h (1 Bft) SW 218 ° 0 min 0,000 mm 2,9 UV-I 527 W/m² -0,3 °C 0,7 °C 6,4 km/h (2 Bft)
19.03.2019 11:25 2,2 °C 82 % 1026,9 hPa 0,0 mm 4,4 km/h (1 Bft) W-SW 238 ° 0 min 0,000 mm 3,6 UV-I 527 W/m² -0,5 °C 2,2 °C 6,4 km/h (2 Bft)
19.03.2019 11:26 2,2 °C 83 % 1026,8 hPa 0,0 mm 3,8 km/h (1 Bft) W-SW 238 ° 1 min 0,000 mm 3,5 UV-I 708 W/m² -0,4 °C 2,2 °C 4,8 km/h (1 Bft)
19.03.2019 11:27 2,3 °C 83 % 1026,8 hPa 0,0 mm 5,0 km/h (1 Bft) W-SW 237 ° 1 min 0,000 mm 3,6 UV-I 673 W/m² -0,3 °C 1,0 °C 6,4 km/h (2 Bft)
19.03.2019 11:28 2,4 °C 84 % 1026,8 hPa 0,0 mm 2,3 km/h (1 Bft) S-SW 212 ° 1 min 0,000 mm 3,5 UV-I 608 W/m² -0,0 °C 2,4 °C 6,4 km/h (2 Bft)
19.03.2019 11:29 2,4 °C 83 % 1026,8 hPa 0,0 mm 1,4 km/h (1 Bft) S-SW 212 ° 0 min 0,000 mm 3,1 UV-I 571 W/m² -0,2 °C 2,4 °C 3,2 km/h (1 Bft)
19.03.2019 11:30 2,4 °C 82 % 1026,9 hPa 0,0 mm 0,3 km/h (0 Bft) S-SW 212 ° 0 min 0,000 mm 3,0 UV-I 489 W/m² -0,4 °C 2,4 °C 1,6 km/h (1 Bft)
19.03.2019 11:31 2,4 °C 83 % 1026,9 hPa 0,0 mm 0,0 km/h (0 Bft) S-SW 212 ° 0 min 0,000 mm 2,7 UV-I 424 W/m² -0,2 °C 2,4 °C 0,0 km/h (0 Bft)
19.03.2019 11:32 2,6 °C 84 % 1026,9 hPa 0,0 mm 0,0 km/h (0 Bft) S-SW 212 ° 0 min 0,000 mm 2,6 UV-I 394 W/m² 0,2 °C 2,6 °C 0,0 km/h (0 Bft)
19.03.2019 11:33 2,7 °C 84 % 1026,9 hPa 0,0 mm 2,9 km/h (1 Bft) W-SW 251 ° 0 min 0,000 mm 2,6 UV-I 376 W/m² 0,3 °C 2,7 °C 3,2 km/h (1 Bft)
19.03.2019 11:34 2,8 °C 84 % 1026,9 hPa 0,0 mm 3,3 km/h (1 Bft) W 259 ° 0 min 0,000 mm 2,5 UV-I 362 W/m² 0,4 °C 2,8 °C 4,8 km/h (1 Bft)
19.03.2019 11:35 2,8 °C 82 % 1026,9 hPa 0,0 mm 1,7 km/h (1 Bft) W 259 ° 0 min 0,000 mm 2,5 UV-I 352 W/m² 0,0 °C 2,8 °C 3,2 km/h (1 Bft)
19.03.2019 11:36 2,9 °C 82 % 1026,9 hPa 0,0 mm 4,3 km/h (1 Bft) W-NW 291 ° 0 min 0,000 mm 2,5 UV-I 341 W/m² 0,1 °C 2,9 °C 6,4 km/h (2 Bft)
19.03.2019 11:37 2,9 °C 83 % 1026,8 hPa 0,0 mm 5,4 km/h (1 Bft) W 279 ° 0 min 0,000 mm 2,4 UV-I 338 W/m² 0,3 °C 1,5 °C 6,4 km/h (2 Bft)
19.03.2019 11:38 2,8 °C 81 % 1026,8 hPa 0,0 mm 5,2 km/h (1 Bft) W-NW 286 ° 0 min 0,000 mm 2,4 UV-I 334 W/m² -0,1 °C 1,5 °C 6,4 km/h (2 Bft)
19.03.2019 11:39 2,7 °C 81 % 1026,8 hPa 0,2 mm 3,6 km/h (1 Bft) W 281 ° 0 min 0,000 mm 2,4 UV-I 334 W/m² -0,2 °C 2,7 °C 6,4 km/h (2 Bft)
19.03.2019 11:40 2,7 °C 81 % 1026,8 hPa 0,0 mm 4,8 km/h (1 Bft) W 275 ° 0 min 0,000 mm 2,4 UV-I 329 W/m² -0,2 °C 1,6 °C 6,4 km/h (2 Bft)
19.03.2019 11:41 2,6 °C 81 % 1026,8 hPa 0,0 mm 8,5 km/h (2 Bft) W 272 ° 0 min 0,000 mm 2,4 UV-I 334 W/m² -0,3 °C 0,2 °C 11,3 km/h (2 Bft)
19.03.2019 11:42 2,6 °C 82 % 1026,8 hPa 0,0 mm 7,4 km/h (2 Bft) W-NW 284 ° 0 min 0,000 mm 2,5 UV-I 345 W/m² -0,2 °C 0,5 °C 11,3 km/h (2 Bft)
19.03.2019 11:43 2,6 °C 83 % 1026,8 hPa 0,0 mm 7,8 km/h (2 Bft) W 266 ° 0 min 0,000 mm 2,6 UV-I 353 W/m² 0,0 °C 0,4 °C 9,7 km/h (2 Bft)
19.03.2019 11:44 2,6 °C 84 % 1026,8 hPa 0,0 mm 6,2 km/h (2 Bft) W 267 ° 0 min 0,000 mm 2,6 UV-I 350 W/m² 0,2 °C 0,9 °C 9,7 km/h (2 Bft)
19.03.2019 11:45 2,6 °C 83 % 1026,8 hPa 0,0 mm 4,7 km/h (1 Bft) S-SW 198 ° 0 min 0,000 mm 2,6 UV-I 350 W/m² 0,0 °C 1,5 °C 9,7 km/h (2 Bft)
19.03.2019 11:46 2,6 °C 83 % 1026,8 hPa 0,2 mm 8,0 km/h (2 Bft) S-SW 199 ° 0 min 0,000 mm 2,6 UV-I 353 W/m² 0,0 °C 0,3 °C 11,3 km/h (2 Bft)
19.03.2019 11:47 2,6 °C 83 % 1026,9 hPa 0,0 mm 4,9 km/h (1 Bft) SW 236 ° 0 min 0,000 mm 2,8 UV-I 374 W/m² 0,0 °C 1,4 °C 8,0 km/h (2 Bft)
19.03.2019 11:48 2,6 °C 83 % 1026,9 hPa 0,0 mm 5,1 km/h (1 Bft) S 186 ° 0 min 0,000 mm 3,2 UV-I 545 W/m² 0,0 °C 1,3 °C 8,0 km/h (2 Bft)
19.03.2019 11:49 2,6 °C 83 % 1026,8 hPa 0,0 mm 8,3 km/h (2 Bft) S-SW 209 ° 0 min 0,000 mm 3,3 UV-I 545 W/m² 0,0 °C 0,2 °C 9,7 km/h (2 Bft)
19.03.2019 11:50 2,6 °C 83 % 1026,9 hPa 0,0 mm 4,4 km/h (1 Bft) S-SW 206 ° 0 min 0,000 mm 3,6 UV-I 545 W/m² 0,0 °C 2,6 °C 6,4 km/h (2 Bft)
19.03.2019 11:51 2,7 °C 84 % 1026,8 hPa 0,2 mm 4,0 km/h (1 Bft) S-SW 200 ° 0 min 0,000 mm 3,1 UV-I 545 W/m² 0,3 °C 2,7 °C 8,0 km/h (2 Bft)
19.03.2019 11:52 2,7 °C 83 % 1026,9 hPa 0,0 mm 4,6 km/h (1 Bft) W-SW 237 ° 0 min 0,000 mm 3,0 UV-I 436 W/m² 0,1 °C 1,7 °C 6,4 km/h (2 Bft)
19.03.2019 11:53 2,8 °C 83 % 1026,9 hPa 0,0 mm 2,4 km/h (1 Bft) W 264 ° 0 min 0,000 mm 3,0 UV-I 441 W/m² 0,2 °C 2,8 °C 4,8 km/h (1 Bft)
19.03.2019 11:54 2,9 °C 84 % 1026,9 hPa 0,0 mm 4,2 km/h (1 Bft) W 275 ° 0 min 0,000 mm 3,0 UV-I 436 W/m² 0,5 °C 2,9 °C 6,4 km/h (2 Bft)
19.03.2019 11:55 2,9 °C 82 % 1026,9 hPa 0,0 mm 7,1 km/h (2 Bft) W 267 ° 0 min 0,000 mm 2,8 UV-I 367 W/m² 0,1 °C 0,9 °C 9,7 km/h (2 Bft)
19.03.2019 11:56 2,9 °C 81 % 1026,8 hPa 0,0 mm 5,8 km/h (2 Bft) W 261 ° 0 min 0,000 mm 2,9 UV-I 415 W/m² -0,0 °C 1,4 °C 9,7 km/h (2 Bft)
19.03.2019 11:57 2,9 °C 82 % 1026,9 hPa 0,0 mm 3,2 km/h (1 Bft) W 259 ° 0 min 0,000 mm 3,1 UV-I 438 W/m² 0,1 °C 2,9 °C 6,4 km/h (2 Bft)
19.03.2019 11:58 2,9 °C 81 % 1026,9 hPa 0,0 mm 3,5 km/h (1 Bft) W-SW 248 ° 0 min 0,000 mm 3,0 UV-I 401 W/m² -0,0 °C 2,9 °C 6,4 km/h (2 Bft)
19.03.2019 11:59 2,9 °C 78 % 1026,8 hPa 0,2 mm 0,3 km/h (0 Bft) W-SW 248 ° 0 min 0,000 mm 2,9 UV-I 388 W/m² -0,5 °C 2,9 °C 1,6 km/h (1 Bft)
19.03.2019 12:00 2,9 °C 78 % 1026,9 hPa 0,0 mm 2,1 km/h (1 Bft) W-SW 247 ° 0 min 0,178 mm 3,5 UV-I 388 W/m² -0,5 °C 2,9 °C 4,8 km/h (1 Bft)
19.03.2019 12:01 3,0 °C 79 % 1026,8 hPa 0,0 mm 0,1 km/h (0 Bft) W-SW 247 ° 0 min 0,000 mm 4,3 UV-I 388 W/m² -0,3 °C 3,0 °C 1,6 km/h (1 Bft)
19.03.2019 12:02 3,1 °C 79 % 1026,8 hPa 0,0 mm 3,0 km/h (1 Bft) W-SW 248 ° 1 min 0,000 mm 4,2 UV-I 854 W/m² -0,2 °C 3,1 °C 4,8 km/h (1 Bft)
19.03.2019 12:03 3,1 °C 78 % 1026,9 hPa 0,0 mm 3,6 km/h (1 Bft) S-SW 194 ° 1 min 0,000 mm 4,0 UV-I 854 W/m² -0,4 °C 3,1 °C 4,8 km/h (1 Bft)
19.03.2019 12:04 3,2 °C 79 % 1026,9 hPa 0,0 mm 5,8 km/h (2 Bft) W 265 ° 1 min 0,000 mm 3,2 UV-I 854 W/m² -0,1 °C 1,7 °C 11,3 km/h (2 Bft)
19.03.2019 12:05 3,2 °C 78 % 1026,9 hPa 0,0 mm 4,0 km/h (1 Bft) W 269 ° 1 min 0,000 mm 2,9 UV-I 854 W/m² -0,3 °C 3,2 °C 6,4 km/h (2 Bft)
19.03.2019 12:06 3,1 °C 78 % 1026,9 hPa 0,0 mm 2,5 km/h (1 Bft) W-SW 252 ° 1 min 0,000 mm 3,5 UV-I 854 W/m² -0,4 °C 3,1 °C 4,8 km/h (1 Bft)
19.03.2019 12:07 3,1 °C 79 % 1026,9 hPa 0,0 mm 0,4 km/h (0 Bft) W-SW 252 ° 1 min 0,000 mm 2,9 UV-I 854 W/m² -0,2 °C 3,1 °C 1,6 km/h (1 Bft)
19.03.2019 12:08 3,2 °C 78 % 1026,9 hPa 0,0 mm 2,2 km/h (1 Bft) W-SW 241 ° 0 min 0,000 mm 3,0 UV-I 454 W/m² -0,3 °C 3,2 °C 8,0 km/h (2 Bft)
19.03.2019 12:09 3,2 °C 78 % 1026,9 hPa 0,0 mm 6,5 km/h (2 Bft) W-SW 252 ° 0 min 0,000 mm 2,7 UV-I 362 W/m² -0,3 °C 1,5 °C 11,3 km/h (2 Bft)
19.03.2019 12:10 3,2 °C 78 % 1026,9 hPa 0,0 mm 4,9 km/h (1 Bft) SW 236 ° 0 min 0,000 mm 2,6 UV-I 332 W/m² -0,3 °C 2,1 °C 8,0 km/h (2 Bft)
19.03.2019 12:11 3,2 °C 78 % 1026,9 hPa 0,0 mm 4,1 km/h (1 Bft) W 267 ° 0 min 0,000 mm 2,6 UV-I 309 W/m² -0,3 °C 3,2 °C 4,8 km/h (1 Bft)
19.03.2019 12:12 3,2 °C 78 % 1026,9 hPa 0,0 mm 3,6 km/h (1 Bft) W 267 ° 0 min 0,000 mm 2,5 UV-I 309 W/m² -0,3 °C 3,2 °C 6,4 km/h (2 Bft)
19.03.2019 12:13 3,2 °C 78 % 1026,9 hPa 0,0 mm 1,3 km/h (1 Bft) W 267 ° 0 min 0,000 mm 2,4 UV-I 283 W/m² -0,3 °C 3,2 °C 3,2 km/h (1 Bft)
19.03.2019 12:14 3,2 °C 79 % 1026,9 hPa 0,0 mm 2,7 km/h (1 Bft) NW 306 ° 0 min 0,000 mm 2,6 UV-I 308 W/m² -0,1 °C 3,2 °C 6,4 km/h (2 Bft)
19.03.2019 12:15 3,3 °C 78 % 1026,8 hPa 0,0 mm 3,9 km/h (1 Bft) O 84 ° 0 min 0,000 mm 3,1 UV-I 308 W/m² -0,2 °C 3,3 °C 4,8 km/h (1 Bft)
19.03.2019 12:16 3,3 °C 77 % 1026,9 hPa 0,0 mm 3,8 km/h (1 Bft) W 279 ° 0 min 0,000 mm 3,4 UV-I 308 W/m² -0,3 °C 3,3 °C 9,7 km/h (2 Bft)
19.03.2019 12:17 3,3 °C 77 % 1026,9 hPa 0,2 mm 4,2 km/h (1 Bft) W 278 ° 0 min 0,000 mm 3,2 UV-I 443 W/m² -0,3 °C 3,3 °C 9,7 km/h (2 Bft)
19.03.2019 12:18 3,3 °C 77 % 1026,8 hPa 0,0 mm 2,6 km/h (1 Bft) W 273 ° 0 min 0,000 mm 2,7 UV-I 397 W/m² -0,3 °C 3,3 °C 9,7 km/h (2 Bft)
19.03.2019 12:19 3,4 °C 79 % 1026,8 hPa 0,0 mm 4,3 km/h (1 Bft) O-NO 73 ° 0 min 0,000 mm 2,6 UV-I 309 W/m² 0,1 °C 3,4 °C 9,7 km/h (2 Bft)
19.03.2019 12:20 3,4 °C 77 % 1026,8 hPa 0,0 mm 5,9 km/h (2 Bft) O 94 ° 0 min 0,000 mm 2,6 UV-I 304 W/m² -0,2 °C 1,9 °C 11,3 km/h (2 Bft)
19.03.2019 12:21 3,3 °C 76 % 1026,8 hPa 0,0 mm 4,7 km/h (1 Bft) O-NO 65 ° 0 min 0,000 mm 2,6 UV-I 316 W/m² -0,5 °C 2,3 °C 8,0 km/h (2 Bft)
19.03.2019 12:22 3,2 °C 75 % 1026,9 hPa 0,0 mm 4,8 km/h (1 Bft) O-SO 119 ° 0 min 0,000 mm 2,7 UV-I 334 W/m² -0,8 °C 2,1 °C 6,4 km/h (2 Bft)
19.03.2019 12:23 3,1 °C 75 % 1026,8 hPa 0,0 mm 2,1 km/h (1 Bft) O-SO 116 ° 0 min 0,000 mm 2,8 UV-I 385 W/m² -0,9 °C 3,1 °C 4,8 km/h (1 Bft)
19.03.2019 12:24 3,1 °C 75 % 1026,9 hPa 0,0 mm 3,4 km/h (1 Bft) O-NO 61 ° 0 min 0,000 mm 3,1 UV-I 417 W/m² -0,9 °C 3,1 °C 8,0 km/h (2 Bft)
19.03.2019 12:25 3,3 °C 77 % 1026,9 hPa 0,0 mm 5,0 km/h (1 Bft) O-NO 76 ° 0 min 0,000 mm 2,9 UV-I 457 W/m² -0,3 °C 2,2 °C 6,4 km/h (2 Bft)
19.03.2019 12:26 3,3 °C 75 % 1026,9 hPa 0,0 mm 2,6 km/h (1 Bft) O 80 ° 0 min 0,000 mm 2,7 UV-I 457 W/m² -0,7 °C 3,3 °C 4,8 km/h (1 Bft)
19.03.2019 12:27 3,3 °C 75 % 1026,9 hPa 0,0 mm 4,6 km/h (1 Bft) O-NO 78 ° 0 min 0,000 mm 2,6 UV-I 329 W/m² -0,7 °C 2,3 °C 8,0 km/h (2 Bft)
19.03.2019 12:28 3,3 °C 76 % 1026,9 hPa 0,0 mm 5,9 km/h (2 Bft) O-NO 60 ° 0 min 0,000 mm 2,7 UV-I 336 W/m² -0,5 °C 1,8 °C 8,0 km/h (2 Bft)
19.03.2019 12:29 3,3 °C 75 % 1026,9 hPa 0,0 mm 2,4 km/h (1 Bft) O-NO 57 ° 0 min 0,000 mm 2,8 UV-I 387 W/m² -0,7 °C 3,3 °C 4,8 km/h (1 Bft)
19.03.2019 12:30 3,3 °C 75 % 1026,8 hPa 0,0 mm 2,4 km/h (1 Bft) O-NO 57 ° 0 min 0,000 mm 3,7 UV-I 387 W/m² -0,7 °C 3,3 °C 4,8 km/h (1 Bft)
19.03.2019 12:31 3,3 °C 74 % 1026,8 hPa 0,0 mm 2,0 km/h (1 Bft) O-NO 57 ° 0 min 0,000 mm 3,3 UV-I 563 W/m² -0,9 °C 3,3 °C 3,2 km/h (1 Bft)
19.03.2019 12:32 3,4 °C 74 % 1026,8 hPa 0,0 mm 2,5 km/h (1 Bft) O-NO 57 ° 0 min 0,000 mm 3,0 UV-I 563 W/m² -0,8 °C 3,4 °C 3,2 km/h (1 Bft)
19.03.2019 12:33 3,4 °C 75 % 1026,8 hPa 0,0 mm 3,3 km/h (1 Bft) NO 55 ° 0 min 0,000 mm 2,9 UV-I 378 W/m² -0,6 °C 3,4 °C 4,8 km/h (1 Bft)
19.03.2019 12:34 3,5 °C 75 % 1026,8 hPa 0,0 mm 3,8 km/h (1 Bft) SO 128 ° 0 min 0,000 mm 2,8 UV-I 355 W/m² -0,5 °C 3,5 °C 6,4 km/h (2 Bft)
19.03.2019 12:35 3,6 °C 74 % 1026,8 hPa 0,0 mm 2,6 km/h (1 Bft) N 360 ° 0 min 0,000 mm 2,8 UV-I 338 W/m² -0,6 °C 3,6 °C 4,8 km/h (1 Bft)
19.03.2019 12:36 3,7 °C 77 % 1026,8 hPa 0,0 mm 1,1 km/h (1 Bft) N 360 ° 0 min 0,000 mm 2,8 UV-I 332 W/m² 0,1 °C 3,7 °C 3,2 km/h (1 Bft)
19.03.2019 12:37 3,8 °C 77 % 1026,8 hPa 0,0 mm 0,7 km/h (0 Bft) O 96 ° 0 min 0,000 mm 2,8 UV-I 332 W/m² 0,1 °C 3,8 °C 1,6 km/h (1 Bft)
19.03.2019 12:38 3,7 °C 74 % 1026,7 hPa 0,0 mm 2,5 km/h (1 Bft) O-NO 61 ° 0 min 0,000 mm 2,8 UV-I 341 W/m² -0,5 °C 3,7 °C 3,2 km/h (1 Bft)
19.03.2019 12:39 3,7 °C 76 % 1026,7 hPa 0,0 mm 3,3 km/h (1 Bft) W 281 ° 0 min 0,000 mm 2,9 UV-I 350 W/m² -0,1 °C 3,7 °C 4,8 km/h (1 Bft)
19.03.2019 12:40 3,7 °C 74 % 1026,7 hPa 0,0 mm 3,0 km/h (1 Bft) N-NW 327 ° 0 min 0,000 mm 3,0 UV-I 373 W/m² -0,5 °C 3,7 °C 6,4 km/h (2 Bft)
19.03.2019 12:41 3,7 °C 76 % 1026,8 hPa 0,0 mm 3,2 km/h (1 Bft) N-NW 328 ° 0 min 0,000 mm 3,1 UV-I 401 W/m² -0,1 °C 3,7 °C 6,4 km/h (2 Bft)
19.03.2019 12:42 3,8 °C 74 % 1026,8 hPa 0,0 mm 4,0 km/h (1 Bft) NO 40 ° 0 min 0,000 mm 3,1 UV-I 376 W/m² -0,4 °C 3,8 °C 4,8 km/h (1 Bft)
19.03.2019 12:43 3,9 °C 76 % 1026,8 hPa 0,0 mm 2,5 km/h (1 Bft) N 5 ° 0 min 0,000 mm 3,1 UV-I 396 W/m² 0,1 °C 3,9 °C 3,2 km/h (1 Bft)
19.03.2019 12:44 3,8 °C 72 % 1026,8 hPa 0,0 mm 0,8 km/h (0 Bft) O-NO 65 ° 0 min 0,000 mm 3,6 UV-I 480 W/m² -0,8 °C 3,8 °C 1,6 km/h (1 Bft)
19.03.2019 12:45 3,9 °C 76 % 1026,8 hPa 0,0 mm 0,4 km/h (0 Bft) O-NO 65 ° 0 min 0,000 mm 3,7 UV-I 526 W/m² 0,1 °C 3,9 °C 3,2 km/h (1 Bft)
19.03.2019 12:46 3,9 °C 74 % 1026,7 hPa 0,0 mm 2,8 km/h (1 Bft) O-NO 57 ° 1 min 0,000 mm 3,8 UV-I 624 W/m² -0,3 °C 3,9 °C 4,8 km/h (1 Bft)
19.03.2019 12:47 4,1 °C 74 % 1026,8 hPa 0,0 mm 3,4 km/h (1 Bft) O 96 ° 1 min 0,000 mm 3,9 UV-I 624 W/m² -0,1 °C 4,1 °C 9,7 km/h (2 Bft)
19.03.2019 12:48 4,1 °C 73 % 1026,8 hPa 0,0 mm 4,9 km/h (1 Bft) O 86 ° 1 min 0,000 mm 4,3 UV-I 624 W/m² -0,3 °C 3,1 °C 8,0 km/h (2 Bft)
19.03.2019 12:49 4,1 °C 73 % 1026,8 hPa 0,0 mm 3,6 km/h (1 Bft) N-NO 16 ° 1 min 0,000 mm 3,7 UV-I 624 W/m² -0,3 °C 4,1 °C 8,0 km/h (2 Bft)
19.03.2019 12:50 3,9 °C 70 % 1026,7 hPa 0,0 mm 5,7 km/h (1 Bft) SO 142 ° 1 min 0,000 mm 3,5 UV-I 624 W/m² -1,1 °C 2,6 °C 9,7 km/h (2 Bft)
19.03.2019 12:51 3,8 °C 68 % 1026,8 hPa 0,0 mm 5,3 km/h (1 Bft) SO 130 ° 0 min 0,000 mm 3,2 UV-I 454 W/m² -1,6 °C 2,6 °C 6,4 km/h (2 Bft)
19.03.2019 12:52 3,6 °C 70 % 1026,8 hPa 0,0 mm 3,3 km/h (1 Bft) S-SO 158 ° 0 min 0,000 mm 3,1 UV-I 330 W/m² -1,3 °C 3,6 °C 8,0 km/h (2 Bft)
19.03.2019 12:53 3,6 °C 69 % 1026,8 hPa 0,0 mm 1,9 km/h (1 Bft) SO 127 ° 0 min 0,000 mm 3,0 UV-I 353 W/m² -1,5 °C 3,6 °C 4,8 km/h (1 Bft)
19.03.2019 12:54 3,5 °C 70 % 1026,8 hPa 0,0 mm 1,2 km/h (1 Bft) SO 126 ° 0 min 0,000 mm 3,7 UV-I 353 W/m² -1,4 °C 3,5 °C 4,8 km/h (1 Bft)
19.03.2019 12:55 3,5 °C 71 % 1026,7 hPa 0,0 mm 4,0 km/h (1 Bft) O-NO 73 ° 0 min 0,000 mm 3,3 UV-I 457 W/m² -1,3 °C 3,5 °C 4,8 km/h (1 Bft)
19.03.2019 12:56 3,6 °C 71 % 1026,7 hPa 0,0 mm 4,3 km/h (1 Bft) NO 52 ° 0 min 0,000 mm 3,7 UV-I 557 W/m² -1,2 °C 3,6 °C 9,7 km/h (2 Bft)
19.03.2019 12:57 3,7 °C 71 % 1026,8 hPa 0,0 mm 9,1 km/h (2 Bft) O-NO 63 ° 0 min 0,000 mm 4,0 UV-I 557 W/m² -1,1 °C 1,3 °C 14,5 km/h (3 Bft)
19.03.2019 12:58 3,9 °C 70 % 1026,7 hPa 0,0 mm 5,6 km/h (1 Bft) O 92 ° 1 min 0,000 mm 4,3 UV-I 849 W/m² -1,1 °C 2,6 °C 8,0 km/h (2 Bft)
19.03.2019 12:59 3,9 °C 69 % 1026,8 hPa 0,0 mm 7,6 km/h (2 Bft) O-NO 65 ° 1 min 0,000 mm 4,3 UV-I 842 W/m² -1,3 °C 2,0 °C 12,9 km/h (3 Bft)
19.03.2019 13:00 3,9 °C 70 % 1026,7 hPa 0,0 mm 8,5 km/h (2 Bft) O-NO 67 ° 1 min 0,000 mm 4,3 UV-I 816 W/m² -1,1 °C 1,7 °C 11,3 km/h (2 Bft)
19.03.2019 13:01 3,9 °C 68 % 1026,7 hPa 0,0 mm 7,9 km/h (2 Bft) O-NO 73 ° 1 min 0,178 mm 4,2 UV-I 805 W/m² -1,5 °C 1,9 °C 9,7 km/h (2 Bft)
19.03.2019 13:02 3,8 °C 68 % 1026,7 hPa 0,0 mm 6,8 km/h (2 Bft) O-NO 62 ° 1 min 0,000 mm 4,2 UV-I 800 W/m² -1,6 °C 2,1 °C 8,0 km/h (2 Bft)
19.03.2019 13:03 3,8 °C 68 % 1026,7 hPa 0,0 mm 8,3 km/h (2 Bft) O-NO 68 ° 1 min 0,000 mm 4,2 UV-I 812 W/m² -1,6 °C 1,6 °C 11,3 km/h (2 Bft)
19.03.2019 13:04 3,8 °C 67 % 1026,6 hPa 0,0 mm 9,1 km/h (2 Bft) O-NO 61 ° 1 min 0,000 mm 4,2 UV-I 830 W/m² -1,8 °C 1,4 °C 14,5 km/h (3 Bft)
19.03.2019 13:05 3,9 °C 68 % 1026,6 hPa 0,0 mm 5,6 km/h (1 Bft) NO 49 ° 1 min 0,000 mm 4,2 UV-I 846 W/m² -1,5 °C 2,6 °C 9,7 km/h (2 Bft)
19.03.2019 13:06 4,2 °C 68 % 1026,7 hPa 0,0 mm 6,0 km/h (2 Bft) O-SO 123 ° 1 min 0,000 mm 4,2 UV-I 853 W/m² -1,2 °C 2,8 °C 9,7 km/h (2 Bft)
19.03.2019 13:07 4,3 °C 69 % 1026,6 hPa 0,0 mm 4,2 km/h (1 Bft) O 100 ° 1 min 0,000 mm 4,2 UV-I 870 W/m² -0,9 °C 4,3 °C 9,7 km/h (2 Bft)
19.03.2019 13:08 4,5 °C 67 % 1026,6 hPa 0,0 mm 6,5 km/h (2 Bft) O-SO 115 ° 1 min 0,000 mm 4,2 UV-I 875 W/m² -1,1 °C 3,0 °C 11,3 km/h (2 Bft)
19.03.2019 13:09 4,6 °C 68 % 1026,7 hPa 0,0 mm 1,8 km/h (1 Bft) S-SO 164 ° 1 min 0,000 mm 4,2 UV-I 896 W/m² -0,8 °C 4,6 °C 3,2 km/h (1 Bft)
19.03.2019 13:10 4,6 °C 66 % 1026,8 hPa 0,0 mm 1,8 km/h (1 Bft) S 169 ° 1 min 0,000 mm 4,2 UV-I 902 W/m² -1,2 °C 4,6 °C 6,4 km/h (2 Bft)
19.03.2019 13:11 4,6 °C 65 % 1026,7 hPa 0,0 mm 0,6 km/h (0 Bft) N-NO 22 ° 1 min 0,000 mm 4,1 UV-I 912 W/m² -1,4 °C 4,6 °C 1,6 km/h (1 Bft)
19.03.2019 13:12 4,7 °C 69 % 1026,7 hPa 0,0 mm 3,4 km/h (1 Bft) N-NO 24 ° 1 min 0,000 mm 4,1 UV-I 907 W/m² -0,5 °C 4,7 °C 4,8 km/h (1 Bft)
19.03.2019 13:13 4,8 °C 68 % 1026,7 hPa 0,0 mm 6,3 km/h (2 Bft) O-NO 78 ° 1 min 0,000 mm 3,2 UV-I 907 W/m² -0,6 °C 3,4 °C 9,7 km/h (2 Bft)
19.03.2019 13:14 4,8 °C 66 % 1026,7 hPa 0,0 mm 5,6 km/h (1 Bft) O 86 ° 1 min 0,000 mm 3,4 UV-I 636 W/m² -1,0 °C 3,6 °C 9,7 km/h (2 Bft)
19.03.2019 13:15 4,7 °C 66 % 1026,6 hPa 0,0 mm 4,2 km/h (1 Bft) O 82 ° 1 min 0,000 mm 3,7 UV-I 636 W/m² -1,1 °C 4,7 °C 11,3 km/h (2 Bft)
19.03.2019 13:16 4,6 °C 66 % 1026,7 hPa 0,0 mm 6,8 km/h (2 Bft) O 82 ° 1 min 0,000 mm 3,6 UV-I 863 W/m² -1,2 °C 3,0 °C 11,3 km/h (2 Bft)
19.03.2019 13:17 4,5 °C 66 % 1026,6 hPa 0,0 mm 10,0 km/h (2 Bft) O 85 ° 1 min 0,000 mm 1,8 UV-I 863 W/m² -1,3 °C 2,1 °C 17,7 km/h (3 Bft)
19.03.2019 13:18 4,5 °C 66 % 1026,6 hPa 0,0 mm 4,0 km/h (1 Bft) S-SW 209 ° 0 min 0,000 mm 1,5 UV-I 269 W/m² -1,3 °C 4,5 °C 8,0 km/h (2 Bft)
19.03.2019 13:19 4,6 °C 69 % 1026,7 hPa 0,0 mm 3,1 km/h (1 Bft) S-SW 200 ° 0 min 0,000 mm 1,3 UV-I 193 W/m² -0,6 °C 4,6 °C 4,8 km/h (1 Bft)
19.03.2019 13:20 4,6 °C 67 % 1026,6 hPa 0,0 mm 2,2 km/h (1 Bft) W-SW 251 ° 0 min 0,000 mm 1,2 UV-I 174 W/m² -1,0 °C 4,6 °C 4,8 km/h (1 Bft)
19.03.2019 13:21 4,5 °C 67 % 1026,7 hPa 0,0 mm 1,8 km/h (1 Bft) S-SW 213 ° 0 min 0,000 mm 1,1 UV-I 162 W/m² -1,1 °C 4,5 °C 4,8 km/h (1 Bft)
19.03.2019 13:22 4,3 °C 66 % 1026,6 hPa 0,0 mm 4,7 km/h (1 Bft) O-NO 78 ° 0 min 0,000 mm 0,9 UV-I 139 W/m² -1,5 °C 3,4 °C 9,7 km/h (2 Bft)
19.03.2019 13:23 4,1 °C 64 % 1026,7 hPa 0,0 mm 2,2 km/h (1 Bft) O-NO 74 ° 0 min 0,000 mm 0,9 UV-I 128 W/m² -2,1 °C 4,1 °C 6,4 km/h (2 Bft)
19.03.2019 13:24 3,9 °C 65 % 1026,7 hPa 0,0 mm 2,6 km/h (1 Bft) S-SW 203 ° 0 min 0,000 mm 0,8 UV-I 118 W/m² -2,1 °C 3,9 °C 4,8 km/h (1 Bft)
19.03.2019 13:25 3,8 °C 66 % 1026,7 hPa 0,0 mm 0,6 km/h (0 Bft) S-SW 202 ° 0 min 0,000 mm 0,7 UV-I 107 W/m² -2,0 °C 3,8 °C 1,6 km/h (1 Bft)
19.03.2019 13:26 3,8 °C 68 % 1026,7 hPa 0,0 mm 2,0 km/h (1 Bft) W 261 ° 0 min 0,000 mm 0,6 UV-I 97 W/m² -1,6 °C 3,8 °C 6,4 km/h (2 Bft)
19.03.2019 13:27 3,7 °C 66 % 1026,7 hPa 0,0 mm 3,9 km/h (1 Bft) W-SW 257 ° 0 min 0,000 mm 0,6 UV-I 81 W/m² -2,0 °C 3,7 °C 4,8 km/h (1 Bft)
19.03.2019 13:28 3,7 °C 66 % 1026,7 hPa 0,0 mm 3,4 km/h (1 Bft) W-SW 257 ° 0 min 0,000 mm 0,5 UV-I 74 W/m² -2,0 °C 3,7 °C 6,4 km/h (2 Bft)
19.03.2019 13:29 3,7 °C 66 % 1026,7 hPa 0,0 mm 2,6 km/h (1 Bft) W 273 ° 0 min 0,000 mm 0,5 UV-I 67 W/m² -2,0 °C 3,7 °C 4,8 km/h (1 Bft)
19.03.2019 13:30 3,6 °C 68 % 1026,7 hPa 0,0 mm 6,0 km/h (2 Bft) W 267 ° 0 min 0,000 mm 0,0 UV-I 62 W/m² -1,7 °C 2,1 °C 9,7 km/h (2 Bft)
19.03.2019 13:31 3,6 °C 68 % 1026,7 hPa 0,0 mm 4,7 km/h (1 Bft) SW 236 ° 0 min 0,000 mm 0,0 UV-I 56 W/m² -1,7 °C 2,6 °C 6,4 km/h (2 Bft)
19.03.2019 13:32 3,6 °C 67 % 1026,7 hPa 0,0 mm 5,1 km/h (1 Bft) S-SO 149 ° 0 min 0,000 mm 0,0 UV-I 53 W/m² -1,9 °C 2,5 °C 6,4 km/h (2 Bft)
19.03.2019 13:33 3,5 °C 67 % 1026,7 hPa 0,0 mm 5,4 km/h (1 Bft) N-NO 16 ° 0 min 0,000 mm 0,0 UV-I 46 W/m² -2,0 °C 2,2 °C 11,3 km/h (2 Bft)
19.03.2019 13:34 3,4 °C 68 % 1026,8 hPa 0,0 mm 5,7 km/h (1 Bft) N-NO 14 ° 0 min 0,000 mm 0,0 UV-I 44 W/m² -1,9 °C 2,0 °C 8,0 km/h (2 Bft)
19.03.2019 13:35 3,5 °C 69 % 1026,8 hPa 0,0 mm 3,7 km/h (1 Bft) N-NW 342 ° 0 min 0,000 mm 0,0 UV-I 42 W/m² -1,6 °C 3,5 °C 4,8 km/h (1 Bft)
19.03.2019 13:36 3,6 °C 69 % 1026,8 hPa 0,0 mm 3,7 km/h (1 Bft) N-NW 329 ° 0 min 0,000 mm 0,0 UV-I 40 W/m² -1,5 °C 3,6 °C 4,8 km/h (1 Bft)
19.03.2019 13:37 3,6 °C 70 % 1026,8 hPa 0,0 mm 0,6 km/h (0 Bft) N-NW 328 ° 0 min 0,000 mm 0,0 UV-I 40 W/m² -1,3 °C 3,6 °C 3,2 km/h (1 Bft)
19.03.2019 13:38 3,6 °C 71 % 1026,8 hPa 0,0 mm 2,5 km/h (1 Bft) NW 326 ° 0 min 0,000 mm 0,0 UV-I 40 W/m² -1,2 °C 3,6 °C 4,8 km/h (1 Bft)
19.03.2019 13:39 3,6 °C 72 % 1026,8 hPa 0,0 mm 3,0 km/h (1 Bft) NW 326 ° 0 min 0,000 mm 0,0 UV-I 42 W/m² -1,0 °C 3,6 °C 4,8 km/h (1 Bft)
19.03.2019 13:40 3,6 °C 71 % 1026,8 hPa 0,0 mm 3,0 km/h (1 Bft) NW 326 ° 0 min 0,000 mm 0,0 UV-I 44 W/m² -1,2 °C 3,6 °C 4,8 km/h (1 Bft)
19.03.2019 13:41 3,6 °C 70 % 1026,8 hPa 0,0 mm 6,3 km/h (2 Bft) N-NW 330 ° 0 min 0,000 mm 0,0 UV-I 46 W/m² -1,3 °C 2,0 °C 11,3 km/h (2 Bft)
19.03.2019 13:42 3,5 °C 71 % 1026,8 hPa 0,0 mm 4,2 km/h (1 Bft) N 350 ° 0 min 0,000 mm 0,0 UV-I 49 W/m² -1,3 °C 3,5 °C 6,4 km/h (2 Bft)
19.03.2019 13:43 3,5 °C 70 % 1026,8 hPa 0,0 mm 5,2 km/h (1 Bft) N-NO 21 ° 0 min 0,000 mm 0,0 UV-I 51 W/m² -1,4 °C 2,3 °C 6,4 km/h (2 Bft)
19.03.2019 13:44 3,4 °C 68 % 1026,8 hPa 0,0 mm 2,8 km/h (1 Bft) NO 53 ° 0 min 0,000 mm 0,0 UV-I 53 W/m² -1,9 °C 3,4 °C 4,8 km/h (1 Bft)
19.03.2019 13:45 3,4 °C 69 % 1026,8 hPa 0,0 mm 4,0 km/h (1 Bft) O 94 ° 0 min 0,000 mm 0,0 UV-I 54 W/m² -1,7 °C 3,4 °C 4,8 km/h (1 Bft)
19.03.2019 13:46 3,4 °C 69 % 1026,8 hPa 0,0 mm 1,8 km/h (1 Bft) O 94 ° 0 min 0,000 mm 0,0 UV-I 56 W/m² -1,7 °C 3,4 °C 3,2 km/h (1 Bft)
19.03.2019 13:47 3,4 °C 69 % 1026,8 hPa 0,0 mm 2,7 km/h (1 Bft) O 94 ° 0 min 0,000 mm 0,0 UV-I 58 W/m² -1,7 °C 3,4 °C 4,8 km/h (1 Bft)
19.03.2019 13:48 3,4 °C 71 % 1026,8 hPa 0,0 mm 3,3 km/h (1 Bft) O 92 ° 0 min 0,000 mm 0,0 UV-I 58 W/m² -1,3 °C 3,4 °C 4,8 km/h (1 Bft)
19.03.2019 13:49 3,4 °C 69 % 1026,9 hPa 0,0 mm 1,5 km/h (1 Bft) O 92 ° 0 min 0,000 mm 0,0 UV-I 60 W/m² -1,7 °C 3,4 °C 3,2 km/h (1 Bft)
19.03.2019 13:50 3,3 °C 68 % 1026,9 hPa 0,0 mm 0,5 km/h (0 Bft) O 92 ° 0 min 0,000 mm 0,5 UV-I 60 W/m² -2,0 °C 3,3 °C 1,6 km/h (1 Bft)
19.03.2019 13:51 3,3 °C 68 % 1026,9 hPa 0,0 mm 2,2 km/h (1 Bft) SO 133 ° 0 min 0,000 mm 0,5 UV-I 62 W/m² -2,0 °C 3,3 °C 4,8 km/h (1 Bft)
19.03.2019 13:52 3,3 °C 69 % 1026,8 hPa 0,0 mm 2,6 km/h (1 Bft) SO 133 ° 0 min 0,000 mm 0,5 UV-I 63 W/m² -1,8 °C 3,3 °C 4,8 km/h (1 Bft)
19.03.2019 13:53 3,2 °C 68 % 1026,8 hPa 0,0 mm 0,3 km/h (0 Bft) SO 133 ° 0 min 0,000 mm 0,5 UV-I 65 W/m² -2,1 °C 3,2 °C 1,6 km/h (1 Bft)
19.03.2019 13:54 3,2 °C 69 % 1026,9 hPa 0,0 mm 1,8 km/h (1 Bft) SO 133 ° 0 min 0,000 mm 0,5 UV-I 69 W/m² -1,9 °C 3,2 °C 3,2 km/h (1 Bft)
19.03.2019 13:55 3,2 °C 69 % 1026,8 hPa 0,0 mm 0,6 km/h (0 Bft) SO 133 ° 0 min 0,000 mm 0,5 UV-I 70 W/m² -1,9 °C 3,2 °C 1,6 km/h (1 Bft)
19.03.2019 13:56 3,1 °C 70 % 1026,8 hPa 0,0 mm 0,9 km/h (0 Bft) SO 133 ° 0 min 0,000 mm 0,5 UV-I 74 W/m² -1,8 °C 3,1 °C 3,2 km/h (1 Bft)
19.03.2019 13:57 3,1 °C 69 % 1026,8 hPa 0,0 mm 0,9 km/h (0 Bft) SO 133 ° 0 min 0,000 mm 0,6 UV-I 76 W/m² -2,0 °C 3,1 °C 1,6 km/h (1 Bft)
19.03.2019 13:58 3,1 °C 69 % 1026,8 hPa 0,0 mm 0,0 km/h (0 Bft) SO 133 ° 0 min 0,000 mm 0,6 UV-I 77 W/m² -2,0 °C 3,1 °C 0,0 km/h (0 Bft)
19.03.2019 13:59 3,1 °C 69 % 1026,8 hPa 0,0 mm 0,0 km/h (0 Bft) SO 133 ° 0 min 0,000 mm 0,6 UV-I 77 W/m² -2,0 °C 3,1 °C 0,0 km/h (0 Bft)
19.03.2019 14:00 3,0 °C 69 % 1026,9 hPa 0,0 mm 0,0 km/h (0 Bft) SO 133 ° 0 min 0,000 mm 0,6 UV-I 79 W/m² -2,1 °C 3,0 °C 0,0 km/h (0 Bft)
19.03.2019 14:01 3,1 °C 70 % 1026,9 hPa 0,0 mm 0,0 km/h (0 Bft) SO 133 ° 0 min 0,127 mm 0,6 UV-I 81 W/m² -1,8 °C 3,1 °C 0,0 km/h (0 Bft)
19.03.2019 14:02 3,1 °C 69 % 1026,8 hPa 0,0 mm 0,0 km/h (0 Bft) SO 133 ° 0 min 0,000 mm 0,6 UV-I 86 W/m² -2,0 °C 3,1 °C 0,0 km/h (0 Bft)
19.03.2019 14:03 3,1 °C 69 % 1026,8 hPa 0,0 mm 1,7 km/h (1 Bft) S-SO 158 ° 0 min 0,000 mm 0,7 UV-I 88 W/m² -2,0 °C 3,1 °C 3,2 km/h (1 Bft)
19.03.2019 14:04 3,1 °C 72 % 1026,9 hPa 0,0 mm 2,4 km/h (1 Bft) SW 229 ° 0 min 0,000 mm 0,7 UV-I 90 W/m² -1,4 °C 3,1 °C 4,8 km/h (1 Bft)
19.03.2019 14:05 3,1 °C 73 % 1026,8 hPa 0,0 mm 2,0 km/h (1 Bft) SW 229 ° 0 min 0,000 mm 0,7 UV-I 91 W/m² -1,3 °C 3,1 °C 3,2 km/h (1 Bft)
19.03.2019 14:06 3,1 °C 72 % 1026,8 hPa 0,0 mm 1,3 km/h (1 Bft) SW 229 ° 0 min 0,000 mm 0,7 UV-I 95 W/m² -1,4 °C 3,1 °C 3,2 km/h (1 Bft)
19.03.2019 14:07 3,1 °C 72 % 1026,8 hPa 0,0 mm 0,7 km/h (0 Bft) SW 229 ° 0 min 0,000 mm 0,7 UV-I 97 W/m² -1,4 °C 3,1 °C 3,2 km/h (1 Bft)
19.03.2019 14:08 3,1 °C 72 % 1026,8 hPa 0,0 mm 0,2 km/h (0 Bft) SW 229 ° 0 min 0,000 mm 0,8 UV-I 102 W/m² -1,4 °C 3,1 °C 1,6 km/h (1 Bft)
19.03.2019 14:09 3,1 °C 73 % 1026,8 hPa 0,0 mm 1,0 km/h (0 Bft) SW 234 ° 0 min 0,000 mm 0,8 UV-I 105 W/m² -1,3 °C 3,1 °C 3,2 km/h (1 Bft)
19.03.2019 14:10 3,1 °C 73 % 1026,8 hPa 0,0 mm 1,0 km/h (0 Bft) SW 234 ° 0 min 0,000 mm 0,8 UV-I 107 W/m² -1,3 °C 3,1 °C 1,6 km/h (1 Bft)
19.03.2019 14:11 3,1 °C 74 % 1026,8 hPa 0,0 mm 0,1 km/h (0 Bft) SW 234 ° 0 min 0,000 mm 0,8 UV-I 109 W/m² -1,1 °C 3,1 °C 1,6 km/h (1 Bft)
19.03.2019 14:12 3,1 °C 75 % 1026,8 hPa 0,0 mm 0,5 km/h (0 Bft) SW 234 ° 0 min 0,000 mm 0,9 UV-I 113 W/m² -0,9 °C 3,1 °C 3,2 km/h (1 Bft)
19.03.2019 14:13 3,1 °C 75 % 1026,8 hPa 0,0 mm 3,1 km/h (1 Bft) SW 234 ° 0 min 0,000 mm 0,9 UV-I 114 W/m² -0,9 °C 3,1 °C 4,8 km/h (1 Bft)
19.03.2019 14:14 3,1 °C 74 % 1026,9 hPa 0,0 mm 0,7 km/h (0 Bft) SW 234 ° 0 min 0,000 mm 0,9 UV-I 121 W/m² -1,1 °C 3,1 °C 3,2 km/h (1 Bft)
19.03.2019 14:15 3,0 °C 74 % 1026,8 hPa 0,0 mm 3,0 km/h (1 Bft) SW 234 ° 0 min 0,000 mm 0,9 UV-I 123 W/m² -1,2 °C 3,0 °C 4,8 km/h (1 Bft)
19.03.2019 14:16 3,1 °C 75 % 1026,8 hPa 0,0 mm 2,3 km/h (1 Bft) SW 234 ° 0 min 0,000 mm 1,0 UV-I 127 W/m² -0,9 °C 3,1 °C 4,8 km/h (1 Bft)
19.03.2019 14:17 3,1 °C 75 % 1026,8 hPa 0,0 mm 1,7 km/h (1 Bft) SW 234 ° 0 min 0,000 mm 1,0 UV-I 128 W/m² -0,9 °C 3,1 °C 3,2 km/h (1 Bft)
19.03.2019 14:18 3,1 °C 76 % 1026,8 hPa 0,0 mm 3,5 km/h (1 Bft) SW 236 ° 0 min 0,000 mm 1,0 UV-I 130 W/m² -0,7 °C 3,1 °C 4,8 km/h (1 Bft)
19.03.2019 14:19 3,1 °C 76 % 1026,8 hPa 0,0 mm 2,7 km/h (1 Bft) W-SW 249 ° 0 min 0,000 mm 1,0 UV-I 132 W/m² -0,7 °C 3,1 °C 4,8 km/h (1 Bft)
19.03.2019 14:20 3,1 °C 76 % 1026,8 hPa 0,0 mm 1,9 km/h (1 Bft) W-SW 249 ° 0 min 0,000 mm 1,0 UV-I 135 W/m² -0,7 °C 3,1 °C 3,2 km/h (1 Bft)
19.03.2019 14:21 3,1 °C 76 % 1026,8 hPa 0,0 mm 3,7 km/h (1 Bft) W-SW 249 ° 0 min 0,000 mm 1,1 UV-I 137 W/m² -0,7 °C 3,1 °C 4,8 km/h (1 Bft)
19.03.2019 14:22 3,1 °C 77 % 1026,8 hPa 0,0 mm 3,3 km/h (1 Bft) W-SW 249 ° 0 min 0,000 mm 1,1 UV-I 139 W/m² -0,5 °C 3,1 °C 4,8 km/h (1 Bft)
19.03.2019 14:23 3,1 °C 77 % 1026,8 hPa 0,0 mm 2,3 km/h (1 Bft) W-SW 249 ° 0 min 0,000 mm 1,1 UV-I 141 W/m² -0,5 °C 3,1 °C 4,8 km/h (1 Bft)
19.03.2019 14:24 3,1 °C 76 % 1026,8 hPa 0,0 mm 3,3 km/h (1 Bft) W-SW 249 ° 0 min 0,000 mm 1,1 UV-I 142 W/m² -0,7 °C 3,1 °C 4,8 km/h (1 Bft)
19.03.2019 14:25 3,1 °C 76 % 1026,8 hPa 0,0 mm 3,0 km/h (1 Bft) W-SW 249 ° 0 min 0,000 mm 1,1 UV-I 144 W/m² -0,7 °C 3,1 °C 4,8 km/h (1 Bft)
19.03.2019 14:26 3,1 °C 76 % 1026,8 hPa 0,0 mm 0,7 km/h (0 Bft) W-SW 249 ° 0 min 0,000 mm 1,2 UV-I 146 W/m² -0,7 °C 3,1 °C 3,2 km/h (1 Bft)
19.03.2019 14:27 3,1 °C 75 % 1026,8 hPa 0,0 mm 0,5 km/h (0 Bft) W-SW 249 ° 0 min 0,000 mm 1,2 UV-I 148 W/m² -0,9 °C 3,1 °C 3,2 km/h (1 Bft)
19.03.2019 14:28 3,1 °C 75 % 1026,9 hPa 0,0 mm 0,5 km/h (0 Bft) W-SW 249 ° 0 min 0,000 mm 1,2 UV-I 149 W/m² -0,9 °C 3,1 °C 3,2 km/h (1 Bft)
19.03.2019 14:29 3,2 °C 77 % 1026,8 hPa 0,0 mm 3,0 km/h (1 Bft) W-SW 249 ° 0 min 0,000 mm 1,2 UV-I 153 W/m² -0,4 °C 3,2 °C 4,8 km/h (1 Bft)
19.03.2019 14:30 3,2 °C 77 % 1026,8 hPa 0,0 mm 2,4 km/h (1 Bft) W-SW 249 ° 0 min 0,000 mm 1,2 UV-I 155 W/m² -0,4 °C 3,2 °C 3,2 km/h (1 Bft)
19.03.2019 14:31 3,2 °C 76 % 1026,8 hPa 0,0 mm 2,3 km/h (1 Bft) W-SW 249 ° 0 min 0,000 mm 1,2 UV-I 162 W/m² -0,6 °C 3,2 °C 4,8 km/h (1 Bft)
19.03.2019 14:32 3,2 °C 76 % 1026,8 hPa 0,0 mm 2,8 km/h (1 Bft) W-SW 249 ° 0 min 0,000 mm 1,3 UV-I 163 W/m² -0,6 °C 3,2 °C 4,8 km/h (1 Bft)
19.03.2019 14:33 3,2 °C 74 % 1026,8 hPa 0,0 mm 3,1 km/h (1 Bft) W-SW 249 ° 0 min 0,000 mm 1,3 UV-I 167 W/m² -1,0 °C 3,2 °C 4,8 km/h (1 Bft)
19.03.2019 14:34 3,2 °C 75 % 1026,8 hPa 0,0 mm 0,9 km/h (0 Bft) W-SW 249 ° 0 min 0,000 mm 1,3 UV-I 169 W/m² -0,8 °C 3,2 °C 1,6 km/h (1 Bft)
19.03.2019 14:35 3,2 °C 74 % 1026,8 hPa 0,0 mm 4,5 km/h (1 Bft) S-SW 198 ° 0 min 0,000 mm 1,3 UV-I 171 W/m² -1,0 °C 3,2 °C 8,0 km/h (2 Bft)
19.03.2019 14:36 3,2 °C 74 % 1026,8 hPa 0,0 mm 3,0 km/h (1 Bft) S-SW 198 ° 0 min 0,000 mm 1,3 UV-I 172 W/m² -1,0 °C 3,2 °C 4,8 km/h (1 Bft)
19.03.2019 14:37 3,2 °C 75 % 1026,8 hPa 0,0 mm 4,3 km/h (1 Bft) W-SW 242 ° 0 min 0,000 mm 1,4 UV-I 172 W/m² -0,8 °C 3,2 °C 8,0 km/h (2 Bft)
19.03.2019 14:38 3,3 °C 76 % 1026,8 hPa 0,0 mm 2,8 km/h (1 Bft) W-SW 242 ° 0 min 0,000 mm 1,4 UV-I 172 W/m² -0,5 °C 3,3 °C 4,8 km/h (1 Bft)
19.03.2019 14:39 3,3 °C 76 % 1026,8 hPa 0,0 mm 4,2 km/h (1 Bft) W-SW 242 ° 0 min 0,000 mm 1,4 UV-I 172 W/m² -0,5 °C 3,3 °C 6,4 km/h (2 Bft)
19.03.2019 14:40 3,3 °C 75 % 1026,8 hPa 0,0 mm 3,7 km/h (1 Bft) W-SW 242 ° 0 min 0,000 mm 1,4 UV-I 172 W/m² -0,7 °C 3,3 °C 6,4 km/h (2 Bft)
19.03.2019 14:41 3,3 °C 75 % 1026,8 hPa 0,0 mm 2,5 km/h (1 Bft) W-SW 242 ° 0 min 0,000 mm 1,4 UV-I 172 W/m² -0,7 °C 3,3 °C 3,2 km/h (1 Bft)
19.03.2019 14:42 3,3 °C 75 % 1026,8 hPa 0,0 mm 3,7 km/h (1 Bft) W-SW 242 ° 0 min 0,000 mm 1,4 UV-I 172 W/m² -0,7 °C 3,3 °C 6,4 km/h (2 Bft)
19.03.2019 14:43 3,4 °C 76 % 1026,8 hPa 0,0 mm 2,2 km/h (1 Bft) W-SW 242 ° 0 min 0,000 mm 1,4 UV-I 176 W/m² -0,4 °C 3,4 °C 3,2 km/h (1 Bft)
19.03.2019 14:44 3,4 °C 75 % 1026,7 hPa 0,0 mm 3,2 km/h (1 Bft) W-SW 242 ° 0 min 0,000 mm 1,4 UV-I 178 W/m² -0,6 °C 3,4 °C 4,8 km/h (1 Bft)
19.03.2019 14:45 3,4 °C 75 % 1026,8 hPa 0,0 mm 5,9 km/h (2 Bft) SW 232 ° 0 min 0,000 mm 1,4 UV-I 179 W/m² -0,6 °C 1,9 °C 9,7 km/h (2 Bft)
19.03.2019 14:46 3,4 °C 74 % 1026,8 hPa 0,0 mm 5,5 km/h (1 Bft) S-SW 213 ° 0 min 0,000 mm 1,4 UV-I 181 W/m² -0,8 °C 2,1 °C 8,0 km/h (2 Bft)
19.03.2019 14:47 3,3 °C 73 % 1026,8 hPa 0,0 mm 3,0 km/h (1 Bft) SW 217 ° 0 min 0,000 mm 1,4 UV-I 179 W/m² -1,1 °C 3,3 °C 8,0 km/h (2 Bft)
19.03.2019 14:48 3,3 °C 73 % 1026,8 hPa 0,0 mm 3,9 km/h (1 Bft) W-SW 248 ° 0 min 0,000 mm 1,4 UV-I 179 W/m² -1,1 °C 3,3 °C 9,7 km/h (2 Bft)
19.03.2019 14:49 3,3 °C 75 % 1026,9 hPa 0,0 mm 5,7 km/h (1 Bft) W-SW 242 ° 0 min 0,000 mm 1,4 UV-I 179 W/m² -0,7 °C 1,9 °C 8,0 km/h (2 Bft)
19.03.2019 14:50 3,3 °C 74 % 1026,8 hPa 0,0 mm 4,8 km/h (1 Bft) S-SW 200 ° 0 min 0,000 mm 1,4 UV-I 181 W/m² -0,9 °C 2,2 °C 6,4 km/h (2 Bft)
19.03.2019 14:51 3,3 °C 74 % 1026,8 hPa 0,0 mm 4,5 km/h (1 Bft) SW 234 ° 0 min 0,000 mm 1,4 UV-I 183 W/m² -0,9 °C 3,3 °C 8,0 km/h (2 Bft)
19.03.2019 14:52 3,3 °C 74 % 1026,9 hPa 0,0 mm 5,1 km/h (1 Bft) SW 217 ° 0 min 0,000 mm 1,4 UV-I 185 W/m² -0,9 °C 2,1 °C 8,0 km/h (2 Bft)
19.03.2019 14:53 3,3 °C 74 % 1026,9 hPa 0,0 mm 5,0 km/h (1 Bft) S-SW 199 ° 0 min 0,000 mm 1,4 UV-I 188 W/m² -0,9 °C 2,2 °C 9,7 km/h (2 Bft)
19.03.2019 14:54 3,3 °C 73 % 1026,9 hPa 0,0 mm 6,3 km/h (2 Bft) S 177 ° 0 min 0,000 mm 1,5 UV-I 190 W/m² -1,1 °C 1,7 °C 11,3 km/h (2 Bft)
19.03.2019 14:55 3,2 °C 73 % 1026,9 hPa 0,0 mm 5,2 km/h (1 Bft) W-SW 241 ° 0 min 0,000 mm 1,5 UV-I 192 W/m² -1,2 °C 2,0 °C 8,0 km/h (2 Bft)
19.03.2019 14:56 3,2 °C 73 % 1026,8 hPa 0,0 mm 5,1 km/h (1 Bft) W-SW 247 ° 0 min 0,000 mm 1,4 UV-I 192 W/m² -1,2 °C 2,0 °C 6,4 km/h (2 Bft)
19.03.2019 14:57 3,2 °C 74 % 1026,8 hPa 0,0 mm 5,6 km/h (1 Bft) S-SW 205 ° 0 min 0,000 mm 1,4 UV-I 190 W/m² -1,0 °C 1,8 °C 8,0 km/h (2 Bft)
19.03.2019 14:58 3,2 °C 74 % 1026,9 hPa 0,0 mm 3,9 km/h (1 Bft) SW 221 ° 0 min 0,000 mm 1,4 UV-I 190 W/m² -1,0 °C 3,2 °C 6,4 km/h (2 Bft)
19.03.2019 14:59 3,2 °C 72 % 1026,8 hPa 0,0 mm 5,8 km/h (2 Bft) SW 231 ° 0 min 0,000 mm 1,4 UV-I 192 W/m² -1,3 °C 1,7 °C 9,7 km/h (2 Bft)
19.03.2019 15:00 3,3 °C 72 % 1026,8 hPa 0,0 mm 3,9 km/h (1 Bft) S-SW 207 ° 0 min 0,000 mm 1,4 UV-I 193 W/m² -1,3 °C 3,3 °C 6,4 km/h (2 Bft)
19.03.2019 15:01 3,3 °C 73 % 1026,9 hPa 0,0 mm 3,8 km/h (1 Bft) W-SW 251 ° 0 min 0,050 mm 1,4 UV-I 197 W/m² -1,1 °C 3,3 °C 6,4 km/h (2 Bft)
19.03.2019 15:02 3,3 °C 73 % 1026,9 hPa 0,0 mm 4,0 km/h (1 Bft) W 273 ° 0 min 0,000 mm 1,4 UV-I 199 W/m² -1,1 °C 3,3 °C 6,4 km/h (2 Bft)
19.03.2019 15:03 3,3 °C 73 % 1026,9 hPa 0,0 mm 2,7 km/h (1 Bft) W 273 ° 0 min 0,000 mm 1,4 UV-I 199 W/m² -1,1 °C 3,3 °C 4,8 km/h (1 Bft)
19.03.2019 15:04 3,3 °C 71 % 1026,9 hPa 0,0 mm 5,0 km/h (1 Bft) SW 229 ° 0 min 0,000 mm 1,4 UV-I 200 W/m² -1,4 °C 2,2 °C 6,4 km/h (2 Bft)
19.03.2019 15:05 3,3 °C 71 % 1026,8 hPa 0,0 mm 4,8 km/h (1 Bft) SW 219 ° 0 min 0,000 mm 1,4 UV-I 200 W/m² -1,4 °C 2,2 °C 8,0 km/h (2 Bft)
19.03.2019 15:06 3,3 °C 72 % 1026,9 hPa 0,0 mm 3,9 km/h (1 Bft) SW 232 ° 0 min 0,000 mm 1,4 UV-I 199 W/m² -1,3 °C 3,3 °C 6,4 km/h (2 Bft)
19.03.2019 15:07 3,3 °C 73 % 1026,9 hPa 0,0 mm 3,5 km/h (1 Bft) W-SW 237 ° 0 min 0,000 mm 1,3 UV-I 195 W/m² -1,1 °C 3,3 °C 4,8 km/h (1 Bft)
19.03.2019 15:08 3,4 °C 73 % 1026,9 hPa 0,0 mm 1,9 km/h (1 Bft) SW 236 ° 0 min 0,000 mm 1,3 UV-I 193 W/m² -1,0 °C 3,4 °C 4,8 km/h (1 Bft)
19.03.2019 15:09 3,4 °C 73 % 1026,9 hPa 0,0 mm 1,7 km/h (1 Bft) SW 236 ° 0 min 0,000 mm 1,3 UV-I 190 W/m² -1,0 °C 3,4 °C 4,8 km/h (1 Bft)
19.03.2019 15:10 3,4 °C 73 % 1026,9 hPa 0,0 mm 1,3 km/h (1 Bft) SW 236 ° 0 min 0,000 mm 1,3 UV-I 186 W/m² -1,0 °C 3,4 °C 3,2 km/h (1 Bft)
19.03.2019 15:11 3,4 °C 72 % 1026,9 hPa 0,0 mm 2,8 km/h (1 Bft) SW 236 ° 0 min 0,000 mm 1,2 UV-I 185 W/m² -1,2 °C 3,4 °C 4,8 km/h (1 Bft)
19.03.2019 15:12 3,4 °C 72 % 1027,0 hPa 0,0 mm 2,7 km/h (1 Bft) SW 236 ° 0 min 0,000 mm 1,2 UV-I 190 W/m² -1,2 °C 3,4 °C 4,8 km/h (1 Bft)
19.03.2019 15:13 3,5 °C 74 % 1027,0 hPa 0,0 mm 0,0 km/h (0 Bft) SW 236 ° 0 min 0,000 mm 1,2 UV-I 192 W/m² -0,7 °C 3,5 °C 0,0 km/h (0 Bft)
19.03.2019 15:14 3,6 °C 75 % 1026,9 hPa 0,0 mm 0,9 km/h (0 Bft) SW 236 ° 0 min 0,000 mm 1,2 UV-I 195 W/m² -0,4 °C 3,6 °C 1,6 km/h (1 Bft)
19.03.2019 15:15 3,6 °C 74 % 1026,9 hPa 0,0 mm 0,3 km/h (0 Bft) SW 235 ° 0 min 0,000 mm 1,2 UV-I 200 W/m² -0,6 °C 3,6 °C 1,6 km/h (1 Bft)
19.03.2019 15:16 3,6 °C 73 % 1026,9 hPa 0,0 mm 1,1 km/h (1 Bft) SO 133 ° 0 min 0,000 mm 1,2 UV-I 204 W/m² -0,8 °C 3,6 °C 3,2 km/h (1 Bft)
19.03.2019 15:17 3,5 °C 72 % 1026,9 hPa 0,0 mm 1,3 km/h (1 Bft) SO 133 ° 0 min 0,000 mm 1,2 UV-I 207 W/m² -1,1 °C 3,5 °C 3,2 km/h (1 Bft)
19.03.2019 15:18 3,4 °C 71 % 1026,9 hPa 0,0 mm 0,7 km/h (0 Bft) SO 135 ° 0 min 0,000 mm 1,2 UV-I 209 W/m² -1,3 °C 3,4 °C 3,2 km/h (1 Bft)
19.03.2019 15:19 3,4 °C 71 % 1027,0 hPa 0,0 mm 0,0 km/h (0 Bft) SO 134 ° 0 min 0,000 mm 1,3 UV-I 211 W/m² -1,3 °C 3,4 °C 0,0 km/h (0 Bft)
19.03.2019 15:20 3,5 °C 71 % 1027,0 hPa 0,0 mm 0,6 km/h (0 Bft) SO 141 ° 0 min 0,000 mm 1,2 UV-I 213 W/m² -1,3 °C 3,5 °C 3,2 km/h (1 Bft)
19.03.2019 15:21 3,4 °C 71 % 1026,9 hPa 0,0 mm 2,3 km/h (1 Bft) SO 138 ° 0 min 0,000 mm 1,2 UV-I 223 W/m² -1,3 °C 3,4 °C 3,2 km/h (1 Bft)
19.03.2019 15:22 3,5 °C 71 % 1027,0 hPa 0,0 mm 0,5 km/h (0 Bft) SO 138 ° 0 min 0,000 mm 1,2 UV-I 209 W/m² -1,3 °C 3,5 °C 3,2 km/h (1 Bft)
19.03.2019 15:23 3,6 °C 72 % 1026,9 hPa 0,0 mm 1,2 km/h (1 Bft) SO 138 ° 0 min 0,000 mm 1,5 UV-I 209 W/m² -1,0 °C 3,6 °C 3,2 km/h (1 Bft)
19.03.2019 15:24 3,7 °C 73 % 1027,0 hPa 0,0 mm 1,0 km/h (0 Bft) SO 133 ° 0 min 0,000 mm 1,4 UV-I 443 W/m² -0,7 °C 3,7 °C 3,2 km/h (1 Bft)
19.03.2019 15:25 3,7 °C 71 % 1027,0 hPa 0,0 mm 1,9 km/h (1 Bft) SO 133 ° 0 min 0,000 mm 1,3 UV-I 257 W/m² -1,1 °C 3,7 °C 3,2 km/h (1 Bft)
19.03.2019 15:26 3,7 °C 71 % 1027,0 hPa 0,0 mm 1,1 km/h (1 Bft) SO 134 ° 0 min 0,000 mm 1,1 UV-I 190 W/m² -1,1 °C 3,7 °C 1,6 km/h (1 Bft)
19.03.2019 15:27 3,8 °C 71 % 1027,0 hPa 0,0 mm 4,0 km/h (1 Bft) SW 224 ° 0 min 0,000 mm 1,0 UV-I 172 W/m² -1,0 °C 3,8 °C 6,4 km/h (2 Bft)
19.03.2019 15:28 3,8 °C 68 % 1027,0 hPa 0,0 mm 3,4 km/h (1 Bft) W-SW 242 ° 0 min 0,000 mm 1,0 UV-I 167 W/m² -1,6 °C 3,8 °C 6,4 km/h (2 Bft)
19.03.2019 15:29 3,8 °C 67 % 1027,0 hPa 0,0 mm 4,1 km/h (1 Bft) SW 230 ° 0 min 0,000 mm 1,0 UV-I 162 W/m² -1,8 °C 3,8 °C 6,4 km/h (2 Bft)
19.03.2019 15:30 3,7 °C 68 % 1027,0 hPa 0,0 mm 2,2 km/h (1 Bft) W-SW 254 ° 0 min 0,000 mm 1,0 UV-I 158 W/m² -1,6 °C 3,7 °C 6,4 km/h (2 Bft)
19.03.2019 15:31 3,7 °C 68 % 1027,0 hPa 0,0 mm 0,9 km/h (0 Bft) W-SW 254 ° 0 min 0,000 mm 0,9 UV-I 153 W/m² -1,6 °C 3,7 °C 3,2 km/h (1 Bft)
19.03.2019 15:32 3,7 °C 68 % 1027,0 hPa 0,0 mm 3,1 km/h (1 Bft) SW 223 ° 0 min 0,000 mm 0,9 UV-I 148 W/m² -1,6 °C 3,7 °C 6,4 km/h (2 Bft)
19.03.2019 15:33 3,6 °C 67 % 1027,0 hPa 0,0 mm 6,6 km/h (2 Bft) S-SW 211 ° 0 min 0,000 mm 0,9 UV-I 142 W/m² -1,9 °C 1,9 °C 8,0 km/h (2 Bft)
19.03.2019 15:34 3,6 °C 68 % 1027,0 hPa 0,0 mm 1,1 km/h (1 Bft) S-SW 211 ° 0 min 0,000 mm 0,8 UV-I 135 W/m² -1,7 °C 3,6 °C 3,2 km/h (1 Bft)
19.03.2019 15:35 3,6 °C 68 % 1027,0 hPa 0,0 mm 0,6 km/h (0 Bft) S-SW 212 ° 0 min 0,000 mm 0,8 UV-I 130 W/m² -1,7 °C 3,6 °C 3,2 km/h (1 Bft)
19.03.2019 15:36 3,6 °C 69 % 1027,0 hPa 0,0 mm 2,5 km/h (1 Bft) S-SW 213 ° 0 min 0,000 mm 0,8 UV-I 120 W/m² -1,5 °C 3,6 °C 3,2 km/h (1 Bft)
19.03.2019 15:37 3,6 °C 68 % 1027,0 hPa 0,0 mm 2,7 km/h (1 Bft) S-SW 213 ° 0 min 0,000 mm 0,7 UV-I 116 W/m² -1,7 °C 3,6 °C 4,8 km/h (1 Bft)
19.03.2019 15:38 3,6 °C 68 % 1027,0 hPa 0,0 mm 2,8 km/h (1 Bft) S-SW 213 ° 0 min 0,000 mm 0,7 UV-I 113 W/m² -1,7 °C 3,6 °C 3,2 km/h (1 Bft)
19.03.2019 15:39 3,5 °C 67 % 1027,0 hPa 0,0 mm 0,5 km/h (0 Bft) S-SW 213 ° 0 min 0,000 mm 0,7 UV-I 109 W/m² -2,0 °C 3,5 °C 3,2 km/h (1 Bft)
19.03.2019 15:40 3,5 °C 66 % 1027,1 hPa 0,0 mm 2,0 km/h (1 Bft) S-SW 213 ° 0 min 0,000 mm 0,7 UV-I 105 W/m² -2,2 °C 3,5 °C 3,2 km/h (1 Bft)
19.03.2019 15:41 3,5 °C 66 % 1027,0 hPa 0,0 mm 2,1 km/h (1 Bft) S-SW 213 ° 0 min 0,000 mm 0,7 UV-I 105 W/m² -2,2 °C 3,5 °C 3,2 km/h (1 Bft)
19.03.2019 15:42 3,5 °C 67 % 1027,0 hPa 0,0 mm 2,5 km/h (1 Bft) S-SW 213 ° 0 min 0,000 mm 0,7 UV-I 97 W/m² -2,0 °C 3,5 °C 3,2 km/h (1 Bft)
19.03.2019 15:43 3,5 °C 67 % 1027,0 hPa 0,0 mm 0,1 km/h (0 Bft) S-SW 213 ° 0 min 0,000 mm 0,6 UV-I 95 W/m² -2,0 °C 3,5 °C 1,6 km/h (1 Bft)
19.03.2019 15:44 3,6 °C 68 % 1027,0 hPa 0,0 mm 0,4 km/h (0 Bft) S-SW 213 ° 0 min 0,000 mm 0,6 UV-I 93 W/m² -1,7 °C 3,6 °C 3,2 km/h (1 Bft)
19.03.2019 15:45 3,6 °C 69 % 1027,0 hPa 0,0 mm 1,3 km/h (1 Bft) S-SW 213 ° 0 min 0,000 mm 0,6 UV-I 93 W/m² -1,5 °C 3,6 °C 3,2 km/h (1 Bft)
19.03.2019 15:46 3,6 °C 70 % 1027,0 hPa 0,0 mm 0,1 km/h (0 Bft) S-SW 213 ° 0 min 0,000 mm 0,6 UV-I 91 W/m² -1,3 °C 3,6 °C 1,6 km/h (1 Bft)
19.03.2019 15:47 3,6 °C 71 % 1027,0 hPa 0,0 mm 0,1 km/h (0 Bft) S-SW 213 ° 0 min 0,000 mm 0,6 UV-I 91 W/m² -1,2 °C 3,6 °C 1,6 km/h (1 Bft)
19.03.2019 15:48 3,6 °C 70 % 1027,1 hPa 0,0 mm 1,4 km/h (1 Bft) S-SW 213 ° 0 min 0,000 mm 0,6 UV-I 90 W/m² -1,3 °C 3,6 °C 3,2 km/h (1 Bft)
19.03.2019 15:49 3,6 °C 70 % 1027,1 hPa 0,0 mm 1,0 km/h (0 Bft) S-SW 213 ° 0 min 0,000 mm 0,6 UV-I 90 W/m² -1,3 °C 3,6 °C 3,2 km/h (1 Bft)
19.03.2019 15:50 3,5 °C 68 % 1027,1 hPa 0,0 mm 0,3 km/h (0 Bft) S-SW 213 ° 0 min 0,000 mm 0,6 UV-I 88 W/m² -1,8 °C 3,5 °C 1,6 km/h (1 Bft)
19.03.2019 15:51 3,5 °C 69 % 1027,1 hPa 0,0 mm 0,3 km/h (0 Bft) S-SW 213 ° 0 min 0,000 mm 0,6 UV-I 86 W/m² -1,6 °C 3,5 °C 1,6 km/h (1 Bft)
19.03.2019 15:52 3,6 °C 69 % 1027,0 hPa 0,0 mm 0,3 km/h (0 Bft) S-SW 213 ° 0 min 0,000 mm 0,6 UV-I 86 W/m² -1,5 °C 3,6 °C 1,6 km/h (1 Bft)
19.03.2019 15:53 3,5 °C 69 % 1027,1 hPa 0,0 mm 0,3 km/h (0 Bft) S-SW 213 ° 0 min 0,000 mm 0,6 UV-I 86 W/m² -1,6 °C 3,5 °C 3,2 km/h (1 Bft)
19.03.2019 15:54 3,5 °C 69 % 1027,0 hPa 0,0 mm 1,3 km/h (1 Bft) S-SW 213 ° 0 min 0,000 mm 0,6 UV-I 86 W/m² -1,6 °C 3,5 °C 1,6 km/h (1 Bft)
19.03.2019 15:55 3,4 °C 69 % 1027,1 hPa 0,0 mm 0,0 km/h (0 Bft) S-SW 213 ° 0 min 0,000 mm 0,6 UV-I 88 W/m² -1,7 °C 3,4 °C 0,0 km/h (0 Bft)
19.03.2019 15:56 3,4 °C 68 % 1027,1 hPa 0,0 mm 0,1 km/h (0 Bft) S-SW 213 ° 0 min 0,000 mm 0,6 UV-I 90 W/m² -1,9 °C 3,4 °C 1,6 km/h (1 Bft)
19.03.2019 15:57 3,3 °C 69 % 1027,1 hPa 0,0 mm 0,3 km/h (0 Bft) S-SW 213 ° 0 min 0,000 mm 0,6 UV-I 91 W/m² -1,8 °C 3,3 °C 1,6 km/h (1 Bft)
19.03.2019 15:58 3,4 °C 70 % 1027,1 hPa 0,0 mm 0,7 km/h (0 Bft) S-SW 213 ° 0 min 0,000 mm 0,6 UV-I 93 W/m² -1,5 °C 3,4 °C 1,6 km/h (1 Bft)
19.03.2019 15:59 3,4 °C 70 % 1027,1 hPa 0,0 mm 0,6 km/h (0 Bft) S-SW 213 ° 0 min 0,000 mm 0,6 UV-I 95 W/m² -1,5 °C 3,4 °C 1,6 km/h (1 Bft)
19.03.2019 16:00 3,4 °C 69 % 1027,1 hPa 0,0 mm 0,1 km/h (0 Bft) S-SW 213 ° 0 min 0,000 mm 0,6 UV-I 95 W/m² -1,7 °C 3,4 °C 1,6 km/h (1 Bft)
19.03.2019 16:01 3,4 °C 70 % 1027,1 hPa 0,0 mm 1,4 km/h (1 Bft) S-SW 213 ° 0 min 0,077 mm 0,6 UV-I 95 W/m² -1,5 °C 3,4 °C 3,2 km/h (1 Bft)
19.03.2019 16:02 3,4 °C 71 % 1027,1 hPa 0,0 mm 2,1 km/h (1 Bft) S-SW 213 ° 0 min 0,000 mm 0,6 UV-I 93 W/m² -1,3 °C 3,4 °C 4,8 km/h (1 Bft)
19.03.2019 16:03 3,4 °C 68 % 1027,2 hPa 0,0 mm 0,0 km/h (0 Bft) S-SW 213 ° 0 min 0,000 mm 0,6 UV-I 90 W/m² -1,9 °C 3,4 °C 0,0 km/h (0 Bft)
19.03.2019 16:04 3,4 °C 68 % 1027,2 hPa 0,0 mm 0,1 km/h (0 Bft) S-SW 213 ° 0 min 0,000 mm 0,6 UV-I 88 W/m² -1,9 °C 3,4 °C 1,6 km/h (1 Bft)
19.03.2019 16:05 3,4 °C 69 % 1027,2 hPa 0,0 mm 0,3 km/h (0 Bft) S-SW 213 ° 0 min 0,000 mm 0,6 UV-I 84 W/m² -1,7 °C 3,4 °C 3,2 km/h (1 Bft)
19.03.2019 16:06 3,4 °C 69 % 1027,2 hPa 0,0 mm 2,5 km/h (1 Bft) S-SW 213 ° 0 min 0,000 mm 0,5 UV-I 83 W/m² -1,7 °C 3,4 °C 3,2 km/h (1 Bft)
19.03.2019 16:07 3,4 °C 71 % 1027,2 hPa 0,0 mm 2,1 km/h (1 Bft) S-SW 213 ° 0 min 0,000 mm 0,5 UV-I 81 W/m² -1,3 °C 3,4 °C 4,8 km/h (1 Bft)
19.03.2019 16:08 3,4 °C 71 % 1027,2 hPa 0,0 mm 3,8 km/h (1 Bft) SO 128 ° 0 min 0,000 mm 0,5 UV-I 77 W/m² -1,3 °C 3,4 °C 9,7 km/h (2 Bft)
19.03.2019 16:09 3,4 °C 70 % 1027,2 hPa 0,0 mm 1,5 km/h (1 Bft) SO 127 ° 0 min 0,000 mm 0,5 UV-I 76 W/m² -1,5 °C 3,4 °C 3,2 km/h (1 Bft)
19.03.2019 16:10 3,4 °C 70 % 1027,3 hPa 0,0 mm 0,1 km/h (0 Bft) SO 128 ° 0 min 0,000 mm 0,5 UV-I 74 W/m² -1,5 °C 3,4 °C 1,6 km/h (1 Bft)
19.03.2019 16:11 3,4 °C 69 % 1027,3 hPa 0,0 mm 0,1 km/h (0 Bft) SO 127 ° 0 min 0,000 mm 0,5 UV-I 69 W/m² -1,7 °C 3,4 °C 1,6 km/h (1 Bft)
19.03.2019 16:12 3,4 °C 69 % 1027,3 hPa 0,0 mm 0,0 km/h (0 Bft) SO 127 ° 0 min 0,000 mm 0,0 UV-I 67 W/m² -1,7 °C 3,4 °C 0,0 km/h (0 Bft)
19.03.2019 16:13 3,4 °C 69 % 1027,3 hPa 0,0 mm 0,1 km/h (0 Bft) SO 127 ° 0 min 0,000 mm 0,0 UV-I 67 W/m² -1,7 °C 3,4 °C 1,6 km/h (1 Bft)
19.03.2019 16:14 3,4 °C 70 % 1027,3 hPa 0,0 mm 0,9 km/h (0 Bft) SO 127 ° 0 min 0,000 mm 0,0 UV-I 65 W/m² -1,5 °C 3,4 °C 3,2 km/h (1 Bft)
19.03.2019 16:15 3,4 °C 70 % 1027,3 hPa 0,0 mm 0,2 km/h (0 Bft) SO 127 ° 0 min 0,000 mm 0,0 UV-I 65 W/m² -1,5 °C 3,4 °C 1,6 km/h (1 Bft)
19.03.2019 16:16 3,4 °C 70 % 1027,3 hPa 0,0 mm 0,0 km/h (0 Bft) SO 127 ° 0 min 0,000 mm 0,0 UV-I 62 W/m² -1,5 °C 3,4 °C 0,0 km/h (0 Bft)
19.03.2019 16:17 3,3 °C 70 % 1027,3 hPa 0,0 mm 0,0 km/h (0 Bft) SO 127 ° 0 min 0,000 mm 0,0 UV-I 60 W/m² -1,6 °C 3,3 °C 0,0 km/h (0 Bft)
19.03.2019 16:18 3,3 °C 70 % 1027,3 hPa 0,0 mm 0,0 km/h (0 Bft) SO 127 ° 0 min 0,000 mm 0,0 UV-I 58 W/m² -1,6 °C 3,3 °C 0,0 km/h (0 Bft)
19.03.2019 16:19 3,3 °C 70 % 1027,2 hPa 0,0 mm 0,0 km/h (0 Bft) SO 127 ° 0 min 0,000 mm 0,0 UV-I 56 W/m² -1,6 °C 3,3 °C 0,0 km/h (0 Bft)
19.03.2019 16:20 3,3 °C 70 % 1027,3 hPa 0,0 mm 0,1 km/h (0 Bft) SO 127 ° 0 min 0,000 mm 0,0 UV-I 56 W/m² -1,6 °C 3,3 °C 1,6 km/h (1 Bft)
19.03.2019 16:21 3,3 °C 71 % 1027,3 hPa 0,0 mm 0,0 km/h (0 Bft) SO 127 ° 0 min 0,000 mm 0,0 UV-I 56 W/m² -1,4 °C 3,3 °C 0,0 km/h (0 Bft)
19.03.2019 16:22 3,3 °C 70 % 1027,3 hPa 0,0 mm 0,0 km/h (0 Bft) SO 127 ° 0 min 0,000 mm 0,0 UV-I 54 W/m² -1,6 °C 3,3 °C 0,0 km/h (0 Bft)
19.03.2019 16:23 3,2 °C 71 % 1027,3 hPa 0,0 mm 0,0 km/h (0 Bft) SO 127 ° 0 min 0,000 mm 0,0 UV-I 53 W/m² -1,5 °C 3,2 °C 0,0 km/h (0 Bft)
19.03.2019 16:24 3,2 °C 70 % 1027,3 hPa 0,0 mm 0,0 km/h (0 Bft) SO 127 ° 0 min 0,000 mm 0,0 UV-I 51 W/m² -1,7 °C 3,2 °C 0,0 km/h (0 Bft)
19.03.2019 16:25 3,2 °C 69 % 1027,3 hPa 0,0 mm 0,0 km/h (0 Bft) SO 127 ° 0 min 0,000 mm 0,0 UV-I 51 W/m² -1,9 °C 3,2 °C 0,0 km/h (0 Bft)
19.03.2019 16:26 3,2 °C 70 % 1027,3 hPa 0,0 mm 0,0 km/h (0 Bft) SO 127 ° 0 min 0,000 mm 0,0 UV-I 49 W/m² -1,7 °C 3,2 °C 0,0 km/h (0 Bft)
19.03.2019 16:27 3,2 °C 69 % 1027,3 hPa 0,0 mm 0,0 km/h (0 Bft) SO 127 ° 0 min 0,000 mm 0,0 UV-I 49 W/m² -1,9 °C 3,2 °C 0,0 km/h (0 Bft)
19.03.2019 16:28 3,2 °C 70 % 1027,4 hPa 0,0 mm 0,0 km/h (0 Bft) SO 127 ° 0 min 0,000 mm 0,0 UV-I 47 W/m² -1,7 °C 3,2 °C 0,0 km/h (0 Bft)
19.03.2019 16:29 3,2 °C 69 % 1027,3 hPa 0,0 mm 0,0 km/h (0 Bft) SO 127 ° 0 min 0,000 mm 0,0 UV-I 47 W/m² -1,9 °C 3,2 °C 0,0 km/h (0 Bft)
19.03.2019 16:30 3,2 °C 69 % 1027,3 hPa 0,0 mm 0,0 km/h (0 Bft) SO 127 ° 0 min 0,000 mm 0,0 UV-I 46 W/m² -1,9 °C 3,2 °C 0,0 km/h (0 Bft)
19.03.2019 16:31 3,2 °C 70 % 1027,3 hPa 0,0 mm 0,0 km/h (0 Bft) SO 127 ° 0 min 0,000 mm 0,0 UV-I 46 W/m² -1,7 °C 3,2 °C 0,0 km/h (0 Bft)
19.03.2019 16:32 3,2 °C 71 % 1027,3 hPa 0,0 mm 0,0 km/h (0 Bft) SO 127 ° 0 min 0,000 mm 0,0 UV-I 46 W/m² -1,5 °C 3,2 °C 0,0 km/h (0 Bft)
19.03.2019 16:33 3,2 °C 72 % 1027,3 hPa 0,0 mm 0,0 km/h (0 Bft) SO 127 ° 0 min 0,000 mm 0,0 UV-I 44 W/m² -1,3 °C 3,2 °C 0,0 km/h (0 Bft)
19.03.2019 16:34 3,2 °C 72 % 1027,3 hPa 0,0 mm 2,6 km/h (1 Bft) O-SO 123 ° 0 min 0,000 mm 0,0 UV-I 44 W/m² -1,3 °C 3,2 °C 3,2 km/h (1 Bft)
19.03.2019 16:35 3,2 °C 73 % 1027,3 hPa 0,0 mm 1,9 km/h (1 Bft) O-SO 123 ° 0 min 0,000 mm 0,0 UV-I 42 W/m² -1,2 °C 3,2 °C 3,2 km/h (1 Bft)
19.03.2019 16:36 3,2 °C 72 % 1027,4 hPa 0,0 mm 2,8 km/h (1 Bft) O-SO 123 ° 0 min 0,000 mm 0,0 UV-I 40 W/m² -1,3 °C 3,2 °C 3,2 km/h (1 Bft)
19.03.2019 16:37 3,2 °C 72 % 1027,4 hPa 0,0 mm 0,4 km/h (0 Bft) O-SO 123 ° 0 min 0,000 mm 0,0 UV-I 39 W/m² -1,3 °C 3,2 °C 3,2 km/h (1 Bft)
19.03.2019 16:38 3,2 °C 71 % 1027,4 hPa 0,0 mm 1,9 km/h (1 Bft) O-SO 123 ° 0 min 0,000 mm 0,0 UV-I 37 W/m² -1,5 °C 3,2 °C 3,2 km/h (1 Bft)
19.03.2019 16:39 3,2 °C 69 % 1027,4 hPa 0,0 mm 0,0 km/h (0 Bft) O-SO 123 ° 0 min 0,000 mm 0,0 UV-I 35 W/m² -1,9 °C 3,2 °C 0,0 km/h (0 Bft)
19.03.2019 16:40 3,2 °C 68 % 1027,4 hPa 0,0 mm 0,0 km/h (0 Bft) O-SO 123 ° 0 min 0,000 mm 0,0 UV-I 33 W/m² -2,1 °C 3,2 °C 0,0 km/h (0 Bft)
19.03.2019 16:41 3,2 °C 68 % 1027,4 hPa 0,0 mm 0,0 km/h (0 Bft) O-SO 123 ° 0 min 0,000 mm 0,0 UV-I 32 W/m² -2,1 °C 3,2 °C 0,0 km/h (0 Bft)
19.03.2019 16:42 3,2 °C 69 % 1027,5 hPa 0,0 mm 0,0 km/h (0 Bft) O-SO 123 ° 0 min 0,000 mm 0,0 UV-I 32 W/m² -1,9 °C 3,2 °C 0,0 km/h (0 Bft)
19.03.2019 16:43 3,2 °C 71 % 1027,5 hPa 0,0 mm 0,0 km/h (0 Bft) O-SO 123 ° 0 min 0,000 mm 0,0 UV-I 32 W/m² -1,5 °C 3,2 °C 0,0 km/h (0 Bft)
19.03.2019 16:44 3,2 °C 70 % 1027,5 hPa 0,0 mm 0,0 km/h (0 Bft) O-SO 123 ° 0 min 0,000 mm 0,0 UV-I 32 W/m² -1,7 °C 3,2 °C 0,0 km/h (0 Bft)
19.03.2019 16:45 3,2 °C 69 % 1027,5 hPa 0,0 mm 0,0 km/h (0 Bft) O-SO 123 ° 0 min 0,000 mm 0,0 UV-I 32 W/m² -1,9 °C 3,2 °C 0,0 km/h (0 Bft)
19.03.2019 16:46 3,2 °C 68 % 1027,5 hPa 0,0 mm 0,0 km/h (0 Bft) O-SO 123 ° 0 min 0,000 mm 0,0 UV-I 30 W/m² -2,1 °C 3,2 °C 0,0 km/h (0 Bft)
19.03.2019 16:47 3,2 °C 68 % 1027,5 hPa 0,0 mm 0,0 km/h (0 Bft) O-SO 123 ° 0 min 0,000 mm 0,0 UV-I 30 W/m² -2,1 °C 3,2 °C 0,0 km/h (0 Bft)
19.03.2019 16:48 3,2 °C 69 % 1027,5 hPa 0,0 mm 0,0 km/h (0 Bft) O-SO 123 ° 0 min 0,000 mm 0,0 UV-I 30 W/m² -1,9 °C 3,2 °C 0,0 km/h (0 Bft)
19.03.2019 16:49 3,2 °C 71 % 1027,5 hPa 0,0 mm 0,0 km/h (0 Bft) O-SO 123 ° 0 min 0,000 mm 0,0 UV-I 30 W/m² -1,5 °C 3,2 °C 0,0 km/h (0 Bft)
19.03.2019 16:50 3,2 °C 69 % 1027,5 hPa 0,0 mm 0,0 km/h (0 Bft) O-SO 123 ° 0 min 0,000 mm 0,0 UV-I 30 W/m² -1,9 °C 3,2 °C 0,0 km/h (0 Bft)
19.03.2019 16:51 3,1 °C 71 % 1027,6 hPa 0,0 mm 0,0 km/h (0 Bft) O-SO 123 ° 0 min 0,000 mm 0,0 UV-I 28 W/m² -1,6 °C 3,1 °C 0,0 km/h (0 Bft)
19.03.2019 16:52 3,1 °C 72 % 1027,6 hPa 0,0 mm 0,0 km/h (0 Bft) O-SO 123 ° 0 min 0,000 mm 0,0 UV-I 28 W/m² -1,4 °C 3,1 °C 0,0 km/h (0 Bft)
19.03.2019 16:53 3,0 °C 72 % 1027,6 hPa 0,0 mm 0,0 km/h (0 Bft) O-SO 123 ° 0 min 0,000 mm 0,0 UV-I 26 W/m² -1,5 °C 3,0 °C 0,0 km/h (0 Bft)
19.03.2019 16:54 3,1 °C 68 % 1027,7 hPa 0,0 mm 0,0 km/h (0 Bft) O-SO 123 ° 0 min 0,000 mm 0,0 UV-I 26 W/m² -2,2 °C 3,1 °C 0,0 km/h (0 Bft)
19.03.2019 16:55 3,1 °C 67 % 1027,7 hPa 0,0 mm 0,0 km/h (0 Bft) O-SO 123 ° 0 min 0,000 mm 0,0 UV-I 25 W/m² -2,4 °C 3,1 °C 0,0 km/h (0 Bft)
19.03.2019 16:56 3,1 °C 68 % 1027,7 hPa 0,0 mm 0,0 km/h (0 Bft) O-SO 123 ° 0 min 0,000 mm 0,0 UV-I 25 W/m² -2,2 °C 3,1 °C 0,0 km/h (0 Bft)
19.03.2019 16:57 3,1 °C 69 % 1027,7 hPa 0,0 mm 3,6 km/h (1 Bft) N-NO 32 ° 0 min 0,000 mm 0,0 UV-I 25 W/m² -2,0 °C 3,1 °C 8,0 km/h (2 Bft)
19.03.2019 16:58 3,1 °C 70 % 1027,8 hPa 0,0 mm 6,7 km/h (2 Bft) N-NO 17 ° 0 min 0,000 mm 0,0 UV-I 23 W/m² -1,8 °C 1,3 °C 9,7 km/h (2 Bft)
19.03.2019 16:59 3,1 °C 70 % 1027,7 hPa 0,0 mm 2,3 km/h (1 Bft) N-NO 22 ° 0 min 0,000 mm 0,0 UV-I 23 W/m² -1,8 °C 3,1 °C 4,8 km/h (1 Bft)
19.03.2019 17:00 3,2 °C 71 % 1027,8 hPa 0,0 mm 3,2 km/h (1 Bft) N 355 ° 0 min 0,000 mm 0,0 UV-I 21 W/m² -1,5 °C 3,2 °C 8,0 km/h (2 Bft)
19.03.2019 17:01 3,1 °C 72 % 1027,8 hPa 0,0 mm 4,5 km/h (1 Bft) N 355 ° 0 min 0,025 mm 0,0 UV-I 21 W/m² -1,4 °C 3,1 °C 8,0 km/h (2 Bft)
19.03.2019 17:02 3,1 °C 73 % 1027,8 hPa 0,0 mm 7,6 km/h (2 Bft) N-NO 15 ° 0 min 0,000 mm 0,0 UV-I 21 W/m² -1,3 °C 1,0 °C 11,3 km/h (2 Bft)
19.03.2019 17:03 3,0 °C 73 % 1027,9 hPa 0,0 mm 8,6 km/h (2 Bft) N 5 ° 0 min 0,000 mm 0,0 UV-I 21 W/m² -1,4 °C 0,6 °C 12,9 km/h (3 Bft)
19.03.2019 17:04 3,0 °C 73 % 1027,9 hPa 0,0 mm 7,7 km/h (2 Bft) N 355 ° 0 min 0,000 mm 0,0 UV-I 19 W/m² -1,4 °C 0,9 °C 12,9 km/h (3 Bft)
19.03.2019 17:05 2,9 °C 74 % 1027,9 hPa 0,0 mm 4,8 km/h (1 Bft) N-NO 30 ° 0 min 0,000 mm 0,0 UV-I 19 W/m² -1,3 °C 1,8 °C 6,4 km/h (2 Bft)
19.03.2019 17:06 2,8 °C 74 % 1027,9 hPa 0,0 mm 4,6 km/h (1 Bft) N-NO 17 ° 0 min 0,000 mm 0,0 UV-I 21 W/m² -1,4 °C 1,8 °C 6,4 km/h (2 Bft)
19.03.2019 17:07 2,7 °C 75 % 1027,9 hPa 0,0 mm 2,3 km/h (1 Bft) N-NO 17 ° 0 min 0,000 mm 0,0 UV-I 21 W/m² -1,3 °C 2,7 °C 4,8 km/h (1 Bft)
19.03.2019 17:08 2,7 °C 76 % 1027,9 hPa 0,0 mm 3,2 km/h (1 Bft) N-NO 17 ° 0 min 0,000 mm 0,0 UV-I 21 W/m² -1,1 °C 2,7 °C 4,8 km/h (1 Bft)
19.03.2019 17:09 2,6 °C 76 % 1027,9 hPa 0,0 mm 0,7 km/h (0 Bft) N-NO 17 ° 0 min 0,000 mm 0,0 UV-I 21 W/m² -1,2 °C 2,6 °C 3,2 km/h (1 Bft)
19.03.2019 17:10 2,6 °C 77 % 1027,9 hPa 0,0 mm 1,1 km/h (1 Bft) N-NO 17 ° 0 min 0,000 mm 0,0 UV-I 21 W/m² -1,0 °C 2,6 °C 3,2 km/h (1 Bft)
19.03.2019 17:11 2,4 °C 77 % 1027,9 hPa 0,0 mm 0,0 km/h (0 Bft) N-NO 17 ° 0 min 0,000 mm 0,0 UV-I 23 W/m² -1,2 °C 2,4 °C 0,0 km/h (0 Bft)
19.03.2019 17:12 2,4 °C 77 % 1027,9 hPa 0,0 mm 0,0 km/h (0 Bft) N-NO 17 ° 0 min 0,000 mm 0,0 UV-I 23 W/m² -1,2 °C 2,4 °C 0,0 km/h (0 Bft)
19.03.2019 17:13 2,3 °C 77 % 1027,9 hPa 0,0 mm 0,0 km/h (0 Bft) N-NO 17 ° 0 min 0,000 mm 0,0 UV-I 23 W/m² -1,3 °C 2,3 °C 0,0 km/h (0 Bft)
19.03.2019 17:14 2,3 °C 77 % 1027,9 hPa 0,0 mm 0,0 km/h (0 Bft) N-NO 17 ° 0 min 0,000 mm 0,0 UV-I 25 W/m² -1,3 °C 2,3 °C 0,0 km/h (0 Bft)
19.03.2019 17:15 2,2 °C 78 % 1027,9 hPa 0,0 mm 0,0 km/h (0 Bft) N-NO 17 ° 0 min 0,000 mm 0,0 UV-I 25 W/m² -1,2 °C 2,2 °C 0,0 km/h (0 Bft)
19.03.2019 17:16 2,2 °C 78 % 1028,0 hPa 0,0 mm 0,0 km/h (0 Bft) N-NO 17 ° 0 min 0,000 mm 0,0 UV-I 26 W/m² -1,2 °C 2,2 °C 0,0 km/h (0 Bft)
19.03.2019 17:17 2,2 °C 78 % 1028,0 hPa 0,0 mm 0,0 km/h (0 Bft) N-NO 17 ° 0 min 0,000 mm 0,0 UV-I 26 W/m² -1,2 °C 2,2 °C 0,0 km/h (0 Bft)
19.03.2019 17:18 2,2 °C 79 % 1028,0 hPa 0,0 mm 0,0 km/h (0 Bft) N-NO 17 ° 0 min 0,000 mm 0,0 UV-I 28 W/m² -1,1 °C 2,2 °C 0,0 km/h (0 Bft)
19.03.2019 17:19 2,1 °C 79 % 1028,0 hPa 0,0 mm 0,2 km/h (0 Bft) N-NO 17 ° 0 min 0,000 mm 0,0 UV-I 26 W/m² -1,2 °C 2,1 °C 1,6 km/h (1 Bft)
19.03.2019 17:20 2,2 °C 79 % 1028,0 hPa 0,0 mm 2,3 km/h (1 Bft) N-NO 17 ° 0 min 0,000 mm 0,0 UV-I 26 W/m² -1,1 °C 2,2 °C 3,2 km/h (1 Bft)
19.03.2019 17:21 2,1 °C 79 % 1028,0 hPa 0,0 mm 2,6 km/h (1 Bft) N-NO 17 ° 0 min 0,000 mm 0,0 UV-I 25 W/m² -1,2 °C 2,1 °C 3,2 km/h (1 Bft)
19.03.2019 17:22 2,1 °C 79 % 1028,1 hPa 0,0 mm 2,1 km/h (1 Bft) N-NO 17 ° 0 min 0,000 mm 0,0 UV-I 23 W/m² -1,2 °C 2,1 °C 3,2 km/h (1 Bft)
19.03.2019 17:23 2,1 °C 79 % 1028,1 hPa 0,0 mm 2,4 km/h (1 Bft) N-NO 17 ° 0 min 0,000 mm 0,0 UV-I 23 W/m² -1,2 °C 2,1 °C 3,2 km/h (1 Bft)
19.03.2019 17:24 2,1 °C 80 % 1028,0 hPa 0,0 mm 1,5 km/h (1 Bft) N-NO 17 ° 0 min 0,000 mm 0,0 UV-I 23 W/m² -1,0 °C 2,1 °C 3,2 km/h (1 Bft)
19.03.2019 17:25 2,1 °C 80 % 1028,0 hPa 0,0 mm 2,4 km/h (1 Bft) N-NO 17 ° 0 min 0,000 mm 0,0 UV-I 21 W/m² -1,0 °C 2,1 °C 3,2 km/h (1 Bft)
19.03.2019 17:26 2,1 °C 80 % 1028,1 hPa 0,0 mm 2,0 km/h (1 Bft) N-NO 17 ° 0 min 0,000 mm 0,0 UV-I 21 W/m² -1,0 °C 2,1 °C 3,2 km/h (1 Bft)
19.03.2019 17:27 2,1 °C 80 % 1028,0 hPa 0,0 mm 3,0 km/h (1 Bft) S-SO 149 ° 0 min 0,000 mm 0,0 UV-I 21 W/m² -1,0 °C 2,1 °C 3,2 km/h (1 Bft)
19.03.2019 17:28 2,1 °C 80 % 1028,0 hPa 0,0 mm 2,0 km/h (1 Bft) S-SO 149 ° 0 min 0,000 mm 0,0 UV-I 21 W/m² -1,0 °C 2,1 °C 3,2 km/h (1 Bft)
19.03.2019 17:29 2,1 °C 80 % 1028,0 hPa 0,0 mm 2,3 km/h (1 Bft) S-SO 149 ° 0 min 0,000 mm 0,0 UV-I 21 W/m² -1,0 °C 2,1 °C 3,2 km/h (1 Bft)
19.03.2019 17:30 2,2 °C 80 % 1028,0 hPa 0,0 mm 2,5 km/h (1 Bft) S-SO 149 ° 0 min 0,000 mm 0,0 UV-I 21 W/m² -0,9 °C 2,2 °C 3,2 km/h (1 Bft)
19.03.2019 17:31 2,2 °C 81 % 1028,0 hPa 0,0 mm 2,0 km/h (1 Bft) S-SO 149 ° 0 min 0,000 mm 0,0 UV-I 21 W/m² -0,7 °C 2,2 °C 3,2 km/h (1 Bft)
19.03.2019 17:32 2,2 °C 81 % 1028,0 hPa 0,0 mm 2,3 km/h (1 Bft) S-SO 149 ° 0 min 0,000 mm 0,0 UV-I 21 W/m² -0,7 °C 2,2 °C 3,2 km/h (1 Bft)
19.03.2019 17:33 2,2 °C 81 % 1028,0 hPa 0,0 mm 2,3 km/h (1 Bft) S-SO 149 ° 0 min 0,000 mm 0,0 UV-I 21 W/m² -0,7 °C 2,2 °C 3,2 km/h (1 Bft)
19.03.2019 17:34 2,2 °C 81 % 1028,0 hPa 0,0 mm 2,3 km/h (1 Bft) S-SO 149 ° 0 min 0,000 mm 0,0 UV-I 21 W/m² -0,7 °C 2,2 °C 3,2 km/h (1 Bft)
19.03.2019 17:35 2,2 °C 81 % 1028,1 hPa 0,0 mm 3,0 km/h (1 Bft) S-SO 149 ° 0 min 0,000 mm 0,0 UV-I 21 W/m² -0,7 °C 2,2 °C 4,8 km/h (1 Bft)
19.03.2019 17:36 2,2 °C 81 % 1028,1 hPa 0,0 mm 1,6 km/h (1 Bft) S-SO 149 ° 0 min 0,000 mm 0,0 UV-I 21 W/m² -0,7 °C 2,2 °C 3,2 km/h (1 Bft)
19.03.2019 17:37 2,2 °C 81 % 1028,1 hPa 0,0 mm 1,5 km/h (1 Bft) S-SO 149 ° 0 min 0,000 mm 0,0 UV-I 21 W/m² -0,7 °C 2,2 °C 3,2 km/h (1 Bft)
19.03.2019 17:38 2,2 °C 81 % 1028,1 hPa 0,0 mm 1,4 km/h (1 Bft) S-SO 149 ° 0 min 0,000 mm 0,0 UV-I 21 W/m² -0,7 °C 2,2 °C 1,6 km/h (1 Bft)
19.03.2019 17:39 2,2 °C 81 % 1028,1 hPa 0,0 mm 1,4 km/h (1 Bft) S-SO 149 ° 0 min 0,000 mm 0,0 UV-I 23 W/m² -0,7 °C 2,2 °C 3,2 km/h (1 Bft)
19.03.2019 17:40 2,2 °C 81 % 1028,1 hPa 0,0 mm 0,2 km/h (0 Bft) S-SO 149 ° 0 min 0,000 mm 0,0 UV-I 23 W/m² -0,7 °C 2,2 °C 1,6 km/h (1 Bft)
19.03.2019 17:41 2,2 °C 82 % 1028,1 hPa 0,0 mm 0,0 km/h (0 Bft) S-SO 149 ° 0 min 0,000 mm 0,0 UV-I 23 W/m² -0,5 °C 2,2 °C 0,0 km/h (0 Bft)
19.03.2019 17:42 2,2 °C 82 % 1028,2 hPa 0,0 mm 0,0 km/h (0 Bft) S-SO 149 ° 0 min 0,000 mm 0,0 UV-I 23 W/m² -0,5 °C 2,2 °C 0,0 km/h (0 Bft)
19.03.2019 17:43 2,2 °C 82 % 1028,2 hPa 0,0 mm 0,0 km/h (0 Bft) S-SO 149 ° 0 min 0,000 mm 0,0 UV-I 23 W/m² -0,5 °C 2,2 °C 0,0 km/h (0 Bft)
19.03.2019 17:44 2,2 °C 82 % 1028,2 hPa 0,0 mm 0,0 km/h (0 Bft) S-SO 149 ° 0 min 0,000 mm 0,0 UV-I 23 W/m² -0,5 °C 2,2 °C 0,0 km/h (0 Bft)
19.03.2019 17:45 2,2 °C 83 % 1028,2 hPa 0,0 mm 1,1 km/h (1 Bft) S-SO 149 ° 0 min 0,000 mm 0,0 UV-I 23 W/m² -0,4 °C 2,2 °C 3,2 km/h (1 Bft)
19.03.2019 17:46 2,2 °C 83 % 1028,2 hPa 0,0 mm 1,5 km/h (1 Bft) S-SO 149 ° 0 min 0,000 mm 0,0 UV-I 23 W/m² -0,4 °C 2,2 °C 3,2 km/h (1 Bft)
19.03.2019 17:47 2,2 °C 82 % 1028,2 hPa 0,0 mm 1,4 km/h (1 Bft) S-SO 149 ° 0 min 0,000 mm 0,0 UV-I 21 W/m² -0,5 °C 2,2 °C 3,2 km/h (1 Bft)
19.03.2019 17:48 2,2 °C 81 % 1028,2 hPa 0,0 mm 0,0 km/h (0 Bft) S-SO 149 ° 0 min 0,000 mm 0,0 UV-I 21 W/m² -0,7 °C 2,2 °C 0,0 km/h (0 Bft)
19.03.2019 17:49 2,1 °C 81 % 1028,2 hPa 0,0 mm 0,0 km/h (0 Bft) S-SO 149 ° 0 min 0,000 mm 0,0 UV-I 21 W/m² -0,8 °C 2,1 °C 0,0 km/h (0 Bft)
19.03.2019 17:50 2,2 °C 82 % 1028,2 hPa 0,0 mm 0,0 km/h (0 Bft) S-SO 149 ° 0 min 0,000 mm 0,0 UV-I 21 W/m² -0,5 °C 2,2 °C 0,0 km/h (0 Bft)
19.03.2019 17:51 2,2 °C 82 % 1028,3 hPa 0,0 mm 0,0 km/h (0 Bft) S-SO 149 ° 0 min 0,000 mm 0,0 UV-I 21 W/m² -0,5 °C 2,2 °C 0,0 km/h (0 Bft)
19.03.2019 17:52 2,2 °C 82 % 1028,3 hPa 0,0 mm 1,9 km/h (1 Bft) S-SO 149 ° 0 min 0,000 mm 0,0 UV-I 21 W/m² -0,5 °C 2,2 °C 3,2 km/h (1 Bft)
19.03.2019 17:53 2,2 °C 82 % 1028,3 hPa 0,0 mm 1,8 km/h (1 Bft) S-SO 149 ° 0 min 0,000 mm 0,0 UV-I 21 W/m² -0,5 °C 2,2 °C 3,2 km/h (1 Bft)
19.03.2019 17:54 2,2 °C 83 % 1028,3 hPa 0,0 mm 2,4 km/h (1 Bft) S-SO 149 ° 0 min 0,000 mm 0,0 UV-I 21 W/m² -0,4 °C 2,2 °C 3,2 km/h (1 Bft)
19.03.2019 17:55 2,2 °C 83 % 1028,3 hPa 0,0 mm 1,8 km/h (1 Bft) S-SO 149 ° 0 min 0,000 mm 0,0 UV-I 19 W/m² -0,4 °C 2,2 °C 3,2 km/h (1 Bft)
19.03.2019 17:56 2,1 °C 83 % 1028,3 hPa 0,0 mm 0,6 km/h (0 Bft) S-SO 149 ° 0 min 0,000 mm 0,0 UV-I 19 W/m² -0,5 °C 2,1 °C 1,6 km/h (1 Bft)
19.03.2019 17:57 2,1 °C 83 % 1028,3 hPa 0,0 mm 0,0 km/h (0 Bft) S-SO 149 ° 0 min 0,000 mm 0,0 UV-I 18 W/m² -0,5 °C 2,1 °C 0,0 km/h (0 Bft)
19.03.2019 17:58 2,1 °C 83 % 1028,3 hPa 0,0 mm 0,0 km/h (0 Bft) S-SO 149 ° 0 min 0,000 mm 0,0 UV-I 18 W/m² -0,5 °C 2,1 °C 0,0 km/h (0 Bft)
19.03.2019 17:59 2,1 °C 83 % 1028,3 hPa 0,0 mm 0,0 km/h (0 Bft) S-SO 149 ° 0 min 0,000 mm 0,0 UV-I 18 W/m² -0,5 °C 2,1 °C 0,0 km/h (0 Bft)
19.03.2019 18:00 2,1 °C 83 % 1028,4 hPa 0,0 mm 0,0 km/h (0 Bft) S-SO 149 ° 0 min 0,000 mm 0,0 UV-I 18 W/m² -0,5 °C 2,1 °C 0,0 km/h (0 Bft)
19.03.2019 18:01 2,1 °C 83 % 1028,3 hPa 0,0 mm 0,0 km/h (0 Bft) S-SO 149 ° 0 min 0,025 mm 0,0 UV-I 18 W/m² -0,5 °C 2,1 °C 0,0 km/h (0 Bft)
19.03.2019 18:02 2,1 °C 83 % 1028,3 hPa 0,0 mm 0,0 km/h (0 Bft) S-SO 149 ° 0 min 0,000 mm 0,0 UV-I 18 W/m² -0,5 °C 2,1 °C 0,0 km/h (0 Bft)
19.03.2019 18:03 2,0 °C 83 % 1028,4 hPa 0,0 mm 0,0 km/h (0 Bft) S-SO 149 ° 0 min 0,000 mm 0,0 UV-I 16 W/m² -0,6 °C 2,0 °C 0,0 km/h (0 Bft)
19.03.2019 18:04 2,0 °C 83 % 1028,3 hPa 0,0 mm 0,0 km/h (0 Bft) S-SO 149 ° 0 min 0,000 mm 0,0 UV-I 16 W/m² -0,6 °C 2,0 °C 0,0 km/h (0 Bft)
19.03.2019 18:05 2,0 °C 83 % 1028,3 hPa 0,0 mm 0,0 km/h (0 Bft) S-SO 149 ° 0 min 0,000 mm 0,0 UV-I 14 W/m² -0,6 °C 2,0 °C 0,0 km/h (0 Bft)
19.03.2019 18:06 1,9 °C 83 % 1028,3 hPa 0,0 mm 0,0 km/h (0 Bft) S-SO 149 ° 0 min 0,000 mm 0,0 UV-I 14 W/m² -0,7 °C 1,9 °C 0,0 km/h (0 Bft)
19.03.2019 18:07 1,9 °C 83 % 1028,4 hPa 0,0 mm 0,0 km/h (0 Bft) S-SO 149 ° 0 min 0,000 mm 0,0 UV-I 14 W/m² -0,7 °C 1,9 °C 0,0 km/h (0 Bft)
19.03.2019 18:08 1,9 °C 83 % 1028,4 hPa 0,0 mm 0,0 km/h (0 Bft) S-SO 149 ° 0 min 0,000 mm 0,0 UV-I 14 W/m² -0,7 °C 1,9 °C 0,0 km/h (0 Bft)
19.03.2019 18:09 1,9 °C 83 % 1028,4 hPa 0,0 mm 0,0 km/h (0 Bft) S-SO 149 ° 0 min 0,000 mm 0,0 UV-I 12 W/m² -0,7 °C 1,9 °C 0,0 km/h (0 Bft)
19.03.2019 18:10 1,9 °C 83 % 1028,5 hPa 0,0 mm 0,0 km/h (0 Bft) S-SO 149 ° 0 min 0,000 mm 0,0 UV-I 12 W/m² -0,7 °C 1,9 °C 0,0 km/h (0 Bft)
19.03.2019 18:11 1,8 °C 84 % 1028,5 hPa 0,0 mm 0,0 km/h (0 Bft) S-SO 149 ° 0 min 0,000 mm 0,0 UV-I 12 W/m² -0,6 °C 1,8 °C 0,0 km/h (0 Bft)
19.03.2019 18:12 1,8 °C 83 % 1028,5 hPa 0,0 mm 0,0 km/h (0 Bft) S-SO 149 ° 0 min 0,000 mm 0,0 UV-I 12 W/m² -0,8 °C 1,8 °C 0,0 km/h (0 Bft)
19.03.2019 18:13 1,7 °C 83 % 1028,5 hPa 0,0 mm 0,0 km/h (0 Bft) S-SO 149 ° 0 min 0,000 mm 0,0 UV-I 11 W/m² -0,9 °C 1,7 °C 0,0 km/h (0 Bft)
19.03.2019 18:14 1,7 °C 83 % 1028,5 hPa 0,0 mm 0,0 km/h (0 Bft) S-SO 149 ° 0 min 0,000 mm 0,0 UV-I 11 W/m² -0,9 °C 1,7 °C 0,0 km/h (0 Bft)
19.03.2019 18:15 1,7 °C 83 % 1028,5 hPa 0,0 mm 0,0 km/h (0 Bft) S-SO 149 ° 0 min 0,000 mm 0,0 UV-I 9 W/m² -0,9 °C 1,7 °C 0,0 km/h (0 Bft)
19.03.2019 18:16 1,6 °C 83 % 1028,5 hPa 0,0 mm 0,0 km/h (0 Bft) S-SO 149 ° 0 min 0,000 mm 0,0 UV-I 9 W/m² -1,0 °C 1,6 °C 0,0 km/h (0 Bft)
19.03.2019 18:17 1,6 °C 83 % 1028,5 hPa 0,0 mm 0,0 km/h (0 Bft) S-SO 149 ° 0 min 0,000 mm 0,0 UV-I 9 W/m² -1,0 °C 1,6 °C 0,0 km/h (0 Bft)
19.03.2019 18:18 1,5 °C 83 % 1028,5 hPa 0,0 mm 0,0 km/h (0 Bft) S-SO 149 ° 0 min 0,000 mm 0,0 UV-I 7 W/m² -1,1 °C 1,5 °C 0,0 km/h (0 Bft)
19.03.2019 18:19 1,4 °C 83 % 1028,5 hPa 0,0 mm 0,0 km/h (0 Bft) S-SO 149 ° 0 min 0,000 mm 0,0 UV-I 7 W/m² -1,2 °C 1,4 °C 0,0 km/h (0 Bft)
19.03.2019 18:20 1,4 °C 83 % 1028,6 hPa 0,0 mm 0,0 km/h (0 Bft) S-SO 149 ° 0 min 0,000 mm 0,0 UV-I 7 W/m² -1,2 °C 1,4 °C 0,0 km/h (0 Bft)
19.03.2019 18:21 1,4 °C 83 % 1028,6 hPa 0,0 mm 0,0 km/h (0 Bft) S-SO 149 ° 0 min 0,000 mm 0,0 UV-I 5 W/m² -1,2 °C 1,4 °C 0,0 km/h (0 Bft)
19.03.2019 18:22 1,3 °C 84 % 1028,6 hPa 0,0 mm 0,0 km/h (0 Bft) S-SO 149 ° 0 min 0,000 mm 0,0 UV-I 5 W/m² -1,1 °C 1,3 °C 0,0 km/h (0 Bft)
19.03.2019 18:23 1,3 °C 84 % 1028,6 hPa 0,0 mm 0,0 km/h (0 Bft) S-SO 149 ° 0 min 0,000 mm 0,0 UV-I 5 W/m² -1,1 °C 1,3 °C 0,0 km/h (0 Bft)
19.03.2019 18:24 1,3 °C 84 % 1028,6 hPa 0,0 mm 0,0 km/h (0 Bft) S-SO 149 ° 0 min 0,000 mm 0,0 UV-I 5 W/m² -1,1 °C 1,3 °C 0,0 km/h (0 Bft)
19.03.2019 18:25 1,3 °C 84 % 1028,6 hPa 0,0 mm 0,0 km/h (0 Bft) S-SO 149 ° 0 min 0,000 mm 0,0 UV-I 5 W/m² -1,1 °C 1,3 °C 0,0 km/h (0 Bft)
19.03.2019 18:26 1,2 °C 84 % 1028,6 hPa 0,0 mm 0,0 km/h (0 Bft) S-SO 149 ° 0 min 0,000 mm 0,0 UV-I 0 W/m² -1,2 °C 1,2 °C 0,0 km/h (0 Bft)
19.03.2019 18:27 1,2 °C 84 % 1028,7 hPa 0,0 mm 0,0 km/h (0 Bft) S-SO 149 ° 0 min 0,000 mm 0,0 UV-I 0 W/m² -1,2 °C 1,2 °C 0,0 km/h (0 Bft)
19.03.2019 18:28 1,2 °C 84 % 1028,6 hPa 0,0 mm 0,0 km/h (0 Bft) S-SO 149 ° 0 min 0,000 mm 0,0 UV-I 0 W/m² -1,2 °C 1,2 °C 0,0 km/h (0 Bft)
19.03.2019 18:29 1,2 °C 84 % 1028,7 hPa 0,0 mm 0,0 km/h (0 Bft) S-SO 149 ° 0 min 0,000 mm 0,0 UV-I 0 W/m² -1,2 °C 1,2 °C 0,0 km/h (0 Bft)
19.03.2019 18:30 1,1 °C 84 % 1028,7 hPa 0,0 mm 0,0 km/h (0 Bft) S-SO 149 ° 0 min 0,000 mm 0,0 UV-I 0 W/m² -1,3 °C 1,1 °C 0,0 km/h (0 Bft)
19.03.2019 18:31 1,1 °C 84 % 1028,7 hPa 0,0 mm 0,0 km/h (0 Bft) S-SO 149 ° 0 min 0,000 mm 0,0 UV-I 0 W/m² -1,3 °C 1,1 °C 0,0 km/h (0 Bft)
19.03.2019 18:32 1,1 °C 84 % 1028,8 hPa 0,0 mm 0,0 km/h (0 Bft) S-SO 149 ° 0 min 0,000 mm 0,0 UV-I 0 W/m² -1,3 °C 1,1 °C 0,0 km/h (0 Bft)
19.03.2019 18:33 1,0 °C 84 % 1028,8 hPa 0,0 mm 0,0 km/h (0 Bft) S-SO 149 ° 0 min 0,000 mm 0,0 UV-I 0 W/m² -1,4 °C 1,0 °C 0,0 km/h (0 Bft)
19.03.2019 18:34 1,0 °C 85 % 1028,8 hPa 0,0 mm 0,0 km/h (0 Bft) S-SO 149 ° 0 min 0,000 mm 0,0 UV-I 0 W/m² -1,2 °C 1,0 °C 0,0 km/h (0 Bft)
19.03.2019 18:35 1,0 °C 85 % 1028,8 hPa 0,0 mm 0,0 km/h (0 Bft) S-SO 149 ° 0 min 0,000 mm 0,0 UV-I 0 W/m² -1,2 °C 1,0 °C 0,0 km/h (0 Bft)
19.03.2019 18:36 0,9 °C 85 % 1028,8 hPa 0,0 mm 0,0 km/h (0 Bft) S-SO 149 ° 0 min 0,000 mm 0,0 UV-I 0 W/m² -1,3 °C 0,9 °C 0,0 km/h (0 Bft)
19.03.2019 18:37 0,9 °C 85 % 1028,8 hPa 0,0 mm 0,0 km/h (0 Bft) S-SO 149 ° 0 min 0,000 mm 0,0 UV-I 0 W/m² -1,3 °C 0,9 °C 0,0 km/h (0 Bft)
19.03.2019 18:38 0,9 °C 85 % 1028,8 hPa 0,0 mm 0,0 km/h (0 Bft) S-SO 149 ° 0 min 0,000 mm 0,0 UV-I 0 W/m² -1,3 °C 0,9 °C 0,0 km/h (0 Bft)
19.03.2019 18:39 0,8 °C 85 % 1028,9 hPa 0,0 mm 0,0 km/h (0 Bft) S-SO 149 ° 0 min 0,000 mm 0,0 UV-I 0 W/m² -1,4 °C 0,8 °C 0,0 km/h (0 Bft)
19.03.2019 18:40 0,8 °C 86 % 1028,9 hPa 0,0 mm 0,0 km/h (0 Bft) S-SO 149 ° 0 min 0,000 mm 0,0 UV-I 0 W/m² -1,3 °C 0,8 °C 0,0 km/h (0 Bft)
19.03.2019 18:41 0,8 °C 86 % 1028,9 hPa 0,0 mm 0,0 km/h (0 Bft) S-SO 149 ° 0 min 0,000 mm 0,0 UV-I 0 W/m² -1,3 °C 0,8 °C 0,0 km/h (0 Bft)
19.03.2019 18:42 0,8 °C 85 % 1029,0 hPa 0,0 mm 0,0 km/h (0 Bft) S-SO 149 ° 0 min 0,000 mm 0,0 UV-I 0 W/m² -1,4 °C 0,8 °C 0,0 km/h (0 Bft)
19.03.2019 18:43 0,7 °C 85 % 1028,9 hPa 0,0 mm 0,0 km/h (0 Bft) S-SO 149 ° 0 min 0,000 mm 0,0 UV-I 0 W/m² -1,5 °C 0,7 °C 0,0 km/h (0 Bft)
19.03.2019 18:44 0,7 °C 85 % 1029,0 hPa 0,0 mm 0,0 km/h (0 Bft) S-SO 149 ° 0 min 0,000 mm 0,0 UV-I 0 W/m² -1,5 °C 0,7 °C 0,0 km/h (0 Bft)
19.03.2019 18:45 0,7 °C 85 % 1029,0 hPa 0,0 mm 0,0 km/h (0 Bft) S-SO 149 ° 0 min 0,000 mm 0,0 UV-I 0 W/m² -1,5 °C 0,7 °C 0,0 km/h (0 Bft)
19.03.2019 18:46 0,7 °C 85 % 1029,0 hPa 0,0 mm 0,0 km/h (0 Bft) S-SO 149 ° 0 min 0,000 mm 0,0 UV-I 0 W/m² -1,5 °C 0,7 °C 0,0 km/h (0 Bft)
19.03.2019 18:47 0,7 °C 85 % 1029,0 hPa 0,0 mm 0,0 km/h (0 Bft) S-SO 149 ° 0 min 0,000 mm 0,0 UV-I 0 W/m² -1,5 °C 0,7 °C 0,0 km/h (0 Bft)
19.03.2019 18:48 0,6 °C 85 % 1029,0 hPa 0,0 mm 0,0 km/h (0 Bft) S-SO 149 ° 0 min 0,000 mm 0,0 UV-I 0 W/m² -1,6 °C 0,6 °C 0,0 km/h (0 Bft)
19.03.2019 18:49 0,6 °C 86 % 1029,0 hPa 0,0 mm 0,0 km/h (0 Bft) S-SO 149 ° 0 min 0,000 mm 0,0 UV-I 0 W/m² -1,5 °C 0,6 °C 0,0 km/h (0 Bft)
19.03.2019 18:50 0,6 °C 85 % 1029,0 hPa 0,0 mm 0,0 km/h (0 Bft) S-SO 149 ° 0 min 0,000 mm 0,0 UV-I 0 W/m² -1,6 °C 0,6 °C 0,0 km/h (0 Bft)
19.03.2019 18:51 0,6 °C 85 % 1029,0 hPa 0,0 mm 0,0 km/h (0 Bft) S-SO 149 ° 0 min 0,000 mm 0,0 UV-I 0 W/m² -1,6 °C 0,6 °C 0,0 km/h (0 Bft)
19.03.2019 18:52 0,5 °C 85 % 1029,0 hPa 0,0 mm 0,0 km/h (0 Bft) S-SO 149 ° 0 min 0,000 mm 0,0 UV-I 0 W/m² -1,7 °C 0,5 °C 0,0 km/h (0 Bft)
19.03.2019 18:53 0,5 °C 85 % 1029,1 hPa 0,0 mm 0,0 km/h (0 Bft) S-SO 149 ° 0 min 0,000 mm 0,0 UV-I 0 W/m² -1,7 °C 0,5 °C 0,0 km/h (0 Bft)
19.03.2019 18:54 0,5 °C 85 % 1029,0 hPa 0,0 mm 0,0 km/h (0 Bft) S-SO 149 ° 0 min 0,000 mm 0,0 UV-I 0 W/m² -1,7 °C 0,5 °C 0,0 km/h (0 Bft)
19.03.2019 18:55 0,5 °C 85 % 1029,1 hPa 0,0 mm 0,0 km/h (0 Bft) S-SO 149 ° 0 min 0,000 mm 0,0 UV-I 0 W/m² -1,7 °C 0,5 °C 0,0 km/h (0 Bft)
19.03.2019 18:56 0,5 °C 85 % 1029,1 hPa 0,0 mm 0,0 km/h (0 Bft) S-SO 149 ° 0 min 0,000 mm 0,0 UV-I 0 W/m² -1,7 °C 0,5 °C 0,0 km/h (0 Bft)
19.03.2019 18:57 0,5 °C 85 % 1029,0 hPa 0,0 mm 0,0 km/h (0 Bft) S-SO 149 ° 0 min 0,000 mm 0,0 UV-I 0 W/m² -1,7 °C 0,5 °C 0,0 km/h (0 Bft)
19.03.2019 18:58 0,4 °C 85 % 1029,1 hPa 0,0 mm 2,1 km/h (1 Bft) S-SO 149 ° 0 min 0,000 mm 0,0 UV-I 0 W/m² -1,8 °C 0,4 °C 3,2 km/h (1 Bft)
19.03.2019 18:59 0,4 °C 85 % 1029,1 hPa 0,0 mm 1,8 km/h (1 Bft) S-SO 149 ° 0 min 0,000 mm 0,0 UV-I 0 W/m² -1,8 °C 0,4 °C 3,2 km/h (1 Bft)
19.03.2019 19:00 0,4 °C 85 % 1029,1 hPa 0,0 mm 1,5 km/h (1 Bft) S-SO 149 ° 0 min 0,000 mm 0,0 UV-I 0 W/m² -1,8 °C 0,4 °C 3,2 km/h (1 Bft)
19.03.2019 19:01 0,4 °C 85 % 1029,1 hPa 0,0 mm 0,8 km/h (0 Bft) S-SO 149 ° 0 min 0,000 mm 0,0 UV-I 0 W/m² -1,8 °C 0,4 °C 3,2 km/h (1 Bft)
19.03.2019 19:02 0,4 °C 85 % 1029,1 hPa 0,0 mm 1,4 km/h (1 Bft) S-SO 149 ° 0 min 0,000 mm 0,0 UV-I 0 W/m² -1,8 °C 0,4 °C 4,8 km/h (1 Bft)
19.03.2019 19:03 0,4 °C 85 % 1029,1 hPa 0,0 mm 0,7 km/h (0 Bft) S-SO 149 ° 0 min 0,000 mm 0,0 UV-I 0 W/m² -1,8 °C 0,4 °C 1,6 km/h (1 Bft)
19.03.2019 19:04 0,4 °C 86 % 1029,1 hPa 0,0 mm 0,0 km/h (0 Bft) S-SO 149 ° 0 min 0,000 mm 0,0 UV-I 0 W/m² -1,7 °C 0,4 °C 0,0 km/h (0 Bft)
19.03.2019 19:05 0,4 °C 86 % 1029,1 hPa 0,0 mm 0,3 km/h (0 Bft) S-SO 149 ° 0 min 0,000 mm 0,0 UV-I 0 W/m² -1,7 °C 0,4 °C 1,6 km/h (1 Bft)
19.03.2019 19:06 0,4 °C 86 % 1029,1 hPa 0,0 mm 0,0 km/h (0 Bft) S-SO 149 ° 0 min 0,000 mm 0,0 UV-I 0 W/m² -1,7 °C 0,4 °C 0,0 km/h (0 Bft)
19.03.2019 19:07 0,4 °C 86 % 1029,1 hPa 0,0 mm 0,0 km/h (0 Bft) S-SO 149 ° 0 min 0,000 mm 0,0 UV-I 0 W/m² -1,7 °C 0,4 °C 0,0 km/h (0 Bft)
19.03.2019 19:08 0,3 °C 86 % 1029,1 hPa 0,0 mm 0,0 km/h (0 Bft) S-SO 149 ° 0 min 0,000 mm 0,0 UV-I 0 W/m² -1,8 °C 0,3 °C 0,0 km/h (0 Bft)
19.03.2019 19:09 0,3 °C 86 % 1029,1 hPa 0,0 mm 0,0 km/h (0 Bft) S-SO 149 ° 0 min 0,000 mm 0,0 UV-I 0 W/m² -1,8 °C 0,3 °C 0,0 km/h (0 Bft)
19.03.2019 19:10 0,3 °C 86 % 1029,1 hPa 0,0 mm 0,0 km/h (0 Bft) S-SO 149 ° 0 min 0,000 mm 0,0 UV-I 0 W/m² -1,8 °C 0,3 °C 0,0 km/h (0 Bft)
19.03.2019 19:11 0,3 °C 86 % 1029,1 hPa 0,0 mm 0,0 km/h (0 Bft) S-SO 149 ° 0 min 0,000 mm 0,0 UV-I 0 W/m² -1,8 °C 0,3 °C 0,0 km/h (0 Bft)
19.03.2019 19:12 0,3 °C 86 % 1029,1 hPa 0,0 mm 0,0 km/h (0 Bft) S-SO 149 ° 0 min 0,000 mm 0,0 UV-I 0 W/m² -1,8 °C 0,3 °C 0,0 km/h (0 Bft)
19.03.2019 19:13 0,2 °C 86 % 1029,2 hPa 0,0 mm 0,0 km/h (0 Bft) S-SO 149 ° 0 min 0,000 mm 0,0 UV-I 0 W/m² -1,9 °C 0,2 °C 0,0 km/h (0 Bft)
19.03.2019 19:14 0,2 °C 86 % 1029,2 hPa 0,0 mm 0,0 km/h (0 Bft) S-SO 149 ° 0 min 0,000 mm 0,0 UV-I 0 W/m² -1,9 °C 0,2 °C 0,0 km/h (0 Bft)
19.03.2019 19:15 0,2 °C 86 % 1029,2 hPa 0,0 mm 0,0 km/h (0 Bft) S-SO 149 ° 0 min 0,000 mm 0,0 UV-I 0 W/m² -1,9 °C 0,2 °C 0,0 km/h (0 Bft)
19.03.2019 19:16 0,2 °C 86 % 1029,1 hPa 0,0 mm 0,0 km/h (0 Bft) S-SO 149 ° 0 min 0,000 mm 0,0 UV-I 0 W/m² -1,9 °C 0,2 °C 0,0 km/h (0 Bft)
19.03.2019 19:17 0,1 °C 87 % 1029,2 hPa 0,0 mm 0,0 km/h (0 Bft) S-SO 149 ° 0 min 0,000 mm 0,0 UV-I 0 W/m² -1,8 °C 0,1 °C 0,0 km/h (0 Bft)
19.03.2019 19:18 0,1 °C 87 % 1029,2 hPa 0,0 mm 0,0 km/h (0 Bft) S-SO 149 ° 0 min 0,000 mm 0,0 UV-I 0 W/m² -1,8 °C 0,1 °C 0,0 km/h (0 Bft)
19.03.2019 19:19 0,1 °C 87 % 1029,2 hPa 0,0 mm 0,0 km/h (0 Bft) S-SO 149 ° 0 min 0,000 mm 0,0 UV-I 0 W/m² -1,8 °C 0,1 °C 0,0 km/h (0 Bft)
19.03.2019 19:20 0,1 °C 87 % 1029,2 hPa 0,0 mm 0,0 km/h (0 Bft) S-SO 149 ° 0 min 0,000 mm 0,0 UV-I 0 W/m² -1,8 °C 0,1 °C 0,0 km/h (0 Bft)
19.03.2019 19:21 0,1 °C 87 % 1029,2 hPa 0,0 mm 0,0 km/h (0 Bft) S-SO 149 ° 0 min 0,000 mm 0,0 UV-I 0 W/m² -1,8 °C 0,1 °C 0,0 km/h (0 Bft)
19.03.2019 19:22 0,1 °C 87 % 1029,2 hPa 0,0 mm 0,0 km/h (0 Bft) S-SO 149 ° 0 min 0,000 mm 0,0 UV-I 0 W/m² -1,8 °C 0,1 °C 0,0 km/h (0 Bft)
19.03.2019 19:23 0,1 °C 87 % 1029,2 hPa 0,0 mm 0,0 km/h (0 Bft) S-SO 149 ° 0 min 0,000 mm 0,0 UV-I 0 W/m² -1,8 °C 0,1 °C 0,0 km/h (0 Bft)
19.03.2019 19:24 0,1 °C 87 % 1029,2 hPa 0,0 mm 0,0 km/h (0 Bft) S-SO 149 ° 0 min 0,000 mm 0,0 UV-I 0 W/m² -1,8 °C 0,1 °C 0,0 km/h (0 Bft)
19.03.2019 19:25 0,1 °C 87 % 1029,2 hPa 0,0 mm 0,2 km/h (0 Bft) S-SO 149 ° 0 min 0,000 mm 0,0 UV-I 0 W/m² -1,8 °C 0,1 °C 1,6 km/h (1 Bft)
19.03.2019 19:26 0,1 °C 87 % 1029,2 hPa 0,0 mm 0,0 km/h (0 Bft) S-SO 149 ° 0 min 0,000 mm 0,0 UV-I 0 W/m² -1,8 °C 0,1 °C 0,0 km/h (0 Bft)
19.03.2019 19:27 0,1 °C 87 % 1029,2 hPa 0,0 mm 1,2 km/h (1 Bft) S-SO 149 ° 0 min 0,000 mm 0,0 UV-I 0 W/m² -1,8 °C 0,1 °C 1,6 km/h (1 Bft)
19.03.2019 19:28 0,1 °C 87 % 1029,3 hPa 0,0 mm 1,4 km/h (1 Bft) S-SO 149 ° 0 min 0,000 mm 0,0 UV-I 0 W/m² -1,8 °C 0,1 °C 3,2 km/h (1 Bft)
19.03.2019 19:29 0,0 °C 87 % 1029,3 hPa 0,0 mm 1,9 km/h (1 Bft) S-SO 149 ° 0 min 0,000 mm 0,0 UV-I 0 W/m² -1,9 °C 0,0 °C 3,2 km/h (1 Bft)
19.03.2019 19:30 -0,1 °C 87 % 1029,3 hPa 0,0 mm 1,5 km/h (1 Bft) S-SO 149 ° 0 min 0,000 mm 0,0 UV-I 0 W/m² -2,0 °C -0,1 °C 3,2 km/h (1 Bft)
19.03.2019 19:31 -0,1 °C 87 % 1029,3 hPa 0,0 mm 1,7 km/h (1 Bft) S-SO 149 ° 0 min 0,000 mm 0,0 UV-I 0 W/m² -2,0 °C -0,1 °C 3,2 km/h (1 Bft)
19.03.2019 19:32 -0,1 °C 87 % 1029,3 hPa 0,0 mm 1,9 km/h (1 Bft) S-SO 149 ° 0 min 0,000 mm 0,0 UV-I 0 W/m² -2,0 °C -0,1 °C 3,2 km/h (1 Bft)
19.03.2019 19:33 -0,1 °C 87 % 1029,3 hPa 0,0 mm 1,4 km/h (1 Bft) S-SO 149 ° 0 min 0,000 mm 0,0 UV-I 0 W/m² -2,0 °C -0,1 °C 3,2 km/h (1 Bft)
19.03.2019 19:34 -0,1 °C 87 % 1029,4 hPa 0,0 mm 1,7 km/h (1 Bft) S-SO 149 ° 0 min 0,000 mm 0,0 UV-I 0 W/m² -2,0 °C -0,1 °C 3,2 km/h (1 Bft)
19.03.2019 19:35 -0,1 °C 87 % 1029,4 hPa 0,0 mm 0,2 km/h (0 Bft) S-SO 149 ° 0 min 0,000 mm 0,0 UV-I 0 W/m² -2,0 °C -0,1 °C 1,6 km/h (1 Bft)
19.03.2019 19:36 -0,1 °C 87 % 1029,4 hPa 0,0 mm 0,0 km/h (0 Bft) S-SO 149 ° 0 min 0,000 mm 0,0 UV-I 0 W/m² -2,0 °C -0,1 °C 0,0 km/h (0 Bft)
19.03.2019 19:37 -0,1 °C 88 % 1029,4 hPa 0,0 mm 0,0 km/h (0 Bft) S-SO 149 ° 0 min 0,000 mm 0,0 UV-I 0 W/m² -1,8 °C -0,1 °C 0,0 km/h (0 Bft)
19.03.2019 19:38 -0,1 °C 87 % 1029,4 hPa 0,0 mm 0,0 km/h (0 Bft) S-SO 149 ° 0 min 0,000 mm 0,0 UV-I 0 W/m² -2,0 °C -0,1 °C 0,0 km/h (0 Bft)
19.03.2019 19:39 -0,1 °C 87 % 1029,4 hPa 0,0 mm 0,0 km/h (0 Bft) S-SO 149 ° 0 min 0,000 mm 0,0 UV-I 0 W/m² -2,0 °C -0,1 °C 0,0 km/h (0 Bft)
19.03.2019 19:40 -0,1 °C 87 % 1029,4 hPa 0,0 mm 0,0 km/h (0 Bft) S-SO 149 ° 0 min 0,000 mm 0,0 UV-I 0 W/m² -2,0 °C -0,1 °C 0,0 km/h (0 Bft)
19.03.2019 19:41 -0,2 °C 87 % 1029,4 hPa 0,0 mm 0,0 km/h (0 Bft) S-SO 149 ° 0 min 0,000 mm 0,0 UV-I 0 W/m² -2,1 °C -0,2 °C 0,0 km/h (0 Bft)
19.03.2019 19:42 -0,2 °C 87 % 1029,5 hPa 0,0 mm 0,0 km/h (0 Bft) S-SO 149 ° 0 min 0,000 mm 0,0 UV-I 0 W/m² -2,1 °C -0,2 °C 0,0 km/h (0 Bft)
19.03.2019 19:43 -0,2 °C 87 % 1029,4 hPa 0,0 mm 0,0 km/h (0 Bft) S-SO 149 ° 0 min 0,000 mm 0,0 UV-I 0 W/m² -2,1 °C -0,2 °C 0,0 km/h (0 Bft)
19.03.2019 19:44 -0,2 °C 88 % 1029,4 hPa 0,0 mm 0,0 km/h (0 Bft) S-SO 149 ° 0 min 0,000 mm 0,0 UV-I 0 W/m² -1,9 °C -0,2 °C 0,0 km/h (0 Bft)
19.03.2019 19:45 -0,2 °C 88 % 1029,5 hPa 0,0 mm 0,0 km/h (0 Bft) S-SO 149 ° 0 min 0,000 mm 0,0 UV-I 0 W/m² -1,9 °C -0,2 °C 0,0 km/h (0 Bft)
19.03.2019 19:46 -0,2 °C 88 % 1029,5 hPa 0,0 mm 0,0 km/h (0 Bft) S-SO 149 ° 0 min 0,000 mm 0,0 UV-I 0 W/m² -1,9 °C -0,2 °C 0,0 km/h (0 Bft)
19.03.2019 19:47 -0,2 °C 88 % 1029,5 hPa 0,0 mm 0,0 km/h (0 Bft) S-SO 149 ° 0 min 0,000 mm 0,0 UV-I 0 W/m² -1,9 °C -0,2 °C 0,0 km/h (0 Bft)
19.03.2019 19:48 -0,2 °C 87 % 1029,5 hPa 0,0 mm 0,0 km/h (0 Bft) S-SO 149 ° 0 min 0,000 mm 0,0 UV-I 0 W/m² -2,1 °C -0,2 °C 0,0 km/h (0 Bft)
19.03.2019 19:49 -0,2 °C 87 % 1029,5 hPa 0,0 mm 0,0 km/h (0 Bft) S-SO 149 ° 0 min 0,000 mm 0,0 UV-I 0 W/m² -2,1 °C -0,2 °C 0,0 km/h (0 Bft)
19.03.2019 19:50 -0,2 °C 87 % 1029,6 hPa 0,0 mm 0,0 km/h (0 Bft) S-SO 149 ° 0 min 0,000 mm 0,0 UV-I 0 W/m² -2,1 °C -0,2 °C 0,0 km/h (0 Bft)
19.03.2019 19:51 -0,2 °C 87 % 1029,6 hPa 0,0 mm 0,0 km/h (0 Bft) S-SO 149 ° 0 min 0,000 mm 0,0 UV-I 0 W/m² -2,1 °C -0,2 °C 0,0 km/h (0 Bft)
19.03.2019 19:52 -0,2 °C 87 % 1029,5 hPa 0,0 mm 0,0 km/h (0 Bft) S-SO 149 ° 0 min 0,000 mm 0,0 UV-I 0 W/m² -2,1 °C -0,2 °C 0,0 km/h (0 Bft)
19.03.2019 19:53 -0,2 °C 87 % 1029,5 hPa 0,0 mm 0,0 km/h (0 Bft) S-SO 149 ° 0 min 0,000 mm 0,0 UV-I 0 W/m² -2,1 °C -0,2 °C 0,0 km/h (0 Bft)
19.03.2019 19:54 -0,2 °C 87 % 1029,6 hPa 0,0 mm 0,0 km/h (0 Bft) S-SO 149 ° 0 min 0,000 mm 0,0 UV-I 0 W/m² -2,1 °C -0,2 °C 0,0 km/h (0 Bft)
19.03.2019 19:55 -0,2 °C 87 % 1029,5 hPa 0,0 mm 0,0 km/h (0 Bft) S-SO 149 ° 0 min 0,000 mm 0,0 UV-I 0 W/m² -2,1 °C -0,2 °C 0,0 km/h (0 Bft)
19.03.2019 19:56 -0,2 °C 87 % 1029,6 hPa 0,0 mm 0,0 km/h (0 Bft) S-SO 149 ° 0 min 0,000 mm 0,0 UV-I 0 W/m² -2,1 °C -0,2 °C 0,0 km/h (0 Bft)
19.03.2019 19:57 -0,3 °C 87 % 1029,6 hPa 0,0 mm 0,0 km/h (0 Bft) S-SO 149 ° 0 min 0,000 mm 0,0 UV-I 0 W/m² -2,2 °C -0,3 °C 0,0 km/h (0 Bft)
19.03.2019 19:58 -0,3 °C 87 % 1029,6 hPa 0,0 mm 0,0 km/h (0 Bft) S-SO 149 ° 0 min 0,000 mm 0,0 UV-I 0 W/m² -2,2 °C -0,3 °C 0,0 km/h (0 Bft)
19.03.2019 19:59 -0,3 °C 87 % 1029,6 hPa 0,0 mm 0,0 km/h (0 Bft) S-SO 149 ° 0 min 0,000 mm 0,0 UV-I 0 W/m² -2,2 °C -0,3 °C 0,0 km/h (0 Bft)
19.03.2019 20:00 -0,5 °C 87 % 1029,6 hPa 0,0 mm 0,0 km/h (0 Bft) S-SO 149 ° 0 min 0,000 mm 0,0 UV-I 0 W/m² -2,4 °C -0,5 °C 0,0 km/h (0 Bft)
19.03.2019 20:01 -0,6 °C 87 % 1029,6 hPa 0,0 mm 0,0 km/h (0 Bft) S-SO 149 ° 0 min 0,000 mm 0,0 UV-I 0 W/m² -2,5 °C -0,6 °C 0,0 km/h (0 Bft)
19.03.2019 20:02 -0,6 °C 88 % 1029,7 hPa 0,0 mm 0,0 km/h (0 Bft) S-SO 149 ° 0 min 0,000 mm 0,0 UV-I 0 W/m² -2,3 °C -0,6 °C 0,0 km/h (0 Bft)
19.03.2019 20:03 -0,7 °C 88 % 1029,7 hPa 0,0 mm 0,0 km/h (0 Bft) S-SO 149 ° 0 min 0,000 mm 0,0 UV-I 0 W/m² -2,4 °C -0,7 °C 0,0 km/h (0 Bft)
19.03.2019 20:04 -0,7 °C 88 % 1029,7 hPa 0,0 mm 0,0 km/h (0 Bft) S-SO 149 ° 0 min 0,000 mm 0,0 UV-I 0 W/m² -2,4 °C -0,7 °C 0,0 km/h (0 Bft)
19.03.2019 20:05 -0,7 °C 88 % 1029,7 hPa 0,0 mm 0,0 km/h (0 Bft) S-SO 149 ° 0 min 0,000 mm 0,0 UV-I 0 W/m² -2,4 °C -0,7 °C 0,0 km/h (0 Bft)
19.03.2019 20:06 -0,6 °C 88 % 1029,7 hPa 0,0 mm 0,0 km/h (0 Bft) S-SO 149 ° 0 min 0,000 mm 0,0 UV-I 0 W/m² -2,3 °C -0,6 °C 0,0 km/h (0 Bft)
19.03.2019 20:07 -0,7 °C 89 % 1029,7 hPa 0,0 mm 0,0 km/h (0 Bft) S-SO 149 ° 0 min 0,000 mm 0,0 UV-I 0 W/m² -2,3 °C -0,7 °C 0,0 km/h (0 Bft)
19.03.2019 20:08 -0,7 °C 88 % 1029,7 hPa 0,0 mm 0,0 km/h (0 Bft) S-SO 149 ° 0 min 0,000 mm 0,0 UV-I 0 W/m² -2,4 °C -0,7 °C 0,0 km/h (0 Bft)
19.03.2019 20:09 -0,7 °C 88 % 1029,7 hPa 0,0 mm 0,0 km/h (0 Bft) S-SO 149 ° 0 min 0,000 mm 0,0 UV-I 0 W/m² -2,4 °C -0,7 °C 0,0 km/h (0 Bft)
19.03.2019 20:10 -0,7 °C 88 % 1029,8 hPa 0,0 mm 0,0 km/h (0 Bft) S-SO 149 ° 0 min 0,000 mm 0,0 UV-I 0 W/m² -2,4 °C -0,7 °C 0,0 km/h (0 Bft)
19.03.2019 20:11 -0,7 °C 88 % 1029,8 hPa 0,0 mm 0,0 km/h (0 Bft) S-SO 149 ° 0 min 0,000 mm 0,0 UV-I 0 W/m² -2,4 °C -0,7 °C 0,0 km/h (0 Bft)
19.03.2019 20:12 -0,7 °C 88 % 1029,8 hPa 0,0 mm 0,0 km/h (0 Bft) S-SO 149 ° 0 min 0,000 mm 0,0 UV-I 0 W/m² -2,4 °C -0,7 °C 0,0 km/h (0 Bft)
19.03.2019 20:13 -0,8 °C 88 % 1029,8 hPa 0,0 mm 0,0 km/h (0 Bft) S-SO 149 ° 0 min 0,000 mm 0,0 UV-I 0 W/m² -2,5 °C -0,8 °C 0,0 km/h (0 Bft)
19.03.2019 20:14 -0,8 °C 88 % 1029,8 hPa 0,0 mm 0,0 km/h (0 Bft) S-SO 149 ° 0 min 0,000 mm 0,0 UV-I 0 W/m² -2,5 °C -0,8 °C 0,0 km/h (0 Bft)
19.03.2019 20:15 -0,8 °C 88 % 1029,8 hPa 0,0 mm 0,0 km/h (0 Bft) S-SO 149 ° 0 min 0,000 mm 0,0 UV-I 0 W/m² -2,5 °C -0,8 °C 0,0 km/h (0 Bft)
19.03.2019 20:16 -0,8 °C 88 % 1029,9 hPa 0,0 mm 0,0 km/h (0 Bft) S-SO 149 ° 0 min 0,000 mm 0,0 UV-I 0 W/m² -2,5 °C -0,8 °C 0,0 km/h (0 Bft)
19.03.2019 20:17 -0,8 °C 88 % 1029,9 hPa 0,0 mm 0,0 km/h (0 Bft) S-SO 149 ° 0 min 0,000 mm 0,0 UV-I 0 W/m² -2,5 °C -0,8 °C 0,0 km/h (0 Bft)
19.03.2019 20:18 -0,8 °C 88 % 1029,9 hPa 0,0 mm 0,0 km/h (0 Bft) S-SO 149 ° 0 min 0,000 mm 0,0 UV-I 0 W/m² -2,5 °C -0,8 °C 0,0 km/h (0 Bft)
19.03.2019 20:19 -0,8 °C 88 % 1029,9 hPa 0,0 mm 0,0 km/h (0 Bft) S-SO 149 ° 0 min 0,000 mm 0,0 UV-I 0 W/m² -2,5 °C -0,8 °C 0,0 km/h (0 Bft)
19.03.2019 20:20 -0,8 °C 88 % 1030,0 hPa 0,0 mm 0,0 km/h (0 Bft) S-SO 149 ° 0 min 0,000 mm 0,0 UV-I 0 W/m² -2,5 °C -0,8 °C 0,0 km/h (0 Bft)
19.03.2019 20:21 -0,8 °C 89 % 1030,0 hPa 0,0 mm 0,0 km/h (0 Bft) S-SO 149 ° 0 min 0,000 mm 0,0 UV-I 0 W/m² -2,4 °C -0,8 °C 0,0 km/h (0 Bft)
19.03.2019 20:22 -0,8 °C 89 % 1030,0 hPa 0,0 mm 0,0 km/h (0 Bft) S-SO 149 ° 0 min 0,000 mm 0,0 UV-I 0 W/m² -2,4 °C -0,8 °C 0,0 km/h (0 Bft)
19.03.2019 20:23 -0,8 °C 89 % 1030,0 hPa 0,0 mm 0,0 km/h (0 Bft) S-SO 149 ° 0 min 0,000 mm 0,0 UV-I 0 W/m² -2,4 °C -0,8 °C 0,0 km/h (0 Bft)
19.03.2019 20:24 -0,9 °C 88 % 1030,0 hPa 0,0 mm 0,0 km/h (0 Bft) S-SO 149 ° 0 min 0,000 mm 0,0 UV-I 0 W/m² -2,6 °C -0,9 °C 0,0 km/h (0 Bft)
19.03.2019 20:25 -0,8 °C 88 % 1030,0 hPa 0,0 mm 0,0 km/h (0 Bft) S-SO 149 ° 0 min 0,000 mm 0,0 UV-I 0 W/m² -2,5 °C -0,8 °C 0,0 km/h (0 Bft)
19.03.2019 20:26 -0,9 °C 89 % 1030,1 hPa 0,0 mm 0,0 km/h (0 Bft) S-SO 149 ° 0 min 0,000 mm 0,0 UV-I 0 W/m² -2,5 °C -0,9 °C 0,0 km/h (0 Bft)
19.03.2019 20:27 -0,9 °C 89 % 1030,1 hPa 0,0 mm 0,0 km/h (0 Bft) S-SO 149 ° 0 min 0,000 mm 0,0 UV-I 0 W/m² -2,5 °C -0,9 °C 0,0 km/h (0 Bft)
19.03.2019 20:28 -0,9 °C 89 % 1030,1 hPa 0,0 mm 0,0 km/h (0 Bft) S-SO 149 ° 0 min 0,000 mm 0,0 UV-I 0 W/m² -2,5 °C -0,9 °C 0,0 km/h (0 Bft)
19.03.2019 20:29 -0,9 °C 89 % 1030,1 hPa 0,0 mm 0,0 km/h (0 Bft) S-SO 149 ° 0 min 0,000 mm 0,0 UV-I 0 W/m² -2,5 °C -0,9 °C 0,0 km/h (0 Bft)
19.03.2019 20:30 -0,9 °C 89 % 1030,1 hPa 0,0 mm 0,0 km/h (0 Bft) S-SO 149 ° 0 min 0,000 mm 0,0 UV-I 0 W/m² -2,5 °C -0,9 °C 0,0 km/h (0 Bft)
19.03.2019 20:31 -0,9 °C 89 % 1030,1 hPa 0,0 mm 0,0 km/h (0 Bft) S-SO 149 ° 0 min 0,000 mm 0,0 UV-I 0 W/m² -2,5 °C -0,9 °C 0,0 km/h (0 Bft)
19.03.2019 20:32 -0,9 °C 89 % 1030,1 hPa 0,0 mm 0,0 km/h (0 Bft) S-SO 149 ° 0 min 0,000 mm 0,0 UV-I 0 W/m² -2,5 °C -0,9 °C 0,0 km/h (0 Bft)
19.03.2019 20:33 -0,9 °C 89 % 1030,2 hPa 0,0 mm 0,0 km/h (0 Bft) S-SO 149 ° 0 min 0,000 mm 0,0 UV-I 0 W/m² -2,5 °C -0,9 °C 0,0 km/h (0 Bft)
19.03.2019 20:34 -0,9 °C 89 % 1030,1 hPa 0,0 mm 0,0 km/h (0 Bft) S-SO 149 ° 0 min 0,000 mm 0,0 UV-I 0 W/m² -2,5 °C -0,9 °C 0,0 km/h (0 Bft)
19.03.2019 20:35 -0,9 °C 89 % 1030,1 hPa 0,0 mm 0,0 km/h (0 Bft) S-SO 149 ° 0 min 0,000 mm 0,0 UV-I 0 W/m² -2,5 °C -0,9 °C 0,0 km/h (0 Bft)
19.03.2019 20:36 -0,9 °C 89 % 1030,1 hPa 0,0 mm 0,0 km/h (0 Bft) S-SO 149 ° 0 min 0,000 mm 0,0 UV-I 0 W/m² -2,5 °C -0,9 °C 0,0 km/h (0 Bft)
19.03.2019 20:37 -0,9 °C 89 % 1030,1 hPa 0,0 mm 0,0 km/h (0 Bft) S-SO 149 ° 0 min 0,000 mm 0,0 UV-I 0 W/m² -2,5 °C -0,9 °C 0,0 km/h (0 Bft)
19.03.2019 20:38 -0,9 °C 89 % 1030,1 hPa 0,0 mm 0,0 km/h (0 Bft) S-SO 149 ° 0 min 0,000 mm 0,0 UV-I 0 W/m² -2,5 °C -0,9 °C 0,0 km/h (0 Bft)
19.03.2019 20:39 -0,9 °C 89 % 1030,1 hPa 0,0 mm 0,0 km/h (0 Bft) S-SO 149 ° 0 min 0,000 mm 0,0 UV-I 0 W/m² -2,5 °C -0,9 °C 0,0 km/h (0 Bft)
19.03.2019 20:40 -1,0 °C 89 % 1030,1 hPa 0,0 mm 0,0 km/h (0 Bft) S-SO 149 ° 0 min 0,000 mm 0,0 UV-I 0 W/m² -2,6 °C -1,0 °C 0,0 km/h (0 Bft)
19.03.2019 20:41 -1,1 °C 89 % 1030,1 hPa 0,0 mm 0,0 km/h (0 Bft) S-SO 149 ° 0 min 0,000 mm 0,0 UV-I 0 W/m² -2,7 °C -1,1 °C 0,0 km/h (0 Bft)
19.03.2019 20:42 -1,1 °C 89 % 1030,2 hPa 0,0 mm 0,0 km/h (0 Bft) S-SO 149 ° 0 min 0,000 mm 0,0 UV-I 0 W/m² -2,7 °C -1,1 °C 0,0 km/h (0 Bft)
19.03.2019 20:43 -1,1 °C 89 % 1030,2 hPa 0,0 mm 0,0 km/h (0 Bft) S-SO 149 ° 0 min 0,000 mm 0,0 UV-I 0 W/m² -2,7 °C -1,1 °C 0,0 km/h (0 Bft)
19.03.2019 20:44 -1,2 °C 89 % 1030,2 hPa 0,0 mm 0,0 km/h (0 Bft) S-SO 149 ° 0 min 0,000 mm 0,0 UV-I 0 W/m² -2,8 °C -1,2 °C 0,0 km/h (0 Bft)
19.03.2019 20:45 -1,3 °C 89 % 1030,2 hPa 0,0 mm 0,0 km/h (0 Bft) S-SO 149 ° 0 min 0,000 mm 0,0 UV-I 0 W/m² -2,9 °C -1,3 °C 0,0 km/h (0 Bft)
19.03.2019 20:46 -1,3 °C 89 % 1030,2 hPa 0,0 mm 0,0 km/h (0 Bft) S-SO 149 ° 0 min 0,000 mm 0,0 UV-I 0 W/m² -2,9 °C -1,3 °C 0,0 km/h (0 Bft)
19.03.2019 20:47 -1,4 °C 89 % 1030,2 hPa 0,0 mm 0,0 km/h (0 Bft) S-SO 149 ° 0 min 0,000 mm 0,0 UV-I 0 W/m² -3,0 °C -1,4 °C 0,0 km/h (0 Bft)
19.03.2019 20:48 -1,4 °C 89 % 1030,2 hPa 0,0 mm 0,0 km/h (0 Bft) S-SO 149 ° 0 min 0,000 mm 0,0 UV-I 0 W/m² -3,0 °C -1,4 °C 0,0 km/h (0 Bft)
19.03.2019 20:49 -1,5 °C 89 % 1030,2 hPa 0,0 mm 0,0 km/h (0 Bft) S-SO 149 ° 0 min 0,000 mm 0,0 UV-I 0 W/m² -3,1 °C -1,5 °C 0,0 km/h (0 Bft)
19.03.2019 20:50 -1,6 °C 89 % 1030,2 hPa 0,0 mm 0,0 km/h (0 Bft) S-SO 149 ° 0 min 0,000 mm 0,0 UV-I 0 W/m² -3,2 °C -1,6 °C 0,0 km/h (0 Bft)
19.03.2019 20:51 -1,6 °C 89 % 1030,2 hPa 0,0 mm 0,0 km/h (0 Bft) S-SO 149 ° 0 min 0,000 mm 0,0 UV-I 0 W/m² -3,2 °C -1,6 °C 0,0 km/h (0 Bft)
19.03.2019 20:52 -1,6 °C 90 % 1030,2 hPa 0,0 mm 0,0 km/h (0 Bft) S-SO 149 ° 0 min 0,000 mm 0,0 UV-I 0 W/m² -3,0 °C -1,6 °C 0,0 km/h (0 Bft)
19.03.2019 20:53 -1,6 °C 90 % 1030,2 hPa 0,0 mm 0,0 km/h (0 Bft) S-SO 149 ° 0 min 0,000 mm 0,0 UV-I 0 W/m² -3,0 °C -1,6 °C 0,0 km/h (0 Bft)
19.03.2019 20:54 -1,6 °C 90 % 1030,2 hPa 0,0 mm 0,0 km/h (0 Bft) S-SO 149 ° 0 min 0,000 mm 0,0 UV-I 0 W/m² -3,0 °C -1,6 °C 0,0 km/h (0 Bft)
19.03.2019 20:55 -1,7 °C 90 % 1030,3 hPa 0,0 mm 0,0 km/h (0 Bft) S-SO 149 ° 0 min 0,000 mm 0,0 UV-I 0 W/m² -3,1 °C -1,7 °C 0,0 km/h (0 Bft)
19.03.2019 20:56 -1,7 °C 90 % 1030,2 hPa 0,0 mm 0,0 km/h (0 Bft) S-SO 149 ° 0 min 0,000 mm 0,0 UV-I 0 W/m² -3,1 °C -1,7 °C 0,0 km/h (0 Bft)
19.03.2019 20:57 -1,8 °C 90 % 1030,2 hPa 0,0 mm 0,0 km/h (0 Bft) S-SO 149 ° 0 min 0,000 mm 0,0 UV-I 0 W/m² -3,2 °C -1,8 °C 0,0 km/h (0 Bft)
19.03.2019 20:58 -1,8 °C 90 % 1030,2 hPa 0,0 mm 0,0 km/h (0 Bft) S-SO 149 ° 0 min 0,000 mm 0,0 UV-I 0 W/m² -3,2 °C -1,8 °C 0,0 km/h (0 Bft)
19.03.2019 20:59 -1,8 °C 90 % 1030,3 hPa 0,0 mm 0,0 km/h (0 Bft) S-SO 149 ° 0 min 0,000 mm 0,0 UV-I 0 W/m² -3,2 °C -1,8 °C 0,0 km/h (0 Bft)
19.03.2019 21:00 -1,8 °C 90 % 1030,2 hPa 0,0 mm 0,0 km/h (0 Bft) S-SO 149 ° 0 min 0,000 mm 0,0 UV-I 0 W/m² -3,2 °C -1,8 °C 0,0 km/h (0 Bft)
19.03.2019 21:01 -1,8 °C 90 % 1030,2 hPa 0,0 mm 0,0 km/h (0 Bft) S-SO 149 ° 0 min 0,000 mm 0,0 UV-I 0 W/m² -3,2 °C -1,8 °C 0,0 km/h (0 Bft)
19.03.2019 21:02 -1,8 °C 90 % 1030,2 hPa 0,0 mm 0,0 km/h (0 Bft) S-SO 149 ° 0 min 0,000 mm 0,0 UV-I 0 W/m² -3,2 °C -1,8 °C 0,0 km/h (0 Bft)
19.03.2019 21:03 -1,7 °C 91 % 1030,3 hPa 0,0 mm 0,0 km/h (0 Bft) S-SO 149 ° 0 min 0,000 mm 0,0 UV-I 0 W/m² -3,0 °C -1,7 °C 0,0 km/h (0 Bft)
19.03.2019 21:04 -1,7 °C 91 % 1030,2 hPa 0,0 mm 0,0 km/h (0 Bft) S-SO 149 ° 0 min 0,000 mm 0,0 UV-I 0 W/m² -3,0 °C -1,7 °C 0,0 km/h (0 Bft)
19.03.2019 21:05 -1,7 °C 91 % 1030,2 hPa 0,0 mm 0,0 km/h (0 Bft) S-SO 149 ° 0 min 0,000 mm 0,0 UV-I 0 W/m² -3,0 °C -1,7 °C 0,0 km/h (0 Bft)
19.03.2019 21:06 -1,6 °C 91 % 1030,3 hPa 0,0 mm 0,0 km/h (0 Bft) S-SO 149 ° 0 min 0,000 mm 0,0 UV-I 0 W/m² -2,9 °C -1,6 °C 0,0 km/h (0 Bft)
19.03.2019 21:07 -1,6 °C 91 % 1030,3 hPa 0,0 mm 0,0 km/h (0 Bft) S-SO 149 ° 0 min 0,000 mm 0,0 UV-I 0 W/m² -2,9 °C -1,6 °C 0,0 km/h (0 Bft)
19.03.2019 21:08 -1,6 °C 91 % 1030,3 hPa 0,0 mm 0,0 km/h (0 Bft) S-SO 149 ° 0 min 0,000 mm 0,0 UV-I 0 W/m² -2,9 °C -1,6 °C 0,0 km/h (0 Bft)
19.03.2019 21:09 -1,6 °C 91 % 1030,3 hPa 0,0 mm 0,0 km/h (0 Bft) S-SO 149 ° 0 min 0,000 mm 0,0 UV-I 0 W/m² -2,9 °C -1,6 °C 0,0 km/h (0 Bft)
19.03.2019 21:10 -1,7 °C 90 % 1030,2 hPa 0,0 mm 0,0 km/h (0 Bft) S-SO 149 ° 0 min 0,000 mm 0,0 UV-I 0 W/m² -3,1 °C -1,7 °C 0,0 km/h (0 Bft)
19.03.2019 21:11 -1,7 °C 91 % 1030,3 hPa 0,0 mm 0,0 km/h (0 Bft) S-SO 149 ° 0 min 0,000 mm 0,0 UV-I 0 W/m² -3,0 °C -1,7 °C 0,0 km/h (0 Bft)
19.03.2019 21:12 -1,7 °C 91 % 1030,3 hPa 0,0 mm 0,0 km/h (0 Bft) S-SO 149 ° 0 min 0,000 mm 0,0 UV-I 0 W/m² -3,0 °C -1,7 °C 0,0 km/h (0 Bft)
19.03.2019 21:13 -1,7 °C 91 % 1030,2 hPa 0,0 mm 0,0 km/h (0 Bft) S-SO 149 ° 0 min 0,000 mm 0,0 UV-I 0 W/m² -3,0 °C -1,7 °C 0,0 km/h (0 Bft)
19.03.2019 21:14 -1,7 °C 91 % 1030,3 hPa 0,0 mm 0,0 km/h (0 Bft) S-SO 149 ° 0 min 0,000 mm 0,0 UV-I 0 W/m² -3,0 °C -1,7 °C 0,0 km/h (0 Bft)
19.03.2019 21:15 -1,8 °C 91 % 1030,3 hPa 0,0 mm 0,0 km/h (0 Bft) S-SO 149 ° 0 min 0,000 mm 0,0 UV-I 0 W/m² -3,1 °C -1,8 °C 0,0 km/h (0 Bft)
19.03.2019 21:16 -1,8 °C 91 % 1030,3 hPa 0,0 mm 0,0 km/h (0 Bft) S-SO 149 ° 0 min 0,000 mm 0,0 UV-I 0 W/m² -3,1 °C -1,8 °C 0,0 km/h (0 Bft)
19.03.2019 21:17 -1,8 °C 91 % 1030,4 hPa 0,0 mm 0,0 km/h (0 Bft) S-SO 149 ° 0 min 0,000 mm 0,0 UV-I 0 W/m² -3,1 °C -1,8 °C 0,0 km/h (0 Bft)
19.03.2019 21:18 -1,7 °C 91 % 1030,4 hPa 0,0 mm 0,0 km/h (0 Bft) S-SO 149 ° 0 min 0,000 mm 0,0 UV-I 0 W/m² -3,0 °C -1,7 °C 0,0 km/h (0 Bft)
19.03.2019 21:19 -1,7 °C 91 % 1030,4 hPa 0,0 mm 0,0 km/h (0 Bft) S-SO 149 ° 0 min 0,000 mm 0,0 UV-I 0 W/m² -3,0 °C -1,7 °C 0,0 km/h (0 Bft)
19.03.2019 21:20 -1,7 °C 91 % 1030,4 hPa 0,0 mm 0,0 km/h (0 Bft) S-SO 149 ° 0 min 0,000 mm 0,0 UV-I 0 W/m² -3,0 °C -1,7 °C 0,0 km/h (0 Bft)
19.03.2019 21:21 -1,7 °C 91 % 1030,4 hPa 0,0 mm 0,0 km/h (0 Bft) S-SO 149 ° 0 min 0,000 mm 0,0 UV-I 0 W/m² -3,0 °C -1,7 °C 0,0 km/h (0 Bft)
19.03.2019 21:22 -1,7 °C 91 % 1030,4 hPa 0,0 mm 0,0 km/h (0 Bft) S-SO 149 ° 0 min 0,000 mm 0,0 UV-I 0 W/m² -3,0 °C -1,7 °C 0,0 km/h (0 Bft)
19.03.2019 21:23 -1,7 °C 91 % 1030,3 hPa 0,0 mm 0,0 km/h (0 Bft) S-SO 149 ° 0 min 0,000 mm 0,0 UV-I 0 W/m² -3,0 °C -1,7 °C 0,0 km/h (0 Bft)
19.03.2019 21:24 -1,7 °C 91 % 1030,4 hPa 0,0 mm 0,0 km/h (0 Bft) S-SO 149 ° 0 min 0,000 mm 0,0 UV-I 0 W/m² -3,0 °C -1,7 °C 0,0 km/h (0 Bft)
19.03.2019 21:25 -1,7 °C 91 % 1030,3 hPa 0,0 mm 0,0 km/h (0 Bft) S-SO 149 ° 0 min 0,000 mm 0,0 UV-I 0 W/m² -3,0 °C -1,7 °C 0,0 km/h (0 Bft)
19.03.2019 21:26 -1,7 °C 91 % 1030,3 hPa 0,0 mm 0,0 km/h (0 Bft) S-SO 149 ° 0 min 0,000 mm 0,0 UV-I 0 W/m² -3,0 °C -1,7 °C 0,0 km/h (0 Bft)
19.03.2019 21:27 -1,7 °C 91 % 1030,3 hPa 0,0 mm 0,0 km/h (0 Bft) S-SO 149 ° 0 min 0,000 mm 0,0 UV-I 0 W/m² -3,0 °C -1,7 °C 0,0 km/h (0 Bft)
19.03.2019 21:28 -1,7 °C 91 % 1030,2 hPa 0,0 mm 0,0 km/h (0 Bft) S-SO 149 ° 0 min 0,000 mm 0,0 UV-I 0 W/m² -3,0 °C -1,7 °C 0,0 km/h (0 Bft)
19.03.2019 21:29 -1,8 °C 91 % 1030,3 hPa 0,0 mm 0,0 km/h (0 Bft) S-SO 149 ° 0 min 0,000 mm 0,0 UV-I 0 W/m² -3,1 °C -1,8 °C 0,0 km/h (0 Bft)
19.03.2019 21:30 -1,8 °C 91 % 1030,3 hPa 0,0 mm 0,0 km/h (0 Bft) S-SO 149 ° 0 min 0,000 mm 0,0 UV-I 0 W/m² -3,1 °C -1,8 °C 0,0 km/h (0 Bft)
19.03.2019 21:31 -1,8 °C 91 % 1030,3 hPa 0,0 mm 0,0 km/h (0 Bft) S-SO 149 ° 0 min 0,000 mm 0,0 UV-I 0 W/m² -3,1 °C -1,8 °C 0,0 km/h (0 Bft)
19.03.2019 21:32 -1,9 °C 91 % 1030,3 hPa 0,0 mm 0,0 km/h (0 Bft) S-SO 149 ° 0 min 0,000 mm 0,0 UV-I 0 W/m² -3,2 °C -1,9 °C 0,0 km/h (0 Bft)
19.03.2019 21:33 -1,9 °C 91 % 1030,3 hPa 0,0 mm 0,0 km/h (0 Bft) S-SO 149 ° 0 min 0,000 mm 0,0 UV-I 0 W/m² -3,2 °C -1,9 °C 0,0 km/h (0 Bft)
19.03.2019 21:34 -2,0 °C 91 % 1030,3 hPa 0,0 mm 0,0 km/h (0 Bft) S-SO 149 ° 0 min 0,000 mm 0,0 UV-I 0 W/m² -3,3 °C -2,0 °C 0,0 km/h (0 Bft)
19.03.2019 21:35 -2,0 °C 91 % 1030,3 hPa 0,0 mm 0,0 km/h (0 Bft) S-SO 149 ° 0 min 0,000 mm 0,0 UV-I 0 W/m² -3,3 °C -2,0 °C 0,0 km/h (0 Bft)
19.03.2019 21:36 -2,0 °C 91 % 1030,4 hPa 0,0 mm 0,0 km/h (0 Bft) S-SO 149 ° 0 min 0,000 mm 0,0 UV-I 0 W/m² -3,3 °C -2,0 °C 0,0 km/h (0 Bft)
19.03.2019 21:37 -1,9 °C 91 % 1030,4 hPa 0,0 mm 0,0 km/h (0 Bft) S-SO 149 ° 0 min 0,000 mm 0,0 UV-I 0 W/m² -3,2 °C -1,9 °C 0,0 km/h (0 Bft)
19.03.2019 21:38 -1,9 °C 91 % 1030,4 hPa 0,0 mm 0,0 km/h (0 Bft) S-SO 149 ° 0 min 0,000 mm 0,0 UV-I 0 W/m² -3,2 °C -1,9 °C 0,0 km/h (0 Bft)
19.03.2019 21:39 -1,8 °C 91 % 1030,4 hPa 0,0 mm 0,0 km/h (0 Bft) S-SO 149 ° 0 min 0,000 mm 0,0 UV-I 0 W/m² -3,1 °C -1,8 °C 0,0 km/h (0 Bft)
19.03.2019 21:40 -1,9 °C 91 % 1030,4 hPa 0,0 mm 0,0 km/h (0 Bft) S-SO 149 ° 0 min 0,000 mm 0,0 UV-I 0 W/m² -3,2 °C -1,9 °C 0,0 km/h (0 Bft)
19.03.2019 21:41 -1,8 °C 91 % 1030,4 hPa 0,0 mm 0,0 km/h (0 Bft) S-SO 149 ° 0 min 0,000 mm 0,0 UV-I 0 W/m² -3,1 °C -1,8 °C 0,0 km/h (0 Bft)
19.03.2019 21:42 -1,8 °C 91 % 1030,4 hPa 0,0 mm 0,0 km/h (0 Bft) S-SO 149 ° 0 min 0,000 mm 0,0 UV-I 0 W/m² -3,1 °C -1,8 °C 0,0 km/h (0 Bft)
19.03.2019 21:43 -1,8 °C 91 % 1030,5 hPa 0,0 mm 0,0 km/h (0 Bft) S-SO 149 ° 0 min 0,000 mm 0,0 UV-I 0 W/m² -3,1 °C -1,8 °C 0,0 km/h (0 Bft)
19.03.2019 21:44 -1,8 °C 91 % 1030,5 hPa 0,0 mm 0,0 km/h (0 Bft) S-SO 149 ° 0 min 0,000 mm 0,0 UV-I 0 W/m² -3,1 °C -1,8 °C 0,0 km/h (0 Bft)
19.03.2019 21:45 -1,8 °C 91 % 1030,5 hPa 0,0 mm 0,0 km/h (0 Bft) S-SO 149 ° 0 min 0,000 mm 0,0 UV-I 0 W/m² -3,1 °C -1,8 °C 0,0 km/h (0 Bft)
19.03.2019 21:46 -1,8 °C 91 % 1030,5 hPa 0,0 mm 0,0 km/h (0 Bft) S-SO 149 ° 0 min 0,000 mm 0,0 UV-I 0 W/m² -3,1 °C -1,8 °C 0,0 km/h (0 Bft)
19.03.2019 21:47 -1,8 °C 91 % 1030,5 hPa 0,0 mm 0,0 km/h (0 Bft) S-SO 149 ° 0 min 0,000 mm 0,0 UV-I 0 W/m² -3,1 °C -1,8 °C 0,0 km/h (0 Bft)
19.03.2019 21:48 -1,8 °C 91 % 1030,5 hPa 0,0 mm 0,0 km/h (0 Bft) S-SO 149 ° 0 min 0,000 mm 0,0 UV-I 0 W/m² -3,1 °C -1,8 °C 0,0 km/h (0 Bft)
19.03.2019 21:49 -1,8 °C 91 % 1030,5 hPa 0,0 mm 0,0 km/h (0 Bft) S-SO 149 ° 0 min 0,000 mm 0,0 UV-I 0 W/m² -3,1 °C -1,8 °C 0,0 km/h (0 Bft)
19.03.2019 21:50 -1,8 °C 91 % 1030,5 hPa 0,0 mm 0,0 km/h (0 Bft) S-SO 149 ° 0 min 0,000 mm 0,0 UV-I 0 W/m² -3,1 °C -1,8 °C 0,0 km/h (0 Bft)
19.03.2019 21:51 -1,8 °C 91 % 1030,5 hPa 0,0 mm 0,0 km/h (0 Bft) S-SO 149 ° 0 min 0,000 mm 0,0 UV-I 0 W/m² -3,1 °C -1,8 °C 0,0 km/h (0 Bft)
19.03.2019 21:52 -1,8 °C 91 % 1030,5 hPa 0,0 mm 0,0 km/h (0 Bft) S-SO 149 ° 0 min 0,000 mm 0,0 UV-I 0 W/m² -3,1 °C -1,8 °C 0,0 km/h (0 Bft)
19.03.2019 21:53 -1,8 °C 91 % 1030,5 hPa 0,0 mm 0,0 km/h (0 Bft) S-SO 149 ° 0 min 0,000 mm 0,0 UV-I 0 W/m² -3,1 °C -1,8 °C 0,0 km/h (0 Bft)
19.03.2019 21:54 -1,8 °C 91 % 1030,5 hPa 0,0 mm 0,0 km/h (0 Bft) S-SO 149 ° 0 min 0,000 mm 0,0 UV-I 0 W/m² -3,1 °C -1,8 °C 0,0 km/h (0 Bft)
19.03.2019 21:55 -1,7 °C 91 % 1030,5 hPa 0,0 mm 0,0 km/h (0 Bft) S-SO 149 ° 0 min 0,000 mm 0,0 UV-I 0 W/m² -3,0 °C -1,7 °C 0,0 km/h (0 Bft)
19.03.2019 21:56 -1,8 °C 91 % 1030,5 hPa 0,0 mm 0,0 km/h (0 Bft) S-SO 149 ° 0 min 0,000 mm 0,0 UV-I 0 W/m² -3,1 °C -1,8 °C 0,0 km/h (0 Bft)
19.03.2019 21:57 -1,8 °C 91 % 1030,6 hPa 0,0 mm 0,0 km/h (0 Bft) S-SO 149 ° 0 min 0,000 mm 0,0 UV-I 0 W/m² -3,1 °C -1,8 °C 0,0 km/h (0 Bft)
19.03.2019 21:58 -1,8 °C 91 % 1030,6 hPa 0,0 mm 0,0 km/h (0 Bft) S-SO 149 ° 0 min 0,000 mm 0,0 UV-I 0 W/m² -3,1 °C -1,8 °C 0,0 km/h (0 Bft)
19.03.2019 21:59 -1,8 °C 91 % 1030,6 hPa 0,0 mm 0,0 km/h (0 Bft) S-SO 149 ° 0 min 0,000 mm 0,0 UV-I 0 W/m² -3,1 °C -1,8 °C 0,0 km/h (0 Bft)
19.03.2019 22:00 -1,8 °C 91 % 1030,7 hPa 0,0 mm 0,0 km/h (0 Bft) S-SO 149 ° 0 min 0,000 mm 0,0 UV-I 0 W/m² -3,1 °C -1,8 °C 0,0 km/h (0 Bft)
19.03.2019 22:01 -1,8 °C 91 % 1030,6 hPa 0,0 mm 0,0 km/h (0 Bft) S-SO 149 ° 0 min 0,000 mm 0,0 UV-I 0 W/m² -3,1 °C -1,8 °C 0,0 km/h (0 Bft)
19.03.2019 22:02 -1,8 °C 91 % 1030,6 hPa 0,0 mm 0,0 km/h (0 Bft) S-SO 149 ° 0 min 0,000 mm 0,0 UV-I 0 W/m² -3,1 °C -1,8 °C 0,0 km/h (0 Bft)
19.03.2019 22:03 -1,8 °C 91 % 1030,7 hPa 0,0 mm 0,0 km/h (0 Bft) S-SO 149 ° 0 min 0,000 mm 0,0 UV-I 0 W/m² -3,1 °C -1,8 °C 0,0 km/h (0 Bft)
19.03.2019 22:04 -1,9 °C 91 % 1030,7 hPa 0,0 mm 0,0 km/h (0 Bft) S-SO 149 ° 0 min 0,000 mm 0,0 UV-I 0 W/m² -3,2 °C -1,9 °C 0,0 km/h (0 Bft)
19.03.2019 22:05 -1,9 °C 91 % 1030,6 hPa 0,0 mm 0,0 km/h (0 Bft) S-SO 149 ° 0 min 0,000 mm 0,0 UV-I 0 W/m² -3,2 °C -1,9 °C 0,0 km/h (0 Bft)
19.03.2019 22:06 -1,9 °C 91 % 1030,6 hPa 0,0 mm 0,0 km/h (0 Bft) S-SO 149 ° 0 min 0,000 mm 0,0 UV-I 0 W/m² -3,2 °C -1,9 °C 0,0 km/h (0 Bft)
19.03.2019 22:07 -2,1 °C 91 % 1030,6 hPa 0,0 mm 0,0 km/h (0 Bft) S-SO 149 ° 0 min 0,000 mm 0,0 UV-I 0 W/m² -3,4 °C -2,1 °C 0,0 km/h (0 Bft)
19.03.2019 22:08 -2,1 °C 91 % 1030,6 hPa 0,0 mm 0,0 km/h (0 Bft) S-SO 149 ° 0 min 0,000 mm 0,0 UV-I 0 W/m² -3,4 °C -2,1 °C 0,0 km/h (0 Bft)
19.03.2019 22:09 -2,1 °C 91 % 1030,6 hPa 0,0 mm 0,0 km/h (0 Bft) S-SO 149 ° 0 min 0,000 mm 0,0 UV-I 0 W/m² -3,4 °C -2,1 °C 0,0 km/h (0 Bft)
19.03.2019 22:10 -2,2 °C 91 % 1030,7 hPa 0,0 mm 0,0 km/h (0 Bft) S-SO 149 ° 0 min 0,000 mm 0,0 UV-I 0 W/m² -3,5 °C -2,2 °C 0,0 km/h (0 Bft)
19.03.2019 22:11 -2,1 °C 91 % 1030,7 hPa 0,0 mm 0,0 km/h (0 Bft) S-SO 149 ° 0 min 0,000 mm 0,0 UV-I 0 W/m² -3,4 °C -2,1 °C 0,0 km/h (0 Bft)
19.03.2019 22:12 -2,1 °C 91 % 1030,7 hPa 0,0 mm 0,0 km/h (0 Bft) S-SO 149 ° 0 min 0,000 mm 0,0 UV-I 0 W/m² -3,4 °C -2,1 °C 0,0 km/h (0 Bft)
19.03.2019 22:13 -2,1 °C 91 % 1030,7 hPa 0,0 mm 0,0 km/h (0 Bft) S-SO 149 ° 0 min 0,000 mm 0,0 UV-I 0 W/m² -3,4 °C -2,1 °C 0,0 km/h (0 Bft)
19.03.2019 22:14 -2,1 °C 91 % 1030,7 hPa 0,0 mm 0,0 km/h (0 Bft) S-SO 149 ° 0 min 0,000 mm 0,0 UV-I 0 W/m² -3,4 °C -2,1 °C 0,0 km/h (0 Bft)
19.03.2019 22:15 -2,1 °C 91 % 1030,8 hPa 0,0 mm 0,0 km/h (0 Bft) S-SO 149 ° 0 min 0,000 mm 0,0 UV-I 0 W/m² -3,4 °C -2,1 °C 0,0 km/h (0 Bft)
19.03.2019 22:16 -2,1 °C 91 % 1030,7 hPa 0,0 mm 0,0 km/h (0 Bft) S-SO 149 ° 0 min 0,000 mm 0,0 UV-I 0 W/m² -3,4 °C -2,1 °C 0,0 km/h (0 Bft)
19.03.2019 22:17 -2,1 °C 91 % 1030,7 hPa 0,0 mm 0,0 km/h (0 Bft) S-SO 149 ° 0 min 0,000 mm 0,0 UV-I 0 W/m² -3,4 °C -2,1 °C 0,0 km/h (0 Bft)
19.03.2019 22:18 -2,0 °C 91 % 1030,8 hPa 0,0 mm 0,0 km/h (0 Bft) S-SO 149 ° 0 min 0,000 mm 0,0 UV-I 0 W/m² -3,3 °C -2,0 °C 0,0 km/h (0 Bft)
19.03.2019 22:19 -2,0 °C 91 % 1030,8 hPa 0,0 mm 0,0 km/h (0 Bft) S-SO 149 ° 0 min 0,000 mm 0,0 UV-I 0 W/m² -3,3 °C -2,0 °C 0,0 km/h (0 Bft)
19.03.2019 22:20 -2,0 °C 91 % 1030,9 hPa 0,0 mm 0,0 km/h (0 Bft) S-SO 149 ° 0 min 0,000 mm 0,0 UV-I 0 W/m² -3,3 °C -2,0 °C 0,0 km/h (0 Bft)
19.03.2019 22:21 -2,0 °C 91 % 1030,9 hPa 0,0 mm 0,0 km/h (0 Bft) S-SO 149 ° 0 min 0,000 mm 0,0 UV-I 0 W/m² -3,3 °C -2,0 °C 0,0 km/h (0 Bft)
19.03.2019 22:22 -1,9 °C 91 % 1030,9 hPa 0,0 mm 0,0 km/h (0 Bft) S-SO 149 ° 0 min 0,000 mm 0,0 UV-I 0 W/m² -3,2 °C -1,9 °C 0,0 km/h (0 Bft)
19.03.2019 22:23 -1,9 °C 91 % 1030,9 hPa 0,0 mm 0,0 km/h (0 Bft) S-SO 149 ° 0 min 0,000 mm 0,0 UV-I 0 W/m² -3,2 °C -1,9 °C 0,0 km/h (0 Bft)
19.03.2019 22:24 -1,9 °C 91 % 1030,8 hPa 0,0 mm 0,0 km/h (0 Bft) S-SO 149 ° 0 min 0,000 mm 0,0 UV-I 0 W/m² -3,2 °C -1,9 °C 0,0 km/h (0 Bft)
19.03.2019 22:25 -1,9 °C 91 % 1030,9 hPa 0,0 mm 0,0 km/h (0 Bft) S-SO 149 ° 0 min 0,000 mm 0,0 UV-I 0 W/m² -3,2 °C -1,9 °C 0,0 km/h (0 Bft)
19.03.2019 22:26 -1,9 °C 91 % 1030,8 hPa 0,0 mm 0,0 km/h (0 Bft) S-SO 149 ° 0 min 0,000 mm 0,0 UV-I 0 W/m² -3,2 °C -1,9 °C 0,0 km/h (0 Bft)
19.03.2019 22:27 -1,8 °C 91 % 1030,8 hPa 0,0 mm 0,0 km/h (0 Bft) S-SO 149 ° 0 min 0,000 mm 0,0 UV-I 0 W/m² -3,1 °C -1,8 °C 0,0 km/h (0 Bft)
19.03.2019 22:28 -1,8 °C 91 % 1030,8 hPa 0,0 mm 0,0 km/h (0 Bft) S-SO 149 ° 0 min 0,000 mm 0,0 UV-I 0 W/m² -3,1 °C -1,8 °C 0,0 km/h (0 Bft)
19.03.2019 22:29 -1,8 °C 91 % 1030,9 hPa 0,0 mm 0,0 km/h (0 Bft) S-SO 149 ° 0 min 0,000 mm 0,0 UV-I 0 W/m² -3,1 °C -1,8 °C 0,0 km/h (0 Bft)
19.03.2019 22:30 -1,8 °C 91 % 1030,8 hPa 0,0 mm 0,0 km/h (0 Bft) S-SO 149 ° 0 min 0,000 mm 0,0 UV-I 0 W/m² -3,1 °C -1,8 °C 0,0 km/h (0 Bft)
19.03.2019 22:31 -1,8 °C 91 % 1030,8 hPa 0,0 mm 0,0 km/h (0 Bft) S-SO 149 ° 0 min 0,000 mm 0,0 UV-I 0 W/m² -3,1 °C -1,8 °C 0,0 km/h (0 Bft)
19.03.2019 22:32 -1,8 °C 91 % 1030,9 hPa 0,0 mm 0,0 km/h (0 Bft) S-SO 149 ° 0 min 0,000 mm 0,0 UV-I 0 W/m² -3,1 °C -1,8 °C 0,0 km/h (0 Bft)
19.03.2019 22:33 -1,8 °C 91 % 1030,9 hPa 0,0 mm 0,0 km/h (0 Bft) S-SO 149 ° 0 min 0,000 mm 0,0 UV-I 0 W/m² -3,1 °C -1,8 °C 0,0 km/h (0 Bft)
19.03.2019 22:34 -1,7 °C 91 % 1030,9 hPa 0,0 mm 0,0 km/h (0 Bft) S-SO 149 ° 0 min 0,000 mm 0,0 UV-I 0 W/m² -3,0 °C -1,7 °C 0,0 km/h (0 Bft)
19.03.2019 22:35 -1,7 °C 91 % 1030,9 hPa 0,0 mm 0,0 km/h (0 Bft) S-SO 149 ° 0 min 0,000 mm 0,0 UV-I 0 W/m² -3,0 °C -1,7 °C 0,0 km/h (0 Bft)
19.03.2019 22:36 -1,6 °C 91 % 1030,9 hPa 0,0 mm 0,0 km/h (0 Bft) S-SO 149 ° 0 min 0,000 mm 0,0 UV-I 0 W/m² -2,9 °C -1,6 °C 0,0 km/h (0 Bft)
19.03.2019 22:37 -1,6 °C 91 % 1030,9 hPa 0,0 mm 0,0 km/h (0 Bft) S-SO 149 ° 0 min 0,000 mm 0,0 UV-I 0 W/m² -2,9 °C -1,6 °C 0,0 km/h (0 Bft)
19.03.2019 22:38 -1,6 °C 91 % 1030,9 hPa 0,0 mm 0,0 km/h (0 Bft) S-SO 149 ° 0 min 0,000 mm 0,0 UV-I 0 W/m² -2,9 °C -1,6 °C 0,0 km/h (0 Bft)
19.03.2019 22:39 -1,5 °C 91 % 1030,8 hPa 0,0 mm 0,0 km/h (0 Bft) S-SO 149 ° 0 min 0,000 mm 0,0 UV-I 0 W/m² -2,8 °C -1,5 °C 0,0 km/h (0 Bft)
19.03.2019 22:40 -1,4 °C 91 % 1030,9 hPa 0,0 mm 0,0 km/h (0 Bft) S-SO 149 ° 0 min 0,000 mm 0,0 UV-I 0 W/m² -2,7 °C -1,4 °C 0,0 km/h (0 Bft)
19.03.2019 22:41 -1,4 °C 91 % 1030,9 hPa 0,0 mm 0,0 km/h (0 Bft) S-SO 149 ° 0 min 0,000 mm 0,0 UV-I 0 W/m² -2,7 °C -1,4 °C 0,0 km/h (0 Bft)
19.03.2019 22:42 -1,3 °C 91 % 1030,9 hPa 0,0 mm 0,0 km/h (0 Bft) S-SO 149 ° 0 min 0,000 mm 0,0 UV-I 0 W/m² -2,6 °C -1,3 °C 0,0 km/h (0 Bft)
19.03.2019 22:43 -1,3 °C 91 % 1030,9 hPa 0,0 mm 0,0 km/h (0 Bft) S-SO 149 ° 0 min 0,000 mm 0,0 UV-I 0 W/m² -2,6 °C -1,3 °C 0,0 km/h (0 Bft)
19.03.2019 22:44 -1,2 °C 91 % 1030,9 hPa 0,0 mm 0,0 km/h (0 Bft) S-SO 149 ° 0 min 0,000 mm 0,0 UV-I 0 W/m² -2,5 °C -1,2 °C 0,0 km/h (0 Bft)
19.03.2019 22:45 -1,1 °C 90 % 1030,9 hPa 0,0 mm 0,0 km/h (0 Bft) S-SO 149 ° 0 min 0,000 mm 0,0 UV-I 0 W/m² -2,5 °C -1,1 °C 0,0 km/h (0 Bft)
19.03.2019 22:46 -1,1 °C 91 % 1030,9 hPa 0,0 mm 0,0 km/h (0 Bft) S-SO 149 ° 0 min 0,000 mm 0,0 UV-I 0 W/m² -2,4 °C -1,1 °C 0,0 km/h (0 Bft)
19.03.2019 22:47 -1,0 °C 90 % 1030,9 hPa 0,0 mm 0,0 km/h (0 Bft) S-SO 149 ° 0 min 0,000 mm 0,0 UV-I 0 W/m² -2,4 °C -1,0 °C 0,0 km/h (0 Bft)
19.03.2019 22:48 -0,9 °C 90 % 1030,9 hPa 0,0 mm 0,0 km/h (0 Bft) S-SO 149 ° 0 min 0,000 mm 0,0 UV-I 0 W/m² -2,3 °C -0,9 °C 0,0 km/h (0 Bft)
19.03.2019 22:49 -0,9 °C 90 % 1031,0 hPa 0,0 mm 0,0 km/h (0 Bft) S-SO 149 ° 0 min 0,000 mm 0,0 UV-I 0 W/m² -2,3 °C -0,9 °C 0,0 km/h (0 Bft)
19.03.2019 22:50 -0,9 °C 90 % 1031,0 hPa 0,0 mm 0,0 km/h (0 Bft) S-SO 149 ° 0 min 0,000 mm 0,0 UV-I 0 W/m² -2,3 °C -0,9 °C 0,0 km/h (0 Bft)
19.03.2019 22:51 -0,8 °C 89 % 1031,0 hPa 0,0 mm 0,0 km/h (0 Bft) S-SO 149 ° 0 min 0,000 mm 0,0 UV-I 0 W/m² -2,4 °C -0,8 °C 0,0 km/h (0 Bft)
19.03.2019 22:52 -0,8 °C 89 % 1031,0 hPa 0,0 mm 0,0 km/h (0 Bft) S-SO 149 ° 0 min 0,000 mm 0,0 UV-I 0 W/m² -2,4 °C -0,8 °C 0,0 km/h (0 Bft)
19.03.2019 22:53 -0,8 °C 89 % 1031,0 hPa 0,0 mm 0,0 km/h (0 Bft) S-SO 149 ° 0 min 0,000 mm 0,0 UV-I 0 W/m² -2,4 °C -0,8 °C 0,0 km/h (0 Bft)
19.03.2019 22:54 -0,8 °C 89 % 1031,0 hPa 0,0 mm 0,0 km/h (0 Bft) S-SO 149 ° 0 min 0,000 mm 0,0 UV-I 0 W/m² -2,4 °C -0,8 °C 0,0 km/h (0 Bft)
19.03.2019 22:55 -0,9 °C 89 % 1031,0 hPa 0,0 mm 0,0 km/h (0 Bft) S-SO 149 ° 0 min 0,000 mm 0,0 UV-I 0 W/m² -2,5 °C -0,9 °C 0,0 km/h (0 Bft)
19.03.2019 22:56 -0,9 °C 89 % 1031,1 hPa 0,0 mm 0,0 km/h (0 Bft) S-SO 149 ° 0 min 0,000 mm 0,0 UV-I 0 W/m² -2,5 °C -0,9 °C 0,0 km/h (0 Bft)
19.03.2019 22:57 -1,0 °C 89 % 1031,1 hPa 0,0 mm 0,0 km/h (0 Bft) S-SO 149 ° 0 min 0,000 mm 0,0 UV-I 0 W/m² -2,6 °C -1,0 °C 0,0 km/h (0 Bft)
19.03.2019 22:58 -1,0 °C 89 % 1031,1 hPa 0,0 mm 0,0 km/h (0 Bft) S-SO 149 ° 0 min 0,000 mm 0,0 UV-I 0 W/m² -2,6 °C -1,0 °C 0,0 km/h (0 Bft)
19.03.2019 22:59 -1,0 °C 89 % 1031,1 hPa 0,0 mm 0,0 km/h (0 Bft) S-SO 149 ° 0 min 0,000 mm 0,0 UV-I 0 W/m² -2,6 °C -1,0 °C 0,0 km/h (0 Bft)
19.03.2019 23:00 -1,0 °C 89 % 1031,1 hPa 0,0 mm 0,0 km/h (0 Bft) S-SO 149 ° 0 min 0,000 mm 0,0 UV-I 0 W/m² -2,6 °C -1,0 °C 0,0 km/h (0 Bft)
19.03.2019 23:01 -1,0 °C 89 % 1031,1 hPa 0,0 mm 0,0 km/h (0 Bft) S-SO 149 ° 0 min 0,000 mm 0,0 UV-I 0 W/m² -2,6 °C -1,0 °C 0,0 km/h (0 Bft)
19.03.2019 23:02 -1,0 °C 89 % 1031,1 hPa 0,0 mm 0,0 km/h (0 Bft) S-SO 149 ° 0 min 0,000 mm 0,0 UV-I 0 W/m² -2,6 °C -1,0 °C 0,0 km/h (0 Bft)
19.03.2019 23:03 -1,0 °C 89 % 1031,1 hPa 0,0 mm 0,0 km/h (0 Bft) S-SO 149 ° 0 min 0,000 mm 0,0 UV-I 0 W/m² -2,6 °C -1,0 °C 0,0 km/h (0 Bft)
19.03.2019 23:04 -0,9 °C 89 % 1031,0 hPa 0,0 mm 0,0 km/h (0 Bft) S-SO 149 ° 0 min 0,000 mm 0,0 UV-I 0 W/m² -2,5 °C -0,9 °C 0,0 km/h (0 Bft)
19.03.2019 23:05 -0,9 °C 89 % 1031,1 hPa 0,0 mm 0,0 km/h (0 Bft) S-SO 149 ° 0 min 0,000 mm 0,0 UV-I 0 W/m² -2,5 °C -0,9 °C 0,0 km/h (0 Bft)
19.03.2019 23:06 -0,9 °C 89 % 1031,0 hPa 0,0 mm 0,0 km/h (0 Bft) S-SO 149 ° 0 min 0,000 mm 0,0 UV-I 0 W/m² -2,5 °C -0,9 °C 0,0 km/h (0 Bft)
19.03.2019 23:07 -0,9 °C 89 % 1031,1 hPa 0,0 mm 0,0 km/h (0 Bft) S-SO 149 ° 0 min 0,000 mm 0,0 UV-I 0 W/m² -2,5 °C -0,9 °C 0,0 km/h (0 Bft)
19.03.2019 23:08 -0,9 °C 89 % 1031,1 hPa 0,0 mm 0,0 km/h (0 Bft) S-SO 149 ° 0 min 0,000 mm 0,0 UV-I 0 W/m² -2,5 °C -0,9 °C 0,0 km/h (0 Bft)
19.03.2019 23:09 -1,0 °C 88 % 1031,1 hPa 0,0 mm 0,0 km/h (0 Bft) S-SO 149 ° 0 min 0,000 mm 0,0 UV-I 0 W/m² -2,7 °C -1,0 °C 0,0 km/h (0 Bft)
19.03.2019 23:10 -1,1 °C 89 % 1031,1 hPa 0,0 mm 0,0 km/h (0 Bft) S-SO 149 ° 0 min 0,000 mm 0,0 UV-I 0 W/m² -2,7 °C -1,1 °C 0,0 km/h (0 Bft)
19.03.2019 23:11 -1,1 °C 88 % 1031,1 hPa 0,0 mm 0,0 km/h (0 Bft) S-SO 149 ° 0 min 0,000 mm 0,0 UV-I 0 W/m² -2,8 °C -1,1 °C 0,0 km/h (0 Bft)
19.03.2019 23:12 -1,2 °C 88 % 1031,1 hPa 0,0 mm 0,0 km/h (0 Bft) S-SO 149 ° 0 min 0,000 mm 0,0 UV-I 0 W/m² -2,9 °C -1,2 °C 0,0 km/h (0 Bft)
19.03.2019 23:13 -1,2 °C 88 % 1031,1 hPa 0,0 mm 0,0 km/h (0 Bft) S-SO 149 ° 0 min 0,000 mm 0,0 UV-I 0 W/m² -2,9 °C -1,2 °C 0,0 km/h (0 Bft)
19.03.2019 23:14 -1,2 °C 88 % 1031,1 hPa 0,0 mm 0,0 km/h (0 Bft) S-SO 149 ° 0 min 0,000 mm 0,0 UV-I 0 W/m² -2,9 °C -1,2 °C 0,0 km/h (0 Bft)
19.03.2019 23:15 -1,3 °C 88 % 1031,1 hPa 0,0 mm 0,0 km/h (0 Bft) S-SO 149 ° 0 min 0,000 mm 0,0 UV-I 0 W/m² -3,0 °C -1,3 °C 0,0 km/h (0 Bft)
19.03.2019 23:16 -1,3 °C 88 % 1031,1 hPa 0,0 mm 0,0 km/h (0 Bft) S-SO 149 ° 0 min 0,000 mm 0,0 UV-I 0 W/m² -3,0 °C -1,3 °C 0,0 km/h (0 Bft)
19.03.2019 23:17 -1,3 °C 88 % 1031,1 hPa 0,0 mm 0,0 km/h (0 Bft) S-SO 149 ° 0 min 0,000 mm 0,0 UV-I 0 W/m² -3,0 °C -1,3 °C 0,0 km/h (0 Bft)
19.03.2019 23:18 -1,3 °C 88 % 1031,1 hPa 0,0 mm 0,0 km/h (0 Bft) S-SO 149 ° 0 min 0,000 mm 0,0 UV-I 0 W/m² -3,0 °C -1,3 °C 0,0 km/h (0 Bft)
19.03.2019 23:19 -1,3 °C 88 % 1031,1 hPa 0,0 mm 0,0 km/h (0 Bft) S-SO 149 ° 0 min 0,000 mm 0,0 UV-I 0 W/m² -3,0 °C -1,3 °C 0,0 km/h (0 Bft)
19.03.2019 23:20 -1,4 °C 88 % 1031,2 hPa 0,0 mm 0,0 km/h (0 Bft) S-SO 149 ° 0 min 0,000 mm 0,0 UV-I 0 W/m² -3,1 °C -1,4 °C 0,0 km/h (0 Bft)
19.03.2019 23:21 -1,4 °C 88 % 1031,1 hPa 0,0 mm 0,0 km/h (0 Bft) S-SO 149 ° 0 min 0,000 mm 0,0 UV-I 0 W/m² -3,1 °C -1,4 °C 0,0 km/h (0 Bft)
19.03.2019 23:22 -1,4 °C 89 % 1031,2 hPa 0,0 mm 0,0 km/h (0 Bft) S-SO 149 ° 0 min 0,000 mm 0,0 UV-I 0 W/m² -3,0 °C -1,4 °C 0,0 km/h (0 Bft)
19.03.2019 23:23 -1,4 °C 89 % 1031,2 hPa 0,0 mm 0,0 km/h (0 Bft) S-SO 149 ° 0 min 0,000 mm 0,0 UV-I 0 W/m² -3,0 °C -1,4 °C 0,0 km/h (0 Bft)
19.03.2019 23:24 -1,5 °C 89 % 1031,2 hPa 0,0 mm 0,0 km/h (0 Bft) S-SO 149 ° 0 min 0,000 mm 0,0 UV-I 0 W/m² -3,1 °C -1,5 °C 0,0 km/h (0 Bft)
19.03.2019 23:25 -1,4 °C 89 % 1031,1 hPa 0,0 mm 0,0 km/h (0 Bft) S-SO 149 ° 0 min 0,000 mm 0,0 UV-I 0 W/m² -3,0 °C -1,4 °C 0,0 km/h (0 Bft)
19.03.2019 23:26 -1,4 °C 89 % 1031,1 hPa 0,0 mm 0,0 km/h (0 Bft) S-SO 149 ° 0 min 0,000 mm 0,0 UV-I 0 W/m² -3,0 °C -1,4 °C 0,0 km/h (0 Bft)
19.03.2019 23:27 -1,4 °C 89 % 1031,2 hPa 0,0 mm 0,0 km/h (0 Bft) S-SO 149 ° 0 min 0,000 mm 0,0 UV-I 0 W/m² -3,0 °C -1,4 °C 0,0 km/h (0 Bft)
19.03.2019 23:28 -1,4 °C 89 % 1031,2 hPa 0,0 mm 0,0 km/h (0 Bft) S-SO 149 ° 0 min 0,000 mm 0,0 UV-I 0 W/m² -3,0 °C -1,4 °C 0,0 km/h (0 Bft)
19.03.2019 23:29 -1,4 °C 89 % 1031,2 hPa 0,0 mm 0,0 km/h (0 Bft) S-SO 149 ° 0 min 0,000 mm 0,0 UV-I 0 W/m² -3,0 °C -1,4 °C 0,0 km/h (0 Bft)
19.03.2019 23:30 -1,4 °C 89 % 1031,3 hPa 0,0 mm 0,0 km/h (0 Bft) S-SO 149 ° 0 min 0,000 mm 0,0 UV-I 0 W/m² -3,0 °C -1,4 °C 0,0 km/h (0 Bft)
19.03.2019 23:31 -1,4 °C 89 % 1031,2 hPa 0,0 mm 0,0 km/h (0 Bft) S-SO 149 ° 0 min 0,000 mm 0,0 UV-I 0 W/m² -3,0 °C -1,4 °C 0,0 km/h (0 Bft)
19.03.2019 23:32 -1,4 °C 89 % 1031,2 hPa 0,0 mm 0,0 km/h (0 Bft) S-SO 149 ° 0 min 0,000 mm 0,0 UV-I 0 W/m² -3,0 °C -1,4 °C 0,0 km/h (0 Bft)
19.03.2019 23:33 -1,4 °C 89 % 1031,2 hPa 0,0 mm 0,0 km/h (0 Bft) S-SO 149 ° 0 min 0,000 mm 0,0 UV-I 0 W/m² -3,0 °C -1,4 °C 0,0 km/h (0 Bft)
19.03.2019 23:34 -1,5 °C 88 % 1031,2 hPa 0,0 mm 0,0 km/h (0 Bft) S-SO 149 ° 0 min 0,000 mm 0,0 UV-I 0 W/m² -3,2 °C -1,5 °C 0,0 km/h (0 Bft)
19.03.2019 23:35 -1,6 °C 88 % 1031,3 hPa 0,0 mm 0,0 km/h (0 Bft) S-SO 149 ° 0 min 0,000 mm 0,0 UV-I 0 W/m² -3,3 °C -1,6 °C 0,0 km/h (0 Bft)
19.03.2019 23:36 -1,6 °C 88 % 1031,2 hPa 0,0 mm 0,0 km/h (0 Bft) S-SO 149 ° 0 min 0,000 mm 0,0 UV-I 0 W/m² -3,3 °C -1,6 °C 0,0 km/h (0 Bft)
19.03.2019 23:37 -1,6 °C 88 % 1031,2 hPa 0,0 mm 0,0 km/h (0 Bft) S-SO 149 ° 0 min 0,000 mm 0,0 UV-I 0 W/m² -3,3 °C -1,6 °C 0,0 km/h (0 Bft)
19.03.2019 23:38 -1,7 °C 88 % 1031,2 hPa 0,0 mm 0,0 km/h (0 Bft) S-SO 149 ° 0 min 0,000 mm 0,0 UV-I 0 W/m² -3,4 °C -1,7 °C 0,0 km/h (0 Bft)
19.03.2019 23:39 -1,7 °C 89 % 1031,1 hPa 0,0 mm 0,0 km/h (0 Bft) S-SO 149 ° 0 min 0,000 mm 0,0 UV-I 0 W/m² -3,3 °C -1,7 °C 0,0 km/h (0 Bft)
19.03.2019 23:40 -1,7 °C 89 % 1031,2 hPa 0,0 mm 0,0 km/h (0 Bft) S-SO 149 ° 0 min 0,000 mm 0,0 UV-I 0 W/m² -3,3 °C -1,7 °C 0,0 km/h (0 Bft)
19.03.2019 23:41 -1,6 °C 89 % 1031,3 hPa 0,0 mm 0,0 km/h (0 Bft) S-SO 149 ° 0 min 0,000 mm 0,0 UV-I 0 W/m² -3,2 °C -1,6 °C 0,0 km/h (0 Bft)
19.03.2019 23:42 -1,6 °C 89 % 1031,2 hPa 0,0 mm 0,0 km/h (0 Bft) S-SO 149 ° 0 min 0,000 mm 0,0 UV-I 0 W/m² -3,2 °C -1,6 °C 0,0 km/h (0 Bft)
19.03.2019 23:43 -1,6 °C 89 % 1031,2 hPa 0,0 mm 0,0 km/h (0 Bft) S-SO 149 ° 0 min 0,000 mm 0,0 UV-I 0 W/m² -3,2 °C -1,6 °C 0,0 km/h (0 Bft)
19.03.2019 23:44 -1,6 °C 89 % 1031,3 hPa 0,0 mm 0,0 km/h (0 Bft) S-SO 149 ° 0 min 0,000 mm 0,0 UV-I 0 W/m² -3,2 °C -1,6 °C 0,0 km/h (0 Bft)
19.03.2019 23:45 -1,6 °C 89 % 1031,3 hPa 0,0 mm 0,0 km/h (0 Bft) S-SO 149 ° 0 min 0,000 mm 0,0 UV-I 0 W/m² -3,2 °C -1,6 °C 0,0 km/h (0 Bft)
19.03.2019 23:46 -1,6 °C 89 % 1031,3 hPa 0,0 mm 0,0 km/h (0 Bft) S-SO 149 ° 0 min 0,000 mm 0,0 UV-I 0 W/m² -3,2 °C -1,6 °C 0,0 km/h (0 Bft)
19.03.2019 23:47 -1,6 °C 89 % 1031,3 hPa 0,0 mm 0,0 km/h (0 Bft) S-SO 149 ° 0 min 0,000 mm 0,0 UV-I 0 W/m² -3,2 °C -1,6 °C 0,0 km/h (0 Bft)
19.03.2019 23:48 -1,6 °C 89 % 1031,3 hPa 0,0 mm 0,0 km/h (0 Bft) S-SO 149 ° 0 min 0,000 mm 0,0 UV-I 0 W/m² -3,2 °C -1,6 °C 0,0 km/h (0 Bft)
19.03.2019 23:49 -1,7 °C 89 % 1031,3 hPa 0,0 mm 0,0 km/h (0 Bft) S-SO 149 ° 0 min 0,000 mm 0,0 UV-I 0 W/m² -3,3 °C -1,7 °C 0,0 km/h (0 Bft)
19.03.2019 23:50 -1,7 °C 89 % 1031,4 hPa 0,0 mm 0,0 km/h (0 Bft) S-SO 149 ° 0 min 0,000 mm 0,0 UV-I 0 W/m² -3,3 °C -1,7 °C 0,0 km/h (0 Bft)
19.03.2019 23:51 -1,7 °C 89 % 1031,4 hPa 0,0 mm 0,0 km/h (0 Bft) S-SO 149 ° 0 min 0,000 mm 0,0 UV-I 0 W/m² -3,3 °C -1,7 °C 0,0 km/h (0 Bft)
19.03.2019 23:52 -1,7 °C 89 % 1031,4 hPa 0,0 mm 0,0 km/h (0 Bft) S-SO 149 ° 0 min 0,000 mm 0,0 UV-I 0 W/m² -3,3 °C -1,7 °C 0,0 km/h (0 Bft)
19.03.2019 23:53 -1,7 °C 89 % 1031,3 hPa 0,0 mm 0,0 km/h (0 Bft) S-SO 149 ° 0 min 0,000 mm 0,0 UV-I 0 W/m² -3,3 °C -1,7 °C 0,0 km/h (0 Bft)
19.03.2019 23:54 -1,6 °C 89 % 1031,4 hPa 0,0 mm 0,0 km/h (0 Bft) S-SO 149 ° 0 min 0,000 mm 0,0 UV-I 0 W/m² -3,2 °C -1,6 °C 0,0 km/h (0 Bft)
19.03.2019 23:55 -1,6 °C 89 % 1031,3 hPa 0,0 mm 0,0 km/h (0 Bft) S-SO 149 ° 0 min 0,000 mm 0,0 UV-I 0 W/m² -3,2 °C -1,6 °C 0,0 km/h (0 Bft)
19.03.2019 23:56 -1,6 °C 89 % 1031,4 hPa 0,0 mm 0,0 km/h (0 Bft) S-SO 149 ° 0 min 0,000 mm 0,0 UV-I 0 W/m² -3,2 °C -1,6 °C 0,0 km/h (0 Bft)
19.03.2019 23:57 -1,6 °C 89 % 1031,4 hPa 0,0 mm 0,0 km/h (0 Bft) S-SO 149 ° 0 min 0,000 mm 0,0 UV-I 0 W/m² -3,2 °C -1,6 °C 0,0 km/h (0 Bft)
19.03.2019 23:58 -1,4 °C 89 % 1031,4 hPa 0,0 mm 0,0 km/h (0 Bft) S-SO 149 ° 0 min 0,000 mm 0,0 UV-I 0 W/m² -3,0 °C -1,4 °C 0,0 km/h (0 Bft)
19.03.2019 23:59 -1,4 °C 89 % 1031,4 hPa 0,0 mm 0,0 km/h (0 Bft) S-SO 149 ° 0 min 0,000 mm 0,0 UV-I 0 W/m² -3,0 °C -1,4 °C 0,0 km/h (0 Bft)
_ Min-Zeit 22:10 13:23 00:18 - 23:59 - - - - - - 22:10 02:56 23:59
Minimum _ -2,2 °C 64 % 1023,6 hPa - 0,0 km/h (0 Bft) - - - - - - -3,5 °C -2,3 °C 0,0 km/h (0 Bft)
_ Max-Zeit 13:14 07:05 23:59 12:17 13:17 - - 13:17 13:01 13:00 13:11 11:54 13:15 13:17
Maximum _ 4,8 °C 92 % 1031,4 hPa 0,2 mm 10,0 km/h
O (2 Bft)
- - 1 min 0,178 mm 4,3 UV-I 912 W/m² 0,5 °C 4,7 °C 17,7 km/h
O (3 Bft)
Durchschnitt _ 0,7 °C 84 % 1026,8 hPa #1,0 mm 1,4 km/h (1 Bft) SW - #39 min. #0,787 mm 1,6 UV-I 84 W/m² -1,6 °C 0,6 °C 2,4 km/h (1 Bft)